GFSCGP_prec_precacc24_027.txt.gz
Total_Precipitation_Accumulation
0.00 0.00 0.00 0.00 0.00 0.00 0.00 0.00 0.00 0.00 0.00 0.00 0.00 0.00 0.00 0.00 0.00 0.00 0.00 0.00 0.00 0.00 0.00 0.00 0.01 0.01 0.02 0.05 0.13 0.17 0.16 0.08 0.06 0.02 0.01 0.01 0.00 0.00 0.00 0.00 0.00 0.00 0.00 0.00
0.00 0.00 0.00 0.00 0.00 0.00 0.00 0.00 0.00 0.00 0.00 0.00 0.00 0.00 0.00 0.00 0.00 0.00 0.00 0.00 0.00 0.00 0.00 0.00 0.03 0.05 0.04 0.05 0.08 0.04 0.02 0.01 0.00 0.00 0.00 0.00 0.00 0.00 0.00 0.00 0.00 0.00 0.00 0.00
0.00 0.00 0.00 0.00 0.00 0.00 0.00 0.00 0.00 0.00 0.00 0.00 0.00 0.00 0.00 0.00 0.00 0.00 0.00 0.00 0.00 0.00 0.00 0.02 0.03 0.04 0.04 0.02 0.00 0.00 0.00 0.00 0.00 0.00 0.00 0.00 0.00 0.00 0.00 0.00 0.00 0.00 0.00 0.00
0.00 0.00 0.00 0.00 0.00 0.00 0.00 0.00 0.00 0.00 0.00 0.00 0.00 0.00 0.00 0.00 0.00 0.00 0.00 0.00 0.00 0.00 0.01 0.01 0.01 0.01 0.00 0.00 0.00 0.00 0.00 0.00 0.00 0.00 0.00 0.00 0.00 0.00 0.00 0.00 0.00 0.00 0.00 0.00
0.00 0.00 0.00 0.00 0.00 0.00 0.00 0.00 0.00 0.00 0.00 0.00 0.00 0.00 0.00 0.00 0.00 0.00 0.00 0.00 0.00 0.00 0.00 0.00 0.00 0.00 0.00 0.00 0.00 0.00 0.00 0.00 0.00 0.00 0.00 0.00 0.00 0.00 0.00 0.00 0.00 0.00 0.00 0.00
0.00 0.00 0.00 0.00 0.00 0.00 0.00 0.00 0.00 0.00 0.00 0.00 0.00 0.02 0.01 0.01 0.00 0.00 0.00 0.00 0.00 0.00 0.00 0.00 0.00 0.00 0.00 0.00 0.00 0.00 0.00 0.00 0.00 0.00 0.00 0.00 0.00 0.00 0.00 0.00 0.00 0.00 0.00 0.00
0.00 0.00 0.00 0.00 0.00 0.00 0.00 0.00 0.00 0.02 0.03 0.02 0.03 0.02 0.02 0.00 0.00 0.00 0.00 0.00 0.00 0.00 0.00 0.00 0.00 0.00 0.00 0.00 0.00 0.00 0.00 0.00 0.00 0.00 0.00 0.00 0.00 0.00 0.00 0.00 0.00 0.00 0.00 0.00
0.00 0.00 0.00 0.00 0.00 0.00 0.00 0.00 0.00 0.01 0.01 0.01 0.00 0.00 0.00 0.00 0.00 0.00 0.00 0.00 0.00 0.00 0.00 0.00 0.00 0.00 0.00 0.00 0.00 0.00 0.00 0.00 0.00 0.00 0.00 0.00 0.00 0.00 0.00 0.00 0.00 0.00 0.00 0.00
0.00 0.00 0.00 0.00 0.00 0.00 0.00 0.00 0.00 0.00 0.00 0.00 0.00 0.00 0.00 0.00 0.00 0.00 0.00 0.00 0.00 0.00 0.00 0.00 0.00 0.00 0.00 0.00 0.00 0.00 0.00 0.00 0.00 0.00 0.00 0.00 0.00 0.00 0.00 0.00 0.00 0.00 0.00 0.00
0.00 0.00 0.00 0.00 0.00 0.00 0.00 0.00 0.00 0.00 0.00 0.00 0.00 0.00 0.00 0.00 0.00 0.00 0.00 0.00 0.00 0.00 0.00 0.00 0.00 0.00 0.00 0.00 0.00 0.00 0.00 0.00 0.00 0.00 0.00 0.00 0.00 0.00 0.00 0.00 0.00 0.00 0.00 0.00
0.00 0.00 0.00 0.00 0.00 0.00 0.00 0.00 0.00 0.00 0.00 0.00 0.00 0.00 0.00 0.00 0.00 0.00 0.00 0.00 0.00 0.00 0.00 0.00 0.00 0.00 0.00 0.00 0.00 0.00 0.00 0.00 0.00 0.00 0.00 0.00 0.00 0.00 0.00 0.00 0.00 0.00 0.00 0.00
0.00 0.00 0.00 0.00 0.00 0.00 0.00 0.00 0.00 0.00 0.00 0.00 0.00 0.00 0.00 0.00 0.00 0.00 0.00 0.00 0.00 0.00 0.00 0.00 0.00 0.00 0.00 0.00 0.00 0.00 0.00 0.00 0.00 0.00 0.00 0.00 0.00 0.00 0.00 0.00 0.00 0.00 0.00 0.01
0.00 0.00 0.00 0.00 0.00 0.00 0.00 0.00 0.00 0.00 0.00 0.00 0.00 0.00 0.00 0.00 0.00 0.00 0.00 0.00 0.00 0.00 0.00 0.00 0.00 0.00 0.00 0.00 0.00 0.00 0.00 0.00 0.00 0.00 0.00 0.00 0.00 0.00 0.00 0.00 0.00 0.01 0.02 0.04
0.00 0.00 0.00 0.00 0.00 0.00 0.00 0.00 0.00 0.00 0.00 0.00 0.00 0.00 0.00 0.00 0.00 0.00 0.00 0.00 0.00 0.00 0.00 0.00 0.00 0.00 0.00 0.00 0.00 0.00 0.00 0.00 0.00 0.00 0.00 0.00 0.00 0.00 0.01 0.00 0.00 0.01 0.05 0.07
0.00 0.00 0.00 0.00 0.00 0.00 0.00 0.00 0.00 0.00 0.00 0.00 0.00 0.00 0.00 0.00 0.00 0.00 0.00 0.00 0.00 0.00 0.00 0.00 0.00 0.00 0.00 0.00 0.00 0.00 0.00 0.00 0.00 0.00 0.00 0.00 0.00 0.00 0.00 0.00 0.01 0.03 0.05 0.02
0.00 0.00 0.00 0.00 0.00 0.00 0.00 0.00 0.00 0.00 0.00 0.00 0.00 0.00 0.00 0.00 0.00 0.00 0.00 0.00 0.00 0.00 0.00 0.00 0.00 0.00 0.00 0.00 0.00 0.00 0.00 0.00 0.00 0.00 0.00 0.00 0.01 0.01 0.03 0.05 0.05 0.08 0.06 0.03
0.00 0.00 0.00 0.00 0.00 0.00 0.00 0.00 0.00 0.00 0.00 0.00 0.00 0.00 0.00 0.00 0.00 0.00 0.00 0.00 0.00 0.00 0.00 0.00 0.00 0.00 0.00 0.00 0.00 0.00 0.00 0.00 0.00 0.00 0.00 0.00 0.01 0.01 0.02 0.04 0.07 0.05 0.04 0.06
0.00 0.00 0.00 0.00 0.00 0.00 0.00 0.00 0.00 0.00 0.00 0.00 0.00 0.00 0.00 0.00 0.00 0.00 0.00 0.00 0.00 0.00 0.00 0.00 0.00 0.00 0.00 0.00 0.00 0.00 0.00 0.00 0.00 0.00 0.00 0.00 0.01 0.02 0.02 0.04 0.06 0.08 0.12 0.06
0.00 0.00 0.00 0.00 0.00 0.00 0.00 0.00 0.00 0.00 0.00 0.00 0.00 0.00 0.00 0.00 0.00 0.00 0.00 0.03 0.03 0.02 0.01 0.00 0.00 0.00 0.00 0.00 0.00 0.00 0.00 0.00 0.00 0.00 0.00 0.00 0.01 0.03 0.02 0.04 0.09 0.08 0.01 0.00
0.00 0.00 0.00 0.00 0.04 0.03 0.00 0.00 0.00 0.00 0.01 0.00 0.00 0.01 0.00 0.01 0.02 0.04 0.08 0.08 0.05 0.01 0.00 0.00 0.00 0.00 0.00 0.00 0.00 0.00 0.00 0.00 0.00 0.00 0.00 0.00 0.01 0.03 0.04 0.06 0.02 0.00 0.00 0.00
0.00 0.00 0.00 0.00 0.04 0.01 0.00 0.00 0.00 0.06 0.06 0.02 0.02 0.01 0.01 0.03 0.11 0.13 0.09 0.04 0.01 0.00 0.00 0.00 0.00 0.00 0.00 0.00 0.00 0.00 0.00 0.00 0.00 0.00 0.00 0.01 0.02 0.04 0.04 0.02 0.00 0.00 0.00 0.00
0.00 0.00 0.00 0.03 0.03 0.01 0.00 0.00 0.03 0.03 0.03 0.04 0.03 0.01 0.04 0.12 0.10 0.04 0.01 0.00 0.00 0.00 0.00 0.00 0.00 0.00 0.00 0.00 0.00 0.00 0.00 0.00 0.00 0.01 0.01 0.02 0.04 0.04 0.01 0.00 0.00 0.00 0.00 0.00
0.00 0.00 0.00 0.04 0.01 0.00 0.00 0.01 0.02 0.02 0.04 0.03 0.03 0.08 0.15 0.06 0.01 0.00 0.00 0.00 0.00 0.00 0.00 0.00 0.00 0.00 0.00 0.00 0.00 0.01 0.00 0.00 0.01 0.02 0.03 0.03 0.02 0.00 0.00 0.00 0.00 0.00 0.00 0.00
0.02 0.00 0.00 0.02 0.01 0.00 0.01 0.00 0.01 0.03 0.04 0.05 0.13 0.11 0.01 0.01 0.00 0.00 0.00 0.00 0.00 0.00 0.00 0.00 0.00 0.00 0.00 0.00 0.00 0.00 0.00 0.00 0.01 0.01 0.00 0.00 0.00 0.00 0.00 0.00 0.00 0.00 0.00 0.00
0.02 0.00 0.01 0.04 0.01 0.01 0.02 0.04 0.07 0.10 0.17 0.15 0.04 0.00 0.00 0.00 0.00 0.00 0.00 0.00 0.00 0.00 0.00 0.00 0.00 0.00 0.00 0.00 0.00 0.00 0.00 0.00 0.00 0.00 0.00 0.00 0.00 0.00 0.00 0.00 0.00 0.00 0.00 0.00
0.00 0.00 0.02 0.03 0.04 0.10 0.14 0.12 0.14 0.12 0.05 0.00 0.00 0.00 0.00 0.00 0.00 0.00 0.00 0.00 0.00 0.00 0.00 0.00 0.00 0.00 0.00 0.00 0.00 0.00 0.00 0.00 0.00 0.00 0.00 0.00 0.00 0.00 0.00 0.00 0.00 0.00 0.00 0.00

GFSCGP_prec_precacc24_030.txt.gz
Total_Precipitation_Accumulation
0.00 0.00 0.00 0.00 0.00 0.00 0.00 0.00 0.00 0.00 0.00 0.00 0.00 0.00 0.00 0.00 0.00 0.00 0.00 0.00 0.00 0.00 0.00 0.00 0.01 0.01 0.02 0.06 0.25 0.45 0.38 0.26 0.22 0.06 0.02 0.01 0.01 0.00 0.00 0.00 0.00 0.00 0.00 0.00
0.00 0.00 0.00 0.00 0.00 0.00 0.00 0.00 0.00 0.00 0.00 0.00 0.00 0.00 0.00 0.00 0.00 0.00 0.00 0.00 0.00 0.00 0.00 0.00 0.03 0.05 0.08 0.14 0.28 0.20 0.11 0.07 0.02 0.00 0.00 0.00 0.00 0.00 0.00 0.00 0.00 0.00 0.00 0.00
0.00 0.00 0.00 0.00 0.00 0.00 0.00 0.00 0.00 0.00 0.00 0.00 0.00 0.00 0.00 0.00 0.00 0.00 0.00 0.00 0.00 0.00 0.00 0.02 0.05 0.09 0.10 0.08 0.04 0.00 0.00 0.00 0.00 0.00 0.00 0.00 0.00 0.00 0.00 0.00 0.00 0.00 0.00 0.00
0.00 0.00 0.00 0.00 0.00 0.00 0.00 0.00 0.00 0.00 0.00 0.00 0.00 0.00 0.00 0.00 0.00 0.00 0.00 0.00 0.00 0.00 0.01 0.02 0.02 0.01 0.00 0.00 0.00 0.00 0.00 0.00 0.00 0.00 0.00 0.00 0.00 0.00 0.00 0.00 0.00 0.00 0.00 0.00
0.00 0.00 0.00 0.00 0.00 0.00 0.00 0.00 0.00 0.00 0.00 0.00 0.00 0.00 0.00 0.00 0.00 0.00 0.00 0.00 0.00 0.00 0.00 0.00 0.00 0.00 0.00 0.00 0.00 0.00 0.00 0.00 0.00 0.00 0.00 0.00 0.00 0.00 0.00 0.00 0.00 0.00 0.00 0.00
0.00 0.00 0.00 0.00 0.00 0.00 0.00 0.00 0.00 0.00 0.00 0.00 0.00 0.02 0.01 0.01 0.00 0.00 0.00 0.00 0.00 0.00 0.00 0.00 0.00 0.00 0.00 0.00 0.00 0.00 0.00 0.00 0.00 0.00 0.00 0.00 0.00 0.00 0.00 0.00 0.00 0.00 0.00 0.00
0.00 0.00 0.00 0.00 0.00 0.00 0.00 0.00 0.00 0.02 0.03 0.02 0.03 0.02 0.02 0.00 0.00 0.00 0.00 0.00 0.00 0.00 0.00 0.00 0.00 0.00 0.00 0.00 0.00 0.00 0.00 0.00 0.00 0.00 0.00 0.00 0.00 0.00 0.00 0.00 0.00 0.00 0.00 0.00
0.00 0.00 0.00 0.00 0.00 0.00 0.00 0.00 0.00 0.01 0.01 0.01 0.00 0.00 0.00 0.00 0.00 0.00 0.00 0.00 0.00 0.00 0.00 0.00 0.00 0.00 0.00 0.00 0.00 0.00 0.00 0.00 0.00 0.00 0.00 0.00 0.00 0.00 0.00 0.00 0.00 0.00 0.00 0.00
0.00 0.00 0.00 0.00 0.00 0.00 0.00 0.00 0.00 0.00 0.00 0.00 0.00 0.00 0.00 0.00 0.00 0.00 0.00 0.00 0.00 0.00 0.00 0.00 0.00 0.00 0.00 0.00 0.00 0.00 0.00 0.00 0.00 0.00 0.00 0.00 0.00 0.00 0.00 0.00 0.00 0.00 0.00 0.00
0.00 0.00 0.00 0.00 0.00 0.00 0.00 0.00 0.00 0.00 0.00 0.00 0.00 0.00 0.00 0.00 0.00 0.00 0.00 0.00 0.00 0.00 0.00 0.00 0.00 0.00 0.00 0.00 0.00 0.00 0.00 0.00 0.00 0.00 0.00 0.00 0.00 0.00 0.00 0.00 0.00 0.00 0.00 0.00
0.00 0.00 0.00 0.00 0.00 0.00 0.00 0.00 0.00 0.00 0.00 0.00 0.00 0.00 0.00 0.00 0.00 0.00 0.00 0.00 0.00 0.00 0.00 0.00 0.00 0.00 0.00 0.00 0.00 0.00 0.00 0.00 0.00 0.00 0.00 0.00 0.00 0.00 0.00 0.00 0.00 0.00 0.00 0.00
0.00 0.00 0.00 0.00 0.00 0.00 0.00 0.00 0.00 0.00 0.00 0.00 0.00 0.00 0.00 0.00 0.00 0.00 0.00 0.00 0.00 0.00 0.00 0.00 0.00 0.00 0.00 0.00 0.00 0.00 0.00 0.00 0.00 0.00 0.00 0.00 0.00 0.00 0.00 0.00 0.00 0.00 0.00 0.01
0.00 0.00 0.00 0.00 0.00 0.00 0.00 0.00 0.00 0.00 0.00 0.00 0.00 0.00 0.00 0.00 0.00 0.00 0.00 0.00 0.00 0.00 0.00 0.00 0.00 0.00 0.00 0.00 0.00 0.00 0.00 0.00 0.00 0.00 0.00 0.00 0.00 0.00 0.00 0.00 0.00 0.01 0.02 0.04
0.00 0.00 0.00 0.00 0.00 0.00 0.00 0.00 0.00 0.00 0.00 0.00 0.00 0.00 0.00 0.00 0.00 0.00 0.00 0.00 0.00 0.00 0.00 0.00 0.00 0.00 0.00 0.00 0.00 0.00 0.00 0.00 0.00 0.00 0.00 0.00 0.00 0.00 0.01 0.00 0.00 0.01 0.05 0.07
0.00 0.00 0.00 0.00 0.00 0.00 0.00 0.00 0.00 0.00 0.00 0.00 0.00 0.00 0.00 0.00 0.00 0.00 0.00 0.00 0.00 0.00 0.00 0.00 0.00 0.00 0.00 0.00 0.00 0.00 0.00 0.00 0.00 0.00 0.00 0.00 0.00 0.00 0.00 0.00 0.01 0.03 0.05 0.02
0.00 0.00 0.00 0.00 0.00 0.00 0.00 0.00 0.00 0.00 0.00 0.00 0.00 0.00 0.00 0.00 0.00 0.00 0.00 0.00 0.00 0.00 0.00 0.00 0.00 0.00 0.00 0.00 0.00 0.00 0.00 0.00 0.00 0.00 0.00 0.00 0.00 0.01 0.01 0.02 0.02 0.06 0.04 0.01
0.00 0.00 0.00 0.00 0.00 0.00 0.00 0.00 0.00 0.00 0.00 0.00 0.00 0.00 0.00 0.00 0.00 0.00 0.00 0.00 0.00 0.00 0.00 0.00 0.00 0.00 0.00 0.00 0.00 0.00 0.00 0.00 0.00 0.00 0.00 0.00 0.00 0.01 0.01 0.03 0.06 0.04 0.04 0.06
0.00 0.00 0.00 0.00 0.00 0.00 0.00 0.00 0.00 0.00 0.00 0.00 0.00 0.00 0.00 0.00 0.00 0.00 0.00 0.00 0.00 0.00 0.00 0.00 0.00 0.00 0.00 0.00 0.00 0.00 0.00 0.00 0.00 0.00 0.00 0.00 0.01 0.02 0.02 0.04 0.06 0.08 0.12 0.06
0.00 0.00 0.00 0.00 0.00 0.00 0.00 0.00 0.00 0.00 0.00 0.00 0.00 0.00 0.00 0.00 0.00 0.00 0.00 0.03 0.01 0.01 0.00 0.00 0.00 0.00 0.00 0.00 0.00 0.00 0.00 0.00 0.00 0.00 0.00 0.00 0.01 0.03 0.02 0.04 0.09 0.08 0.01 0.00
0.00 0.00 0.00 0.00 0.04 0.02 0.00 0.00 0.00 0.00 0.01 0.00 0.00 0.01 0.00 0.01 0.02 0.04 0.07 0.06 0.03 0.00 0.00 0.00 0.00 0.00 0.00 0.00 0.00 0.00 0.00 0.00 0.00 0.00 0.00 0.00 0.01 0.03 0.04 0.06 0.02 0.00 0.00 0.00
0.00 0.00 0.00 0.00 0.03 0.01 0.00 0.00 0.00 0.06 0.06 0.02 0.02 0.01 0.01 0.03 0.09 0.10 0.04 0.03 0.00 0.00 0.00 0.00 0.00 0.00 0.00 0.00 0.00 0.00 0.00 0.00 0.00 0.00 0.00 0.01 0.02 0.04 0.04 0.02 0.00 0.00 0.00 0.00
0.00 0.00 0.00 0.01 0.01 0.01 0.00 0.00 0.03 0.03 0.03 0.04 0.03 0.01 0.04 0.11 0.07 0.01 0.00 0.00 0.00 0.00 0.00 0.00 0.00 0.00 0.00 0.00 0.00 0.00 0.00 0.00 0.00 0.01 0.01 0.02 0.04 0.04 0.01 0.00 0.00 0.00 0.00 0.00
0.00 0.00 0.00 0.02 0.01 0.00 0.00 0.01 0.02 0.02 0.04 0.03 0.02 0.05 0.09 0.03 0.00 0.00 0.00 0.00 0.00 0.00 0.00 0.00 0.00 0.00 0.00 0.00 0.00 0.00 0.00 0.00 0.01 0.02 0.03 0.03 0.02 0.00 0.00 0.00 0.00 0.00 0.00 0.00
0.00 0.00 0.00 0.01 0.00 0.00 0.01 0.00 0.01 0.03 0.03 0.02 0.03 0.03 0.00 0.00 0.00 0.01 0.02 0.02 0.00 0.00 0.00 0.00 0.00 0.00 0.00 0.00 0.00 0.00 0.00 0.00 0.01 0.01 0.00 0.00 0.00 0.00 0.00 0.00 0.00 0.00 0.00 0.00
0.00 0.00 0.01 0.01 0.00 0.01 0.02 0.04 0.06 0.06 0.05 0.02 0.00 0.00 0.00 0.00 0.02 0.04 0.02 0.00 0.00 0.00 0.00 0.00 0.00 0.00 0.00 0.00 0.00 0.00 0.00 0.00 0.00 0.00 0.00 0.00 0.00 0.00 0.00 0.00 0.00 0.00 0.00 0.00
0.00 0.00 0.02 0.02 0.03 0.04 0.11 0.10 0.06 0.04 0.02 0.00 0.00 0.00 0.00 0.00 0.00 0.00 0.00 0.00 0.00 0.00 0.00 0.00 0.00 0.00 0.00 0.00 0.00 0.00 0.00 0.00 0.00 0.00 0.00 0.00 0.01 0.00 0.00 0.00 0.00 0.00 0.00 0.00

GFSCGP_prec_precacc24_033.txt.gz
Total_Precipitation_Accumulation
0.00 0.00 0.00 0.00 0.00 0.00 0.00 0.00 0.00 0.00 0.00 0.00 0.00 0.00 0.00 0.00 0.00 0.00 0.00 0.00 0.00 0.00 0.00 0.00 0.01 0.02 0.04 0.08 0.30 0.55 0.51 0.62 0.49 0.13 0.03 0.01 0.01 0.00 0.00 0.00 0.00 0.00 0.00 0.00
0.00 0.00 0.00 0.00 0.00 0.00 0.00 0.00 0.00 0.00 0.00 0.00 0.00 0.00 0.00 0.00 0.00 0.00 0.00 0.00 0.00 0.00 0.00 0.00 0.03 0.05 0.12 0.22 0.44 0.38 0.20 0.10 0.02 0.00 0.00 0.00 0.00 0.00 0.00 0.00 0.00 0.00 0.00 0.00
0.00 0.00 0.00 0.00 0.00 0.00 0.00 0.00 0.00 0.00 0.00 0.00 0.00 0.00 0.00 0.00 0.00 0.00 0.00 0.00 0.00 0.00 0.00 0.02 0.06 0.13 0.15 0.12 0.04 0.00 0.00 0.00 0.00 0.00 0.00 0.00 0.00 0.00 0.00 0.00 0.00 0.00 0.00 0.00
0.00 0.00 0.00 0.00 0.00 0.00 0.00 0.00 0.00 0.00 0.00 0.00 0.00 0.00 0.00 0.00 0.00 0.00 0.00 0.00 0.00 0.00 0.01 0.03 0.02 0.01 0.00 0.00 0.00 0.00 0.00 0.00 0.00 0.00 0.00 0.00 0.00 0.00 0.00 0.00 0.00 0.00 0.00 0.00
0.00 0.00 0.00 0.00 0.00 0.00 0.00 0.00 0.00 0.00 0.00 0.00 0.00 0.00 0.00 0.00 0.00 0.00 0.00 0.00 0.00 0.00 0.00 0.00 0.00 0.00 0.00 0.00 0.00 0.00 0.00 0.00 0.00 0.00 0.00 0.00 0.00 0.00 0.00 0.00 0.00 0.00 0.00 0.00
0.00 0.00 0.00 0.00 0.00 0.00 0.00 0.00 0.00 0.00 0.00 0.00 0.00 0.02 0.01 0.01 0.00 0.00 0.00 0.00 0.00 0.00 0.00 0.00 0.00 0.00 0.00 0.00 0.00 0.00 0.00 0.00 0.00 0.00 0.00 0.00 0.00 0.00 0.00 0.00 0.00 0.00 0.00 0.00
0.00 0.00 0.00 0.00 0.00 0.00 0.00 0.00 0.00 0.02 0.03 0.02 0.03 0.02 0.02 0.00 0.00 0.00 0.00 0.00 0.00 0.00 0.00 0.00 0.00 0.00 0.00 0.00 0.00 0.00 0.00 0.00 0.00 0.00 0.00 0.00 0.00 0.00 0.00 0.00 0.00 0.00 0.00 0.00
0.00 0.00 0.00 0.00 0.00 0.00 0.00 0.00 0.00 0.01 0.01 0.01 0.00 0.00 0.00 0.00 0.00 0.00 0.00 0.00 0.00 0.00 0.00 0.00 0.00 0.00 0.00 0.00 0.00 0.00 0.00 0.00 0.00 0.00 0.00 0.00 0.00 0.00 0.00 0.00 0.00 0.00 0.00 0.00
0.00 0.00 0.00 0.00 0.00 0.00 0.00 0.00 0.00 0.00 0.00 0.00 0.00 0.00 0.00 0.00 0.00 0.00 0.00 0.00 0.00 0.00 0.00 0.00 0.00 0.00 0.00 0.00 0.00 0.00 0.00 0.00 0.00 0.00 0.00 0.00 0.00 0.00 0.00 0.00 0.00 0.00 0.00 0.00
0.00 0.00 0.00 0.00 0.00 0.00 0.00 0.00 0.00 0.00 0.00 0.00 0.00 0.00 0.00 0.00 0.00 0.00 0.00 0.00 0.00 0.00 0.00 0.00 0.00 0.00 0.00 0.00 0.00 0.00 0.00 0.00 0.00 0.00 0.00 0.00 0.00 0.00 0.00 0.00 0.00 0.00 0.00 0.00
0.00 0.00 0.00 0.00 0.00 0.00 0.00 0.00 0.00 0.00 0.00 0.00 0.00 0.00 0.00 0.00 0.00 0.00 0.00 0.00 0.00 0.00 0.00 0.00 0.00 0.00 0.00 0.00 0.00 0.00 0.00 0.00 0.00 0.00 0.00 0.00 0.00 0.00 0.00 0.00 0.00 0.00 0.00 0.00
0.00 0.00 0.00 0.00 0.00 0.00 0.00 0.00 0.00 0.00 0.00 0.00 0.00 0.00 0.00 0.00 0.00 0.00 0.00 0.00 0.00 0.00 0.00 0.00 0.00 0.00 0.00 0.00 0.00 0.00 0.00 0.00 0.00 0.00 0.00 0.00 0.00 0.00 0.00 0.00 0.00 0.00 0.00 0.01
0.00 0.00 0.00 0.00 0.00 0.00 0.00 0.00 0.00 0.00 0.00 0.00 0.00 0.00 0.00 0.00 0.00 0.00 0.00 0.00 0.00 0.00 0.00 0.00 0.00 0.00 0.00 0.00 0.00 0.00 0.00 0.00 0.00 0.00 0.00 0.00 0.00 0.00 0.00 0.00 0.00 0.01 0.02 0.04
0.00 0.00 0.00 0.00 0.00 0.00 0.00 0.00 0.00 0.00 0.00 0.00 0.00 0.00 0.00 0.00 0.00 0.00 0.00 0.00 0.00 0.00 0.00 0.00 0.00 0.00 0.00 0.00 0.00 0.00 0.00 0.00 0.00 0.00 0.00 0.00 0.00 0.00 0.01 0.00 0.00 0.01 0.05 0.07
0.00 0.00 0.00 0.00 0.00 0.00 0.00 0.00 0.00 0.00 0.00 0.00 0.00 0.00 0.00 0.00 0.00 0.00 0.00 0.00 0.00 0.00 0.00 0.00 0.00 0.00 0.00 0.00 0.00 0.00 0.00 0.00 0.00 0.00 0.00 0.00 0.00 0.00 0.00 0.00 0.01 0.03 0.05 0.01
0.00 0.00 0.00 0.00 0.00 0.00 0.00 0.00 0.00 0.00 0.00 0.00 0.00 0.00 0.00 0.00 0.00 0.00 0.00 0.00 0.00 0.00 0.00 0.00 0.00 0.00 0.00 0.00 0.00 0.00 0.00 0.00 0.00 0.00 0.00 0.00 0.00 0.00 0.01 0.02 0.02 0.06 0.04 0.01
0.00 0.00 0.00 0.00 0.00 0.00 0.00 0.00 0.00 0.00 0.00 0.00 0.00 0.00 0.00 0.00 0.00 0.00 0.00 0.00 0.00 0.00 0.00 0.00 0.00 0.00 0.00 0.00 0.00 0.00 0.00 0.00 0.00 0.00 0.00 0.00 0.00 0.01 0.01 0.03 0.06 0.04 0.04 0.06
0.00 0.00 0.00 0.00 0.00 0.00 0.00 0.00 0.00 0.00 0.00 0.00 0.00 0.00 0.00 0.00 0.00 0.00 0.00 0.00 0.00 0.00 0.00 0.00 0.00 0.00 0.00 0.00 0.00 0.00 0.00 0.00 0.00 0.00 0.00 0.00 0.01 0.02 0.02 0.04 0.06 0.08 0.12 0.06
0.00 0.00 0.00 0.00 0.00 0.00 0.00 0.00 0.00 0.00 0.00 0.00 0.00 0.00 0.00 0.00 0.00 0.00 0.00 0.02 0.00 0.00 0.00 0.00 0.00 0.00 0.00 0.00 0.00 0.00 0.00 0.00 0.00 0.00 0.00 0.00 0.01 0.03 0.02 0.04 0.09 0.08 0.01 0.00
0.00 0.00 0.00 0.00 0.02 0.01 0.00 0.00 0.00 0.00 0.01 0.00 0.00 0.00 0.00 0.00 0.01 0.03 0.04 0.02 0.00 0.00 0.00 0.00 0.00 0.00 0.00 0.00 0.00 0.00 0.00 0.00 0.00 0.00 0.00 0.00 0.01 0.03 0.04 0.06 0.02 0.00 0.00 0.00
0.00 0.00 0.00 0.00 0.02 0.00 0.00 0.00 0.00 0.05 0.05 0.02 0.02 0.01 0.01 0.02 0.03 0.02 0.00 0.00 0.00 0.00 0.00 0.00 0.00 0.00 0.00 0.00 0.00 0.00 0.00 0.00 0.00 0.00 0.00 0.01 0.02 0.04 0.04 0.02 0.00 0.00 0.00 0.00
0.00 0.00 0.00 0.01 0.01 0.01 0.00 0.00 0.03 0.02 0.01 0.04 0.03 0.01 0.01 0.02 0.01 0.00 0.00 0.00 0.00 0.00 0.00 0.00 0.00 0.00 0.00 0.00 0.00 0.00 0.00 0.00 0.00 0.01 0.01 0.02 0.04 0.04 0.01 0.00 0.00 0.00 0.00 0.00
0.00 0.00 0.00 0.01 0.00 0.00 0.00 0.01 0.01 0.01 0.03 0.03 0.01 0.02 0.01 0.00 0.00 0.00 0.00 0.00 0.00 0.01 0.01 0.00 0.00 0.00 0.00 0.00 0.00 0.00 0.00 0.00 0.01 0.02 0.03 0.03 0.02 0.00 0.00 0.00 0.00 0.00 0.00 0.00
0.00 0.00 0.00 0.00 0.00 0.00 0.01 0.00 0.01 0.00 0.01 0.01 0.01 0.00 0.00 0.00 0.00 0.01 0.02 0.03 0.02 0.01 0.00 0.00 0.00 0.00 0.00 0.00 0.00 0.00 0.00 0.00 0.01 0.01 0.00 0.00 0.00 0.00 0.00 0.00 0.00 0.00 0.00 0.00
0.00 0.00 0.00 0.01 0.00 0.00 0.01 0.00 0.01 0.02 0.03 0.02 0.00 0.00 0.00 0.00 0.02 0.04 0.03 0.01 0.00 0.00 0.00 0.00 0.00 0.00 0.00 0.00 0.00 0.00 0.00 0.00 0.00 0.00 0.00 0.00 0.00 0.00 0.00 0.00 0.00 0.00 0.00 0.00
0.00 0.00 0.01 0.02 0.02 0.02 0.05 0.05 0.03 0.04 0.02 0.00 0.00 0.00 0.00 0.00 0.00 0.00 0.00 0.00 0.00 0.00 0.00 0.00 0.00 0.00 0.00 0.00 0.00 0.00 0.00 0.00 0.00 0.00 0.00 0.00 0.01 0.01 0.00 0.00 0.00 0.00 0.00 0.00

GFSCGP_prec_precacc24_036.txt.gz
Total_Precipitation_Accumulation
0.00 0.00 0.00 0.00 0.00 0.00 0.00 0.00 0.00 0.00 0.00 0.00 0.00 0.00 0.00 0.00 0.00 0.00 0.00 0.00 0.00 0.00 0.00 0.00 0.01 0.02 0.04 0.08 0.31 0.59 0.68 0.90 0.87 0.33 0.11 0.02 0.01 0.00 0.00 0.00 0.00 0.00 0.00 0.00
0.00 0.00 0.00 0.00 0.00 0.00 0.00 0.00 0.00 0.00 0.00 0.00 0.00 0.00 0.00 0.00 0.00 0.00 0.00 0.00 0.00 0.00 0.00 0.01 0.03 0.05 0.12 0.23 0.45 0.48 0.40 0.21 0.03 0.00 0.00 0.00 0.00 0.00 0.00 0.00 0.00 0.00 0.00 0.00
0.00 0.00 0.00 0.00 0.00 0.00 0.00 0.00 0.00 0.00 0.00 0.00 0.00 0.00 0.00 0.00 0.00 0.00 0.00 0.00 0.00 0.00 0.00 0.02 0.06 0.13 0.15 0.12 0.05 0.00 0.00 0.00 0.00 0.00 0.00 0.00 0.00 0.00 0.00 0.00 0.00 0.00 0.00 0.00
0.00 0.00 0.00 0.00 0.00 0.00 0.00 0.00 0.00 0.00 0.00 0.00 0.00 0.00 0.00 0.00 0.00 0.00 0.00 0.00 0.00 0.00 0.01 0.03 0.02 0.01 0.00 0.00 0.00 0.00 0.00 0.00 0.00 0.00 0.00 0.00 0.00 0.00 0.00 0.00 0.00 0.00 0.00 0.00
0.00 0.00 0.00 0.00 0.00 0.00 0.00 0.00 0.00 0.00 0.00 0.00 0.00 0.00 0.00 0.00 0.00 0.00 0.00 0.00 0.00 0.00 0.00 0.00 0.00 0.00 0.00 0.00 0.00 0.00 0.00 0.00 0.00 0.00 0.00 0.00 0.00 0.00 0.00 0.00 0.00 0.00 0.00 0.00
0.00 0.00 0.00 0.00 0.00 0.00 0.00 0.00 0.00 0.00 0.00 0.00 0.00 0.02 0.01 0.01 0.00 0.00 0.00 0.00 0.00 0.00 0.00 0.00 0.00 0.00 0.00 0.00 0.00 0.00 0.00 0.00 0.00 0.00 0.00 0.00 0.00 0.00 0.00 0.00 0.00 0.00 0.00 0.00
0.00 0.00 0.00 0.00 0.00 0.00 0.00 0.00 0.00 0.02 0.03 0.02 0.03 0.02 0.02 0.00 0.00 0.00 0.00 0.00 0.00 0.00 0.00 0.00 0.00 0.00 0.00 0.00 0.00 0.00 0.00 0.00 0.00 0.00 0.00 0.00 0.00 0.00 0.00 0.00 0.00 0.00 0.00 0.00
0.00 0.00 0.00 0.00 0.00 0.00 0.00 0.00 0.00 0.01 0.01 0.01 0.00 0.00 0.00 0.00 0.00 0.00 0.00 0.00 0.00 0.00 0.00 0.00 0.00 0.00 0.00 0.00 0.00 0.00 0.00 0.00 0.00 0.00 0.00 0.00 0.00 0.00 0.00 0.00 0.00 0.00 0.00 0.00
0.00 0.00 0.00 0.00 0.00 0.00 0.00 0.00 0.00 0.00 0.00 0.00 0.00 0.00 0.00 0.00 0.00 0.00 0.00 0.00 0.00 0.00 0.00 0.00 0.00 0.00 0.00 0.00 0.00 0.00 0.00 0.00 0.00 0.00 0.00 0.00 0.00 0.00 0.00 0.00 0.00 0.00 0.00 0.00
0.00 0.00 0.00 0.00 0.00 0.00 0.00 0.00 0.00 0.00 0.00 0.00 0.00 0.00 0.00 0.00 0.00 0.00 0.00 0.00 0.00 0.00 0.00 0.00 0.00 0.00 0.00 0.00 0.00 0.00 0.00 0.00 0.00 0.00 0.00 0.00 0.00 0.00 0.00 0.00 0.00 0.00 0.00 0.00
0.00 0.00 0.00 0.00 0.00 0.00 0.00 0.00 0.00 0.00 0.00 0.00 0.00 0.00 0.00 0.00 0.00 0.00 0.00 0.00 0.00 0.00 0.00 0.00 0.00 0.00 0.00 0.00 0.00 0.00 0.00 0.00 0.00 0.00 0.00 0.00 0.00 0.00 0.00 0.00 0.00 0.00 0.00 0.00
0.00 0.00 0.00 0.00 0.00 0.00 0.00 0.00 0.00 0.00 0.00 0.00 0.00 0.00 0.00 0.00 0.00 0.00 0.00 0.00 0.00 0.00 0.00 0.00 0.00 0.00 0.00 0.00 0.00 0.00 0.00 0.00 0.00 0.00 0.00 0.00 0.00 0.00 0.00 0.00 0.00 0.00 0.00 0.01
0.00 0.00 0.00 0.00 0.00 0.00 0.00 0.00 0.00 0.00 0.00 0.00 0.00 0.00 0.00 0.00 0.00 0.00 0.00 0.00 0.00 0.00 0.00 0.00 0.00 0.00 0.00 0.00 0.00 0.00 0.00 0.00 0.00 0.00 0.00 0.00 0.00 0.00 0.00 0.00 0.00 0.00 0.02 0.03
0.00 0.00 0.00 0.00 0.00 0.00 0.00 0.00 0.00 0.00 0.00 0.00 0.00 0.00 0.00 0.00 0.00 0.00 0.00 0.00 0.00 0.00 0.00 0.00 0.00 0.00 0.00 0.00 0.00 0.00 0.00 0.00 0.00 0.00 0.00 0.00 0.00 0.00 0.00 0.00 0.00 0.01 0.04 0.06
0.00 0.00 0.00 0.00 0.00 0.00 0.00 0.00 0.00 0.00 0.00 0.00 0.00 0.00 0.00 0.00 0.00 0.00 0.00 0.00 0.00 0.00 0.00 0.00 0.00 0.00 0.00 0.00 0.00 0.00 0.00 0.00 0.00 0.00 0.00 0.00 0.00 0.00 0.00 0.00 0.01 0.03 0.04 0.01
0.00 0.00 0.00 0.00 0.00 0.00 0.00 0.00 0.00 0.00 0.00 0.00 0.00 0.00 0.00 0.00 0.00 0.00 0.00 0.00 0.00 0.00 0.00 0.00 0.00 0.00 0.00 0.00 0.00 0.00 0.00 0.00 0.00 0.00 0.00 0.00 0.00 0.00 0.01 0.02 0.02 0.06 0.04 0.01
0.00 0.00 0.00 0.00 0.00 0.00 0.00 0.00 0.00 0.00 0.00 0.00 0.00 0.00 0.00 0.00 0.00 0.00 0.00 0.00 0.00 0.00 0.00 0.00 0.00 0.00 0.00 0.00 0.00 0.00 0.00 0.00 0.00 0.00 0.00 0.00 0.00 0.01 0.01 0.03 0.06 0.04 0.04 0.06
0.00 0.00 0.00 0.00 0.00 0.00 0.00 0.00 0.00 0.00 0.00 0.00 0.00 0.00 0.00 0.00 0.00 0.00 0.00 0.00 0.00 0.00 0.00 0.00 0.00 0.00 0.00 0.00 0.00 0.00 0.00 0.00 0.00 0.00 0.00 0.00 0.01 0.02 0.02 0.04 0.06 0.08 0.12 0.06
0.00 0.00 0.00 0.00 0.00 0.00 0.00 0.00 0.00 0.00 0.00 0.00 0.00 0.00 0.00 0.00 0.00 0.00 0.00 0.00 0.00 0.00 0.00 0.00 0.00 0.00 0.00 0.00 0.00 0.00 0.00 0.00 0.00 0.00 0.00 0.00 0.01 0.03 0.02 0.04 0.09 0.08 0.01 0.00
0.00 0.00 0.00 0.00 0.00 0.00 0.00 0.00 0.00 0.00 0.00 0.00 0.00 0.00 0.00 0.00 0.00 0.00 0.00 0.00 0.00 0.00 0.00 0.00 0.00 0.00 0.00 0.00 0.00 0.00 0.00 0.00 0.00 0.00 0.00 0.00 0.01 0.03 0.04 0.06 0.02 0.00 0.00 0.00
0.00 0.00 0.00 0.00 0.01 0.00 0.00 0.00 0.00 0.02 0.03 0.01 0.00 0.00 0.00 0.01 0.01 0.00 0.00 0.00 0.00 0.00 0.00 0.00 0.00 0.00 0.00 0.00 0.00 0.00 0.00 0.00 0.00 0.00 0.00 0.01 0.02 0.04 0.04 0.02 0.00 0.00 0.00 0.00
0.00 0.00 0.00 0.00 0.00 0.00 0.00 0.00 0.02 0.01 0.01 0.01 0.00 0.00 0.00 0.01 0.00 0.00 0.00 0.00 0.00 0.00 0.00 0.00 0.00 0.00 0.00 0.00 0.00 0.00 0.00 0.00 0.00 0.00 0.01 0.02 0.04 0.04 0.01 0.00 0.00 0.00 0.00 0.00
0.00 0.00 0.00 0.00 0.00 0.00 0.00 0.00 0.01 0.01 0.02 0.01 0.00 0.01 0.01 0.00 0.00 0.00 0.00 0.00 0.00 0.01 0.01 0.00 0.00 0.00 0.00 0.00 0.00 0.00 0.00 0.00 0.01 0.02 0.03 0.03 0.02 0.00 0.00 0.00 0.00 0.00 0.00 0.00
0.00 0.00 0.00 0.00 0.00 0.00 0.00 0.00 0.01 0.00 0.00 0.01 0.01 0.00 0.00 0.00 0.00 0.01 0.02 0.03 0.02 0.01 0.00 0.01 0.00 0.00 0.00 0.00 0.00 0.00 0.00 0.00 0.00 0.01 0.00 0.00 0.00 0.00 0.00 0.00 0.00 0.00 0.00 0.00
0.00 0.00 0.00 0.01 0.00 0.00 0.01 0.00 0.00 0.01 0.02 0.01 0.00 0.00 0.00 0.00 0.02 0.04 0.03 0.02 0.01 0.01 0.02 0.01 0.00 0.00 0.00 0.00 0.00 0.00 0.00 0.00 0.00 0.00 0.00 0.00 0.00 0.00 0.00 0.00 0.00 0.00 0.00 0.00
0.00 0.00 0.01 0.01 0.01 0.01 0.04 0.03 0.01 0.02 0.01 0.00 0.00 0.00 0.00 0.00 0.00 0.00 0.00 0.01 0.02 0.03 0.01 0.00 0.00 0.00 0.00 0.00 0.00 0.00 0.00 0.00 0.00 0.00 0.00 0.00 0.01 0.01 0.00 0.00 0.00 0.00 0.00 0.00

GFSCGP_prec_precacc24_039.txt.gz
Total_Precipitation_Accumulation
0.00 0.00 0.00 0.00 0.00 0.00 0.00 0.00 0.00 0.00 0.00 0.00 0.00 0.00 0.00 0.00 0.00 0.00 0.00 0.00 0.00 0.00 0.00 0.00 0.01 0.02 0.04 0.08 0.31 0.59 0.69 0.94 0.92 0.40 0.15 0.04 0.01 0.00 0.00 0.00 0.00 0.00 0.00 0.00
0.00 0.00 0.00 0.00 0.00 0.00 0.00 0.00 0.00 0.00 0.00 0.00 0.00 0.00 0.00 0.00 0.00 0.00 0.00 0.00 0.00 0.00 0.00 0.01 0.03 0.05 0.12 0.23 0.45 0.48 0.41 0.22 0.03 0.00 0.00 0.00 0.00 0.00 0.00 0.00 0.00 0.00 0.00 0.00
0.00 0.00 0.00 0.00 0.00 0.00 0.00 0.00 0.00 0.00 0.00 0.00 0.00 0.00 0.00 0.00 0.00 0.00 0.00 0.00 0.00 0.00 0.00 0.02 0.06 0.13 0.15 0.12 0.05 0.00 0.00 0.00 0.00 0.00 0.00 0.00 0.00 0.00 0.00 0.00 0.00 0.00 0.00 0.00
0.01 0.00 0.00 0.00 0.00 0.00 0.00 0.00 0.00 0.00 0.00 0.00 0.00 0.00 0.00 0.00 0.00 0.00 0.00 0.00 0.00 0.00 0.01 0.03 0.02 0.01 0.00 0.00 0.00 0.00 0.00 0.00 0.00 0.00 0.00 0.00 0.00 0.00 0.00 0.00 0.00 0.00 0.00 0.00
0.00 0.00 0.00 0.00 0.00 0.00 0.00 0.00 0.00 0.00 0.00 0.00 0.00 0.00 0.00 0.00 0.00 0.00 0.00 0.00 0.00 0.00 0.00 0.00 0.00 0.00 0.00 0.00 0.00 0.00 0.00 0.00 0.00 0.00 0.00 0.00 0.00 0.00 0.00 0.00 0.00 0.00 0.00 0.00
0.00 0.00 0.00 0.00 0.00 0.00 0.00 0.00 0.00 0.00 0.00 0.00 0.00 0.02 0.01 0.01 0.00 0.00 0.00 0.00 0.00 0.00 0.00 0.00 0.00 0.00 0.00 0.00 0.00 0.00 0.00 0.00 0.00 0.00 0.00 0.00 0.00 0.00 0.00 0.00 0.00 0.00 0.00 0.00
0.00 0.00 0.00 0.00 0.00 0.00 0.00 0.00 0.00 0.02 0.03 0.02 0.03 0.02 0.02 0.00 0.00 0.00 0.00 0.00 0.00 0.00 0.00 0.00 0.00 0.00 0.00 0.00 0.00 0.00 0.00 0.00 0.00 0.00 0.00 0.00 0.00 0.00 0.00 0.00 0.00 0.00 0.00 0.00
0.00 0.00 0.00 0.00 0.00 0.00 0.00 0.00 0.00 0.01 0.01 0.01 0.00 0.00 0.00 0.00 0.00 0.00 0.00 0.00 0.00 0.00 0.00 0.00 0.00 0.00 0.00 0.00 0.00 0.00 0.00 0.00 0.00 0.00 0.00 0.00 0.00 0.00 0.00 0.00 0.00 0.00 0.00 0.00
0.00 0.00 0.00 0.00 0.00 0.00 0.00 0.00 0.00 0.00 0.00 0.00 0.00 0.00 0.00 0.00 0.00 0.00 0.00 0.00 0.00 0.00 0.00 0.00 0.00 0.00 0.00 0.00 0.00 0.00 0.00 0.00 0.00 0.00 0.00 0.00 0.00 0.00 0.00 0.00 0.00 0.00 0.00 0.00
0.00 0.00 0.00 0.00 0.00 0.00 0.00 0.00 0.00 0.00 0.00 0.00 0.00 0.00 0.00 0.00 0.00 0.00 0.00 0.00 0.00 0.00 0.00 0.00 0.00 0.00 0.00 0.00 0.00 0.00 0.00 0.00 0.00 0.00 0.00 0.00 0.00 0.00 0.00 0.00 0.00 0.00 0.00 0.00
0.00 0.00 0.00 0.00 0.00 0.00 0.00 0.00 0.00 0.00 0.00 0.00 0.00 0.00 0.00 0.00 0.00 0.00 0.00 0.00 0.00 0.00 0.00 0.00 0.00 0.00 0.00 0.00 0.00 0.00 0.00 0.00 0.00 0.00 0.00 0.00 0.00 0.00 0.00 0.00 0.00 0.00 0.00 0.00
0.00 0.00 0.00 0.00 0.00 0.00 0.00 0.00 0.00 0.00 0.00 0.00 0.00 0.00 0.00 0.00 0.00 0.00 0.00 0.00 0.00 0.00 0.00 0.00 0.00 0.00 0.00 0.00 0.00 0.00 0.00 0.00 0.00 0.00 0.00 0.00 0.00 0.00 0.00 0.00 0.00 0.00 0.00 0.00
0.00 0.00 0.00 0.00 0.00 0.00 0.00 0.00 0.00 0.00 0.00 0.00 0.00 0.00 0.00 0.00 0.00 0.00 0.00 0.00 0.00 0.00 0.00 0.00 0.00 0.00 0.00 0.00 0.00 0.00 0.00 0.00 0.00 0.00 0.00 0.00 0.00 0.00 0.00 0.00 0.00 0.00 0.00 0.01
0.00 0.00 0.00 0.00 0.00 0.00 0.00 0.00 0.00 0.00 0.00 0.00 0.00 0.00 0.00 0.00 0.00 0.00 0.00 0.00 0.00 0.00 0.00 0.00 0.00 0.00 0.00 0.00 0.00 0.00 0.00 0.00 0.00 0.00 0.00 0.00 0.00 0.00 0.00 0.00 0.00 0.01 0.04 0.05
0.00 0.00 0.00 0.00 0.00 0.00 0.00 0.00 0.00 0.00 0.00 0.00 0.00 0.00 0.00 0.00 0.00 0.00 0.00 0.00 0.00 0.00 0.00 0.00 0.00 0.00 0.00 0.00 0.00 0.00 0.00 0.00 0.00 0.00 0.00 0.00 0.00 0.00 0.00 0.00 0.01 0.03 0.04 0.01
0.00 0.00 0.00 0.00 0.00 0.00 0.00 0.00 0.00 0.00 0.00 0.00 0.00 0.00 0.00 0.00 0.00 0.00 0.00 0.00 0.00 0.00 0.00 0.00 0.00 0.00 0.00 0.00 0.00 0.00 0.00 0.00 0.00 0.00 0.00 0.00 0.00 0.00 0.01 0.02 0.02 0.06 0.04 0.01
0.00 0.00 0.00 0.00 0.00 0.00 0.00 0.00 0.00 0.00 0.00 0.00 0.00 0.00 0.00 0.00 0.00 0.00 0.00 0.00 0.00 0.00 0.00 0.00 0.00 0.00 0.00 0.00 0.00 0.00 0.00 0.00 0.00 0.00 0.00 0.00 0.00 0.01 0.01 0.03 0.06 0.04 0.04 0.06
0.00 0.00 0.00 0.00 0.00 0.00 0.00 0.00 0.00 0.00 0.00 0.00 0.00 0.00 0.00 0.00 0.00 0.00 0.00 0.00 0.00 0.00 0.00 0.00 0.00 0.00 0.00 0.00 0.00 0.00 0.00 0.00 0.00 0.00 0.00 0.00 0.01 0.02 0.02 0.04 0.06 0.08 0.12 0.06
0.00 0.00 0.00 0.00 0.00 0.00 0.00 0.00 0.00 0.00 0.00 0.00 0.00 0.00 0.00 0.00 0.00 0.00 0.00 0.00 0.00 0.00 0.00 0.00 0.00 0.00 0.00 0.00 0.00 0.00 0.00 0.00 0.00 0.00 0.00 0.00 0.01 0.03 0.02 0.04 0.09 0.08 0.01 0.00
0.00 0.00 0.00 0.00 0.00 0.00 0.00 0.00 0.00 0.00 0.00 0.00 0.00 0.00 0.00 0.00 0.00 0.00 0.00 0.00 0.00 0.00 0.00 0.00 0.00 0.00 0.00 0.00 0.00 0.00 0.00 0.00 0.00 0.00 0.00 0.00 0.01 0.03 0.04 0.06 0.02 0.00 0.00 0.00
0.00 0.00 0.00 0.00 0.00 0.00 0.00 0.00 0.00 0.00 0.01 0.00 0.00 0.00 0.00 0.00 0.00 0.00 0.00 0.00 0.00 0.00 0.00 0.00 0.00 0.00 0.00 0.00 0.00 0.00 0.00 0.00 0.00 0.00 0.00 0.01 0.02 0.04 0.04 0.02 0.00 0.00 0.00 0.00
0.00 0.00 0.00 0.00 0.00 0.00 0.00 0.00 0.01 0.00 0.01 0.01 0.00 0.00 0.00 0.00 0.00 0.00 0.00 0.00 0.00 0.00 0.00 0.00 0.00 0.00 0.00 0.00 0.00 0.00 0.00 0.00 0.00 0.00 0.00 0.01 0.03 0.04 0.01 0.00 0.00 0.00 0.00 0.00
0.00 0.00 0.00 0.00 0.00 0.00 0.00 0.00 0.00 0.00 0.01 0.00 0.00 0.00 0.00 0.00 0.00 0.00 0.00 0.00 0.00 0.01 0.01 0.00 0.00 0.00 0.00 0.00 0.00 0.00 0.00 0.00 0.00 0.00 0.01 0.02 0.02 0.00 0.00 0.00 0.00 0.00 0.00 0.00
0.00 0.00 0.00 0.00 0.00 0.00 0.00 0.00 0.00 0.00 0.00 0.00 0.00 0.00 0.00 0.00 0.00 0.01 0.02 0.03 0.02 0.01 0.00 0.01 0.01 0.02 0.01 0.00 0.00 0.00 0.00 0.00 0.00 0.00 0.00 0.00 0.00 0.00 0.00 0.00 0.00 0.00 0.00 0.00
0.00 0.00 0.00 0.00 0.00 0.00 0.00 0.00 0.00 0.01 0.00 0.00 0.00 0.00 0.00 0.00 0.02 0.04 0.03 0.02 0.01 0.01 0.02 0.02 0.01 0.01 0.00 0.00 0.00 0.00 0.00 0.00 0.00 0.00 0.00 0.00 0.00 0.00 0.00 0.00 0.00 0.00 0.00 0.00
0.00 0.00 0.00 0.00 0.00 0.00 0.01 0.00 0.00 0.01 0.01 0.00 0.00 0.00 0.00 0.00 0.00 0.00 0.00 0.01 0.02 0.04 0.02 0.01 0.00 0.00 0.01 0.00 0.00 0.00 0.00 0.00 0.00 0.00 0.00 0.00 0.01 0.01 0.00 0.00 0.00 0.00 0.00 0.00

GFSCGP_prec_precacc24_042.txt.gz
Total_Precipitation_Accumulation
0.00 0.00 0.00 0.00 0.00 0.00 0.00 0.00 0.00 0.00 0.00 0.00 0.00 0.00 0.00 0.00 0.00 0.00 0.00 0.00 0.00 0.00 0.00 0.00 0.01 0.02 0.04 0.08 0.34 0.61 0.68 0.93 0.92 0.41 0.15 0.04 0.01 0.00 0.00 0.00 0.00 0.00 0.00 0.00
0.00 0.00 0.00 0.00 0.00 0.00 0.00 0.00 0.00 0.00 0.00 0.00 0.00 0.00 0.00 0.00 0.00 0.00 0.00 0.00 0.00 0.00 0.00 0.01 0.03 0.05 0.12 0.23 0.45 0.50 0.42 0.25 0.05 0.01 0.00 0.00 0.00 0.00 0.00 0.00 0.00 0.00 0.00 0.00
0.00 0.00 0.00 0.00 0.00 0.00 0.00 0.00 0.00 0.00 0.00 0.00 0.00 0.00 0.00 0.00 0.00 0.00 0.00 0.00 0.00 0.00 0.00 0.02 0.06 0.13 0.15 0.13 0.09 0.01 0.01 0.01 0.00 0.00 0.00 0.00 0.00 0.00 0.00 0.00 0.00 0.00 0.00 0.00
0.02 0.00 0.00 0.00 0.00 0.00 0.00 0.00 0.00 0.00 0.00 0.00 0.00 0.00 0.00 0.00 0.00 0.00 0.00 0.00 0.00 0.00 0.01 0.03 0.02 0.01 0.00 0.00 0.02 0.01 0.00 0.00 0.00 0.00 0.00 0.00 0.00 0.00 0.00 0.00 0.00 0.00 0.00 0.00
0.03 0.00 0.00 0.00 0.00 0.00 0.01 0.00 0.00 0.00 0.00 0.02 0.01 0.00 0.01 0.00 0.00 0.00 0.00 0.00 0.00 0.00 0.00 0.00 0.00 0.00 0.00 0.01 0.00 0.00 0.00 0.00 0.00 0.00 0.00 0.00 0.00 0.00 0.00 0.00 0.00 0.00 0.00 0.00
0.00 0.01 0.00 0.00 0.00 0.00 0.00 0.00 0.00 0.00 0.00 0.00 0.00 0.02 0.01 0.01 0.01 0.00 0.00 0.00 0.00 0.00 0.00 0.00 0.01 0.00 0.00 0.00 0.00 0.00 0.00 0.00 0.00 0.00 0.00 0.00 0.00 0.00 0.00 0.00 0.00 0.00 0.00 0.00
0.00 0.00 0.00 0.00 0.00 0.00 0.00 0.00 0.00 0.08 0.05 0.01 0.03 0.02 0.02 0.01 0.00 0.00 0.00 0.00 0.00 0.00 0.00 0.00 0.00 0.00 0.00 0.00 0.00 0.00 0.00 0.00 0.00 0.00 0.00 0.00 0.00 0.00 0.00 0.00 0.00 0.00 0.00 0.00
0.00 0.00 0.00 0.00 0.00 0.01 0.00 0.00 0.01 0.03 0.02 0.01 0.00 0.00 0.00 0.00 0.00 0.00 0.00 0.00 0.00 0.00 0.00 0.00 0.00 0.00 0.00 0.00 0.00 0.00 0.00 0.00 0.00 0.00 0.00 0.00 0.00 0.00 0.00 0.00 0.00 0.00 0.00 0.00
0.00 0.00 0.00 0.00 0.00 0.00 0.00 0.00 0.00 0.00 0.00 0.00 0.00 0.00 0.00 0.00 0.00 0.00 0.00 0.00 0.00 0.00 0.00 0.00 0.00 0.00 0.00 0.00 0.00 0.00 0.00 0.00 0.00 0.00 0.00 0.00 0.00 0.00 0.00 0.00 0.00 0.00 0.00 0.00
0.02 0.06 0.01 0.00 0.00 0.00 0.00 0.00 0.00 0.00 0.00 0.00 0.00 0.00 0.00 0.01 0.00 0.00 0.00 0.00 0.00 0.00 0.00 0.00 0.00 0.00 0.00 0.00 0.00 0.00 0.00 0.00 0.00 0.00 0.00 0.00 0.00 0.00 0.00 0.00 0.00 0.00 0.00 0.00
0.00 0.04 0.02 0.00 0.00 0.00 0.00 0.00 0.00 0.00 0.00 0.00 0.00 0.00 0.00 0.00 0.00 0.00 0.00 0.00 0.00 0.00 0.00 0.00 0.00 0.00 0.00 0.00 0.00 0.00 0.00 0.00 0.00 0.00 0.00 0.00 0.00 0.00 0.00 0.00 0.00 0.00 0.00 0.00
0.00 0.00 0.00 0.00 0.00 0.00 0.00 0.00 0.00 0.00 0.00 0.00 0.00 0.00 0.00 0.00 0.00 0.00 0.00 0.00 0.00 0.00 0.00 0.00 0.00 0.00 0.00 0.00 0.00 0.00 0.00 0.00 0.00 0.00 0.00 0.00 0.00 0.00 0.00 0.00 0.00 0.00 0.00 0.00
0.00 0.00 0.00 0.00 0.00 0.00 0.00 0.00 0.00 0.00 0.00 0.00 0.00 0.00 0.00 0.00 0.00 0.00 0.00 0.00 0.00 0.00 0.00 0.00 0.00 0.00 0.00 0.00 0.00 0.00 0.00 0.00 0.00 0.00 0.00 0.00 0.00 0.00 0.00 0.00 0.00 0.00 0.00 0.01
0.00 0.00 0.00 0.00 0.00 0.00 0.00 0.00 0.00 0.00 0.00 0.00 0.00 0.00 0.00 0.00 0.00 0.00 0.00 0.00 0.00 0.00 0.00 0.00 0.00 0.00 0.00 0.00 0.00 0.00 0.00 0.00 0.00 0.00 0.00 0.00 0.00 0.00 0.00 0.00 0.00 0.01 0.04 0.05
0.00 0.00 0.00 0.00 0.00 0.00 0.00 0.00 0.00 0.00 0.00 0.00 0.00 0.00 0.00 0.00 0.00 0.00 0.00 0.00 0.00 0.00 0.00 0.00 0.00 0.00 0.00 0.00 0.00 0.00 0.00 0.00 0.00 0.00 0.00 0.00 0.00 0.00 0.00 0.00 0.01 0.03 0.04 0.01
0.00 0.00 0.00 0.00 0.00 0.00 0.00 0.00 0.00 0.00 0.00 0.00 0.00 0.00 0.00 0.00 0.00 0.00 0.00 0.00 0.00 0.00 0.00 0.00 0.00 0.00 0.00 0.00 0.00 0.00 0.00 0.00 0.00 0.00 0.00 0.00 0.00 0.00 0.01 0.02 0.02 0.06 0.04 0.01
0.00 0.00 0.00 0.00 0.00 0.00 0.00 0.00 0.00 0.00 0.00 0.00 0.00 0.00 0.00 0.00 0.00 0.00 0.00 0.00 0.00 0.00 0.00 0.00 0.00 0.00 0.00 0.00 0.00 0.00 0.00 0.00 0.00 0.00 0.00 0.00 0.00 0.01 0.01 0.03 0.06 0.04 0.04 0.06
0.00 0.00 0.00 0.00 0.00 0.00 0.00 0.00 0.00 0.00 0.00 0.00 0.00 0.00 0.00 0.00 0.00 0.00 0.00 0.00 0.00 0.00 0.00 0.00 0.00 0.00 0.00 0.00 0.00 0.00 0.00 0.00 0.00 0.00 0.00 0.00 0.00 0.02 0.02 0.04 0.06 0.08 0.12 0.06
0.00 0.00 0.00 0.00 0.00 0.00 0.00 0.00 0.00 0.00 0.00 0.00 0.00 0.00 0.00 0.00 0.00 0.00 0.00 0.00 0.00 0.00 0.00 0.00 0.00 0.00 0.00 0.00 0.00 0.00 0.00 0.00 0.00 0.00 0.00 0.00 0.00 0.03 0.02 0.04 0.09 0.08 0.01 0.00
0.00 0.00 0.00 0.00 0.00 0.00 0.00 0.00 0.00 0.00 0.00 0.00 0.00 0.00 0.00 0.00 0.00 0.00 0.00 0.00 0.00 0.00 0.00 0.00 0.00 0.00 0.00 0.00 0.00 0.00 0.00 0.00 0.00 0.00 0.00 0.00 0.01 0.02 0.03 0.03 0.01 0.00 0.00 0.00
0.00 0.00 0.00 0.00 0.00 0.00 0.00 0.00 0.00 0.00 0.00 0.00 0.00 0.00 0.00 0.00 0.00 0.00 0.00 0.00 0.00 0.00 0.00 0.00 0.00 0.00 0.00 0.00 0.00 0.00 0.00 0.00 0.00 0.00 0.00 0.00 0.00 0.00 0.00 0.00 0.00 0.00 0.00 0.00
0.00 0.00 0.00 0.00 0.00 0.00 0.00 0.00 0.00 0.00 0.00 0.00 0.00 0.00 0.00 0.00 0.00 0.00 0.00 0.00 0.00 0.00 0.00 0.00 0.00 0.00 0.00 0.00 0.00 0.00 0.00 0.00 0.00 0.00 0.00 0.00 0.00 0.01 0.01 0.00 0.00 0.00 0.00 0.00
0.00 0.00 0.00 0.00 0.00 0.00 0.00 0.00 0.00 0.00 0.00 0.00 0.00 0.00 0.00 0.00 0.00 0.00 0.00 0.00 0.00 0.01 0.01 0.00 0.00 0.00 0.00 0.00 0.01 0.01 0.01 0.00 0.00 0.00 0.00 0.00 0.00 0.00 0.00 0.00 0.00 0.00 0.00 0.00
0.00 0.00 0.00 0.00 0.00 0.00 0.00 0.00 0.00 0.00 0.00 0.00 0.00 0.00 0.00 0.00 0.00 0.01 0.02 0.03 0.02 0.01 0.00 0.01 0.01 0.02 0.03 0.01 0.00 0.00 0.00 0.00 0.00 0.00 0.00 0.00 0.00 0.00 0.00 0.00 0.00 0.00 0.00 0.00
0.00 0.00 0.00 0.00 0.00 0.00 0.00 0.00 0.00 0.00 0.00 0.00 0.00 0.00 0.00 0.00 0.02 0.04 0.03 0.02 0.01 0.01 0.02 0.02 0.01 0.01 0.00 0.00 0.00 0.00 0.00 0.00 0.00 0.00 0.00 0.00 0.00 0.00 0.00 0.00 0.00 0.00 0.00 0.00
0.00 0.00 0.00 0.00 0.00 0.00 0.00 0.00 0.00 0.00 0.00 0.00 0.00 0.00 0.00 0.00 0.00 0.00 0.00 0.01 0.02 0.04 0.02 0.01 0.00 0.01 0.01 0.00 0.00 0.00 0.00 0.00 0.00 0.00 0.00 0.00 0.01 0.01 0.00 0.00 0.00 0.00 0.00 0.00

GFSCGP_prec_precacc24_045.txt.gz
Total_Precipitation_Accumulation
0.02 0.00 0.00 0.00 0.00 0.00 0.00 0.00 0.00 0.00 0.00 0.00 0.00 0.00 0.00 0.00 0.00 0.00 0.00 0.00 0.00 0.00 0.00 0.00 0.01 0.02 0.03 0.09 0.38 0.63 0.67 0.93 0.92 0.41 0.16 0.05 0.01 0.00 0.00 0.00 0.00 0.00 0.00 0.00
0.01 0.00 0.00 0.00 0.00 0.00 0.00 0.00 0.00 0.00 0.00 0.00 0.00 0.00 0.00 0.00 0.00 0.00 0.00 0.00 0.00 0.00 0.00 0.01 0.02 0.05 0.11 0.23 0.49 0.57 0.43 0.26 0.06 0.01 0.00 0.00 0.00 0.00 0.00 0.00 0.00 0.00 0.00 0.00
0.03 0.00 0.00 0.00 0.00 0.00 0.00 0.00 0.00 0.00 0.00 0.00 0.00 0.00 0.00 0.00 0.00 0.00 0.00 0.00 0.00 0.00 0.00 0.02 0.06 0.13 0.17 0.14 0.13 0.05 0.01 0.02 0.01 0.00 0.00 0.00 0.00 0.00 0.00 0.00 0.00 0.00 0.00 0.00
0.02 0.00 0.00 0.00 0.00 0.00 0.00 0.00 0.00 0.00 0.00 0.00 0.00 0.00 0.00 0.00 0.00 0.00 0.00 0.00 0.00 0.02 0.02 0.03 0.02 0.01 0.00 0.01 0.08 0.02 0.00 0.01 0.00 0.00 0.00 0.00 0.00 0.00 0.00 0.00 0.00 0.00 0.00 0.00
0.03 0.00 0.00 0.00 0.00 0.00 0.01 0.00 0.00 0.00 0.00 0.02 0.01 0.00 0.01 0.00 0.00 0.00 0.00 0.00 0.00 0.00 0.00 0.00 0.00 0.00 0.01 0.02 0.04 0.00 0.00 0.00 0.00 0.00 0.00 0.00 0.00 0.00 0.00 0.00 0.00 0.00 0.00 0.00
0.00 0.01 0.01 0.00 0.00 0.00 0.00 0.00 0.00 0.00 0.00 0.00 0.00 0.01 0.00 0.00 0.01 0.01 0.01 0.00 0.00 0.00 0.00 0.00 0.01 0.01 0.00 0.01 0.01 0.00 0.00 0.00 0.00 0.00 0.00 0.00 0.00 0.00 0.00 0.00 0.00 0.00 0.00 0.00
0.00 0.00 0.01 0.01 0.00 0.00 0.00 0.00 0.00 0.07 0.04 0.00 0.00 0.00 0.00 0.00 0.00 0.00 0.00 0.00 0.00 0.00 0.00 0.00 0.00 0.00 0.00 0.00 0.00 0.00 0.01 0.00 0.00 0.00 0.00 0.00 0.00 0.00 0.00 0.00 0.00 0.00 0.00 0.00
0.00 0.00 0.00 0.00 0.00 0.01 0.00 0.00 0.01 0.03 0.04 0.01 0.01 0.02 0.00 0.00 0.00 0.00 0.00 0.00 0.00 0.00 0.00 0.00 0.00 0.00 0.00 0.00 0.00 0.00 0.00 0.00 0.00 0.00 0.00 0.00 0.00 0.00 0.00 0.00 0.00 0.00 0.00 0.00
0.01 0.02 0.02 0.00 0.00 0.00 0.01 0.00 0.01 0.00 0.01 0.00 0.00 0.00 0.00 0.01 0.00 0.00 0.00 0.00 0.00 0.00 0.00 0.00 0.00 0.00 0.00 0.00 0.00 0.00 0.00 0.00 0.00 0.00 0.00 0.00 0.00 0.00 0.00 0.00 0.00 0.00 0.00 0.00
0.02 0.06 0.01 0.00 0.00 0.00 0.00 0.00 0.00 0.00 0.00 0.00 0.00 0.00 0.00 0.01 0.01 0.00 0.00 0.00 0.00 0.00 0.00 0.00 0.00 0.00 0.00 0.00 0.00 0.00 0.00 0.00 0.00 0.00 0.00 0.00 0.00 0.00 0.00 0.00 0.00 0.00 0.00 0.00
0.00 0.06 0.07 0.02 0.00 0.00 0.00 0.00 0.00 0.00 0.00 0.00 0.00 0.00 0.00 0.00 0.00 0.00 0.00 0.00 0.00 0.00 0.00 0.00 0.00 0.00 0.00 0.00 0.00 0.00 0.00 0.00 0.00 0.00 0.00 0.00 0.00 0.00 0.00 0.00 0.00 0.00 0.00 0.00
0.00 0.00 0.02 0.01 0.01 0.00 0.00 0.00 0.01 0.00 0.00 0.00 0.00 0.00 0.00 0.00 0.00 0.00 0.00 0.00 0.00 0.00 0.00 0.00 0.00 0.00 0.00 0.00 0.00 0.00 0.00 0.00 0.00 0.00 0.00 0.00 0.00 0.00 0.00 0.00 0.00 0.00 0.00 0.00
0.00 0.00 0.00 0.00 0.01 0.00 0.00 0.00 0.00 0.00 0.00 0.00 0.00 0.00 0.00 0.00 0.00 0.00 0.00 0.00 0.00 0.00 0.00 0.00 0.00 0.00 0.00 0.00 0.00 0.00 0.00 0.00 0.00 0.00 0.00 0.00 0.00 0.00 0.00 0.00 0.00 0.00 0.00 0.01
0.00 0.00 0.00 0.00 0.00 0.00 0.00 0.00 0.00 0.00 0.00 0.00 0.00 0.00 0.00 0.00 0.00 0.00 0.00 0.00 0.00 0.00 0.00 0.00 0.00 0.00 0.00 0.00 0.00 0.00 0.00 0.00 0.00 0.00 0.00 0.00 0.00 0.00 0.00 0.00 0.00 0.01 0.04 0.05
0.00 0.00 0.00 0.00 0.00 0.00 0.00 0.00 0.00 0.00 0.00 0.00 0.00 0.00 0.00 0.00 0.00 0.00 0.00 0.00 0.00 0.00 0.00 0.00 0.00 0.01 0.02 0.01 0.01 0.01 0.00 0.00 0.00 0.00 0.00 0.00 0.00 0.00 0.00 0.00 0.01 0.03 0.04 0.01
0.00 0.00 0.00 0.00 0.00 0.00 0.00 0.00 0.00 0.00 0.00 0.00 0.00 0.00 0.00 0.00 0.00 0.00 0.00 0.00 0.00 0.00 0.00 0.00 0.00 0.01 0.01 0.01 0.01 0.00 0.00 0.00 0.00 0.00 0.00 0.00 0.00 0.00 0.00 0.00 0.01 0.03 0.04 0.01
0.00 0.00 0.00 0.00 0.00 0.00 0.00 0.00 0.00 0.00 0.00 0.00 0.00 0.00 0.00 0.00 0.00 0.00 0.00 0.00 0.00 0.00 0.00 0.00 0.00 0.00 0.00 0.00 0.00 0.00 0.00 0.00 0.00 0.00 0.00 0.00 0.00 0.00 0.00 0.00 0.00 0.01 0.04 0.06
0.00 0.00 0.00 0.00 0.00 0.00 0.00 0.00 0.00 0.00 0.00 0.00 0.00 0.00 0.00 0.00 0.00 0.00 0.00 0.00 0.00 0.00 0.00 0.00 0.00 0.00 0.00 0.00 0.00 0.00 0.00 0.00 0.00 0.00 0.00 0.00 0.00 0.00 0.00 0.00 0.01 0.06 0.12 0.06
0.01 0.02 0.00 0.00 0.00 0.00 0.00 0.00 0.00 0.00 0.00 0.00 0.00 0.00 0.00 0.00 0.00 0.00 0.00 0.00 0.00 0.00 0.00 0.00 0.00 0.00 0.00 0.00 0.00 0.00 0.00 0.00 0.00 0.00 0.00 0.00 0.00 0.00 0.00 0.00 0.00 0.04 0.01 0.00
0.00 0.00 0.00 0.00 0.00 0.00 0.00 0.00 0.00 0.00 0.00 0.00 0.00 0.00 0.00 0.00 0.00 0.00 0.00 0.00 0.00 0.00 0.00 0.00 0.00 0.00 0.00 0.00 0.00 0.00 0.00 0.00 0.00 0.00 0.00 0.00 0.00 0.00 0.00 0.00 0.00 0.00 0.00 0.00
0.00 0.00 0.00 0.00 0.00 0.00 0.00 0.00 0.00 0.00 0.00 0.00 0.00 0.00 0.00 0.00 0.00 0.00 0.00 0.00 0.00 0.00 0.00 0.00 0.00 0.00 0.00 0.00 0.00 0.00 0.00 0.00 0.00 0.00 0.00 0.00 0.00 0.00 0.00 0.00 0.00 0.00 0.00 0.00
0.00 0.00 0.00 0.00 0.00 0.00 0.00 0.00 0.00 0.00 0.00 0.00 0.00 0.00 0.00 0.00 0.00 0.00 0.00 0.00 0.00 0.00 0.00 0.00 0.00 0.00 0.00 0.00 0.00 0.00 0.00 0.00 0.00 0.00 0.00 0.00 0.00 0.00 0.00 0.00 0.00 0.00 0.00 0.00
0.00 0.00 0.00 0.00 0.00 0.00 0.00 0.00 0.00 0.00 0.00 0.00 0.00 0.00 0.00 0.00 0.00 0.00 0.00 0.00 0.00 0.01 0.01 0.00 0.00 0.00 0.00 0.00 0.01 0.01 0.01 0.00 0.00 0.00 0.00 0.00 0.00 0.00 0.00 0.00 0.00 0.00 0.00 0.00
0.00 0.00 0.00 0.00 0.00 0.00 0.00 0.00 0.00 0.00 0.00 0.00 0.00 0.00 0.00 0.00 0.00 0.01 0.02 0.03 0.02 0.01 0.00 0.01 0.01 0.02 0.03 0.01 0.00 0.00 0.00 0.00 0.00 0.00 0.00 0.00 0.00 0.00 0.00 0.00 0.00 0.00 0.00 0.00
0.00 0.00 0.00 0.00 0.00 0.00 0.00 0.00 0.00 0.00 0.00 0.00 0.00 0.00 0.00 0.00 0.02 0.04 0.03 0.02 0.01 0.01 0.02 0.02 0.01 0.01 0.00 0.00 0.00 0.00 0.00 0.00 0.00 0.00 0.00 0.00 0.00 0.00 0.00 0.00 0.00 0.00 0.00 0.00
0.00 0.00 0.00 0.00 0.00 0.00 0.00 0.00 0.00 0.00 0.00 0.00 0.00 0.00 0.00 0.00 0.00 0.00 0.00 0.01 0.02 0.04 0.02 0.01 0.00 0.01 0.01 0.00 0.00 0.00 0.00 0.00 0.00 0.00 0.00 0.00 0.01 0.01 0.00 0.00 0.00 0.00 0.00 0.00

GFSCGP_prec_precacc24_048.txt.gz
Total_Precipitation_Accumulation
0.03 0.00 0.00 0.00 0.00 0.00 0.00 0.00 0.00 0.00 0.00 0.00 0.00 0.00 0.00 0.00 0.00 0.00 0.00 0.00 0.00 0.00 0.00 0.00 0.00 0.01 0.01 0.08 0.37 0.60 0.64 0.91 0.91 0.41 0.16 0.05 0.02 0.00 0.00 0.00 0.00 0.00 0.00 0.00
0.01 0.00 0.00 0.00 0.00 0.00 0.00 0.00 0.00 0.00 0.00 0.00 0.00 0.00 0.00 0.00 0.00 0.00 0.00 0.00 0.00 0.00 0.00 0.00 0.01 0.02 0.09 0.21 0.48 0.56 0.43 0.26 0.05 0.02 0.00 0.00 0.00 0.00 0.00 0.00 0.00 0.00 0.00 0.00
0.03 0.00 0.00 0.00 0.00 0.00 0.00 0.00 0.00 0.00 0.00 0.00 0.00 0.00 0.00 0.00 0.00 0.00 0.00 0.00 0.00 0.00 0.00 0.01 0.06 0.12 0.15 0.13 0.13 0.05 0.03 0.04 0.02 0.00 0.00 0.00 0.00 0.00 0.00 0.00 0.00 0.00 0.00 0.00
0.02 0.00 0.00 0.00 0.00 0.00 0.00 0.00 0.00 0.00 0.00 0.00 0.00 0.00 0.00 0.00 0.00 0.00 0.00 0.00 0.00 0.02 0.02 0.03 0.02 0.01 0.00 0.01 0.08 0.05 0.01 0.02 0.03 0.00 0.00 0.00 0.00 0.00 0.00 0.00 0.00 0.00 0.00 0.00
0.03 0.00 0.00 0.00 0.00 0.00 0.01 0.00 0.00 0.00 0.00 0.02 0.01 0.00 0.01 0.00 0.00 0.00 0.00 0.00 0.00 0.00 0.00 0.00 0.00 0.00 0.01 0.02 0.07 0.06 0.02 0.03 0.02 0.00 0.00 0.00 0.00 0.00 0.00 0.00 0.00 0.00 0.00 0.00
0.00 0.01 0.01 0.00 0.00 0.00 0.00 0.00 0.00 0.00 0.00 0.00 0.00 0.01 0.00 0.00 0.01 0.01 0.01 0.00 0.00 0.01 0.02 0.00 0.01 0.01 0.00 0.02 0.04 0.03 0.01 0.01 0.02 0.01 0.00 0.00 0.00 0.00 0.00 0.00 0.00 0.00 0.00 0.00
0.00 0.00 0.01 0.01 0.00 0.00 0.00 0.00 0.00 0.07 0.04 0.00 0.00 0.00 0.00 0.00 0.00 0.00 0.00 0.00 0.01 0.00 0.00 0.00 0.00 0.00 0.00 0.00 0.01 0.03 0.03 0.00 0.00 0.00 0.00 0.00 0.00 0.00 0.00 0.00 0.00 0.00 0.00 0.00
0.00 0.00 0.00 0.01 0.00 0.01 0.00 0.00 0.01 0.03 0.04 0.00 0.01 0.02 0.00 0.00 0.00 0.00 0.00 0.00 0.00 0.00 0.00 0.00 0.00 0.00 0.01 0.01 0.01 0.05 0.01 0.00 0.00 0.00 0.00 0.00 0.00 0.00 0.00 0.00 0.00 0.00 0.00 0.00
0.01 0.02 0.02 0.01 0.00 0.00 0.01 0.00 0.01 0.00 0.01 0.00 0.00 0.00 0.00 0.00 0.00 0.00 0.00 0.00 0.00 0.00 0.00 0.00 0.00 0.00 0.04 0.02 0.03 0.02 0.00 0.00 0.00 0.00 0.00 0.00 0.00 0.00 0.00 0.00 0.00 0.00 0.00 0.00
0.02 0.06 0.01 0.00 0.00 0.00 0.00 0.00 0.00 0.00 0.00 0.00 0.00 0.00 0.00 0.01 0.01 0.00 0.00 0.00 0.00 0.00 0.00 0.00 0.00 0.00 0.01 0.03 0.03 0.00 0.00 0.00 0.01 0.00 0.00 0.00 0.00 0.00 0.00 0.00 0.00 0.00 0.00 0.00
0.00 0.06 0.07 0.02 0.00 0.00 0.00 0.00 0.00 0.00 0.00 0.00 0.00 0.00 0.00 0.00 0.00 0.00 0.00 0.00 0.00 0.00 0.00 0.00 0.00 0.00 0.00 0.00 0.00 0.00 0.00 0.00 0.00 0.00 0.00 0.00 0.00 0.00 0.00 0.00 0.00 0.00 0.00 0.01
0.00 0.00 0.02 0.01 0.01 0.00 0.00 0.00 0.01 0.00 0.00 0.00 0.00 0.00 0.00 0.00 0.00 0.00 0.00 0.00 0.00 0.00 0.00 0.00 0.00 0.00 0.00 0.00 0.00 0.00 0.00 0.00 0.00 0.00 0.00 0.00 0.01 0.01 0.01 0.01 0.01 0.00 0.00 0.00
0.00 0.00 0.00 0.00 0.01 0.01 0.00 0.00 0.00 0.00 0.00 0.00 0.00 0.00 0.00 0.00 0.00 0.00 0.00 0.00 0.00 0.00 0.00 0.00 0.00 0.00 0.00 0.00 0.00 0.00 0.00 0.00 0.00 0.00 0.00 0.01 0.02 0.01 0.01 0.00 0.00 0.00 0.00 0.00
0.00 0.00 0.00 0.00 0.00 0.00 0.00 0.00 0.00 0.00 0.00 0.00 0.00 0.00 0.00 0.00 0.00 0.00 0.00 0.00 0.00 0.00 0.00 0.00 0.00 0.00 0.00 0.00 0.01 0.01 0.00 0.01 0.01 0.03 0.03 0.02 0.01 0.00 0.00 0.00 0.00 0.00 0.00 0.00
0.00 0.00 0.00 0.00 0.00 0.00 0.00 0.00 0.00 0.00 0.00 0.00 0.00 0.00 0.00 0.00 0.00 0.00 0.00 0.00 0.00 0.00 0.00 0.00 0.01 0.02 0.02 0.02 0.02 0.03 0.03 0.04 0.05 0.03 0.01 0.01 0.00 0.00 0.00 0.00 0.00 0.00 0.00 0.00
0.00 0.00 0.00 0.00 0.00 0.00 0.00 0.00 0.00 0.00 0.00 0.00 0.00 0.00 0.00 0.00 0.00 0.00 0.00 0.00 0.00 0.00 0.00 0.00 0.01 0.03 0.02 0.03 0.02 0.03 0.03 0.03 0.02 0.00 0.00 0.00 0.00 0.00 0.00 0.00 0.00 0.00 0.00 0.00
0.00 0.00 0.00 0.00 0.00 0.00 0.00 0.00 0.00 0.00 0.00 0.00 0.00 0.00 0.00 0.00 0.00 0.00 0.00 0.00 0.00 0.00 0.00 0.00 0.00 0.00 0.01 0.02 0.04 0.05 0.03 0.01 0.00 0.00 0.00 0.00 0.00 0.00 0.00 0.00 0.00 0.00 0.00 0.00
0.00 0.00 0.00 0.00 0.00 0.00 0.00 0.00 0.00 0.00 0.00 0.00 0.00 0.00 0.00 0.00 0.00 0.00 0.00 0.00 0.00 0.00 0.00 0.00 0.00 0.00 0.00 0.00 0.00 0.00 0.00 0.00 0.00 0.00 0.00 0.00 0.00 0.00 0.00 0.00 0.00 0.00 0.00 0.00
0.01 0.02 0.00 0.00 0.00 0.00 0.00 0.00 0.00 0.00 0.00 0.00 0.00 0.00 0.00 0.00 0.00 0.00 0.00 0.00 0.00 0.00 0.00 0.00 0.00 0.00 0.00 0.00 0.00 0.00 0.00 0.00 0.00 0.00 0.00 0.00 0.00 0.00 0.02 0.03 0.01 0.00 0.00 0.00
0.00 0.01 0.00 0.00 0.00 0.00 0.00 0.00 0.00 0.00 0.00 0.00 0.00 0.00 0.00 0.00 0.00 0.00 0.00 0.00 0.00 0.00 0.00 0.00 0.00 0.00 0.00 0.00 0.00 0.00 0.00 0.00 0.00 0.00 0.00 0.00 0.02 0.06 0.04 0.01 0.00 0.00 0.00 0.00
0.00 0.00 0.00 0.00 0.00 0.00 0.00 0.00 0.00 0.00 0.00 0.00 0.00 0.00 0.00 0.00 0.00 0.00 0.00 0.00 0.00 0.00 0.00 0.00 0.00 0.00 0.00 0.00 0.00 0.00 0.00 0.00 0.00 0.00 0.03 0.06 0.04 0.00 0.00 0.00 0.00 0.00 0.00 0.00
0.00 0.00 0.00 0.00 0.00 0.00 0.00 0.00 0.00 0.00 0.00 0.00 0.00 0.00 0.00 0.00 0.00 0.00 0.00 0.00 0.00 0.00 0.00 0.00 0.00 0.00 0.00 0.00 0.00 0.01 0.01 0.00 0.00 0.02 0.02 0.00 0.00 0.00 0.00 0.00 0.00 0.00 0.00 0.00
0.00 0.00 0.00 0.00 0.00 0.00 0.00 0.00 0.00 0.00 0.00 0.00 0.00 0.00 0.00 0.00 0.00 0.00 0.00 0.00 0.00 0.01 0.01 0.00 0.00 0.00 0.00 0.00 0.01 0.01 0.01 0.00 0.00 0.00 0.00 0.00 0.00 0.00 0.00 0.00 0.00 0.00 0.00 0.00
0.00 0.00 0.00 0.00 0.00 0.00 0.00 0.00 0.00 0.00 0.00 0.00 0.00 0.00 0.00 0.00 0.00 0.01 0.02 0.03 0.02 0.01 0.00 0.01 0.01 0.02 0.03 0.01 0.00 0.00 0.00 0.00 0.00 0.00 0.00 0.00 0.00 0.00 0.00 0.00 0.00 0.00 0.00 0.00
0.00 0.00 0.00 0.00 0.00 0.00 0.00 0.00 0.00 0.00 0.00 0.00 0.00 0.00 0.00 0.00 0.02 0.04 0.03 0.02 0.01 0.01 0.02 0.02 0.01 0.01 0.00 0.00 0.00 0.00 0.00 0.00 0.00 0.00 0.00 0.00 0.00 0.00 0.00 0.00 0.00 0.00 0.00 0.00
0.00 0.00 0.00 0.00 0.00 0.00 0.00 0.00 0.00 0.00 0.00 0.00 0.00 0.00 0.00 0.00 0.00 0.00 0.00 0.01 0.02 0.04 0.02 0.01 0.00 0.01 0.01 0.00 0.00 0.00 0.00 0.00 0.00 0.00 0.00 0.00 0.01 0.01 0.00 0.00 0.00 0.00 0.00 0.00

GFSCGP_prec_precacc24_051.txt.gz
Total_Precipitation_Accumulation
0.03 0.00 0.00 0.01 0.00 0.00 0.00 0.00 0.00 0.00 0.00 0.00 0.00 0.00 0.00 0.00 0.00 0.00 0.00 0.00 0.00 0.00 0.00 0.00 0.00 0.01 0.01 0.04 0.25 0.47 0.55 0.87 0.87 0.39 0.15 0.04 0.01 0.00 0.00 0.00 0.00 0.00 0.00 0.00
0.01 0.00 0.00 0.00 0.00 0.00 0.00 0.00 0.00 0.00 0.00 0.00 0.00 0.00 0.00 0.00 0.00 0.00 0.00 0.00 0.00 0.00 0.00 0.00 0.00 0.01 0.07 0.18 0.43 0.54 0.42 0.25 0.05 0.01 0.00 0.00 0.00 0.00 0.00 0.00 0.00 0.00 0.00 0.00
0.03 0.00 0.00 0.00 0.00 0.00 0.00 0.00 0.00 0.00 0.00 0.00 0.00 0.00 0.00 0.00 0.00 0.00 0.00 0.00 0.00 0.00 0.00 0.00 0.03 0.08 0.12 0.12 0.13 0.07 0.06 0.04 0.02 0.00 0.00 0.00 0.00 0.00 0.00 0.00 0.00 0.00 0.00 0.00
0.02 0.00 0.00 0.00 0.00 0.00 0.00 0.00 0.00 0.00 0.00 0.00 0.00 0.00 0.00 0.00 0.00 0.00 0.00 0.00 0.00 0.02 0.00 0.01 0.01 0.00 0.00 0.01 0.08 0.05 0.04 0.04 0.03 0.00 0.00 0.00 0.00 0.00 0.00 0.00 0.00 0.00 0.00 0.00
0.03 0.00 0.00 0.00 0.00 0.00 0.01 0.00 0.00 0.00 0.00 0.02 0.01 0.00 0.01 0.00 0.00 0.00 0.00 0.00 0.00 0.00 0.00 0.00 0.00 0.00 0.01 0.02 0.07 0.07 0.08 0.09 0.04 0.01 0.01 0.01 0.01 0.00 0.00 0.00 0.00 0.00 0.00 0.00
0.00 0.01 0.01 0.00 0.00 0.00 0.00 0.00 0.00 0.00 0.00 0.00 0.00 0.01 0.00 0.00 0.01 0.01 0.01 0.00 0.00 0.01 0.02 0.00 0.01 0.01 0.00 0.03 0.05 0.04 0.10 0.06 0.05 0.05 0.04 0.02 0.00 0.00 0.00 0.00 0.00 0.00 0.00 0.00
0.00 0.00 0.01 0.01 0.00 0.00 0.00 0.00 0.00 0.07 0.04 0.00 0.00 0.00 0.00 0.00 0.00 0.00 0.00 0.00 0.01 0.00 0.00 0.00 0.00 0.00 0.00 0.01 0.02 0.06 0.13 0.11 0.08 0.08 0.04 0.01 0.00 0.00 0.00 0.00 0.00 0.00 0.00 0.00
0.00 0.00 0.00 0.01 0.00 0.01 0.00 0.00 0.01 0.03 0.04 0.00 0.01 0.02 0.00 0.00 0.00 0.00 0.00 0.00 0.00 0.00 0.00 0.00 0.00 0.00 0.01 0.02 0.01 0.08 0.09 0.11 0.07 0.04 0.01 0.00 0.00 0.00 0.00 0.00 0.00 0.00 0.00 0.00
0.01 0.02 0.02 0.01 0.00 0.00 0.01 0.00 0.01 0.00 0.01 0.00 0.00 0.00 0.00 0.00 0.00 0.00 0.00 0.00 0.00 0.00 0.00 0.00 0.00 0.00 0.04 0.02 0.04 0.10 0.11 0.04 0.01 0.00 0.00 0.00 0.00 0.00 0.00 0.00 0.00 0.00 0.00 0.01
0.02 0.06 0.01 0.00 0.00 0.00 0.00 0.00 0.00 0.00 0.00 0.00 0.00 0.00 0.00 0.01 0.01 0.00 0.00 0.00 0.00 0.00 0.00 0.00 0.00 0.00 0.01 0.03 0.07 0.07 0.03 0.02 0.01 0.00 0.00 0.00 0.00 0.01 0.00 0.00 0.01 0.01 0.02 0.05
0.00 0.06 0.07 0.02 0.00 0.00 0.00 0.00 0.00 0.00 0.00 0.00 0.00 0.00 0.00 0.00 0.00 0.00 0.00 0.00 0.00 0.00 0.00 0.00 0.00 0.00 0.00 0.01 0.02 0.02 0.01 0.00 0.00 0.01 0.02 0.01 0.01 0.01 0.01 0.01 0.01 0.01 0.03 0.06
0.00 0.00 0.02 0.01 0.01 0.00 0.00 0.00 0.01 0.00 0.00 0.00 0.00 0.00 0.00 0.00 0.00 0.00 0.00 0.00 0.00 0.00 0.00 0.00 0.00 0.00 0.00 0.00 0.00 0.00 0.00 0.00 0.01 0.03 0.02 0.01 0.01 0.02 0.01 0.02 0.04 0.09 0.09 0.02
0.00 0.00 0.00 0.00 0.01 0.01 0.00 0.00 0.00 0.00 0.00 0.00 0.00 0.00 0.00 0.00 0.00 0.00 0.00 0.00 0.00 0.00 0.00 0.00 0.00 0.00 0.00 0.00 0.01 0.02 0.01 0.02 0.03 0.02 0.03 0.02 0.03 0.02 0.03 0.05 0.05 0.03 0.01 0.01
0.00 0.00 0.00 0.00 0.00 0.00 0.00 0.00 0.00 0.00 0.00 0.00 0.00 0.00 0.00 0.00 0.00 0.00 0.00 0.00 0.00 0.00 0.00 0.00 0.00 0.00 0.00 0.01 0.06 0.06 0.05 0.05 0.05 0.06 0.06 0.06 0.04 0.03 0.01 0.01 0.00 0.00 0.00 0.00
0.00 0.00 0.00 0.00 0.00 0.00 0.00 0.00 0.00 0.00 0.00 0.00 0.00 0.00 0.00 0.00 0.00 0.00 0.00 0.00 0.00 0.00 0.00 0.00 0.01 0.03 0.02 0.03 0.07 0.07 0.09 0.09 0.10 0.08 0.05 0.03 0.01 0.00 0.00 0.00 0.00 0.00 0.00 0.00
0.00 0.00 0.00 0.00 0.00 0.00 0.00 0.00 0.00 0.00 0.00 0.00 0.00 0.00 0.00 0.00 0.00 0.00 0.00 0.00 0.00 0.00 0.00 0.00 0.01 0.04 0.04 0.05 0.05 0.06 0.07 0.07 0.07 0.05 0.03 0.01 0.00 0.00 0.00 0.00 0.00 0.00 0.00 0.00
0.00 0.00 0.00 0.00 0.00 0.00 0.00 0.00 0.00 0.00 0.00 0.00 0.00 0.00 0.00 0.00 0.00 0.00 0.00 0.00 0.00 0.00 0.00 0.00 0.00 0.00 0.01 0.02 0.04 0.06 0.06 0.04 0.03 0.01 0.01 0.00 0.00 0.00 0.00 0.00 0.00 0.00 0.01 0.01
0.00 0.00 0.00 0.00 0.00 0.00 0.00 0.00 0.00 0.00 0.00 0.00 0.00 0.00 0.00 0.00 0.00 0.00 0.00 0.00 0.00 0.00 0.00 0.00 0.00 0.00 0.00 0.00 0.00 0.00 0.00 0.01 0.01 0.00 0.00 0.00 0.00 0.00 0.00 0.00 0.03 0.05 0.02 0.00
0.01 0.02 0.00 0.00 0.00 0.00 0.00 0.00 0.00 0.00 0.00 0.00 0.00 0.00 0.00 0.00 0.00 0.00 0.00 0.00 0.00 0.00 0.00 0.00 0.00 0.00 0.00 0.00 0.00 0.00 0.00 0.00 0.00 0.00 0.00 0.00 0.00 0.00 0.03 0.07 0.06 0.02 0.00 0.00
0.00 0.01 0.00 0.00 0.00 0.00 0.00 0.00 0.00 0.00 0.00 0.00 0.00 0.00 0.00 0.00 0.00 0.00 0.00 0.00 0.00 0.00 0.00 0.00 0.00 0.00 0.00 0.00 0.00 0.00 0.00 0.00 0.00 0.00 0.00 0.00 0.03 0.11 0.09 0.03 0.00 0.00 0.00 0.00
0.01 0.01 0.01 0.00 0.00 0.00 0.00 0.00 0.00 0.00 0.00 0.00 0.00 0.00 0.00 0.00 0.00 0.00 0.00 0.00 0.00 0.00 0.00 0.00 0.00 0.00 0.00 0.00 0.00 0.00 0.00 0.00 0.00 0.01 0.06 0.10 0.08 0.02 0.00 0.00 0.00 0.00 0.00 0.00
0.00 0.00 0.00 0.00 0.00 0.00 0.00 0.00 0.00 0.00 0.00 0.00 0.00 0.00 0.00 0.00 0.00 0.00 0.00 0.00 0.00 0.00 0.00 0.00 0.00 0.00 0.00 0.00 0.00 0.01 0.01 0.02 0.02 0.03 0.02 0.00 0.00 0.00 0.00 0.00 0.00 0.00 0.00 0.00
0.00 0.00 0.00 0.00 0.00 0.00 0.00 0.00 0.00 0.00 0.00 0.00 0.00 0.00 0.00 0.00 0.00 0.00 0.00 0.00 0.00 0.01 0.01 0.00 0.00 0.00 0.00 0.00 0.01 0.01 0.01 0.00 0.00 0.00 0.00 0.00 0.00 0.00 0.00 0.00 0.00 0.00 0.00 0.00
0.00 0.00 0.00 0.00 0.00 0.00 0.00 0.00 0.00 0.00 0.00 0.00 0.00 0.00 0.00 0.00 0.00 0.01 0.02 0.03 0.02 0.01 0.00 0.01 0.01 0.02 0.03 0.01 0.00 0.00 0.00 0.00 0.00 0.00 0.00 0.00 0.00 0.00 0.00 0.00 0.00 0.00 0.00 0.00
0.00 0.00 0.00 0.00 0.00 0.00 0.00 0.00 0.00 0.00 0.00 0.00 0.00 0.00 0.00 0.00 0.02 0.04 0.03 0.02 0.01 0.01 0.02 0.02 0.01 0.01 0.00 0.00 0.00 0.00 0.00 0.00 0.00 0.00 0.00 0.00 0.00 0.00 0.00 0.00 0.00 0.00 0.00 0.00
0.00 0.00 0.00 0.00 0.00 0.00 0.00 0.00 0.00 0.00 0.00 0.00 0.00 0.00 0.00 0.00 0.00 0.00 0.00 0.01 0.02 0.04 0.02 0.01 0.00 0.01 0.01 0.00 0.00 0.00 0.00 0.00 0.00 0.00 0.00 0.00 0.01 0.01 0.00 0.00 0.00 0.00 0.00 0.00

GFSCGP_prec_precacc24_054.txt.gz
Total_Precipitation_Accumulation
0.03 0.00 0.00 0.01 0.00 0.00 0.00 0.00 0.00 0.00 0.00 0.00 0.00 0.00 0.00 0.00 0.00 0.00 0.00 0.00 0.00 0.00 0.00 0.00 0.00 0.01 0.01 0.03 0.13 0.19 0.32 0.69 0.71 0.35 0.14 0.04 0.02 0.03 0.03 0.04 0.02 0.00 0.00 0.00
0.01 0.00 0.00 0.00 0.00 0.00 0.00 0.00 0.00 0.00 0.00 0.00 0.00 0.00 0.00 0.00 0.00 0.00 0.00 0.00 0.00 0.00 0.00 0.00 0.00 0.00 0.04 0.09 0.22 0.38 0.33 0.19 0.04 0.01 0.00 0.00 0.00 0.04 0.03 0.03 0.00 0.00 0.00 0.00
0.03 0.00 0.00 0.00 0.00 0.00 0.00 0.00 0.00 0.00 0.00 0.00 0.00 0.00 0.00 0.00 0.00 0.00 0.00 0.00 0.00 0.00 0.00 0.00 0.01 0.04 0.07 0.06 0.10 0.07 0.06 0.04 0.02 0.00 0.00 0.00 0.02 0.04 0.02 0.00 0.00 0.00 0.00 0.00
0.02 0.00 0.00 0.00 0.00 0.00 0.00 0.00 0.00 0.00 0.00 0.00 0.00 0.00 0.00 0.00 0.00 0.00 0.00 0.00 0.00 0.02 0.00 0.00 0.00 0.00 0.00 0.01 0.08 0.06 0.05 0.04 0.03 0.00 0.00 0.00 0.01 0.02 0.01 0.00 0.00 0.00 0.00 0.00
0.03 0.00 0.00 0.00 0.00 0.00 0.01 0.00 0.00 0.00 0.00 0.02 0.01 0.00 0.01 0.00 0.00 0.00 0.00 0.00 0.00 0.00 0.00 0.00 0.00 0.00 0.01 0.02 0.07 0.08 0.09 0.09 0.05 0.02 0.04 0.07 0.10 0.09 0.05 0.02 0.00 0.00 0.00 0.00
0.00 0.01 0.01 0.00 0.00 0.00 0.00 0.00 0.00 0.00 0.00 0.00 0.00 0.01 0.00 0.00 0.01 0.01 0.01 0.00 0.00 0.01 0.02 0.00 0.01 0.01 0.00 0.03 0.05 0.04 0.11 0.07 0.13 0.07 0.09 0.10 0.11 0.10 0.05 0.01 0.00 0.00 0.00 0.00
0.00 0.00 0.01 0.01 0.00 0.00 0.00 0.00 0.00 0.07 0.04 0.00 0.00 0.00 0.00 0.00 0.00 0.00 0.00 0.00 0.01 0.00 0.00 0.00 0.00 0.00 0.00 0.01 0.02 0.06 0.13 0.15 0.16 0.20 0.13 0.09 0.08 0.04 0.02 0.00 0.00 0.00 0.00 0.00
0.00 0.00 0.00 0.01 0.00 0.01 0.00 0.00 0.01 0.03 0.04 0.00 0.01 0.02 0.00 0.00 0.00 0.00 0.00 0.00 0.00 0.00 0.00 0.00 0.00 0.00 0.01 0.03 0.02 0.09 0.09 0.17 0.17 0.20 0.14 0.08 0.06 0.01 0.00 0.00 0.00 0.00 0.00 0.00
0.01 0.02 0.02 0.01 0.00 0.00 0.01 0.00 0.01 0.00 0.01 0.00 0.00 0.00 0.00 0.00 0.00 0.00 0.00 0.00 0.00 0.00 0.00 0.00 0.00 0.00 0.04 0.02 0.04 0.10 0.13 0.16 0.16 0.15 0.07 0.05 0.03 0.01 0.00 0.00 0.00 0.00 0.00 0.01
0.02 0.06 0.01 0.00 0.00 0.00 0.00 0.00 0.00 0.00 0.00 0.00 0.00 0.00 0.00 0.01 0.01 0.00 0.00 0.00 0.00 0.00 0.00 0.00 0.00 0.00 0.01 0.03 0.07 0.07 0.05 0.09 0.09 0.06 0.05 0.03 0.01 0.01 0.00 0.00 0.01 0.01 0.02 0.06
0.00 0.06 0.07 0.02 0.00 0.00 0.00 0.00 0.00 0.00 0.00 0.00 0.00 0.00 0.00 0.00 0.00 0.00 0.00 0.00 0.00 0.00 0.00 0.00 0.00 0.00 0.00 0.01 0.03 0.02 0.02 0.02 0.03 0.04 0.04 0.03 0.02 0.02 0.02 0.01 0.01 0.01 0.04 0.09
0.00 0.00 0.02 0.01 0.01 0.00 0.00 0.00 0.01 0.00 0.00 0.00 0.00 0.00 0.00 0.00 0.00 0.00 0.00 0.00 0.00 0.00 0.00 0.00 0.00 0.00 0.00 0.00 0.00 0.00 0.02 0.04 0.09 0.09 0.08 0.06 0.07 0.09 0.08 0.05 0.06 0.10 0.11 0.08
0.00 0.00 0.00 0.00 0.01 0.01 0.00 0.00 0.00 0.00 0.00 0.00 0.00 0.00 0.00 0.00 0.00 0.00 0.00 0.00 0.00 0.00 0.00 0.00 0.00 0.00 0.00 0.00 0.01 0.04 0.06 0.10 0.14 0.11 0.10 0.11 0.10 0.09 0.09 0.09 0.07 0.04 0.01 0.01
0.00 0.00 0.00 0.00 0.00 0.00 0.00 0.00 0.00 0.00 0.00 0.00 0.00 0.00 0.00 0.00 0.00 0.00 0.00 0.00 0.00 0.00 0.00 0.00 0.00 0.00 0.00 0.01 0.07 0.10 0.10 0.12 0.15 0.17 0.17 0.16 0.11 0.07 0.04 0.02 0.01 0.00 0.01 0.02
0.00 0.00 0.00 0.00 0.00 0.00 0.00 0.00 0.00 0.00 0.00 0.00 0.00 0.00 0.00 0.00 0.00 0.00 0.00 0.00 0.00 0.00 0.00 0.00 0.01 0.03 0.03 0.05 0.11 0.12 0.16 0.15 0.16 0.14 0.12 0.10 0.06 0.02 0.01 0.01 0.00 0.02 0.04 0.02
0.00 0.00 0.00 0.00 0.00 0.00 0.00 0.00 0.00 0.00 0.00 0.00 0.00 0.00 0.00 0.00 0.00 0.00 0.00 0.00 0.00 0.00 0.00 0.00 0.01 0.04 0.05 0.06 0.08 0.10 0.09 0.09 0.09 0.08 0.06 0.03 0.01 0.01 0.00 0.00 0.01 0.02 0.00 0.00
0.00 0.00 0.00 0.00 0.00 0.00 0.00 0.00 0.00 0.00 0.00 0.00 0.00 0.00 0.00 0.00 0.00 0.00 0.00 0.00 0.00 0.00 0.00 0.00 0.00 0.00 0.01 0.02 0.05 0.06 0.06 0.05 0.03 0.02 0.01 0.01 0.01 0.00 0.00 0.00 0.00 0.00 0.03 0.05
0.00 0.00 0.00 0.00 0.00 0.00 0.00 0.00 0.00 0.00 0.00 0.00 0.00 0.00 0.00 0.00 0.00 0.00 0.00 0.00 0.00 0.00 0.00 0.00 0.00 0.00 0.00 0.00 0.00 0.00 0.00 0.01 0.01 0.00 0.00 0.00 0.00 0.00 0.00 0.00 0.03 0.08 0.07 0.03
0.01 0.02 0.00 0.00 0.00 0.00 0.00 0.00 0.00 0.00 0.00 0.00 0.00 0.00 0.00 0.00 0.00 0.00 0.00 0.00 0.00 0.00 0.00 0.00 0.00 0.00 0.00 0.00 0.00 0.00 0.00 0.00 0.00 0.00 0.00 0.00 0.00 0.00 0.04 0.10 0.12 0.09 0.02 0.00
0.00 0.01 0.00 0.00 0.00 0.00 0.00 0.00 0.00 0.00 0.00 0.00 0.00 0.00 0.00 0.00 0.00 0.00 0.00 0.00 0.00 0.00 0.00 0.00 0.00 0.00 0.00 0.00 0.00 0.00 0.00 0.00 0.00 0.00 0.00 0.00 0.04 0.16 0.18 0.10 0.03 0.00 0.00 0.00
0.01 0.01 0.01 0.00 0.00 0.00 0.00 0.00 0.00 0.00 0.00 0.00 0.00 0.00 0.00 0.00 0.00 0.00 0.00 0.00 0.00 0.00 0.00 0.00 0.00 0.00 0.00 0.00 0.00 0.00 0.00 0.00 0.00 0.01 0.08 0.14 0.14 0.05 0.00 0.00 0.00 0.00 0.00 0.00
0.00 0.00 0.00 0.00 0.00 0.00 0.00 0.00 0.00 0.00 0.00 0.00 0.00 0.00 0.00 0.00 0.00 0.00 0.00 0.00 0.00 0.00 0.00 0.00 0.00 0.00 0.00 0.00 0.00 0.01 0.01 0.02 0.03 0.05 0.03 0.00 0.00 0.00 0.00 0.00 0.00 0.00 0.00 0.00
0.00 0.00 0.00 0.00 0.00 0.00 0.00 0.00 0.00 0.00 0.00 0.00 0.00 0.00 0.00 0.00 0.00 0.00 0.00 0.00 0.00 0.01 0.01 0.00 0.00 0.00 0.00 0.00 0.01 0.01 0.01 0.00 0.00 0.00 0.00 0.00 0.00 0.00 0.00 0.00 0.00 0.00 0.00 0.00
0.00 0.00 0.00 0.00 0.00 0.00 0.00 0.00 0.00 0.00 0.00 0.00 0.00 0.00 0.00 0.00 0.00 0.00 0.00 0.01 0.02 0.01 0.00 0.01 0.01 0.02 0.03 0.01 0.00 0.00 0.00 0.00 0.00 0.00 0.00 0.00 0.00 0.00 0.00 0.00 0.00 0.00 0.00 0.00
0.00 0.00 0.00 0.00 0.00 0.00 0.00 0.00 0.00 0.00 0.00 0.00 0.00 0.00 0.00 0.00 0.00 0.00 0.00 0.01 0.01 0.01 0.02 0.02 0.01 0.01 0.00 0.00 0.00 0.00 0.00 0.00 0.00 0.00 0.00 0.00 0.00 0.00 0.00 0.00 0.00 0.00 0.00 0.00
0.00 0.00 0.00 0.00 0.00 0.00 0.00 0.00 0.00 0.00 0.00 0.00 0.00 0.00 0.00 0.00 0.00 0.00 0.00 0.01 0.02 0.04 0.02 0.01 0.00 0.01 0.01 0.00 0.00 0.00 0.00 0.00 0.00 0.00 0.00 0.00 0.00 0.00 0.00 0.00 0.00 0.00 0.00 0.00

GFSCGP_prec_precacc24_057.txt.gz
Total_Precipitation_Accumulation
0.03 0.00 0.00 0.01 0.00 0.00 0.00 0.00 0.00 0.00 0.00 0.00 0.00 0.00 0.00 0.00 0.00 0.00 0.00 0.00 0.00 0.00 0.00 0.00 0.00 0.00 0.00 0.01 0.07 0.09 0.19 0.34 0.44 0.28 0.13 0.04 0.02 0.02 0.05 0.11 0.10 0.04 0.02 0.00
0.01 0.00 0.00 0.00 0.00 0.00 0.00 0.00 0.00 0.00 0.00 0.00 0.00 0.00 0.00 0.00 0.00 0.00 0.00 0.00 0.00 0.00 0.00 0.00 0.00 0.00 0.00 0.01 0.07 0.21 0.25 0.16 0.04 0.01 0.00 0.00 0.00 0.04 0.04 0.10 0.07 0.03 0.00 0.00
0.03 0.00 0.00 0.00 0.00 0.00 0.00 0.00 0.00 0.00 0.00 0.00 0.00 0.00 0.00 0.00 0.00 0.00 0.00 0.00 0.00 0.00 0.00 0.00 0.00 0.00 0.01 0.01 0.09 0.07 0.06 0.04 0.02 0.00 0.00 0.00 0.02 0.05 0.04 0.05 0.05 0.01 0.00 0.00
0.02 0.00 0.00 0.00 0.00 0.00 0.00 0.00 0.00 0.00 0.00 0.00 0.00 0.00 0.00 0.00 0.00 0.00 0.00 0.00 0.00 0.02 0.00 0.00 0.00 0.00 0.00 0.01 0.08 0.06 0.05 0.04 0.03 0.00 0.00 0.00 0.02 0.04 0.07 0.08 0.04 0.01 0.00 0.00
0.03 0.00 0.00 0.00 0.00 0.00 0.01 0.00 0.00 0.00 0.00 0.02 0.01 0.00 0.01 0.00 0.00 0.00 0.00 0.00 0.00 0.00 0.00 0.00 0.00 0.00 0.01 0.02 0.07 0.08 0.09 0.09 0.05 0.02 0.04 0.07 0.11 0.13 0.11 0.08 0.04 0.02 0.00 0.00
0.00 0.01 0.01 0.00 0.00 0.00 0.00 0.00 0.00 0.00 0.00 0.00 0.00 0.01 0.00 0.00 0.01 0.01 0.01 0.00 0.00 0.01 0.02 0.00 0.01 0.01 0.00 0.03 0.05 0.04 0.11 0.07 0.13 0.08 0.11 0.13 0.13 0.12 0.09 0.07 0.03 0.01 0.00 0.00
0.00 0.00 0.01 0.01 0.00 0.00 0.00 0.00 0.00 0.07 0.04 0.00 0.00 0.00 0.00 0.00 0.00 0.00 0.00 0.00 0.01 0.00 0.00 0.00 0.00 0.00 0.00 0.01 0.02 0.06 0.13 0.15 0.16 0.23 0.16 0.14 0.11 0.07 0.03 0.01 0.01 0.01 0.02 0.01
0.00 0.00 0.00 0.01 0.00 0.01 0.00 0.00 0.01 0.03 0.04 0.00 0.01 0.02 0.00 0.00 0.00 0.00 0.00 0.00 0.00 0.00 0.00 0.00 0.00 0.00 0.01 0.03 0.02 0.09 0.09 0.17 0.17 0.23 0.21 0.14 0.11 0.03 0.01 0.01 0.02 0.02 0.01 0.00
0.01 0.02 0.02 0.01 0.00 0.00 0.01 0.00 0.01 0.00 0.01 0.00 0.00 0.00 0.00 0.00 0.00 0.00 0.00 0.00 0.00 0.00 0.00 0.00 0.00 0.00 0.04 0.02 0.04 0.10 0.13 0.16 0.17 0.17 0.18 0.20 0.13 0.06 0.03 0.03 0.02 0.01 0.00 0.01
0.02 0.06 0.01 0.00 0.00 0.00 0.00 0.00 0.00 0.00 0.00 0.00 0.00 0.00 0.00 0.01 0.01 0.00 0.00 0.00 0.00 0.00 0.00 0.00 0.00 0.00 0.01 0.03 0.07 0.07 0.05 0.09 0.09 0.10 0.13 0.14 0.10 0.07 0.03 0.02 0.01 0.01 0.02 0.07
0.00 0.06 0.07 0.02 0.00 0.00 0.00 0.00 0.00 0.00 0.00 0.00 0.00 0.00 0.00 0.00 0.00 0.00 0.00 0.00 0.00 0.00 0.00 0.00 0.00 0.00 0.00 0.01 0.03 0.02 0.02 0.02 0.04 0.08 0.11 0.10 0.10 0.06 0.05 0.05 0.03 0.02 0.06 0.12
0.00 0.00 0.02 0.01 0.01 0.00 0.00 0.00 0.01 0.00 0.00 0.00 0.00 0.00 0.00 0.00 0.00 0.00 0.00 0.00 0.00 0.00 0.00 0.00 0.00 0.00 0.00 0.00 0.00 0.00 0.02 0.04 0.11 0.15 0.17 0.17 0.18 0.20 0.20 0.15 0.11 0.15 0.17 0.12
0.00 0.00 0.00 0.00 0.01 0.01 0.00 0.00 0.00 0.00 0.00 0.00 0.00 0.00 0.00 0.00 0.00 0.00 0.00 0.00 0.00 0.00 0.00 0.00 0.00 0.00 0.00 0.00 0.01 0.04 0.06 0.11 0.18 0.15 0.17 0.23 0.21 0.19 0.19 0.17 0.16 0.16 0.15 0.03
0.00 0.00 0.00 0.00 0.00 0.00 0.00 0.00 0.00 0.00 0.00 0.00 0.00 0.00 0.00 0.00 0.00 0.00 0.00 0.00 0.00 0.00 0.00 0.00 0.00 0.00 0.00 0.01 0.07 0.11 0.11 0.15 0.19 0.21 0.22 0.25 0.23 0.20 0.15 0.09 0.06 0.04 0.03 0.02
0.00 0.00 0.00 0.00 0.00 0.00 0.00 0.00 0.00 0.00 0.00 0.00 0.00 0.00 0.00 0.00 0.00 0.00 0.00 0.00 0.00 0.00 0.00 0.00 0.01 0.03 0.03 0.05 0.13 0.15 0.17 0.16 0.18 0.17 0.15 0.14 0.10 0.06 0.04 0.03 0.01 0.02 0.05 0.06
0.00 0.00 0.00 0.00 0.00 0.00 0.00 0.00 0.00 0.00 0.00 0.00 0.00 0.00 0.00 0.00 0.00 0.00 0.00 0.00 0.00 0.00 0.00 0.00 0.01 0.04 0.05 0.07 0.10 0.10 0.10 0.09 0.09 0.08 0.07 0.04 0.02 0.01 0.01 0.00 0.01 0.02 0.02 0.02
0.00 0.00 0.00 0.00 0.00 0.00 0.00 0.00 0.00 0.00 0.00 0.00 0.00 0.00 0.00 0.00 0.00 0.00 0.00 0.00 0.00 0.00 0.00 0.00 0.00 0.00 0.01 0.02 0.05 0.06 0.06 0.05 0.03 0.02 0.01 0.01 0.01 0.00 0.00 0.00 0.00 0.01 0.04 0.07
0.00 0.00 0.00 0.00 0.00 0.00 0.00 0.00 0.00 0.00 0.00 0.00 0.00 0.00 0.00 0.00 0.00 0.00 0.00 0.00 0.00 0.00 0.00 0.00 0.00 0.00 0.00 0.00 0.00 0.00 0.00 0.01 0.01 0.00 0.00 0.00 0.00 0.00 0.00 0.01 0.05 0.10 0.12 0.14
0.01 0.02 0.00 0.00 0.00 0.00 0.00 0.00 0.00 0.00 0.00 0.00 0.00 0.00 0.00 0.00 0.00 0.00 0.00 0.00 0.00 0.00 0.00 0.00 0.00 0.00 0.00 0.00 0.00 0.00 0.00 0.00 0.00 0.00 0.00 0.00 0.00 0.00 0.04 0.11 0.18 0.16 0.09 0.02
0.00 0.01 0.00 0.00 0.00 0.00 0.00 0.00 0.00 0.00 0.00 0.00 0.00 0.00 0.00 0.00 0.00 0.00 0.00 0.00 0.00 0.00 0.00 0.00 0.00 0.00 0.00 0.00 0.00 0.00 0.00 0.00 0.00 0.00 0.00 0.00 0.04 0.18 0.23 0.14 0.04 0.00 0.00 0.00
0.01 0.01 0.01 0.00 0.00 0.00 0.00 0.00 0.00 0.00 0.00 0.00 0.00 0.00 0.00 0.00 0.00 0.00 0.00 0.00 0.00 0.00 0.00 0.00 0.00 0.00 0.00 0.00 0.00 0.00 0.00 0.00 0.00 0.01 0.08 0.15 0.15 0.06 0.00 0.00 0.00 0.00 0.00 0.00
0.00 0.00 0.00 0.00 0.00 0.00 0.00 0.00 0.00 0.00 0.00 0.00 0.00 0.00 0.00 0.00 0.00 0.00 0.00 0.00 0.00 0.00 0.00 0.00 0.00 0.00 0.00 0.00 0.00 0.01 0.01 0.02 0.03 0.05 0.03 0.00 0.00 0.00 0.00 0.00 0.00 0.00 0.00 0.00
0.00 0.00 0.00 0.00 0.00 0.00 0.00 0.00 0.00 0.00 0.00 0.00 0.00 0.00 0.00 0.00 0.00 0.00 0.00 0.00 0.00 0.00 0.00 0.00 0.00 0.00 0.00 0.00 0.01 0.01 0.01 0.00 0.00 0.00 0.00 0.00 0.00 0.00 0.00 0.00 0.00 0.00 0.00 0.00
0.00 0.01 0.00 0.00 0.00 0.00 0.00 0.00 0.00 0.00 0.00 0.00 0.00 0.00 0.00 0.00 0.00 0.00 0.00 0.00 0.00 0.00 0.00 0.01 0.01 0.02 0.03 0.01 0.00 0.00 0.00 0.00 0.00 0.00 0.00 0.00 0.00 0.00 0.00 0.00 0.00 0.00 0.00 0.00
0.00 0.00 0.00 0.00 0.00 0.00 0.00 0.00 0.00 0.00 0.00 0.00 0.00 0.00 0.00 0.00 0.00 0.00 0.00 0.00 0.00 0.01 0.02 0.02 0.01 0.01 0.00 0.00 0.00 0.00 0.00 0.00 0.00 0.00 0.00 0.00 0.00 0.00 0.00 0.00 0.00 0.00 0.00 0.00
0.00 0.00 0.00 0.00 0.01 0.00 0.00 0.00 0.00 0.00 0.00 0.00 0.00 0.00 0.00 0.00 0.00 0.00 0.00 0.00 0.02 0.04 0.02 0.01 0.00 0.01 0.01 0.00 0.00 0.00 0.00 0.00 0.00 0.00 0.00 0.00 0.00 0.00 0.00 0.00 0.00 0.00 0.00 0.00

GFSCGP_prec_precacc24_060.txt.gz
Total_Precipitation_Accumulation
0.03 0.00 0.00 0.01 0.00 0.00 0.00 0.00 0.00 0.00 0.00 0.00 0.00 0.00 0.00 0.00 0.00 0.00 0.00 0.00 0.00 0.00 0.00 0.00 0.00 0.00 0.00 0.00 0.07 0.05 0.03 0.05 0.06 0.09 0.05 0.02 0.02 0.02 0.05 0.11 0.12 0.09 0.08 0.06
0.01 0.00 0.00 0.00 0.00 0.00 0.00 0.00 0.00 0.00 0.00 0.00 0.00 0.00 0.00 0.00 0.00 0.00 0.00 0.00 0.00 0.00 0.00 0.00 0.00 0.00 0.00 0.00 0.05 0.11 0.04 0.06 0.02 0.01 0.00 0.00 0.00 0.04 0.04 0.10 0.09 0.07 0.08 0.06
0.03 0.00 0.00 0.00 0.00 0.00 0.00 0.00 0.00 0.00 0.00 0.00 0.00 0.00 0.00 0.00 0.00 0.00 0.00 0.00 0.00 0.00 0.00 0.00 0.00 0.00 0.01 0.01 0.09 0.07 0.06 0.04 0.02 0.00 0.00 0.00 0.02 0.05 0.04 0.08 0.14 0.09 0.05 0.02
0.02 0.00 0.00 0.00 0.00 0.00 0.00 0.00 0.00 0.00 0.00 0.00 0.00 0.00 0.00 0.00 0.00 0.00 0.00 0.00 0.00 0.02 0.00 0.00 0.00 0.00 0.00 0.01 0.08 0.06 0.05 0.04 0.03 0.00 0.00 0.00 0.02 0.04 0.07 0.10 0.08 0.03 0.01 0.00
0.03 0.00 0.00 0.00 0.00 0.00 0.01 0.00 0.00 0.00 0.00 0.02 0.01 0.00 0.01 0.00 0.00 0.00 0.00 0.00 0.00 0.00 0.00 0.00 0.00 0.00 0.01 0.02 0.07 0.08 0.09 0.09 0.05 0.02 0.04 0.07 0.11 0.13 0.12 0.09 0.05 0.03 0.04 0.02
0.00 0.01 0.01 0.00 0.00 0.00 0.00 0.00 0.00 0.00 0.00 0.00 0.00 0.01 0.00 0.00 0.01 0.01 0.01 0.00 0.00 0.01 0.02 0.00 0.01 0.01 0.00 0.03 0.05 0.04 0.11 0.07 0.13 0.08 0.11 0.13 0.15 0.13 0.10 0.07 0.04 0.03 0.02 0.01
0.00 0.00 0.01 0.01 0.00 0.00 0.00 0.00 0.00 0.08 0.04 0.00 0.00 0.00 0.00 0.00 0.00 0.00 0.00 0.00 0.01 0.00 0.00 0.00 0.00 0.00 0.00 0.01 0.02 0.06 0.13 0.15 0.16 0.23 0.16 0.15 0.16 0.10 0.04 0.02 0.02 0.02 0.03 0.02
0.00 0.00 0.00 0.01 0.00 0.01 0.00 0.00 0.01 0.04 0.04 0.00 0.01 0.02 0.00 0.00 0.00 0.00 0.00 0.00 0.00 0.00 0.00 0.00 0.00 0.00 0.01 0.03 0.02 0.09 0.09 0.17 0.17 0.23 0.21 0.22 0.19 0.06 0.03 0.03 0.04 0.05 0.03 0.02
0.01 0.02 0.02 0.01 0.00 0.00 0.01 0.00 0.01 0.00 0.01 0.00 0.00 0.00 0.00 0.00 0.00 0.00 0.00 0.00 0.00 0.00 0.00 0.00 0.00 0.00 0.04 0.02 0.04 0.10 0.13 0.16 0.17 0.17 0.19 0.28 0.23 0.10 0.07 0.06 0.05 0.05 0.04 0.05
0.02 0.06 0.01 0.00 0.00 0.00 0.00 0.00 0.00 0.00 0.00 0.00 0.00 0.00 0.00 0.01 0.01 0.00 0.00 0.00 0.00 0.00 0.00 0.00 0.00 0.00 0.01 0.03 0.07 0.07 0.06 0.09 0.09 0.10 0.14 0.19 0.20 0.15 0.09 0.06 0.05 0.04 0.05 0.09
0.00 0.06 0.07 0.02 0.00 0.00 0.00 0.00 0.00 0.00 0.00 0.00 0.00 0.00 0.00 0.00 0.00 0.00 0.00 0.00 0.00 0.00 0.00 0.00 0.00 0.00 0.00 0.01 0.03 0.02 0.02 0.02 0.04 0.08 0.11 0.11 0.14 0.12 0.10 0.08 0.07 0.05 0.08 0.14
0.00 0.00 0.02 0.01 0.01 0.00 0.00 0.00 0.01 0.00 0.00 0.00 0.00 0.00 0.00 0.00 0.00 0.00 0.00 0.00 0.00 0.00 0.00 0.00 0.00 0.00 0.00 0.00 0.00 0.00 0.02 0.04 0.11 0.15 0.18 0.19 0.23 0.25 0.25 0.20 0.15 0.16 0.18 0.16
0.00 0.00 0.00 0.00 0.01 0.01 0.00 0.00 0.00 0.00 0.00 0.00 0.00 0.00 0.00 0.00 0.00 0.00 0.00 0.00 0.00 0.00 0.00 0.00 0.00 0.00 0.00 0.00 0.01 0.04 0.06 0.11 0.18 0.15 0.18 0.24 0.24 0.23 0.23 0.21 0.21 0.29 0.47 0.52
0.00 0.00 0.00 0.00 0.00 0.00 0.00 0.00 0.00 0.00 0.00 0.00 0.00 0.00 0.00 0.00 0.00 0.00 0.00 0.00 0.00 0.00 0.00 0.00 0.00 0.00 0.00 0.01 0.07 0.11 0.11 0.16 0.19 0.21 0.23 0.27 0.26 0.22 0.17 0.13 0.14 0.17 0.16 0.12
0.00 0.00 0.00 0.00 0.00 0.00 0.00 0.00 0.00 0.00 0.00 0.00 0.00 0.00 0.00 0.00 0.00 0.00 0.00 0.00 0.00 0.00 0.00 0.00 0.01 0.03 0.03 0.05 0.13 0.15 0.18 0.18 0.20 0.19 0.16 0.15 0.10 0.06 0.04 0.03 0.02 0.03 0.05 0.06
0.00 0.00 0.00 0.00 0.00 0.00 0.00 0.00 0.00 0.00 0.00 0.00 0.00 0.00 0.00 0.00 0.00 0.00 0.00 0.00 0.00 0.00 0.00 0.00 0.01 0.04 0.05 0.07 0.11 0.13 0.13 0.14 0.13 0.10 0.08 0.04 0.02 0.01 0.01 0.00 0.02 0.03 0.02 0.02
0.00 0.00 0.00 0.00 0.00 0.00 0.00 0.00 0.00 0.00 0.00 0.00 0.00 0.00 0.00 0.00 0.00 0.00 0.00 0.00 0.00 0.00 0.00 0.00 0.00 0.00 0.01 0.02 0.05 0.06 0.06 0.06 0.04 0.02 0.01 0.01 0.01 0.00 0.00 0.01 0.00 0.01 0.04 0.07
0.00 0.00 0.00 0.00 0.00 0.00 0.00 0.00 0.00 0.00 0.00 0.00 0.00 0.00 0.00 0.00 0.00 0.00 0.00 0.00 0.00 0.00 0.00 0.00 0.00 0.00 0.00 0.00 0.00 0.00 0.00 0.01 0.01 0.00 0.00 0.00 0.00 0.00 0.00 0.01 0.05 0.10 0.13 0.16
0.01 0.02 0.00 0.00 0.00 0.00 0.00 0.00 0.00 0.00 0.00 0.00 0.00 0.00 0.00 0.00 0.00 0.00 0.00 0.00 0.00 0.00 0.00 0.00 0.00 0.00 0.00 0.00 0.00 0.00 0.00 0.00 0.00 0.00 0.00 0.00 0.00 0.00 0.04 0.12 0.19 0.18 0.10 0.02
0.00 0.01 0.00 0.00 0.00 0.00 0.00 0.00 0.00 0.00 0.00 0.00 0.00 0.00 0.00 0.00 0.00 0.00 0.00 0.00 0.00 0.00 0.00 0.00 0.00 0.00 0.00 0.00 0.00 0.00 0.00 0.00 0.00 0.00 0.00 0.00 0.04 0.18 0.23 0.15 0.05 0.00 0.00 0.00
0.01 0.01 0.01 0.00 0.00 0.00 0.00 0.00 0.00 0.00 0.00 0.00 0.00 0.00 0.00 0.00 0.00 0.00 0.00 0.00 0.00 0.00 0.00 0.00 0.00 0.00 0.00 0.00 0.00 0.00 0.00 0.00 0.00 0.01 0.08 0.15 0.15 0.06 0.00 0.00 0.00 0.00 0.00 0.00
0.00 0.00 0.00 0.00 0.00 0.00 0.00 0.00 0.00 0.00 0.00 0.00 0.00 0.00 0.00 0.00 0.00 0.00 0.00 0.00 0.00 0.00 0.00 0.00 0.00 0.00 0.00 0.00 0.00 0.01 0.01 0.02 0.03 0.05 0.03 0.00 0.00 0.00 0.00 0.00 0.00 0.00 0.00 0.00
0.01 0.00 0.00 0.00 0.00 0.00 0.00 0.00 0.00 0.00 0.00 0.00 0.00 0.00 0.00 0.00 0.00 0.00 0.00 0.00 0.00 0.00 0.00 0.00 0.00 0.00 0.00 0.00 0.01 0.01 0.01 0.00 0.00 0.00 0.00 0.00 0.00 0.00 0.00 0.00 0.00 0.00 0.00 0.00
0.00 0.01 0.00 0.00 0.00 0.00 0.00 0.00 0.00 0.00 0.00 0.00 0.00 0.00 0.00 0.00 0.00 0.00 0.00 0.00 0.00 0.00 0.00 0.00 0.01 0.02 0.03 0.01 0.00 0.00 0.00 0.00 0.00 0.00 0.00 0.00 0.00 0.00 0.00 0.00 0.00 0.00 0.00 0.00
0.00 0.01 0.00 0.00 0.00 0.00 0.00 0.00 0.00 0.00 0.00 0.00 0.00 0.00 0.00 0.00 0.00 0.00 0.00 0.00 0.00 0.00 0.00 0.01 0.01 0.01 0.00 0.00 0.00 0.00 0.00 0.00 0.00 0.00 0.00 0.00 0.00 0.00 0.00 0.00 0.00 0.00 0.00 0.00
0.00 0.00 0.00 0.00 0.01 0.00 0.00 0.00 0.00 0.00 0.00 0.00 0.00 0.00 0.00 0.00 0.00 0.00 0.00 0.00 0.00 0.01 0.01 0.01 0.00 0.00 0.00 0.00 0.00 0.00 0.00 0.00 0.00 0.00 0.00 0.00 0.00 0.00 0.00 0.00 0.00 0.00 0.00 0.00

GFSCGP_prec_precacc24_063.txt.gz
Total_Precipitation_Accumulation
0.03 0.00 0.00 0.01 0.00 0.00 0.00 0.00 0.00 0.00 0.00 0.00 0.00 0.00 0.00 0.00 0.00 0.00 0.00 0.00 0.00 0.00 0.00 0.00 0.00 0.00 0.00 0.00 0.07 0.05 0.02 0.01 0.01 0.01 0.01 0.00 0.02 0.02 0.05 0.11 0.14 0.14 0.10 0.07
0.01 0.00 0.00 0.00 0.00 0.00 0.00 0.00 0.00 0.00 0.00 0.00 0.00 0.00 0.00 0.00 0.00 0.00 0.00 0.00 0.00 0.00 0.00 0.00 0.00 0.00 0.00 0.00 0.05 0.10 0.03 0.04 0.02 0.01 0.00 0.00 0.00 0.04 0.04 0.10 0.10 0.08 0.09 0.07
0.03 0.00 0.00 0.00 0.00 0.00 0.00 0.00 0.00 0.00 0.00 0.00 0.00 0.00 0.00 0.00 0.00 0.00 0.00 0.00 0.00 0.00 0.00 0.00 0.00 0.00 0.01 0.01 0.08 0.07 0.06 0.04 0.02 0.00 0.00 0.00 0.02 0.05 0.04 0.08 0.14 0.10 0.06 0.03
0.01 0.00 0.00 0.00 0.00 0.00 0.00 0.00 0.00 0.00 0.00 0.00 0.00 0.00 0.00 0.00 0.00 0.00 0.00 0.00 0.00 0.02 0.00 0.00 0.00 0.00 0.00 0.01 0.08 0.06 0.05 0.04 0.03 0.00 0.00 0.00 0.02 0.04 0.07 0.10 0.08 0.03 0.02 0.01
0.03 0.00 0.00 0.00 0.00 0.00 0.01 0.00 0.00 0.00 0.00 0.01 0.01 0.00 0.01 0.00 0.00 0.00 0.00 0.00 0.00 0.00 0.00 0.00 0.00 0.00 0.01 0.02 0.07 0.08 0.09 0.09 0.05 0.02 0.04 0.07 0.11 0.13 0.12 0.09 0.05 0.03 0.04 0.04
0.00 0.01 0.01 0.00 0.00 0.00 0.00 0.00 0.00 0.00 0.00 0.00 0.00 0.01 0.01 0.00 0.01 0.01 0.01 0.00 0.00 0.01 0.02 0.00 0.01 0.01 0.00 0.03 0.05 0.04 0.11 0.07 0.13 0.08 0.11 0.13 0.15 0.13 0.10 0.07 0.04 0.03 0.02 0.03
0.00 0.00 0.01 0.01 0.00 0.00 0.00 0.00 0.01 0.10 0.05 0.00 0.00 0.00 0.00 0.00 0.00 0.00 0.00 0.00 0.01 0.00 0.00 0.00 0.00 0.00 0.00 0.01 0.02 0.06 0.13 0.15 0.16 0.23 0.16 0.15 0.16 0.10 0.04 0.02 0.02 0.02 0.03 0.03
0.00 0.00 0.00 0.01 0.00 0.01 0.00 0.00 0.02 0.07 0.04 0.02 0.01 0.02 0.00 0.00 0.00 0.00 0.00 0.00 0.00 0.00 0.00 0.00 0.00 0.00 0.01 0.03 0.02 0.09 0.09 0.17 0.17 0.23 0.21 0.22 0.19 0.06 0.04 0.04 0.09 0.08 0.05 0.03
0.01 0.02 0.02 0.01 0.00 0.00 0.01 0.00 0.01 0.00 0.01 0.00 0.00 0.00 0.00 0.00 0.00 0.00 0.00 0.00 0.00 0.00 0.00 0.00 0.00 0.00 0.04 0.02 0.04 0.10 0.13 0.16 0.17 0.17 0.19 0.28 0.24 0.11 0.07 0.07 0.06 0.06 0.05 0.06
0.02 0.06 0.01 0.00 0.00 0.00 0.00 0.00 0.00 0.00 0.01 0.00 0.00 0.00 0.00 0.01 0.01 0.00 0.00 0.00 0.00 0.00 0.00 0.00 0.00 0.00 0.01 0.03 0.07 0.07 0.06 0.09 0.09 0.10 0.14 0.20 0.22 0.19 0.10 0.07 0.07 0.07 0.07 0.10
0.00 0.06 0.07 0.02 0.00 0.00 0.00 0.00 0.00 0.00 0.00 0.00 0.00 0.00 0.00 0.00 0.00 0.00 0.00 0.00 0.00 0.00 0.00 0.00 0.00 0.00 0.00 0.01 0.03 0.02 0.02 0.02 0.04 0.08 0.11 0.12 0.18 0.16 0.15 0.16 0.13 0.09 0.11 0.17
0.00 0.00 0.02 0.01 0.01 0.00 0.00 0.00 0.01 0.00 0.00 0.00 0.00 0.00 0.00 0.00 0.00 0.00 0.00 0.00 0.00 0.00 0.00 0.00 0.00 0.00 0.00 0.00 0.00 0.00 0.02 0.04 0.11 0.15 0.18 0.20 0.23 0.26 0.27 0.23 0.17 0.19 0.20 0.17
0.00 0.00 0.00 0.00 0.01 0.01 0.00 0.00 0.00 0.00 0.00 0.00 0.00 0.00 0.00 0.00 0.00 0.00 0.00 0.00 0.00 0.00 0.00 0.00 0.00 0.00 0.00 0.00 0.01 0.04 0.06 0.11 0.18 0.15 0.18 0.24 0.24 0.24 0.24 0.22 0.21 0.30 0.48 0.61
0.00 0.00 0.00 0.00 0.00 0.00 0.00 0.00 0.00 0.00 0.00 0.00 0.00 0.00 0.00 0.00 0.00 0.00 0.00 0.00 0.00 0.00 0.00 0.00 0.00 0.00 0.00 0.01 0.07 0.11 0.11 0.16 0.19 0.21 0.23 0.29 0.29 0.23 0.18 0.14 0.14 0.18 0.17 0.14
0.00 0.00 0.00 0.00 0.00 0.00 0.00 0.00 0.00 0.00 0.00 0.00 0.00 0.00 0.00 0.00 0.00 0.00 0.00 0.00 0.00 0.00 0.00 0.00 0.01 0.03 0.03 0.05 0.13 0.15 0.18 0.18 0.21 0.19 0.18 0.18 0.13 0.08 0.06 0.04 0.02 0.03 0.05 0.07
0.00 0.00 0.00 0.00 0.00 0.00 0.00 0.00 0.00 0.00 0.00 0.00 0.00 0.00 0.00 0.00 0.00 0.00 0.00 0.00 0.00 0.00 0.00 0.00 0.01 0.04 0.05 0.07 0.11 0.13 0.15 0.16 0.15 0.12 0.14 0.10 0.07 0.02 0.01 0.00 0.02 0.03 0.03 0.02
0.00 0.00 0.00 0.00 0.00 0.00 0.00 0.00 0.00 0.00 0.00 0.00 0.00 0.00 0.00 0.00 0.00 0.00 0.00 0.00 0.00 0.00 0.00 0.00 0.00 0.00 0.01 0.02 0.05 0.07 0.07 0.08 0.05 0.05 0.02 0.01 0.01 0.01 0.00 0.01 0.00 0.01 0.04 0.07
0.00 0.00 0.00 0.00 0.00 0.00 0.00 0.00 0.00 0.00 0.00 0.00 0.00 0.00 0.00 0.00 0.00 0.00 0.00 0.00 0.00 0.00 0.00 0.00 0.00 0.00 0.00 0.00 0.00 0.01 0.00 0.01 0.01 0.00 0.00 0.00 0.00 0.00 0.00 0.01 0.05 0.10 0.13 0.16
0.01 0.02 0.00 0.00 0.00 0.00 0.00 0.00 0.00 0.00 0.00 0.00 0.00 0.00 0.00 0.00 0.00 0.00 0.00 0.00 0.00 0.00 0.00 0.00 0.00 0.00 0.00 0.00 0.00 0.00 0.00 0.00 0.00 0.00 0.00 0.00 0.00 0.00 0.04 0.12 0.19 0.18 0.10 0.02
0.00 0.01 0.02 0.00 0.00 0.00 0.00 0.00 0.00 0.00 0.00 0.00 0.00 0.00 0.00 0.00 0.00 0.00 0.00 0.00 0.00 0.00 0.00 0.00 0.00 0.00 0.00 0.00 0.00 0.00 0.00 0.00 0.00 0.00 0.00 0.00 0.04 0.18 0.23 0.15 0.05 0.00 0.00 0.00
0.01 0.01 0.04 0.03 0.00 0.00 0.00 0.00 0.00 0.00 0.00 0.00 0.00 0.00 0.00 0.00 0.00 0.00 0.00 0.00 0.00 0.00 0.00 0.00 0.00 0.00 0.00 0.00 0.00 0.00 0.00 0.00 0.00 0.01 0.08 0.15 0.15 0.06 0.00 0.00 0.00 0.00 0.00 0.00
0.00 0.02 0.01 0.02 0.01 0.00 0.00 0.00 0.00 0.00 0.00 0.00 0.00 0.00 0.00 0.00 0.00 0.00 0.00 0.00 0.00 0.00 0.00 0.00 0.00 0.00 0.00 0.00 0.00 0.01 0.01 0.02 0.03 0.05 0.03 0.00 0.00 0.00 0.00 0.00 0.00 0.00 0.00 0.00
0.02 0.03 0.03 0.01 0.00 0.00 0.00 0.00 0.00 0.00 0.00 0.00 0.00 0.00 0.00 0.00 0.00 0.00 0.00 0.00 0.00 0.00 0.00 0.00 0.00 0.00 0.00 0.00 0.00 0.01 0.01 0.00 0.00 0.00 0.00 0.00 0.00 0.00 0.00 0.00 0.00 0.00 0.00 0.00
0.00 0.01 0.00 0.01 0.00 0.00 0.00 0.00 0.00 0.00 0.00 0.00 0.00 0.00 0.00 0.00 0.00 0.00 0.00 0.00 0.00 0.00 0.00 0.00 0.00 0.01 0.01 0.01 0.00 0.00 0.00 0.00 0.00 0.00 0.00 0.00 0.00 0.00 0.00 0.00 0.00 0.00 0.00 0.00
0.00 0.01 0.00 0.00 0.00 0.00 0.00 0.00 0.00 0.00 0.00 0.00 0.00 0.00 0.00 0.00 0.00 0.00 0.00 0.00 0.00 0.00 0.00 0.00 0.00 0.01 0.00 0.00 0.00 0.00 0.00 0.00 0.00 0.00 0.00 0.00 0.00 0.00 0.00 0.00 0.00 0.00 0.00 0.00
0.00 0.00 0.00 0.00 0.01 0.00 0.00 0.00 0.00 0.00 0.00 0.00 0.00 0.00 0.00 0.00 0.00 0.00 0.00 0.00 0.00 0.00 0.00 0.00 0.00 0.00 0.00 0.00 0.00 0.00 0.00 0.00 0.00 0.00 0.00 0.00 0.00 0.00 0.00 0.00 0.00 0.00 0.00 0.00

GFSCGP_prec_precacc24_066.txt.gz
Total_Precipitation_Accumulation
0.03 0.00 0.00 0.01 0.00 0.00 0.00 0.00 0.00 0.00 0.00 0.00 0.00 0.00 0.00 0.01 0.00 0.01 0.00 0.00 0.00 0.00 0.00 0.00 0.00 0.00 0.00 0.00 0.03 0.03 0.00 0.00 0.00 0.00 0.01 0.00 0.02 0.02 0.05 0.11 0.14 0.17 0.15 0.10
0.01 0.00 0.00 0.00 0.00 0.00 0.00 0.00 0.00 0.00 0.00 0.00 0.00 0.00 0.00 0.00 0.00 0.00 0.00 0.00 0.00 0.00 0.00 0.00 0.00 0.00 0.00 0.00 0.05 0.08 0.02 0.01 0.01 0.01 0.00 0.00 0.00 0.04 0.04 0.10 0.10 0.09 0.13 0.09
0.03 0.00 0.00 0.00 0.00 0.00 0.00 0.00 0.00 0.00 0.00 0.00 0.00 0.00 0.00 0.00 0.00 0.00 0.00 0.00 0.00 0.00 0.00 0.00 0.00 0.00 0.01 0.00 0.05 0.06 0.05 0.03 0.02 0.00 0.00 0.00 0.02 0.05 0.04 0.08 0.14 0.11 0.07 0.04
0.00 0.00 0.00 0.00 0.00 0.00 0.00 0.00 0.00 0.00 0.00 0.00 0.00 0.01 0.00 0.00 0.00 0.00 0.00 0.00 0.00 0.02 0.00 0.00 0.00 0.00 0.00 0.01 0.06 0.05 0.05 0.04 0.03 0.00 0.00 0.00 0.02 0.04 0.07 0.10 0.08 0.03 0.02 0.01
0.00 0.00 0.00 0.00 0.00 0.00 0.00 0.00 0.00 0.00 0.00 0.00 0.00 0.01 0.00 0.00 0.00 0.00 0.00 0.00 0.00 0.00 0.00 0.00 0.00 0.00 0.00 0.02 0.07 0.08 0.09 0.09 0.05 0.02 0.04 0.07 0.11 0.13 0.12 0.09 0.05 0.03 0.05 0.04
0.00 0.00 0.01 0.00 0.00 0.00 0.00 0.00 0.00 0.00 0.00 0.00 0.00 0.01 0.01 0.00 0.00 0.00 0.01 0.00 0.00 0.01 0.02 0.00 0.00 0.01 0.00 0.03 0.05 0.04 0.11 0.07 0.13 0.08 0.11 0.13 0.15 0.14 0.10 0.07 0.04 0.03 0.02 0.03
0.00 0.00 0.01 0.01 0.00 0.00 0.00 0.00 0.01 0.05 0.03 0.00 0.00 0.00 0.00 0.00 0.00 0.00 0.00 0.00 0.01 0.00 0.00 0.00 0.00 0.00 0.00 0.01 0.02 0.06 0.13 0.15 0.16 0.23 0.16 0.15 0.16 0.12 0.05 0.02 0.02 0.05 0.09 0.11
0.00 0.00 0.00 0.01 0.00 0.00 0.00 0.00 0.01 0.10 0.06 0.05 0.03 0.02 0.00 0.00 0.00 0.00 0.00 0.00 0.00 0.00 0.00 0.00 0.00 0.00 0.01 0.03 0.02 0.09 0.09 0.17 0.17 0.23 0.21 0.22 0.19 0.06 0.05 0.04 0.09 0.14 0.12 0.08
0.00 0.01 0.02 0.01 0.00 0.00 0.01 0.00 0.01 0.03 0.03 0.03 0.02 0.00 0.00 0.00 0.00 0.00 0.00 0.00 0.00 0.00 0.00 0.00 0.00 0.00 0.04 0.02 0.04 0.10 0.13 0.16 0.17 0.17 0.19 0.28 0.24 0.11 0.07 0.07 0.12 0.14 0.09 0.07
0.00 0.00 0.01 0.00 0.00 0.00 0.00 0.00 0.00 0.00 0.04 0.01 0.00 0.00 0.00 0.01 0.01 0.00 0.00 0.00 0.00 0.00 0.00 0.00 0.00 0.00 0.01 0.03 0.07 0.07 0.06 0.09 0.09 0.10 0.14 0.20 0.22 0.23 0.14 0.15 0.23 0.20 0.13 0.14
0.00 0.02 0.05 0.02 0.00 0.00 0.00 0.00 0.00 0.00 0.00 0.00 0.00 0.00 0.00 0.00 0.00 0.00 0.00 0.00 0.00 0.00 0.00 0.00 0.00 0.00 0.00 0.01 0.03 0.02 0.02 0.02 0.04 0.08 0.11 0.13 0.23 0.23 0.35 0.50 0.28 0.16 0.19 0.25
0.00 0.00 0.02 0.01 0.01 0.00 0.00 0.00 0.01 0.01 0.00 0.00 0.00 0.00 0.00 0.00 0.00 0.00 0.00 0.00 0.00 0.00 0.00 0.00 0.00 0.00 0.00 0.00 0.00 0.00 0.02 0.04 0.11 0.16 0.36 0.35 0.58 0.51 0.33 0.37 0.29 0.28 0.28 0.23
0.00 0.00 0.00 0.00 0.01 0.01 0.00 0.00 0.00 0.00 0.00 0.00 0.02 0.00 0.00 0.00 0.00 0.00 0.00 0.00 0.00 0.00 0.00 0.00 0.00 0.00 0.00 0.00 0.01 0.04 0.07 0.12 0.22 0.32 0.45 0.35 0.52 0.26 0.25 0.25 0.26 0.34 0.53 0.65
0.00 0.00 0.00 0.00 0.00 0.00 0.00 0.00 0.00 0.00 0.00 0.00 0.00 0.00 0.00 0.00 0.00 0.00 0.00 0.00 0.00 0.00 0.00 0.00 0.00 0.00 0.00 0.01 0.07 0.11 0.12 0.18 0.24 0.24 0.27 0.34 0.33 0.25 0.24 0.16 0.21 0.21 0.19 0.16
0.00 0.00 0.00 0.00 0.00 0.00 0.00 0.00 0.00 0.00 0.00 0.00 0.00 0.00 0.00 0.00 0.00 0.00 0.00 0.00 0.00 0.00 0.00 0.00 0.01 0.03 0.03 0.05 0.13 0.16 0.20 0.19 0.23 0.22 0.20 0.21 0.18 0.18 0.09 0.06 0.06 0.05 0.06 0.07
0.00 0.00 0.00 0.00 0.00 0.00 0.00 0.00 0.00 0.00 0.00 0.00 0.00 0.00 0.00 0.00 0.00 0.00 0.00 0.00 0.00 0.00 0.00 0.00 0.01 0.04 0.05 0.07 0.11 0.15 0.15 0.16 0.17 0.14 0.17 0.13 0.13 0.09 0.05 0.04 0.02 0.03 0.03 0.02
0.00 0.00 0.00 0.00 0.00 0.00 0.00 0.00 0.00 0.00 0.00 0.00 0.00 0.00 0.00 0.00 0.00 0.00 0.00 0.00 0.00 0.00 0.00 0.00 0.00 0.01 0.03 0.03 0.05 0.07 0.07 0.09 0.07 0.09 0.08 0.07 0.06 0.04 0.02 0.01 0.01 0.01 0.04 0.07
0.00 0.00 0.00 0.00 0.00 0.00 0.00 0.00 0.00 0.00 0.00 0.00 0.00 0.00 0.00 0.00 0.00 0.00 0.00 0.00 0.00 0.00 0.00 0.00 0.00 0.02 0.00 0.00 0.00 0.01 0.01 0.02 0.01 0.01 0.01 0.01 0.00 0.00 0.00 0.01 0.05 0.10 0.13 0.16
0.02 0.02 0.00 0.02 0.01 0.00 0.00 0.00 0.00 0.00 0.00 0.00 0.00 0.00 0.00 0.00 0.00 0.00 0.00 0.00 0.00 0.00 0.00 0.00 0.00 0.00 0.00 0.00 0.00 0.00 0.00 0.00 0.00 0.00 0.00 0.00 0.00 0.00 0.04 0.12 0.19 0.18 0.10 0.02
0.01 0.02 0.07 0.01 0.01 0.00 0.00 0.00 0.00 0.00 0.00 0.00 0.00 0.00 0.00 0.00 0.00 0.00 0.00 0.00 0.00 0.00 0.00 0.00 0.00 0.00 0.00 0.00 0.00 0.00 0.00 0.00 0.00 0.00 0.00 0.00 0.04 0.18 0.23 0.15 0.05 0.00 0.00 0.00
0.03 0.04 0.12 0.06 0.01 0.00 0.00 0.00 0.00 0.00 0.00 0.00 0.00 0.00 0.00 0.00 0.00 0.00 0.00 0.00 0.00 0.00 0.00 0.00 0.00 0.00 0.00 0.00 0.00 0.00 0.00 0.00 0.00 0.01 0.08 0.15 0.15 0.06 0.00 0.00 0.00 0.00 0.00 0.00
0.02 0.04 0.05 0.07 0.04 0.00 0.00 0.00 0.00 0.00 0.00 0.00 0.00 0.00 0.00 0.00 0.00 0.00 0.00 0.00 0.00 0.00 0.00 0.00 0.00 0.00 0.00 0.00 0.00 0.00 0.01 0.02 0.03 0.04 0.03 0.00 0.00 0.00 0.00 0.00 0.00 0.00 0.00 0.00
0.05 0.03 0.04 0.02 0.00 0.00 0.00 0.00 0.00 0.00 0.00 0.00 0.00 0.00 0.00 0.00 0.00 0.00 0.00 0.00 0.00 0.00 0.00 0.00 0.00 0.00 0.00 0.00 0.00 0.00 0.00 0.00 0.00 0.00 0.00 0.00 0.00 0.00 0.00 0.00 0.00 0.00 0.00 0.00
0.01 0.03 0.08 0.07 0.00 0.00 0.00 0.00 0.00 0.00 0.00 0.00 0.00 0.00 0.00 0.00 0.00 0.00 0.00 0.00 0.00 0.00 0.00 0.00 0.00 0.00 0.00 0.00 0.00 0.00 0.00 0.00 0.00 0.00 0.00 0.00 0.00 0.00 0.00 0.00 0.00 0.00 0.00 0.00
0.00 0.01 0.01 0.03 0.01 0.01 0.03 0.01 0.00 0.00 0.00 0.00 0.00 0.00 0.00 0.00 0.00 0.00 0.00 0.00 0.00 0.00 0.00 0.00 0.00 0.00 0.00 0.00 0.00 0.00 0.00 0.00 0.00 0.00 0.00 0.00 0.00 0.00 0.00 0.00 0.00 0.00 0.00 0.00
0.00 0.00 0.00 0.00 0.01 0.00 0.00 0.00 0.00 0.00 0.00 0.00 0.00 0.00 0.00 0.00 0.00 0.00 0.00 0.00 0.00 0.00 0.00 0.00 0.00 0.00 0.00 0.00 0.00 0.00 0.00 0.00 0.00 0.00 0.00 0.00 0.00 0.00 0.00 0.00 0.00 0.00 0.00 0.00

GFSCGP_prec_precacc24_069.txt.gz
Total_Precipitation_Accumulation
0.00 0.00 0.00 0.01 0.00 0.00 0.00 0.00 0.00 0.00 0.00 0.00 0.00 0.00 0.00 0.01 0.11 0.09 0.14 0.06 0.01 0.00 0.00 0.00 0.00 0.00 0.00 0.00 0.00 0.00 0.00 0.00 0.00 0.00 0.01 0.00 0.02 0.02 0.05 0.11 0.14 0.17 0.15 0.10
0.00 0.00 0.00 0.00 0.00 0.00 0.00 0.00 0.00 0.00 0.00 0.00 0.00 0.00 0.00 0.00 0.00 0.01 0.01 0.02 0.02 0.00 0.00 0.00 0.00 0.00 0.00 0.00 0.01 0.02 0.01 0.00 0.00 0.00 0.00 0.00 0.00 0.04 0.04 0.10 0.10 0.09 0.14 0.09
0.00 0.00 0.00 0.00 0.00 0.00 0.00 0.00 0.00 0.00 0.00 0.00 0.00 0.00 0.00 0.00 0.01 0.01 0.01 0.00 0.00 0.00 0.00 0.00 0.00 0.00 0.00 0.00 0.00 0.02 0.05 0.02 0.00 0.00 0.00 0.00 0.02 0.05 0.04 0.08 0.14 0.11 0.07 0.05
0.00 0.00 0.00 0.00 0.00 0.00 0.00 0.00 0.00 0.00 0.00 0.00 0.00 0.01 0.00 0.00 0.00 0.00 0.00 0.00 0.00 0.00 0.00 0.00 0.00 0.00 0.00 0.00 0.00 0.04 0.05 0.03 0.03 0.00 0.00 0.00 0.02 0.04 0.07 0.10 0.08 0.04 0.02 0.02
0.00 0.00 0.00 0.00 0.00 0.00 0.00 0.00 0.00 0.00 0.00 0.00 0.00 0.01 0.01 0.00 0.00 0.00 0.00 0.00 0.00 0.00 0.00 0.00 0.00 0.00 0.00 0.00 0.03 0.08 0.09 0.09 0.05 0.02 0.04 0.07 0.11 0.13 0.12 0.09 0.05 0.03 0.05 0.04
0.00 0.00 0.00 0.00 0.00 0.00 0.00 0.00 0.00 0.00 0.00 0.00 0.00 0.02 0.01 0.00 0.00 0.00 0.00 0.00 0.00 0.00 0.01 0.00 0.00 0.00 0.00 0.02 0.03 0.04 0.11 0.07 0.13 0.08 0.11 0.13 0.16 0.15 0.10 0.07 0.04 0.03 0.02 0.03
0.00 0.00 0.00 0.00 0.00 0.00 0.00 0.00 0.01 0.05 0.02 0.00 0.00 0.00 0.00 0.00 0.00 0.00 0.00 0.00 0.00 0.00 0.00 0.00 0.00 0.00 0.00 0.01 0.02 0.06 0.12 0.15 0.16 0.23 0.17 0.18 0.16 0.17 0.06 0.02 0.02 0.05 0.09 0.11
0.00 0.00 0.00 0.01 0.00 0.00 0.00 0.00 0.01 0.10 0.04 0.05 0.03 0.00 0.00 0.00 0.00 0.00 0.00 0.00 0.00 0.00 0.00 0.00 0.00 0.00 0.01 0.03 0.02 0.09 0.09 0.17 0.17 0.23 0.21 0.23 0.19 0.07 0.13 0.05 0.09 0.14 0.12 0.08
0.00 0.00 0.00 0.00 0.00 0.00 0.00 0.00 0.00 0.03 0.04 0.06 0.02 0.00 0.00 0.00 0.00 0.00 0.00 0.00 0.00 0.00 0.00 0.00 0.00 0.00 0.04 0.02 0.04 0.10 0.13 0.16 0.17 0.17 0.19 0.28 0.24 0.11 0.08 0.08 0.13 0.16 0.13 0.09
0.00 0.00 0.00 0.00 0.00 0.00 0.00 0.00 0.00 0.01 0.05 0.04 0.00 0.00 0.00 0.00 0.00 0.00 0.00 0.00 0.00 0.00 0.00 0.00 0.00 0.00 0.01 0.03 0.07 0.07 0.06 0.09 0.09 0.10 0.14 0.20 0.22 0.26 0.18 0.17 0.31 0.40 0.39 0.31
0.00 0.00 0.00 0.00 0.00 0.00 0.00 0.00 0.00 0.00 0.00 0.01 0.00 0.01 0.00 0.00 0.00 0.00 0.00 0.00 0.00 0.00 0.00 0.00 0.00 0.00 0.01 0.01 0.03 0.02 0.02 0.02 0.04 0.09 0.12 0.13 0.23 0.27 0.54 0.82 0.80 0.58 0.54 0.44
0.00 0.00 0.00 0.00 0.00 0.00 0.00 0.00 0.01 0.01 0.00 0.00 0.00 0.00 0.00 0.00 0.00 0.00 0.00 0.00 0.00 0.00 0.00 0.00 0.00 0.01 0.03 0.01 0.00 0.00 0.02 0.04 0.12 0.19 0.46 0.51 0.81 0.91 0.88 1.13 0.88 0.39 0.31 0.27
0.00 0.00 0.00 0.01 0.00 0.00 0.00 0.00 0.00 0.00 0.00 0.00 0.02 0.00 0.00 0.00 0.00 0.00 0.00 0.00 0.00 0.00 0.00 0.00 0.00 0.00 0.00 0.02 0.02 0.04 0.20 0.43 0.73 0.81 0.87 0.75 0.96 0.85 0.83 0.53 0.44 0.43 0.58 0.69
0.00 0.00 0.00 0.01 0.00 0.00 0.00 0.00 0.00 0.00 0.00 0.00 0.00 0.00 0.00 0.00 0.00 0.00 0.00 0.00 0.00 0.00 0.00 0.00 0.00 0.00 0.00 0.01 0.07 0.13 0.25 0.39 0.57 0.38 0.35 0.51 0.54 0.43 0.36 0.25 0.25 0.23 0.22 0.18
0.00 0.00 0.00 0.00 0.00 0.00 0.00 0.00 0.00 0.00 0.00 0.00 0.00 0.00 0.00 0.00 0.00 0.00 0.00 0.00 0.00 0.00 0.00 0.00 0.01 0.02 0.01 0.04 0.12 0.15 0.21 0.22 0.28 0.26 0.27 0.27 0.24 0.23 0.12 0.08 0.09 0.09 0.08 0.08
0.00 0.00 0.00 0.00 0.00 0.00 0.00 0.00 0.00 0.00 0.00 0.00 0.00 0.00 0.00 0.00 0.00 0.00 0.00 0.00 0.00 0.00 0.00 0.00 0.01 0.02 0.04 0.06 0.11 0.15 0.16 0.18 0.19 0.16 0.20 0.17 0.16 0.10 0.09 0.09 0.04 0.04 0.03 0.03
0.00 0.00 0.00 0.00 0.00 0.00 0.00 0.00 0.00 0.00 0.00 0.00 0.00 0.00 0.00 0.00 0.00 0.00 0.00 0.00 0.00 0.00 0.00 0.00 0.00 0.01 0.03 0.04 0.05 0.08 0.08 0.09 0.08 0.11 0.09 0.08 0.07 0.05 0.03 0.03 0.01 0.01 0.04 0.07
0.00 0.00 0.00 0.00 0.00 0.00 0.00 0.00 0.00 0.00 0.00 0.00 0.00 0.00 0.00 0.00 0.00 0.00 0.00 0.00 0.00 0.00 0.00 0.00 0.01 0.02 0.00 0.00 0.00 0.01 0.01 0.02 0.01 0.01 0.01 0.01 0.01 0.00 0.00 0.01 0.05 0.10 0.13 0.16
0.01 0.01 0.02 0.02 0.01 0.00 0.00 0.00 0.00 0.00 0.00 0.00 0.00 0.00 0.00 0.00 0.00 0.00 0.00 0.00 0.00 0.00 0.00 0.00 0.00 0.00 0.00 0.00 0.00 0.00 0.00 0.00 0.00 0.00 0.00 0.00 0.00 0.00 0.04 0.12 0.19 0.18 0.10 0.02
0.01 0.02 0.12 0.02 0.01 0.00 0.00 0.00 0.00 0.00 0.00 0.00 0.00 0.00 0.00 0.00 0.00 0.00 0.00 0.00 0.00 0.00 0.00 0.00 0.00 0.00 0.00 0.00 0.00 0.00 0.00 0.00 0.00 0.00 0.00 0.00 0.04 0.18 0.23 0.15 0.05 0.00 0.00 0.00
0.03 0.04 0.14 0.07 0.02 0.00 0.00 0.00 0.00 0.00 0.00 0.00 0.00 0.00 0.00 0.00 0.00 0.00 0.00 0.00 0.00 0.00 0.00 0.00 0.00 0.00 0.00 0.00 0.00 0.00 0.00 0.00 0.00 0.01 0.08 0.15 0.15 0.05 0.00 0.00 0.00 0.00 0.00 0.00
0.02 0.04 0.05 0.09 0.05 0.01 0.00 0.00 0.00 0.00 0.00 0.00 0.00 0.00 0.00 0.00 0.00 0.00 0.00 0.00 0.00 0.00 0.00 0.00 0.00 0.00 0.00 0.00 0.00 0.00 0.01 0.02 0.03 0.04 0.03 0.00 0.00 0.00 0.00 0.00 0.00 0.00 0.00 0.00
0.05 0.04 0.05 0.02 0.01 0.00 0.00 0.00 0.00 0.00 0.00 0.00 0.00 0.00 0.00 0.00 0.00 0.00 0.00 0.00 0.00 0.00 0.00 0.00 0.00 0.00 0.00 0.00 0.00 0.00 0.00 0.00 0.00 0.00 0.00 0.00 0.00 0.00 0.00 0.00 0.00 0.00 0.00 0.00
0.01 0.03 0.09 0.09 0.01 0.02 0.04 0.02 0.00 0.00 0.00 0.00 0.00 0.00 0.01 0.01 0.00 0.00 0.00 0.00 0.00 0.00 0.00 0.00 0.00 0.00 0.00 0.00 0.00 0.00 0.00 0.00 0.00 0.00 0.00 0.00 0.00 0.00 0.00 0.00 0.00 0.00 0.00 0.00
0.00 0.02 0.02 0.04 0.04 0.05 0.07 0.07 0.01 0.00 0.00 0.00 0.00 0.00 0.00 0.00 0.00 0.00 0.00 0.00 0.00 0.00 0.00 0.00 0.00 0.00 0.00 0.00 0.00 0.00 0.00 0.00 0.00 0.00 0.00 0.00 0.00 0.00 0.00 0.00 0.00 0.00 0.00 0.00
0.00 0.00 0.01 0.00 0.01 0.01 0.00 0.00 0.00 0.00 0.00 0.00 0.00 0.00 0.00 0.00 0.00 0.00 0.00 0.00 0.00 0.00 0.00 0.00 0.00 0.00 0.00 0.00 0.00 0.00 0.00 0.00 0.00 0.00 0.00 0.00 0.00 0.00 0.00 0.00 0.00 0.00 0.00 0.00

GFSCGP_prec_precacc24_072.txt.gz
Total_Precipitation_Accumulation
0.00 0.00 0.00 0.00 0.00 0.00 0.00 0.00 0.00 0.00 0.00 0.00 0.00 0.00 0.00 0.01 0.11 0.09 0.14 0.07 0.01 0.00 0.00 0.00 0.00 0.00 0.00 0.00 0.00 0.00 0.00 0.00 0.00 0.00 0.00 0.00 0.01 0.02 0.05 0.11 0.14 0.17 0.15 0.10
0.00 0.00 0.00 0.00 0.00 0.00 0.00 0.00 0.00 0.00 0.00 0.00 0.00 0.00 0.00 0.00 0.00 0.02 0.02 0.03 0.02 0.00 0.00 0.00 0.00 0.00 0.00 0.00 0.01 0.02 0.01 0.00 0.00 0.00 0.00 0.00 0.00 0.04 0.04 0.10 0.10 0.09 0.14 0.09
0.00 0.00 0.00 0.00 0.00 0.00 0.00 0.00 0.00 0.00 0.00 0.00 0.00 0.00 0.00 0.00 0.01 0.01 0.01 0.01 0.01 0.00 0.00 0.00 0.00 0.00 0.00 0.00 0.00 0.02 0.02 0.00 0.00 0.00 0.00 0.00 0.02 0.05 0.04 0.08 0.14 0.11 0.07 0.05
0.00 0.00 0.00 0.00 0.00 0.00 0.00 0.00 0.00 0.00 0.00 0.00 0.00 0.01 0.00 0.00 0.00 0.00 0.00 0.00 0.00 0.00 0.00 0.00 0.00 0.00 0.00 0.00 0.00 0.01 0.04 0.02 0.01 0.00 0.00 0.00 0.02 0.04 0.07 0.10 0.08 0.04 0.02 0.02
0.00 0.00 0.00 0.00 0.00 0.00 0.00 0.00 0.00 0.00 0.00 0.00 0.00 0.01 0.01 0.00 0.00 0.00 0.00 0.00 0.00 0.00 0.00 0.00 0.00 0.00 0.00 0.00 0.00 0.02 0.07 0.06 0.03 0.01 0.04 0.07 0.11 0.13 0.12 0.09 0.05 0.03 0.05 0.04
0.00 0.00 0.00 0.00 0.00 0.00 0.00 0.00 0.00 0.00 0.00 0.00 0.00 0.02 0.01 0.00 0.00 0.00 0.00 0.00 0.00 0.00 0.00 0.00 0.00 0.00 0.00 0.00 0.00 0.01 0.11 0.06 0.10 0.07 0.11 0.13 0.16 0.15 0.10 0.07 0.04 0.03 0.02 0.03
0.00 0.00 0.00 0.00 0.00 0.00 0.00 0.00 0.01 0.05 0.02 0.00 0.00 0.00 0.00 0.00 0.00 0.00 0.00 0.00 0.00 0.00 0.00 0.00 0.00 0.00 0.00 0.01 0.01 0.03 0.10 0.15 0.16 0.23 0.17 0.18 0.16 0.17 0.06 0.02 0.02 0.05 0.09 0.11
0.00 0.00 0.00 0.00 0.00 0.00 0.00 0.00 0.01 0.10 0.04 0.05 0.03 0.00 0.00 0.00 0.00 0.00 0.00 0.00 0.00 0.00 0.00 0.00 0.00 0.00 0.00 0.01 0.01 0.04 0.08 0.17 0.17 0.23 0.21 0.23 0.19 0.07 0.13 0.05 0.10 0.14 0.12 0.08
0.00 0.00 0.00 0.00 0.00 0.00 0.00 0.00 0.00 0.03 0.04 0.06 0.02 0.00 0.00 0.00 0.00 0.00 0.00 0.00 0.00 0.00 0.00 0.00 0.00 0.00 0.00 0.00 0.01 0.07 0.12 0.16 0.17 0.17 0.19 0.28 0.27 0.14 0.08 0.11 0.13 0.17 0.13 0.09
0.00 0.00 0.00 0.00 0.00 0.00 0.00 0.00 0.00 0.00 0.05 0.04 0.00 0.00 0.00 0.00 0.00 0.00 0.00 0.00 0.00 0.00 0.00 0.00 0.00 0.00 0.00 0.00 0.04 0.07 0.06 0.08 0.09 0.09 0.14 0.20 0.23 0.33 0.23 0.22 0.41 0.44 0.43 0.37
0.00 0.00 0.00 0.00 0.00 0.00 0.00 0.00 0.00 0.00 0.00 0.01 0.00 0.01 0.00 0.00 0.00 0.00 0.00 0.00 0.00 0.00 0.00 0.00 0.01 0.01 0.01 0.01 0.03 0.02 0.02 0.02 0.06 0.14 0.15 0.13 0.23 0.26 0.66 0.99 1.03 0.88 0.86 0.93
0.00 0.00 0.00 0.00 0.00 0.00 0.00 0.00 0.00 0.01 0.00 0.00 0.01 0.00 0.00 0.00 0.00 0.00 0.00 0.00 0.00 0.00 0.00 0.00 0.00 0.01 0.03 0.01 0.00 0.00 0.02 0.08 0.29 0.51 0.80 0.72 0.92 1.00 1.08 1.43 1.38 1.15 0.88 0.58
0.00 0.00 0.00 0.01 0.00 0.00 0.00 0.00 0.00 0.00 0.00 0.00 0.02 0.00 0.00 0.00 0.00 0.00 0.00 0.00 0.00 0.00 0.00 0.00 0.00 0.00 0.00 0.02 0.02 0.05 0.23 0.62 0.95 1.11 1.13 0.96 1.27 1.31 1.57 1.22 0.84 0.73 0.73 0.77
0.00 0.00 0.00 0.01 0.00 0.00 0.00 0.00 0.00 0.00 0.00 0.00 0.00 0.00 0.00 0.00 0.00 0.00 0.00 0.00 0.00 0.00 0.00 0.00 0.00 0.00 0.00 0.01 0.07 0.13 0.26 0.43 0.74 0.45 0.36 0.52 0.65 0.59 0.54 0.38 0.34 0.30 0.26 0.24
0.00 0.00 0.00 0.00 0.00 0.00 0.00 0.00 0.00 0.00 0.00 0.00 0.00 0.00 0.00 0.00 0.00 0.00 0.00 0.00 0.00 0.00 0.00 0.00 0.00 0.01 0.01 0.04 0.11 0.14 0.18 0.18 0.24 0.25 0.26 0.27 0.27 0.28 0.17 0.13 0.13 0.12 0.13 0.14
0.00 0.00 0.00 0.00 0.00 0.00 0.00 0.00 0.00 0.00 0.00 0.00 0.00 0.00 0.00 0.00 0.00 0.00 0.00 0.00 0.00 0.00 0.00 0.00 0.00 0.01 0.02 0.04 0.09 0.12 0.12 0.15 0.18 0.18 0.21 0.18 0.18 0.13 0.10 0.10 0.04 0.06 0.06 0.05
0.00 0.00 0.00 0.00 0.00 0.00 0.04 0.00 0.00 0.00 0.00 0.00 0.00 0.00 0.00 0.00 0.00 0.00 0.00 0.00 0.00 0.00 0.00 0.00 0.00 0.01 0.03 0.03 0.01 0.03 0.05 0.08 0.07 0.11 0.10 0.09 0.07 0.06 0.04 0.03 0.02 0.01 0.04 0.08
0.00 0.00 0.00 0.00 0.00 0.07 0.02 0.00 0.00 0.00 0.00 0.00 0.00 0.00 0.00 0.00 0.00 0.00 0.00 0.00 0.00 0.00 0.00 0.00 0.01 0.02 0.00 0.00 0.00 0.01 0.01 0.02 0.01 0.01 0.01 0.01 0.01 0.00 0.00 0.01 0.05 0.10 0.13 0.16
0.01 0.01 0.02 0.03 0.02 0.01 0.00 0.00 0.00 0.00 0.00 0.00 0.00 0.00 0.00 0.00 0.00 0.00 0.00 0.00 0.00 0.00 0.00 0.00 0.00 0.00 0.00 0.00 0.00 0.00 0.00 0.00 0.00 0.00 0.00 0.00 0.00 0.00 0.02 0.08 0.17 0.18 0.10 0.02
0.03 0.03 0.12 0.03 0.02 0.00 0.00 0.00 0.00 0.00 0.00 0.00 0.00 0.00 0.00 0.00 0.00 0.00 0.00 0.00 0.00 0.00 0.00 0.00 0.00 0.00 0.00 0.00 0.00 0.00 0.00 0.00 0.00 0.00 0.00 0.00 0.02 0.13 0.19 0.14 0.05 0.00 0.00 0.00
0.04 0.05 0.14 0.07 0.03 0.00 0.00 0.00 0.00 0.00 0.00 0.00 0.00 0.00 0.00 0.00 0.00 0.00 0.00 0.00 0.00 0.00 0.00 0.00 0.00 0.00 0.00 0.00 0.00 0.00 0.00 0.00 0.00 0.01 0.05 0.09 0.11 0.05 0.00 0.00 0.00 0.00 0.00 0.00
0.03 0.05 0.05 0.09 0.05 0.01 0.00 0.00 0.00 0.00 0.00 0.00 0.00 0.00 0.00 0.00 0.00 0.00 0.00 0.00 0.00 0.00 0.00 0.00 0.00 0.00 0.00 0.00 0.00 0.00 0.00 0.01 0.02 0.03 0.01 0.00 0.00 0.00 0.00 0.00 0.00 0.00 0.00 0.00
0.06 0.04 0.05 0.02 0.01 0.00 0.00 0.00 0.00 0.00 0.00 0.00 0.00 0.00 0.00 0.00 0.00 0.00 0.00 0.00 0.00 0.00 0.00 0.00 0.00 0.00 0.00 0.00 0.00 0.00 0.00 0.00 0.00 0.00 0.00 0.00 0.00 0.00 0.00 0.00 0.00 0.00 0.00 0.00
0.01 0.03 0.09 0.09 0.01 0.03 0.05 0.03 0.00 0.00 0.00 0.00 0.00 0.00 0.01 0.01 0.01 0.00 0.00 0.00 0.00 0.00 0.00 0.00 0.00 0.00 0.00 0.00 0.00 0.00 0.00 0.00 0.00 0.00 0.00 0.00 0.00 0.00 0.00 0.00 0.00 0.00 0.00 0.00
0.00 0.02 0.02 0.04 0.04 0.06 0.07 0.12 0.05 0.01 0.00 0.00 0.00 0.00 0.00 0.00 0.00 0.00 0.00 0.00 0.00 0.00 0.00 0.00 0.00 0.00 0.00 0.00 0.00 0.00 0.00 0.00 0.00 0.00 0.00 0.00 0.00 0.00 0.00 0.00 0.00 0.00 0.00 0.00
0.00 0.00 0.01 0.00 0.01 0.01 0.00 0.00 0.01 0.01 0.00 0.00 0.00 0.00 0.00 0.00 0.00 0.00 0.00 0.00 0.00 0.00 0.00 0.00 0.00 0.00 0.00 0.00 0.00 0.00 0.00 0.00 0.00 0.00 0.00 0.00 0.00 0.00 0.00 0.00 0.00 0.00 0.00 0.00

GFSCGP_prec_precacc24_075.txt.gz
Total_Precipitation_Accumulation
0.00 0.00 0.00 0.00 0.00 0.00 0.00 0.00 0.00 0.00 0.00 0.00 0.00 0.00 0.00 0.01 0.11 0.09 0.14 0.07 0.01 0.00 0.00 0.00 0.00 0.00 0.00 0.00 0.00 0.01 0.01 0.01 0.01 0.01 0.01 0.01 0.01 0.02 0.05 0.11 0.14 0.17 0.15 0.10
0.00 0.00 0.00 0.00 0.00 0.00 0.00 0.00 0.00 0.00 0.00 0.00 0.00 0.00 0.00 0.00 0.00 0.02 0.02 0.03 0.02 0.00 0.00 0.00 0.00 0.00 0.00 0.00 0.00 0.00 0.00 0.00 0.00 0.00 0.00 0.00 0.00 0.04 0.04 0.10 0.10 0.09 0.14 0.09
0.00 0.00 0.00 0.00 0.00 0.00 0.00 0.00 0.00 0.00 0.00 0.00 0.00 0.00 0.00 0.00 0.01 0.01 0.01 0.01 0.01 0.00 0.00 0.00 0.00 0.00 0.00 0.00 0.00 0.00 0.00 0.00 0.00 0.00 0.00 0.00 0.02 0.05 0.04 0.08 0.14 0.11 0.07 0.05
0.00 0.00 0.00 0.00 0.00 0.00 0.00 0.00 0.00 0.00 0.00 0.00 0.00 0.01 0.00 0.00 0.00 0.00 0.00 0.00 0.00 0.00 0.00 0.00 0.00 0.00 0.00 0.00 0.00 0.00 0.01 0.00 0.00 0.00 0.00 0.00 0.01 0.04 0.07 0.10 0.08 0.04 0.02 0.02
0.00 0.00 0.00 0.00 0.00 0.00 0.00 0.00 0.00 0.00 0.00 0.00 0.00 0.01 0.01 0.00 0.00 0.00 0.00 0.00 0.00 0.00 0.00 0.00 0.00 0.00 0.00 0.00 0.00 0.01 0.01 0.00 0.01 0.00 0.03 0.06 0.10 0.13 0.12 0.09 0.05 0.03 0.05 0.04
0.00 0.00 0.00 0.00 0.00 0.00 0.00 0.00 0.00 0.00 0.00 0.00 0.00 0.02 0.01 0.00 0.00 0.00 0.00 0.00 0.00 0.00 0.00 0.00 0.00 0.00 0.00 0.00 0.00 0.00 0.01 0.02 0.08 0.03 0.07 0.11 0.15 0.15 0.10 0.07 0.04 0.03 0.02 0.03
0.00 0.00 0.00 0.00 0.00 0.00 0.00 0.00 0.01 0.05 0.02 0.00 0.00 0.00 0.00 0.00 0.00 0.00 0.00 0.00 0.00 0.00 0.00 0.00 0.00 0.00 0.00 0.00 0.00 0.00 0.00 0.04 0.08 0.15 0.13 0.17 0.16 0.17 0.06 0.02 0.02 0.05 0.09 0.11
0.00 0.00 0.00 0.00 0.00 0.00 0.00 0.00 0.01 0.10 0.04 0.05 0.03 0.00 0.00 0.00 0.00 0.00 0.00 0.00 0.00 0.00 0.00 0.00 0.00 0.00 0.00 0.01 0.01 0.00 0.00 0.06 0.11 0.20 0.20 0.23 0.19 0.07 0.13 0.05 0.10 0.14 0.12 0.08
0.00 0.00 0.00 0.00 0.00 0.00 0.00 0.00 0.00 0.03 0.04 0.06 0.02 0.00 0.00 0.00 0.00 0.00 0.00 0.00 0.00 0.00 0.00 0.00 0.00 0.00 0.00 0.00 0.00 0.00 0.02 0.12 0.16 0.17 0.19 0.28 0.27 0.14 0.08 0.11 0.13 0.17 0.13 0.09
0.00 0.00 0.00 0.00 0.00 0.00 0.00 0.00 0.00 0.00 0.05 0.04 0.00 0.00 0.00 0.00 0.00 0.00 0.00 0.00 0.00 0.00 0.00 0.00 0.00 0.00 0.00 0.00 0.00 0.00 0.04 0.08 0.09 0.09 0.14 0.20 0.23 0.33 0.23 0.22 0.41 0.46 0.47 0.37
0.00 0.00 0.00 0.00 0.00 0.00 0.00 0.00 0.00 0.00 0.00 0.01 0.00 0.01 0.00 0.00 0.00 0.00 0.00 0.00 0.00 0.00 0.00 0.00 0.01 0.01 0.01 0.00 0.01 0.01 0.01 0.05 0.13 0.24 0.16 0.12 0.22 0.26 0.65 1.02 1.07 0.93 0.94 1.02
0.00 0.00 0.00 0.00 0.00 0.00 0.00 0.00 0.00 0.01 0.00 0.00 0.01 0.00 0.00 0.00 0.00 0.00 0.00 0.00 0.00 0.00 0.00 0.00 0.00 0.01 0.03 0.01 0.00 0.00 0.02 0.11 0.51 0.72 0.90 0.75 0.94 1.01 1.12 1.50 1.45 1.17 1.03 0.89
0.00 0.00 0.00 0.01 0.00 0.00 0.00 0.00 0.00 0.00 0.00 0.00 0.02 0.00 0.00 0.00 0.00 0.00 0.00 0.00 0.00 0.00 0.00 0.00 0.00 0.00 0.00 0.02 0.01 0.03 0.22 0.62 1.03 1.19 1.17 0.98 1.27 1.33 1.62 1.45 1.27 1.15 1.05 0.94
0.00 0.00 0.00 0.01 0.00 0.00 0.00 0.00 0.00 0.00 0.00 0.00 0.00 0.00 0.00 0.00 0.00 0.00 0.00 0.00 0.00 0.00 0.00 0.00 0.00 0.00 0.00 0.00 0.01 0.08 0.21 0.40 0.73 0.45 0.39 0.56 0.65 0.58 0.59 0.45 0.47 0.39 0.34 0.28
0.00 0.00 0.00 0.00 0.00 0.00 0.00 0.00 0.00 0.00 0.00 0.00 0.00 0.00 0.00 0.00 0.00 0.00 0.00 0.00 0.00 0.00 0.00 0.00 0.00 0.00 0.00 0.02 0.07 0.09 0.12 0.13 0.21 0.21 0.25 0.29 0.30 0.29 0.18 0.15 0.15 0.17 0.19 0.19
0.00 0.00 0.00 0.00 0.00 0.00 0.00 0.00 0.00 0.00 0.00 0.00 0.00 0.00 0.00 0.00 0.00 0.00 0.00 0.00 0.00 0.00 0.00 0.00 0.00 0.00 0.01 0.02 0.06 0.09 0.09 0.11 0.15 0.17 0.22 0.22 0.22 0.14 0.10 0.10 0.06 0.07 0.09 0.09
0.02 0.00 0.00 0.00 0.00 0.01 0.06 0.00 0.00 0.00 0.00 0.00 0.00 0.00 0.00 0.00 0.00 0.00 0.00 0.00 0.00 0.00 0.00 0.00 0.00 0.01 0.02 0.02 0.01 0.02 0.02 0.05 0.07 0.14 0.13 0.12 0.09 0.07 0.04 0.03 0.02 0.02 0.05 0.09
0.07 0.01 0.00 0.00 0.00 0.11 0.05 0.00 0.00 0.00 0.00 0.00 0.00 0.00 0.00 0.00 0.00 0.00 0.00 0.00 0.00 0.00 0.00 0.00 0.01 0.02 0.00 0.00 0.00 0.01 0.01 0.01 0.01 0.02 0.03 0.03 0.02 0.01 0.00 0.02 0.04 0.06 0.11 0.17
0.04 0.04 0.06 0.03 0.02 0.01 0.00 0.00 0.00 0.00 0.00 0.00 0.00 0.00 0.00 0.00 0.00 0.00 0.00 0.00 0.00 0.00 0.00 0.00 0.00 0.00 0.00 0.00 0.00 0.00 0.00 0.00 0.00 0.00 0.01 0.00 0.00 0.01 0.01 0.06 0.14 0.17 0.11 0.03
0.04 0.05 0.17 0.11 0.03 0.00 0.00 0.00 0.00 0.00 0.00 0.00 0.00 0.00 0.00 0.00 0.00 0.00 0.00 0.00 0.00 0.00 0.00 0.00 0.00 0.00 0.00 0.00 0.00 0.00 0.00 0.00 0.00 0.00 0.00 0.00 0.01 0.09 0.15 0.13 0.06 0.01 0.01 0.01
0.04 0.07 0.16 0.10 0.07 0.00 0.00 0.00 0.00 0.06 0.01 0.00 0.00 0.00 0.00 0.00 0.00 0.00 0.00 0.00 0.00 0.00 0.00 0.00 0.00 0.00 0.00 0.00 0.00 0.00 0.00 0.00 0.00 0.00 0.02 0.05 0.08 0.05 0.01 0.00 0.00 0.00 0.00 0.00
0.03 0.05 0.06 0.10 0.07 0.01 0.00 0.01 0.01 0.01 0.00 0.00 0.00 0.00 0.00 0.00 0.00 0.00 0.00 0.00 0.00 0.00 0.00 0.00 0.00 0.00 0.00 0.00 0.00 0.00 0.00 0.00 0.00 0.01 0.01 0.00 0.00 0.00 0.00 0.00 0.00 0.00 0.00 0.00
0.06 0.04 0.05 0.03 0.01 0.00 0.00 0.00 0.01 0.00 0.00 0.00 0.00 0.00 0.00 0.00 0.00 0.00 0.00 0.00 0.00 0.00 0.00 0.00 0.00 0.00 0.00 0.00 0.00 0.00 0.00 0.00 0.00 0.00 0.00 0.00 0.00 0.00 0.00 0.00 0.00 0.00 0.00 0.00
0.01 0.04 0.09 0.10 0.01 0.03 0.05 0.03 0.01 0.00 0.00 0.00 0.00 0.00 0.01 0.01 0.01 0.00 0.00 0.00 0.00 0.00 0.00 0.00 0.00 0.00 0.00 0.00 0.00 0.00 0.00 0.00 0.00 0.00 0.00 0.00 0.00 0.00 0.00 0.00 0.00 0.00 0.00 0.00
0.00 0.02 0.03 0.05 0.04 0.06 0.07 0.12 0.05 0.01 0.00 0.00 0.00 0.00 0.00 0.00 0.01 0.01 0.00 0.00 0.00 0.00 0.00 0.00 0.00 0.00 0.00 0.00 0.00 0.00 0.00 0.00 0.00 0.00 0.00 0.00 0.00 0.00 0.00 0.00 0.00 0.00 0.00 0.00
0.01 0.01 0.01 0.00 0.01 0.01 0.00 0.00 0.01 0.01 0.00 0.00 0.00 0.00 0.00 0.00 0.00 0.00 0.00 0.00 0.00 0.00 0.00 0.00 0.00 0.00 0.00 0.00 0.00 0.00 0.00 0.00 0.00 0.00 0.00 0.00 0.00 0.00 0.00 0.00 0.00 0.00 0.00 0.00

GFSCGP_prec_precacc24_078.txt.gz
Total_Precipitation_Accumulation
0.00 0.00 0.00 0.00 0.00 0.00 0.00 0.00 0.00 0.00 0.00 0.00 0.00 0.00 0.00 0.01 0.11 0.09 0.14 0.07 0.01 0.00 0.00 0.00 0.00 0.00 0.00 0.00 0.00 0.04 0.04 0.05 0.09 0.06 0.09 0.12 0.06 0.02 0.03 0.07 0.12 0.17 0.15 0.10
0.00 0.00 0.00 0.00 0.00 0.00 0.00 0.00 0.00 0.00 0.00 0.00 0.00 0.00 0.00 0.00 0.00 0.02 0.02 0.03 0.02 0.00 0.00 0.00 0.00 0.00 0.00 0.00 0.00 0.00 0.00 0.01 0.02 0.01 0.03 0.06 0.03 0.02 0.02 0.08 0.09 0.09 0.14 0.09
0.00 0.00 0.00 0.00 0.00 0.00 0.00 0.00 0.00 0.00 0.00 0.00 0.00 0.00 0.00 0.00 0.01 0.01 0.01 0.01 0.01 0.00 0.00 0.00 0.00 0.00 0.00 0.00 0.00 0.00 0.00 0.00 0.00 0.00 0.03 0.02 0.02 0.03 0.03 0.09 0.15 0.11 0.07 0.05
0.00 0.00 0.00 0.00 0.00 0.00 0.00 0.00 0.00 0.00 0.00 0.00 0.00 0.01 0.00 0.00 0.00 0.00 0.00 0.00 0.00 0.00 0.00 0.00 0.00 0.00 0.00 0.00 0.00 0.00 0.00 0.00 0.00 0.00 0.00 0.00 0.00 0.02 0.06 0.10 0.08 0.04 0.02 0.02
0.00 0.00 0.00 0.00 0.00 0.00 0.00 0.00 0.00 0.00 0.00 0.00 0.00 0.01 0.01 0.00 0.00 0.00 0.00 0.00 0.00 0.00 0.00 0.00 0.00 0.00 0.00 0.00 0.00 0.00 0.00 0.00 0.00 0.00 0.00 0.00 0.01 0.04 0.07 0.07 0.05 0.03 0.05 0.04
0.00 0.00 0.00 0.00 0.00 0.00 0.00 0.00 0.00 0.00 0.00 0.00 0.00 0.02 0.01 0.00 0.00 0.00 0.00 0.00 0.00 0.00 0.00 0.00 0.00 0.00 0.00 0.00 0.00 0.00 0.00 0.00 0.00 0.00 0.02 0.03 0.05 0.05 0.05 0.06 0.04 0.03 0.02 0.03
0.00 0.00 0.00 0.00 0.00 0.00 0.00 0.00 0.01 0.05 0.02 0.00 0.00 0.00 0.00 0.00 0.00 0.00 0.00 0.00 0.00 0.00 0.00 0.00 0.00 0.00 0.00 0.00 0.00 0.00 0.00 0.00 0.00 0.02 0.05 0.09 0.08 0.13 0.04 0.02 0.02 0.05 0.09 0.11
0.00 0.00 0.00 0.00 0.00 0.00 0.00 0.00 0.01 0.10 0.04 0.05 0.03 0.00 0.00 0.00 0.00 0.00 0.00 0.00 0.00 0.00 0.00 0.00 0.00 0.00 0.00 0.00 0.00 0.00 0.00 0.00 0.00 0.03 0.07 0.15 0.13 0.06 0.13 0.05 0.10 0.14 0.12 0.08
0.00 0.00 0.00 0.00 0.00 0.00 0.00 0.00 0.00 0.03 0.04 0.06 0.02 0.00 0.00 0.00 0.00 0.00 0.00 0.00 0.00 0.00 0.00 0.00 0.00 0.00 0.00 0.00 0.00 0.00 0.00 0.00 0.00 0.03 0.12 0.22 0.24 0.13 0.08 0.11 0.13 0.17 0.13 0.09
0.00 0.00 0.00 0.00 0.00 0.00 0.00 0.00 0.00 0.00 0.05 0.04 0.00 0.00 0.00 0.00 0.00 0.00 0.00 0.00 0.00 0.00 0.00 0.00 0.00 0.00 0.00 0.00 0.00 0.00 0.02 0.01 0.01 0.03 0.10 0.16 0.22 0.33 0.23 0.22 0.41 0.45 0.46 0.36
0.00 0.00 0.00 0.00 0.00 0.00 0.00 0.00 0.00 0.00 0.00 0.01 0.00 0.01 0.00 0.00 0.00 0.00 0.00 0.00 0.00 0.00 0.00 0.00 0.01 0.01 0.01 0.01 0.02 0.03 0.02 0.06 0.16 0.23 0.14 0.10 0.21 0.25 0.65 1.02 1.07 0.93 0.93 1.00
0.00 0.00 0.00 0.00 0.00 0.00 0.00 0.00 0.00 0.01 0.00 0.00 0.01 0.00 0.00 0.00 0.00 0.00 0.00 0.00 0.00 0.00 0.00 0.00 0.00 0.01 0.03 0.01 0.00 0.01 0.03 0.11 0.54 0.81 0.92 0.71 0.90 0.94 1.06 1.46 1.43 1.16 1.01 0.84
0.01 0.01 0.00 0.01 0.00 0.00 0.00 0.00 0.00 0.00 0.00 0.00 0.02 0.00 0.00 0.00 0.00 0.00 0.00 0.00 0.00 0.00 0.00 0.00 0.00 0.00 0.00 0.02 0.01 0.02 0.18 0.59 0.98 1.20 1.22 0.97 1.24 1.27 1.56 1.42 1.25 1.15 1.05 0.97
0.02 0.01 0.00 0.01 0.00 0.00 0.00 0.00 0.00 0.00 0.00 0.00 0.00 0.00 0.00 0.00 0.00 0.00 0.00 0.00 0.00 0.00 0.00 0.00 0.00 0.00 0.00 0.00 0.00 0.04 0.16 0.33 0.63 0.34 0.32 0.57 0.69 0.57 0.60 0.45 0.46 0.41 0.39 0.31
0.09 0.02 0.00 0.00 0.00 0.00 0.00 0.00 0.00 0.00 0.00 0.00 0.00 0.00 0.00 0.00 0.00 0.00 0.00 0.00 0.00 0.00 0.00 0.00 0.00 0.00 0.00 0.00 0.03 0.04 0.06 0.07 0.15 0.15 0.19 0.25 0.31 0.34 0.24 0.19 0.17 0.19 0.20 0.25
0.15 0.15 0.01 0.00 0.00 0.00 0.00 0.00 0.00 0.00 0.00 0.00 0.00 0.00 0.00 0.00 0.00 0.00 0.00 0.00 0.00 0.00 0.00 0.00 0.00 0.00 0.00 0.01 0.03 0.05 0.06 0.09 0.13 0.15 0.19 0.20 0.22 0.16 0.14 0.13 0.06 0.07 0.13 0.14
0.16 0.19 0.04 0.00 0.00 0.01 0.06 0.00 0.00 0.00 0.00 0.00 0.00 0.00 0.00 0.00 0.00 0.00 0.00 0.00 0.00 0.00 0.00 0.00 0.00 0.01 0.02 0.02 0.01 0.02 0.01 0.04 0.06 0.13 0.13 0.12 0.10 0.08 0.05 0.03 0.03 0.03 0.05 0.09
0.18 0.26 0.18 0.02 0.01 0.11 0.05 0.00 0.00 0.00 0.00 0.00 0.00 0.00 0.00 0.00 0.00 0.00 0.00 0.00 0.00 0.00 0.00 0.00 0.01 0.02 0.00 0.00 0.00 0.01 0.01 0.01 0.01 0.02 0.04 0.04 0.03 0.01 0.01 0.02 0.03 0.04 0.07 0.16
0.05 0.13 0.28 0.17 0.03 0.01 0.00 0.00 0.00 0.00 0.00 0.00 0.00 0.00 0.00 0.00 0.00 0.00 0.00 0.00 0.00 0.00 0.00 0.00 0.00 0.00 0.00 0.00 0.00 0.00 0.00 0.00 0.00 0.00 0.01 0.02 0.02 0.01 0.01 0.04 0.09 0.12 0.12 0.07
0.05 0.06 0.23 0.17 0.09 0.01 0.00 0.00 0.00 0.00 0.00 0.00 0.00 0.00 0.00 0.00 0.00 0.00 0.00 0.00 0.00 0.00 0.00 0.00 0.00 0.00 0.00 0.00 0.00 0.00 0.00 0.00 0.00 0.00 0.00 0.00 0.01 0.04 0.06 0.07 0.05 0.04 0.05 0.04
0.05 0.08 0.16 0.12 0.11 0.01 0.00 0.00 0.00 0.06 0.01 0.00 0.00 0.00 0.00 0.00 0.00 0.00 0.00 0.00 0.00 0.00 0.00 0.00 0.00 0.00 0.00 0.00 0.00 0.00 0.00 0.00 0.00 0.00 0.01 0.01 0.03 0.02 0.02 0.03 0.04 0.04 0.03 0.02
0.05 0.09 0.08 0.12 0.08 0.02 0.01 0.02 0.03 0.02 0.00 0.00 0.00 0.00 0.00 0.00 0.00 0.00 0.00 0.00 0.00 0.00 0.00 0.00 0.00 0.00 0.00 0.00 0.00 0.00 0.00 0.00 0.00 0.00 0.00 0.01 0.01 0.01 0.02 0.02 0.03 0.02 0.02 0.01
0.06 0.05 0.06 0.04 0.02 0.01 0.01 0.01 0.03 0.02 0.01 0.00 0.00 0.00 0.00 0.00 0.00 0.00 0.00 0.00 0.00 0.00 0.00 0.00 0.00 0.00 0.00 0.00 0.00 0.00 0.00 0.00 0.00 0.00 0.00 0.00 0.01 0.01 0.01 0.01 0.01 0.01 0.01 0.01
0.01 0.04 0.10 0.11 0.02 0.03 0.05 0.03 0.01 0.01 0.01 0.00 0.00 0.01 0.01 0.01 0.01 0.00 0.00 0.00 0.00 0.00 0.00 0.00 0.00 0.00 0.00 0.00 0.00 0.00 0.00 0.00 0.00 0.00 0.00 0.00 0.00 0.00 0.00 0.00 0.00 0.00 0.00 0.00
0.00 0.02 0.04 0.05 0.04 0.06 0.08 0.12 0.05 0.01 0.00 0.00 0.00 0.00 0.00 0.00 0.01 0.01 0.01 0.00 0.00 0.00 0.00 0.00 0.01 0.00 0.00 0.00 0.00 0.00 0.00 0.00 0.00 0.00 0.00 0.00 0.00 0.00 0.00 0.00 0.00 0.00 0.00 0.00
0.01 0.01 0.01 0.00 0.01 0.01 0.00 0.00 0.01 0.01 0.00 0.00 0.00 0.00 0.00 0.00 0.00 0.00 0.00 0.01 0.00 0.00 0.01 0.01 0.01 0.00 0.00 0.00 0.00 0.00 0.00 0.00 0.00 0.00 0.00 0.00 0.00 0.00 0.00 0.00 0.00 0.01 0.02 0.03

GFSCGP_prec_precacc24_084.txt.gz
Total_Precipitation_Accumulation
0.00 0.00 0.00 0.00 0.00 0.00 0.00 0.00 0.00 0.00 0.00 0.00 0.00 0.00 0.00 0.01 0.11 0.09 0.14 0.07 0.01 0.00 0.00 0.00 0.00 0.00 0.00 0.01 0.02 0.05 0.12 0.13 0.13 0.12 0.20 0.33 0.36 0.22 0.13 0.03 0.02 0.08 0.07 0.04
0.00 0.00 0.00 0.00 0.00 0.00 0.00 0.00 0.00 0.00 0.00 0.00 0.00 0.00 0.00 0.00 0.00 0.02 0.02 0.03 0.02 0.00 0.00 0.00 0.00 0.00 0.00 0.01 0.02 0.01 0.03 0.05 0.08 0.06 0.12 0.20 0.25 0.21 0.13 0.07 0.02 0.03 0.06 0.03
0.00 0.00 0.00 0.00 0.00 0.00 0.00 0.00 0.00 0.00 0.00 0.00 0.00 0.00 0.00 0.00 0.01 0.01 0.01 0.01 0.01 0.00 0.00 0.00 0.00 0.00 0.00 0.01 0.01 0.01 0.00 0.00 0.03 0.08 0.17 0.22 0.27 0.21 0.16 0.08 0.02 0.02 0.02 0.03
0.00 0.00 0.00 0.00 0.00 0.00 0.00 0.00 0.00 0.00 0.00 0.00 0.00 0.01 0.00 0.00 0.00 0.00 0.00 0.00 0.00 0.00 0.00 0.00 0.00 0.00 0.00 0.00 0.00 0.01 0.01 0.00 0.00 0.03 0.10 0.10 0.12 0.08 0.03 0.01 0.00 0.01 0.00 0.01
0.00 0.00 0.00 0.00 0.00 0.00 0.00 0.00 0.00 0.00 0.00 0.00 0.00 0.01 0.01 0.00 0.00 0.00 0.00 0.00 0.00 0.00 0.00 0.00 0.00 0.00 0.00 0.00 0.00 0.01 0.00 0.00 0.00 0.00 0.04 0.07 0.05 0.02 0.01 0.00 0.00 0.00 0.01 0.02
0.00 0.00 0.00 0.00 0.00 0.00 0.00 0.00 0.00 0.00 0.00 0.00 0.00 0.02 0.01 0.00 0.00 0.00 0.00 0.00 0.00 0.00 0.00 0.00 0.00 0.00 0.00 0.00 0.00 0.00 0.00 0.00 0.00 0.00 0.00 0.01 0.02 0.02 0.00 0.00 0.00 0.00 0.00 0.02
0.00 0.00 0.00 0.00 0.00 0.00 0.00 0.00 0.01 0.04 0.02 0.00 0.00 0.00 0.00 0.00 0.00 0.00 0.00 0.00 0.00 0.00 0.00 0.00 0.00 0.00 0.00 0.00 0.00 0.00 0.00 0.00 0.00 0.00 0.01 0.03 0.00 0.07 0.02 0.00 0.00 0.03 0.06 0.10
0.00 0.00 0.00 0.00 0.00 0.00 0.00 0.00 0.01 0.09 0.04 0.05 0.03 0.00 0.00 0.00 0.00 0.00 0.00 0.00 0.00 0.00 0.00 0.00 0.00 0.00 0.00 0.00 0.00 0.00 0.00 0.00 0.00 0.00 0.00 0.01 0.00 0.01 0.10 0.03 0.05 0.09 0.09 0.06
0.00 0.00 0.00 0.00 0.00 0.00 0.00 0.00 0.00 0.03 0.04 0.06 0.02 0.00 0.00 0.00 0.00 0.00 0.00 0.00 0.00 0.00 0.00 0.00 0.00 0.00 0.00 0.00 0.00 0.00 0.00 0.00 0.00 0.00 0.00 0.00 0.04 0.03 0.01 0.05 0.08 0.13 0.10 0.05
0.00 0.00 0.00 0.00 0.00 0.00 0.00 0.00 0.00 0.00 0.05 0.04 0.00 0.00 0.00 0.00 0.00 0.00 0.00 0.00 0.00 0.00 0.00 0.00 0.00 0.00 0.00 0.00 0.00 0.01 0.02 0.01 0.01 0.00 0.00 0.00 0.04 0.19 0.15 0.17 0.36 0.42 0.44 0.33
0.00 0.00 0.00 0.00 0.00 0.00 0.00 0.00 0.00 0.00 0.00 0.01 0.00 0.01 0.00 0.00 0.00 0.00 0.00 0.00 0.00 0.00 0.00 0.00 0.01 0.01 0.01 0.01 0.02 0.03 0.03 0.06 0.16 0.19 0.08 0.02 0.09 0.15 0.56 0.94 1.01 0.89 0.89 0.94
0.00 0.00 0.00 0.00 0.00 0.00 0.00 0.00 0.00 0.01 0.00 0.00 0.01 0.00 0.00 0.00 0.00 0.00 0.00 0.00 0.00 0.00 0.00 0.00 0.00 0.01 0.03 0.01 0.00 0.01 0.04 0.13 0.53 0.78 0.84 0.59 0.74 0.78 0.89 1.32 1.35 1.09 0.94 0.75
0.01 0.02 0.01 0.01 0.00 0.00 0.00 0.00 0.00 0.00 0.00 0.00 0.02 0.00 0.00 0.00 0.00 0.00 0.00 0.00 0.00 0.00 0.00 0.00 0.00 0.00 0.00 0.02 0.01 0.02 0.18 0.61 0.98 1.19 1.23 0.89 1.10 1.13 1.42 1.29 1.12 0.90 0.60 0.45
0.03 0.03 0.03 0.03 0.00 0.00 0.00 0.00 0.00 0.00 0.00 0.00 0.00 0.00 0.00 0.00 0.00 0.00 0.00 0.00 0.00 0.00 0.00 0.00 0.00 0.00 0.00 0.00 0.00 0.03 0.16 0.30 0.60 0.31 0.28 0.48 0.55 0.44 0.46 0.34 0.33 0.24 0.24 0.22
0.10 0.05 0.00 0.01 0.00 0.00 0.00 0.00 0.00 0.00 0.00 0.00 0.00 0.00 0.00 0.00 0.00 0.00 0.00 0.00 0.00 0.00 0.00 0.00 0.00 0.00 0.00 0.00 0.00 0.01 0.03 0.04 0.11 0.10 0.15 0.21 0.27 0.30 0.22 0.19 0.18 0.21 0.20 0.21
0.19 0.19 0.04 0.01 0.00 0.00 0.00 0.00 0.00 0.00 0.00 0.00 0.00 0.00 0.00 0.00 0.00 0.00 0.00 0.00 0.00 0.00 0.00 0.00 0.00 0.00 0.00 0.00 0.01 0.02 0.02 0.04 0.08 0.13 0.17 0.19 0.22 0.17 0.15 0.15 0.09 0.09 0.13 0.14
0.22 0.36 0.31 0.15 0.06 0.04 0.07 0.00 0.00 0.00 0.00 0.00 0.00 0.00 0.00 0.00 0.00 0.00 0.00 0.00 0.00 0.00 0.00 0.00 0.00 0.01 0.02 0.02 0.01 0.02 0.01 0.04 0.06 0.13 0.13 0.12 0.10 0.07 0.05 0.04 0.03 0.04 0.09 0.12
0.19 0.29 0.31 0.19 0.20 0.31 0.09 0.01 0.00 0.00 0.00 0.00 0.00 0.00 0.00 0.00 0.00 0.00 0.00 0.00 0.00 0.00 0.00 0.00 0.01 0.02 0.00 0.00 0.00 0.01 0.01 0.01 0.01 0.02 0.04 0.04 0.03 0.01 0.02 0.02 0.02 0.03 0.03 0.04
0.05 0.14 0.39 0.37 0.36 0.20 0.12 0.10 0.03 0.02 0.01 0.00 0.00 0.00 0.00 0.00 0.00 0.00 0.00 0.00 0.00 0.00 0.00 0.00 0.00 0.00 0.00 0.00 0.00 0.00 0.00 0.00 0.00 0.00 0.01 0.02 0.02 0.02 0.02 0.02 0.03 0.04 0.05 0.06
0.05 0.07 0.28 0.25 0.17 0.06 0.06 0.03 0.05 0.01 0.07 0.00 0.00 0.00 0.00 0.00 0.00 0.00 0.00 0.00 0.00 0.00 0.00 0.00 0.00 0.00 0.00 0.00 0.00 0.00 0.00 0.00 0.00 0.00 0.00 0.00 0.01 0.03 0.04 0.04 0.04 0.05 0.06 0.06
0.06 0.10 0.20 0.15 0.15 0.03 0.00 0.01 0.03 0.15 0.12 0.02 0.01 0.00 0.00 0.00 0.00 0.00 0.00 0.00 0.00 0.00 0.00 0.00 0.00 0.00 0.00 0.00 0.00 0.00 0.00 0.00 0.00 0.00 0.01 0.01 0.02 0.02 0.03 0.04 0.05 0.05 0.05 0.05
0.16 0.15 0.12 0.17 0.15 0.05 0.03 0.06 0.11 0.15 0.07 0.04 0.03 0.00 0.00 0.00 0.00 0.00 0.00 0.00 0.00 0.00 0.00 0.00 0.00 0.00 0.00 0.00 0.00 0.00 0.00 0.00 0.00 0.00 0.01 0.01 0.02 0.01 0.02 0.03 0.04 0.04 0.04 0.04
0.06 0.12 0.17 0.10 0.06 0.03 0.02 0.02 0.05 0.04 0.03 0.03 0.03 0.01 0.00 0.01 0.00 0.00 0.00 0.00 0.00 0.00 0.00 0.00 0.00 0.00 0.00 0.00 0.00 0.00 0.00 0.00 0.00 0.01 0.01 0.01 0.01 0.01 0.02 0.02 0.03 0.03 0.03 0.03
0.00 0.02 0.10 0.11 0.02 0.04 0.06 0.03 0.01 0.02 0.01 0.02 0.03 0.01 0.02 0.02 0.01 0.01 0.01 0.02 0.01 0.00 0.00 0.00 0.00 0.00 0.01 0.00 0.00 0.01 0.01 0.00 0.00 0.00 0.00 0.00 0.01 0.01 0.01 0.01 0.01 0.02 0.02 0.02
0.00 0.02 0.03 0.05 0.04 0.06 0.08 0.12 0.06 0.01 0.00 0.00 0.00 0.00 0.00 0.00 0.01 0.01 0.01 0.01 0.05 0.08 0.06 0.04 0.03 0.04 0.03 0.04 0.03 0.02 0.02 0.02 0.01 0.00 0.00 0.00 0.00 0.00 0.00 0.00 0.01 0.01 0.01 0.02
0.01 0.01 0.01 0.00 0.00 0.01 0.00 0.00 0.01 0.01 0.00 0.00 0.00 0.00 0.00 0.00 0.00 0.00 0.00 0.01 0.01 0.03 0.07 0.13 0.11 0.08 0.03 0.01 0.00 0.00 0.00 0.00 0.00 0.00 0.00 0.00 0.00 0.00 0.00 0.00 0.03 0.11 0.13 0.14

GFSCGP_prec_precacc24_087.txt.gz
Total_Precipitation_Accumulation
0.00 0.00 0.00 0.00 0.00 0.00 0.00 0.00 0.00 0.00 0.00 0.00 0.00 0.00 0.00 0.01 0.11 0.09 0.14 0.07 0.01 0.00 0.00 0.00 0.00 0.00 0.00 0.01 0.02 0.05 0.12 0.14 0.14 0.15 0.24 0.38 0.38 0.22 0.14 0.05 0.04 0.07 0.06 0.03
0.00 0.00 0.00 0.00 0.00 0.00 0.00 0.00 0.00 0.00 0.00 0.00 0.00 0.00 0.00 0.00 0.00 0.02 0.02 0.03 0.02 0.00 0.00 0.00 0.00 0.00 0.00 0.01 0.02 0.01 0.03 0.06 0.09 0.08 0.17 0.23 0.27 0.21 0.13 0.07 0.01 0.02 0.06 0.02
0.00 0.00 0.00 0.00 0.00 0.00 0.00 0.00 0.00 0.00 0.00 0.00 0.00 0.00 0.00 0.00 0.01 0.01 0.01 0.01 0.01 0.00 0.00 0.00 0.00 0.00 0.00 0.01 0.01 0.01 0.00 0.01 0.05 0.10 0.25 0.30 0.34 0.23 0.17 0.09 0.02 0.01 0.01 0.01
0.00 0.00 0.00 0.00 0.00 0.00 0.00 0.00 0.00 0.00 0.00 0.00 0.00 0.00 0.00 0.00 0.00 0.00 0.00 0.00 0.00 0.00 0.00 0.00 0.00 0.00 0.00 0.00 0.00 0.02 0.01 0.00 0.01 0.05 0.13 0.16 0.15 0.09 0.04 0.01 0.00 0.01 0.00 0.01
0.00 0.00 0.00 0.00 0.00 0.00 0.00 0.00 0.00 0.00 0.00 0.00 0.00 0.01 0.00 0.00 0.00 0.00 0.00 0.00 0.00 0.00 0.00 0.00 0.00 0.00 0.00 0.00 0.00 0.01 0.01 0.00 0.00 0.01 0.06 0.12 0.06 0.02 0.02 0.00 0.00 0.00 0.02 0.00
0.00 0.00 0.00 0.00 0.00 0.00 0.00 0.00 0.00 0.00 0.00 0.00 0.00 0.02 0.01 0.00 0.00 0.00 0.00 0.00 0.00 0.00 0.00 0.00 0.00 0.00 0.00 0.00 0.00 0.00 0.01 0.01 0.00 0.00 0.01 0.04 0.08 0.04 0.02 0.00 0.00 0.00 0.00 0.02
0.00 0.00 0.00 0.00 0.00 0.00 0.00 0.00 0.00 0.02 0.01 0.00 0.00 0.00 0.00 0.00 0.00 0.00 0.00 0.00 0.00 0.00 0.00 0.00 0.00 0.00 0.00 0.00 0.00 0.00 0.00 0.01 0.00 0.00 0.01 0.04 0.02 0.08 0.02 0.00 0.00 0.02 0.05 0.10
0.00 0.00 0.00 0.00 0.00 0.00 0.00 0.00 0.00 0.06 0.04 0.04 0.03 0.00 0.00 0.00 0.00 0.00 0.00 0.00 0.00 0.00 0.00 0.00 0.00 0.00 0.00 0.00 0.00 0.00 0.00 0.00 0.00 0.00 0.00 0.01 0.01 0.02 0.09 0.01 0.01 0.06 0.07 0.05
0.00 0.00 0.00 0.00 0.00 0.00 0.00 0.00 0.00 0.03 0.04 0.06 0.02 0.00 0.00 0.00 0.00 0.00 0.00 0.00 0.00 0.00 0.00 0.00 0.00 0.00 0.00 0.00 0.00 0.00 0.00 0.00 0.00 0.00 0.00 0.00 0.04 0.04 0.01 0.04 0.07 0.12 0.08 0.04
0.00 0.00 0.00 0.00 0.00 0.00 0.00 0.00 0.00 0.00 0.04 0.04 0.00 0.00 0.00 0.00 0.00 0.00 0.00 0.00 0.00 0.00 0.00 0.00 0.00 0.00 0.00 0.00 0.00 0.01 0.02 0.01 0.01 0.00 0.00 0.00 0.02 0.15 0.14 0.16 0.34 0.40 0.42 0.32
0.00 0.00 0.00 0.00 0.00 0.00 0.00 0.00 0.00 0.00 0.00 0.01 0.00 0.01 0.00 0.00 0.00 0.00 0.00 0.00 0.00 0.00 0.00 0.00 0.01 0.01 0.01 0.01 0.02 0.03 0.03 0.06 0.16 0.19 0.07 0.01 0.05 0.12 0.52 0.87 0.94 0.85 0.86 0.91
0.00 0.00 0.00 0.00 0.00 0.00 0.00 0.00 0.00 0.01 0.00 0.00 0.01 0.00 0.00 0.00 0.00 0.00 0.00 0.00 0.00 0.00 0.00 0.00 0.00 0.01 0.03 0.01 0.00 0.01 0.04 0.13 0.53 0.78 0.84 0.58 0.74 0.77 0.87 1.28 1.32 1.07 0.93 0.75
0.01 0.03 0.01 0.01 0.00 0.00 0.00 0.00 0.00 0.00 0.00 0.00 0.01 0.00 0.00 0.00 0.00 0.00 0.00 0.00 0.00 0.00 0.00 0.00 0.00 0.00 0.00 0.02 0.01 0.02 0.18 0.61 0.98 1.19 1.23 0.89 1.10 1.12 1.41 1.28 1.11 0.89 0.59 0.37
0.03 0.03 0.04 0.03 0.01 0.00 0.00 0.00 0.00 0.00 0.00 0.00 0.00 0.00 0.00 0.00 0.00 0.00 0.00 0.00 0.00 0.00 0.00 0.00 0.00 0.00 0.00 0.00 0.00 0.03 0.16 0.30 0.60 0.31 0.28 0.47 0.53 0.43 0.45 0.33 0.33 0.23 0.23 0.20
0.10 0.05 0.00 0.01 0.00 0.00 0.00 0.00 0.00 0.00 0.00 0.00 0.00 0.00 0.00 0.00 0.00 0.00 0.00 0.00 0.00 0.00 0.00 0.00 0.00 0.00 0.00 0.00 0.00 0.01 0.03 0.04 0.11 0.09 0.13 0.17 0.25 0.28 0.21 0.18 0.18 0.20 0.19 0.21
0.20 0.19 0.04 0.01 0.00 0.00 0.00 0.00 0.00 0.00 0.00 0.00 0.00 0.00 0.00 0.00 0.00 0.00 0.00 0.00 0.00 0.00 0.00 0.00 0.00 0.00 0.00 0.00 0.00 0.02 0.01 0.02 0.06 0.11 0.11 0.13 0.17 0.16 0.15 0.15 0.09 0.09 0.12 0.14
0.22 0.36 0.32 0.15 0.07 0.05 0.07 0.00 0.00 0.00 0.00 0.00 0.00 0.00 0.00 0.00 0.00 0.00 0.00 0.00 0.00 0.00 0.00 0.00 0.00 0.01 0.02 0.02 0.00 0.00 0.00 0.02 0.04 0.10 0.12 0.11 0.09 0.07 0.05 0.04 0.03 0.04 0.09 0.12
0.20 0.30 0.32 0.20 0.20 0.31 0.09 0.01 0.01 0.00 0.00 0.00 0.00 0.00 0.00 0.00 0.00 0.00 0.00 0.00 0.00 0.00 0.00 0.00 0.01 0.02 0.00 0.00 0.00 0.00 0.01 0.01 0.01 0.02 0.04 0.04 0.03 0.01 0.02 0.02 0.02 0.03 0.03 0.05
0.05 0.15 0.42 0.39 0.36 0.20 0.12 0.11 0.08 0.08 0.02 0.00 0.00 0.00 0.00 0.00 0.00 0.00 0.00 0.00 0.00 0.00 0.00 0.00 0.00 0.00 0.00 0.00 0.00 0.00 0.00 0.00 0.00 0.00 0.01 0.02 0.02 0.02 0.02 0.02 0.03 0.04 0.05 0.06
0.05 0.07 0.28 0.26 0.20 0.07 0.08 0.03 0.05 0.02 0.12 0.05 0.01 0.00 0.00 0.00 0.00 0.01 0.00 0.00 0.00 0.00 0.00 0.00 0.00 0.00 0.00 0.00 0.00 0.00 0.00 0.00 0.00 0.00 0.00 0.00 0.01 0.03 0.04 0.04 0.04 0.05 0.06 0.06
0.07 0.11 0.19 0.13 0.18 0.05 0.02 0.01 0.04 0.26 0.28 0.18 0.03 0.01 0.01 0.00 0.01 0.01 0.00 0.00 0.00 0.00 0.00 0.00 0.00 0.00 0.00 0.00 0.00 0.00 0.00 0.00 0.00 0.00 0.01 0.01 0.02 0.02 0.03 0.04 0.05 0.05 0.05 0.06
0.19 0.15 0.13 0.16 0.17 0.07 0.03 0.08 0.15 0.29 0.26 0.41 0.28 0.18 0.11 0.07 0.00 0.00 0.00 0.00 0.00 0.00 0.00 0.00 0.00 0.00 0.00 0.00 0.00 0.00 0.00 0.00 0.00 0.00 0.01 0.01 0.02 0.01 0.02 0.03 0.04 0.05 0.05 0.05
0.06 0.12 0.22 0.13 0.09 0.08 0.02 0.04 0.06 0.04 0.04 0.03 0.05 0.06 0.06 0.07 0.00 0.00 0.00 0.00 0.00 0.00 0.00 0.00 0.00 0.00 0.00 0.00 0.00 0.00 0.00 0.00 0.00 0.01 0.01 0.01 0.01 0.02 0.03 0.04 0.05 0.04 0.04 0.04
0.00 0.03 0.18 0.16 0.08 0.07 0.06 0.03 0.01 0.02 0.01 0.02 0.03 0.01 0.02 0.02 0.01 0.01 0.01 0.02 0.01 0.00 0.00 0.00 0.00 0.00 0.01 0.00 0.00 0.01 0.01 0.00 0.00 0.00 0.01 0.02 0.04 0.05 0.04 0.03 0.03 0.03 0.02 0.02
0.00 0.02 0.03 0.05 0.06 0.07 0.09 0.12 0.06 0.01 0.00 0.00 0.00 0.00 0.00 0.00 0.01 0.01 0.01 0.01 0.05 0.08 0.07 0.05 0.05 0.06 0.04 0.05 0.04 0.05 0.04 0.04 0.03 0.03 0.04 0.04 0.04 0.03 0.01 0.02 0.04 0.03 0.03 0.05
0.01 0.01 0.02 0.02 0.00 0.01 0.01 0.00 0.01 0.01 0.00 0.00 0.00 0.00 0.00 0.00 0.00 0.00 0.00 0.01 0.01 0.03 0.08 0.16 0.19 0.20 0.18 0.11 0.07 0.04 0.04 0.05 0.04 0.04 0.03 0.03 0.02 0.01 0.00 0.01 0.07 0.17 0.20 0.22

GFSCGP_prec_precacc24_090.txt.gz
Total_Precipitation_Accumulation
0.00 0.00 0.00 0.00 0.00 0.00 0.00 0.00 0.00 0.00 0.00 0.00 0.00 0.00 0.00 0.00 0.10 0.09 0.14 0.07 0.01 0.00 0.00 0.00 0.00 0.00 0.00 0.01 0.02 0.05 0.12 0.14 0.14 0.16 0.25 0.38 0.39 0.23 0.19 0.17 0.13 0.09 0.08 0.02
0.00 0.00 0.00 0.00 0.00 0.00 0.00 0.00 0.00 0.00 0.00 0.00 0.00 0.00 0.00 0.00 0.00 0.02 0.02 0.03 0.02 0.00 0.00 0.00 0.00 0.00 0.00 0.01 0.02 0.02 0.04 0.06 0.10 0.09 0.17 0.23 0.27 0.21 0.14 0.13 0.12 0.10 0.05 0.03
0.00 0.00 0.00 0.00 0.00 0.00 0.00 0.00 0.00 0.00 0.00 0.00 0.00 0.00 0.00 0.00 0.01 0.01 0.01 0.01 0.01 0.00 0.00 0.00 0.00 0.00 0.00 0.01 0.01 0.01 0.00 0.01 0.06 0.11 0.25 0.32 0.35 0.23 0.18 0.09 0.04 0.04 0.03 0.03
0.00 0.00 0.00 0.00 0.00 0.00 0.00 0.00 0.00 0.00 0.00 0.00 0.00 0.00 0.00 0.00 0.00 0.00 0.00 0.00 0.00 0.00 0.00 0.00 0.00 0.00 0.00 0.00 0.00 0.02 0.01 0.00 0.02 0.05 0.13 0.16 0.15 0.09 0.05 0.02 0.01 0.01 0.00 0.01
0.00 0.00 0.00 0.00 0.00 0.00 0.00 0.00 0.00 0.00 0.00 0.00 0.00 0.00 0.00 0.00 0.00 0.00 0.00 0.00 0.00 0.00 0.00 0.00 0.00 0.00 0.00 0.00 0.00 0.01 0.01 0.01 0.01 0.02 0.06 0.13 0.06 0.02 0.03 0.00 0.00 0.00 0.02 0.00
0.00 0.00 0.00 0.00 0.00 0.00 0.00 0.00 0.00 0.00 0.00 0.00 0.00 0.01 0.00 0.00 0.00 0.00 0.00 0.00 0.00 0.00 0.00 0.00 0.00 0.00 0.00 0.00 0.00 0.00 0.01 0.01 0.00 0.01 0.02 0.05 0.08 0.03 0.02 0.01 0.00 0.00 0.00 0.02
0.00 0.00 0.00 0.00 0.00 0.00 0.00 0.00 0.00 0.01 0.00 0.00 0.00 0.00 0.00 0.00 0.00 0.00 0.00 0.00 0.00 0.00 0.00 0.00 0.00 0.00 0.00 0.00 0.00 0.00 0.00 0.01 0.01 0.01 0.02 0.04 0.04 0.11 0.02 0.00 0.00 0.00 0.00 0.01
0.00 0.00 0.00 0.00 0.00 0.00 0.00 0.00 0.00 0.01 0.02 0.02 0.01 0.00 0.00 0.00 0.00 0.00 0.00 0.00 0.00 0.00 0.00 0.00 0.00 0.00 0.00 0.00 0.00 0.00 0.00 0.00 0.01 0.00 0.01 0.02 0.01 0.02 0.09 0.01 0.00 0.00 0.00 0.00
0.00 0.00 0.00 0.00 0.00 0.00 0.00 0.00 0.00 0.00 0.02 0.05 0.01 0.00 0.00 0.00 0.00 0.00 0.00 0.00 0.00 0.00 0.00 0.00 0.00 0.00 0.00 0.00 0.00 0.00 0.00 0.00 0.00 0.00 0.00 0.01 0.05 0.04 0.01 0.04 0.02 0.04 0.05 0.04
0.00 0.00 0.00 0.00 0.00 0.00 0.00 0.00 0.00 0.00 0.02 0.04 0.00 0.00 0.00 0.00 0.00 0.00 0.00 0.00 0.00 0.00 0.00 0.00 0.00 0.00 0.00 0.00 0.00 0.01 0.02 0.01 0.01 0.00 0.00 0.00 0.02 0.12 0.10 0.09 0.18 0.26 0.36 0.29
0.00 0.00 0.00 0.00 0.00 0.00 0.00 0.00 0.00 0.00 0.00 0.00 0.00 0.00 0.00 0.00 0.00 0.00 0.00 0.00 0.00 0.00 0.00 0.00 0.01 0.01 0.01 0.01 0.02 0.03 0.03 0.06 0.16 0.19 0.07 0.01 0.00 0.04 0.32 0.54 0.80 0.78 0.78 0.83
0.01 0.03 0.02 0.00 0.00 0.00 0.00 0.00 0.00 0.00 0.00 0.00 0.00 0.00 0.00 0.00 0.00 0.00 0.00 0.00 0.00 0.00 0.00 0.00 0.00 0.01 0.03 0.01 0.00 0.01 0.04 0.13 0.53 0.78 0.66 0.44 0.39 0.53 0.81 1.15 1.20 0.98 0.85 0.68
0.01 0.04 0.02 0.01 0.00 0.00 0.00 0.00 0.00 0.00 0.00 0.00 0.00 0.00 0.00 0.00 0.00 0.00 0.00 0.00 0.00 0.00 0.00 0.00 0.00 0.00 0.00 0.02 0.01 0.02 0.17 0.60 0.94 1.01 0.96 0.78 0.82 1.10 1.41 1.25 1.07 0.85 0.54 0.32
0.03 0.03 0.04 0.04 0.05 0.01 0.00 0.00 0.00 0.00 0.00 0.00 0.00 0.00 0.00 0.00 0.00 0.01 0.00 0.00 0.00 0.00 0.00 0.00 0.00 0.00 0.00 0.00 0.00 0.03 0.14 0.27 0.55 0.29 0.23 0.41 0.48 0.41 0.40 0.31 0.27 0.21 0.21 0.18
0.10 0.05 0.00 0.01 0.00 0.00 0.00 0.00 0.00 0.00 0.00 0.00 0.00 0.00 0.00 0.00 0.00 0.00 0.00 0.00 0.00 0.00 0.00 0.00 0.00 0.00 0.00 0.00 0.00 0.00 0.02 0.03 0.08 0.07 0.11 0.15 0.20 0.18 0.18 0.16 0.15 0.19 0.19 0.20
0.20 0.20 0.05 0.01 0.00 0.00 0.00 0.00 0.00 0.00 0.00 0.00 0.00 0.00 0.00 0.00 0.00 0.00 0.00 0.00 0.00 0.00 0.00 0.00 0.00 0.00 0.00 0.00 0.00 0.00 0.00 0.01 0.04 0.09 0.08 0.10 0.11 0.10 0.11 0.11 0.09 0.09 0.13 0.14
0.23 0.37 0.33 0.16 0.07 0.05 0.07 0.00 0.00 0.00 0.00 0.00 0.00 0.00 0.00 0.00 0.00 0.00 0.00 0.00 0.00 0.00 0.00 0.00 0.00 0.00 0.00 0.02 0.00 0.00 0.00 0.01 0.03 0.06 0.06 0.05 0.04 0.04 0.04 0.03 0.03 0.04 0.09 0.12
0.20 0.30 0.34 0.21 0.20 0.31 0.09 0.01 0.01 0.00 0.00 0.00 0.00 0.00 0.00 0.00 0.00 0.00 0.00 0.00 0.00 0.00 0.00 0.00 0.00 0.01 0.00 0.00 0.00 0.00 0.00 0.00 0.00 0.02 0.03 0.03 0.03 0.01 0.02 0.02 0.02 0.03 0.03 0.05
0.04 0.15 0.44 0.38 0.35 0.20 0.12 0.11 0.08 0.08 0.03 0.02 0.02 0.01 0.01 0.00 0.00 0.00 0.00 0.00 0.00 0.00 0.00 0.00 0.00 0.00 0.00 0.00 0.00 0.00 0.00 0.00 0.00 0.00 0.01 0.02 0.02 0.02 0.03 0.02 0.03 0.04 0.05 0.06
0.04 0.07 0.24 0.27 0.20 0.08 0.13 0.05 0.06 0.02 0.13 0.07 0.05 0.03 0.01 0.00 0.01 0.02 0.00 0.00 0.00 0.00 0.00 0.00 0.00 0.00 0.00 0.00 0.00 0.00 0.00 0.00 0.00 0.00 0.00 0.01 0.01 0.03 0.04 0.04 0.04 0.05 0.06 0.06
0.05 0.10 0.13 0.11 0.18 0.05 0.05 0.10 0.07 0.30 0.30 0.20 0.09 0.18 0.09 0.10 0.07 0.19 0.10 0.00 0.00 0.00 0.00 0.00 0.00 0.00 0.00 0.00 0.00 0.00 0.00 0.00 0.00 0.00 0.01 0.01 0.02 0.02 0.03 0.04 0.05 0.06 0.06 0.07
0.21 0.15 0.12 0.12 0.17 0.08 0.03 0.14 0.21 0.31 0.28 0.48 0.48 0.31 0.19 0.14 0.07 0.04 0.10 0.02 0.00 0.00 0.00 0.00 0.00 0.00 0.00 0.00 0.00 0.00 0.00 0.00 0.00 0.01 0.02 0.02 0.02 0.02 0.03 0.03 0.05 0.06 0.09 0.10
0.05 0.12 0.23 0.13 0.11 0.14 0.14 0.10 0.06 0.04 0.04 0.04 0.09 0.15 0.21 0.20 0.24 0.20 0.42 0.15 0.00 0.00 0.00 0.00 0.00 0.00 0.00 0.00 0.00 0.00 0.00 0.00 0.00 0.01 0.02 0.03 0.02 0.03 0.04 0.07 0.08 0.09 0.07 0.08
0.01 0.03 0.14 0.11 0.10 0.12 0.15 0.06 0.01 0.02 0.01 0.02 0.03 0.02 0.05 0.09 0.06 0.06 0.06 0.03 0.01 0.00 0.00 0.00 0.00 0.00 0.01 0.00 0.00 0.01 0.01 0.00 0.00 0.01 0.02 0.03 0.05 0.08 0.07 0.08 0.08 0.09 0.09 0.12
0.04 0.07 0.06 0.06 0.08 0.08 0.13 0.14 0.06 0.01 0.00 0.00 0.00 0.00 0.00 0.01 0.03 0.03 0.01 0.01 0.05 0.08 0.07 0.05 0.05 0.06 0.05 0.06 0.05 0.06 0.06 0.06 0.04 0.04 0.05 0.05 0.06 0.06 0.05 0.07 0.11 0.08 0.11 0.15
0.05 0.04 0.05 0.09 0.01 0.03 0.10 0.00 0.01 0.01 0.00 0.00 0.00 0.00 0.00 0.00 0.00 0.01 0.01 0.01 0.01 0.03 0.08 0.16 0.20 0.22 0.24 0.20 0.16 0.14 0.14 0.13 0.13 0.12 0.10 0.11 0.08 0.07 0.09 0.09 0.16 0.31 0.33 0.33

GFSCGP_prec_precacc24_093.txt.gz
Total_Precipitation_Accumulation
0.00 0.00 0.00 0.00 0.00 0.00 0.00 0.00 0.00 0.00 0.00 0.00 0.00 0.00 0.00 0.00 0.00 0.00 0.00 0.00 0.00 0.00 0.00 0.00 0.00 0.00 0.00 0.01 0.02 0.05 0.12 0.15 0.14 0.16 0.25 0.38 0.39 0.24 0.21 0.21 0.17 0.16 0.20 0.08
0.00 0.00 0.00 0.00 0.00 0.00 0.00 0.00 0.00 0.00 0.00 0.00 0.00 0.00 0.00 0.00 0.00 0.01 0.01 0.00 0.00 0.00 0.00 0.00 0.00 0.00 0.00 0.01 0.02 0.02 0.04 0.06 0.10 0.09 0.17 0.23 0.27 0.21 0.16 0.18 0.23 0.20 0.17 0.08
0.00 0.00 0.00 0.00 0.00 0.00 0.00 0.00 0.00 0.00 0.00 0.00 0.00 0.00 0.00 0.00 0.00 0.00 0.00 0.01 0.00 0.00 0.00 0.00 0.00 0.00 0.00 0.01 0.01 0.01 0.00 0.01 0.07 0.11 0.25 0.32 0.35 0.24 0.19 0.14 0.16 0.20 0.17 0.11
0.00 0.00 0.00 0.00 0.00 0.00 0.00 0.00 0.00 0.00 0.00 0.00 0.00 0.00 0.00 0.00 0.00 0.00 0.00 0.00 0.00 0.00 0.00 0.00 0.00 0.00 0.00 0.00 0.00 0.02 0.01 0.01 0.03 0.06 0.13 0.16 0.15 0.09 0.05 0.02 0.04 0.11 0.14 0.11
0.00 0.00 0.00 0.00 0.00 0.00 0.00 0.00 0.00 0.00 0.00 0.00 0.00 0.00 0.00 0.00 0.00 0.00 0.00 0.00 0.00 0.00 0.00 0.00 0.00 0.00 0.00 0.00 0.00 0.01 0.01 0.01 0.01 0.02 0.06 0.13 0.06 0.02 0.03 0.00 0.00 0.02 0.06 0.05
0.00 0.00 0.00 0.00 0.00 0.00 0.00 0.00 0.00 0.00 0.00 0.03 0.00 0.00 0.00 0.00 0.00 0.00 0.00 0.00 0.00 0.00 0.00 0.00 0.00 0.00 0.00 0.00 0.00 0.00 0.01 0.02 0.01 0.01 0.02 0.05 0.07 0.03 0.02 0.01 0.00 0.00 0.00 0.02
0.00 0.00 0.00 0.00 0.00 0.00 0.00 0.00 0.00 0.02 0.00 0.01 0.00 0.01 0.00 0.00 0.00 0.00 0.00 0.00 0.00 0.00 0.00 0.00 0.00 0.00 0.00 0.00 0.00 0.00 0.01 0.02 0.01 0.01 0.01 0.01 0.03 0.06 0.01 0.00 0.00 0.00 0.00 0.01
0.00 0.00 0.00 0.00 0.00 0.00 0.00 0.00 0.00 0.01 0.02 0.04 0.00 0.01 0.00 0.00 0.00 0.00 0.00 0.00 0.00 0.00 0.00 0.00 0.00 0.00 0.00 0.00 0.00 0.00 0.00 0.01 0.01 0.00 0.01 0.01 0.01 0.01 0.01 0.00 0.00 0.00 0.00 0.00
0.00 0.00 0.00 0.00 0.00 0.00 0.00 0.00 0.00 0.00 0.01 0.03 0.01 0.02 0.01 0.00 0.00 0.00 0.00 0.00 0.00 0.00 0.00 0.00 0.00 0.00 0.00 0.00 0.00 0.00 0.00 0.00 0.00 0.00 0.00 0.01 0.05 0.03 0.01 0.04 0.01 0.01 0.01 0.02
0.00 0.00 0.00 0.00 0.00 0.00 0.00 0.00 0.00 0.00 0.00 0.00 0.00 0.01 0.02 0.00 0.00 0.00 0.00 0.00 0.00 0.00 0.00 0.00 0.00 0.00 0.00 0.00 0.00 0.01 0.02 0.01 0.01 0.00 0.00 0.00 0.02 0.09 0.05 0.06 0.11 0.06 0.10 0.12
0.02 0.01 0.00 0.00 0.00 0.00 0.00 0.00 0.00 0.00 0.00 0.00 0.00 0.01 0.00 0.00 0.00 0.00 0.00 0.00 0.00 0.00 0.00 0.00 0.01 0.00 0.00 0.01 0.02 0.03 0.03 0.06 0.16 0.19 0.07 0.01 0.01 0.01 0.14 0.22 0.28 0.36 0.43 0.64
0.02 0.04 0.02 0.00 0.00 0.00 0.00 0.00 0.00 0.00 0.00 0.00 0.00 0.00 0.00 0.00 0.00 0.00 0.01 0.00 0.00 0.00 0.00 0.00 0.00 0.00 0.00 0.00 0.00 0.01 0.04 0.13 0.52 0.75 0.56 0.27 0.16 0.13 0.26 0.38 0.61 0.87 0.82 0.65
0.01 0.03 0.02 0.00 0.00 0.01 0.01 0.00 0.00 0.00 0.00 0.00 0.00 0.00 0.00 0.00 0.00 0.04 0.01 0.02 0.01 0.00 0.00 0.00 0.00 0.00 0.00 0.00 0.00 0.01 0.04 0.29 0.44 0.52 0.54 0.38 0.39 0.51 0.82 0.98 0.89 0.76 0.48 0.28
0.03 0.03 0.04 0.03 0.07 0.02 0.00 0.00 0.00 0.01 0.01 0.00 0.00 0.00 0.00 0.00 0.00 0.02 0.02 0.01 0.00 0.00 0.00 0.00 0.00 0.00 0.00 0.00 0.00 0.01 0.01 0.06 0.22 0.14 0.15 0.25 0.28 0.23 0.28 0.22 0.23 0.19 0.18 0.16
0.10 0.04 0.00 0.01 0.00 0.00 0.00 0.00 0.00 0.00 0.01 0.01 0.00 0.00 0.00 0.00 0.00 0.00 0.00 0.00 0.00 0.00 0.00 0.00 0.00 0.00 0.00 0.00 0.00 0.00 0.00 0.00 0.04 0.02 0.04 0.09 0.14 0.14 0.15 0.14 0.12 0.16 0.18 0.19
0.21 0.20 0.05 0.01 0.00 0.00 0.00 0.00 0.00 0.00 0.00 0.00 0.00 0.00 0.00 0.00 0.00 0.00 0.00 0.00 0.00 0.00 0.00 0.00 0.00 0.00 0.01 0.00 0.00 0.00 0.00 0.00 0.02 0.07 0.05 0.06 0.08 0.08 0.07 0.06 0.07 0.08 0.13 0.13
0.23 0.37 0.33 0.16 0.07 0.05 0.07 0.00 0.00 0.00 0.00 0.00 0.00 0.00 0.00 0.00 0.00 0.00 0.00 0.00 0.00 0.00 0.00 0.00 0.00 0.00 0.01 0.05 0.04 0.00 0.00 0.00 0.02 0.04 0.05 0.04 0.04 0.03 0.02 0.02 0.03 0.04 0.09 0.12
0.20 0.30 0.35 0.21 0.20 0.31 0.09 0.01 0.01 0.00 0.00 0.00 0.00 0.00 0.00 0.00 0.00 0.00 0.00 0.00 0.00 0.00 0.00 0.00 0.00 0.00 0.00 0.01 0.04 0.04 0.01 0.00 0.00 0.02 0.03 0.03 0.02 0.01 0.02 0.02 0.03 0.03 0.03 0.05
0.04 0.15 0.43 0.38 0.35 0.20 0.12 0.11 0.08 0.08 0.03 0.02 0.02 0.01 0.01 0.00 0.00 0.00 0.00 0.01 0.00 0.00 0.00 0.00 0.00 0.00 0.00 0.00 0.00 0.01 0.03 0.02 0.00 0.00 0.01 0.06 0.06 0.03 0.03 0.02 0.03 0.05 0.05 0.06
0.04 0.07 0.20 0.26 0.20 0.08 0.14 0.06 0.06 0.02 0.14 0.07 0.05 0.04 0.03 0.01 0.02 0.05 0.04 0.05 0.01 0.00 0.00 0.00 0.00 0.00 0.00 0.00 0.00 0.00 0.01 0.05 0.03 0.00 0.03 0.11 0.08 0.07 0.06 0.05 0.04 0.05 0.06 0.06
0.06 0.10 0.12 0.10 0.18 0.05 0.06 0.11 0.13 0.40 0.32 0.20 0.09 0.20 0.29 0.28 0.12 0.20 0.16 0.05 0.07 0.02 0.00 0.00 0.00 0.00 0.00 0.00 0.00 0.00 0.00 0.02 0.05 0.03 0.04 0.07 0.07 0.06 0.05 0.06 0.07 0.08 0.08 0.09
0.21 0.16 0.12 0.12 0.17 0.08 0.04 0.16 0.43 0.54 0.30 0.48 0.48 0.31 0.28 0.40 0.35 0.11 0.16 0.10 0.05 0.06 0.02 0.00 0.00 0.00 0.00 0.00 0.00 0.00 0.00 0.03 0.08 0.09 0.09 0.09 0.11 0.07 0.08 0.06 0.07 0.08 0.10 0.11
0.08 0.12 0.23 0.13 0.12 0.16 0.16 0.17 0.08 0.04 0.04 0.04 0.09 0.16 0.25 0.25 0.45 0.41 0.59 0.32 0.04 0.00 0.00 0.00 0.00 0.00 0.00 0.00 0.00 0.00 0.00 0.01 0.04 0.09 0.12 0.13 0.12 0.11 0.11 0.13 0.12 0.11 0.09 0.09
0.04 0.05 0.16 0.10 0.12 0.15 0.14 0.17 0.04 0.02 0.01 0.02 0.03 0.02 0.04 0.09 0.06 0.10 0.14 0.06 0.01 0.00 0.00 0.00 0.00 0.00 0.01 0.00 0.00 0.01 0.01 0.01 0.01 0.04 0.06 0.09 0.11 0.14 0.12 0.15 0.17 0.19 0.21 0.21
0.09 0.21 0.12 0.14 0.10 0.06 0.09 0.07 0.04 0.01 0.00 0.00 0.00 0.00 0.00 0.01 0.03 0.03 0.02 0.02 0.05 0.08 0.07 0.05 0.05 0.06 0.05 0.06 0.05 0.06 0.07 0.07 0.05 0.05 0.05 0.07 0.09 0.09 0.09 0.14 0.24 0.27 0.38 0.45
0.08 0.32 0.29 0.49 0.20 0.08 0.12 0.00 0.01 0.00 0.00 0.00 0.00 0.00 0.00 0.00 0.00 0.01 0.01 0.01 0.01 0.03 0.08 0.16 0.20 0.22 0.24 0.21 0.17 0.15 0.15 0.16 0.18 0.18 0.16 0.16 0.12 0.12 0.14 0.14 0.25 0.47 0.56 0.57

GFSCGP_prec_precacc24_096.txt.gz
Total_Precipitation_Accumulation
0.00 0.00 0.00 0.00 0.00 0.00 0.00 0.00 0.00 0.00 0.00 0.00 0.00 0.00 0.00 0.00 0.00 0.00 0.00 0.00 0.00 0.00 0.00 0.00 0.00 0.00 0.00 0.01 0.02 0.05 0.12 0.15 0.14 0.16 0.25 0.38 0.39 0.24 0.22 0.24 0.21 0.23 0.27 0.23
0.00 0.00 0.00 0.00 0.00 0.00 0.00 0.00 0.00 0.00 0.00 0.00 0.00 0.00 0.00 0.00 0.00 0.00 0.00 0.00 0.00 0.00 0.00 0.00 0.00 0.00 0.00 0.01 0.02 0.02 0.04 0.06 0.10 0.09 0.17 0.24 0.27 0.22 0.17 0.18 0.24 0.22 0.24 0.17
0.00 0.00 0.00 0.00 0.00 0.00 0.00 0.00 0.00 0.00 0.00 0.00 0.00 0.00 0.00 0.00 0.00 0.00 0.00 0.00 0.00 0.00 0.00 0.00 0.00 0.00 0.00 0.01 0.01 0.01 0.00 0.01 0.07 0.11 0.26 0.32 0.35 0.24 0.20 0.15 0.17 0.23 0.21 0.17
0.00 0.00 0.00 0.00 0.00 0.00 0.00 0.00 0.00 0.00 0.00 0.00 0.00 0.00 0.00 0.00 0.00 0.00 0.00 0.00 0.00 0.00 0.00 0.00 0.00 0.00 0.00 0.00 0.00 0.02 0.01 0.01 0.03 0.06 0.13 0.16 0.15 0.09 0.05 0.03 0.05 0.14 0.23 0.22
0.00 0.00 0.00 0.00 0.00 0.00 0.00 0.00 0.00 0.00 0.00 0.00 0.00 0.00 0.00 0.00 0.00 0.00 0.00 0.00 0.00 0.00 0.00 0.00 0.00 0.00 0.00 0.00 0.00 0.01 0.01 0.01 0.01 0.03 0.06 0.13 0.06 0.02 0.04 0.01 0.02 0.07 0.20 0.26
0.00 0.00 0.00 0.00 0.00 0.00 0.00 0.00 0.00 0.00 0.00 0.03 0.00 0.00 0.00 0.00 0.00 0.00 0.00 0.00 0.00 0.00 0.00 0.00 0.00 0.00 0.00 0.00 0.00 0.00 0.01 0.02 0.01 0.02 0.02 0.05 0.07 0.03 0.02 0.01 0.00 0.01 0.07 0.21
0.00 0.00 0.00 0.00 0.00 0.00 0.00 0.00 0.00 0.02 0.00 0.01 0.00 0.01 0.00 0.00 0.00 0.00 0.00 0.00 0.00 0.00 0.00 0.00 0.00 0.00 0.00 0.00 0.00 0.00 0.01 0.02 0.01 0.01 0.01 0.01 0.03 0.06 0.01 0.00 0.00 0.00 0.01 0.07
0.00 0.00 0.00 0.00 0.00 0.00 0.00 0.00 0.00 0.01 0.02 0.04 0.00 0.01 0.00 0.00 0.00 0.00 0.00 0.00 0.00 0.00 0.00 0.00 0.00 0.00 0.00 0.00 0.00 0.00 0.00 0.01 0.01 0.01 0.01 0.01 0.01 0.01 0.01 0.00 0.00 0.00 0.00 0.01
0.00 0.00 0.00 0.00 0.00 0.00 0.00 0.00 0.00 0.00 0.01 0.03 0.01 0.02 0.01 0.00 0.00 0.00 0.00 0.00 0.00 0.00 0.00 0.00 0.00 0.00 0.00 0.00 0.00 0.00 0.00 0.00 0.00 0.00 0.00 0.01 0.01 0.01 0.00 0.00 0.00 0.00 0.00 0.01
0.00 0.00 0.00 0.00 0.00 0.00 0.00 0.00 0.00 0.00 0.01 0.00 0.00 0.01 0.02 0.01 0.01 0.01 0.00 0.00 0.00 0.00 0.00 0.00 0.00 0.00 0.00 0.00 0.00 0.01 0.02 0.01 0.01 0.01 0.00 0.00 0.01 0.01 0.01 0.01 0.00 0.02 0.06 0.06
0.03 0.02 0.00 0.00 0.00 0.00 0.00 0.00 0.00 0.00 0.00 0.00 0.00 0.01 0.02 0.07 0.04 0.03 0.00 0.00 0.00 0.00 0.00 0.00 0.00 0.00 0.00 0.01 0.02 0.03 0.03 0.06 0.14 0.13 0.03 0.01 0.01 0.01 0.01 0.04 0.04 0.06 0.10 0.15
0.04 0.05 0.02 0.00 0.00 0.00 0.00 0.00 0.00 0.00 0.00 0.00 0.00 0.00 0.01 0.03 0.05 0.03 0.01 0.00 0.00 0.00 0.00 0.00 0.00 0.00 0.00 0.00 0.00 0.01 0.04 0.09 0.35 0.42 0.22 0.07 0.05 0.03 0.05 0.08 0.10 0.11 0.24 0.33
0.03 0.04 0.02 0.00 0.01 0.02 0.02 0.00 0.00 0.00 0.00 0.00 0.00 0.00 0.00 0.00 0.00 0.06 0.04 0.03 0.01 0.00 0.00 0.00 0.00 0.00 0.00 0.00 0.00 0.00 0.01 0.11 0.21 0.22 0.27 0.16 0.06 0.04 0.07 0.29 0.49 0.46 0.34 0.21
0.03 0.03 0.04 0.03 0.07 0.03 0.03 0.01 0.00 0.01 0.01 0.00 0.00 0.00 0.00 0.00 0.00 0.03 0.08 0.04 0.01 0.00 0.00 0.00 0.00 0.00 0.00 0.00 0.00 0.00 0.00 0.01 0.03 0.05 0.12 0.21 0.16 0.06 0.09 0.09 0.13 0.12 0.14 0.09
0.10 0.04 0.00 0.01 0.00 0.00 0.00 0.02 0.00 0.02 0.02 0.02 0.00 0.00 0.00 0.00 0.00 0.00 0.01 0.00 0.01 0.00 0.00 0.00 0.00 0.00 0.00 0.00 0.00 0.00 0.00 0.00 0.02 0.01 0.04 0.08 0.11 0.09 0.09 0.09 0.08 0.12 0.13 0.14
0.21 0.20 0.05 0.01 0.00 0.00 0.00 0.00 0.00 0.00 0.00 0.00 0.00 0.00 0.00 0.00 0.00 0.00 0.00 0.00 0.00 0.00 0.00 0.00 0.00 0.02 0.04 0.05 0.03 0.01 0.02 0.04 0.04 0.04 0.04 0.05 0.05 0.05 0.06 0.06 0.07 0.07 0.10 0.11
0.23 0.37 0.33 0.16 0.07 0.04 0.03 0.00 0.00 0.00 0.00 0.00 0.00 0.00 0.00 0.00 0.00 0.00 0.00 0.00 0.00 0.00 0.00 0.00 0.01 0.01 0.06 0.17 0.21 0.08 0.11 0.10 0.09 0.07 0.07 0.05 0.03 0.02 0.02 0.02 0.02 0.03 0.09 0.12
0.20 0.30 0.35 0.21 0.20 0.25 0.07 0.01 0.01 0.00 0.00 0.00 0.00 0.00 0.00 0.00 0.00 0.00 0.00 0.00 0.00 0.00 0.01 0.00 0.00 0.00 0.00 0.03 0.08 0.11 0.05 0.09 0.12 0.07 0.06 0.09 0.07 0.05 0.02 0.02 0.03 0.03 0.03 0.05
0.03 0.14 0.43 0.38 0.34 0.19 0.13 0.11 0.08 0.08 0.03 0.02 0.02 0.01 0.01 0.00 0.00 0.00 0.01 0.02 0.01 0.01 0.01 0.00 0.00 0.00 0.00 0.00 0.00 0.01 0.04 0.06 0.07 0.08 0.07 0.12 0.12 0.07 0.06 0.04 0.04 0.05 0.06 0.07
0.02 0.05 0.19 0.26 0.20 0.07 0.15 0.07 0.06 0.02 0.14 0.07 0.05 0.04 0.03 0.01 0.02 0.05 0.04 0.06 0.03 0.02 0.02 0.01 0.00 0.00 0.00 0.00 0.00 0.00 0.01 0.05 0.06 0.04 0.10 0.21 0.15 0.10 0.09 0.10 0.05 0.06 0.07 0.08
0.04 0.09 0.12 0.10 0.18 0.05 0.06 0.11 0.13 0.44 0.43 0.21 0.09 0.20 0.29 0.30 0.16 0.22 0.20 0.08 0.09 0.03 0.01 0.00 0.00 0.00 0.00 0.00 0.00 0.00 0.00 0.02 0.06 0.03 0.12 0.18 0.18 0.15 0.12 0.14 0.09 0.09 0.10 0.12
0.22 0.16 0.12 0.12 0.18 0.08 0.04 0.16 0.43 0.68 0.38 0.48 0.48 0.31 0.28 0.41 0.53 0.38 0.28 0.14 0.06 0.07 0.03 0.01 0.00 0.00 0.00 0.00 0.00 0.00 0.00 0.03 0.08 0.09 0.10 0.13 0.20 0.20 0.20 0.15 0.12 0.09 0.11 0.13
0.11 0.12 0.23 0.13 0.12 0.17 0.16 0.17 0.07 0.04 0.04 0.04 0.08 0.16 0.25 0.25 0.48 0.67 0.83 0.40 0.06 0.00 0.00 0.00 0.00 0.00 0.00 0.00 0.00 0.00 0.00 0.01 0.05 0.10 0.13 0.16 0.18 0.23 0.27 0.29 0.27 0.24 0.18 0.14
0.11 0.06 0.17 0.12 0.15 0.16 0.16 0.18 0.04 0.02 0.01 0.02 0.03 0.02 0.04 0.09 0.06 0.12 0.21 0.14 0.10 0.01 0.00 0.00 0.00 0.00 0.01 0.00 0.00 0.01 0.01 0.01 0.02 0.04 0.07 0.10 0.14 0.22 0.23 0.26 0.29 0.34 0.38 0.37
0.10 0.24 0.22 0.28 0.23 0.09 0.09 0.03 0.00 0.00 0.00 0.00 0.00 0.00 0.00 0.01 0.03 0.03 0.02 0.03 0.09 0.09 0.07 0.05 0.05 0.06 0.05 0.06 0.05 0.06 0.07 0.07 0.06 0.05 0.05 0.09 0.14 0.16 0.17 0.24 0.35 0.38 0.48 0.57
0.08 0.35 0.60 0.83 0.42 0.22 0.14 0.00 0.00 0.00 0.00 0.00 0.00 0.00 0.00 0.00 0.00 0.01 0.01 0.01 0.01 0.04 0.08 0.16 0.20 0.22 0.24 0.21 0.17 0.15 0.15 0.16 0.19 0.18 0.16 0.17 0.13 0.18 0.28 0.33 0.48 0.72 0.78 0.78

GFSCGP_prec_precacc24_099.txt.gz
Total_Precipitation_Accumulation
0.00 0.00 0.00 0.00 0.00 0.00 0.00 0.00 0.00 0.00 0.00 0.00 0.00 0.00 0.00 0.00 0.00 0.00 0.00 0.00 0.00 0.00 0.00 0.00 0.00 0.00 0.00 0.01 0.02 0.05 0.11 0.14 0.13 0.15 0.24 0.38 0.39 0.24 0.23 0.29 0.27 0.28 0.34 0.24
0.00 0.00 0.00 0.00 0.00 0.00 0.00 0.00 0.00 0.00 0.00 0.00 0.00 0.00 0.00 0.00 0.00 0.00 0.00 0.00 0.00 0.00 0.00 0.00 0.00 0.00 0.00 0.01 0.02 0.02 0.04 0.06 0.10 0.09 0.17 0.24 0.27 0.22 0.17 0.21 0.32 0.30 0.42 0.36
0.00 0.00 0.00 0.00 0.00 0.00 0.00 0.00 0.00 0.00 0.00 0.00 0.00 0.00 0.00 0.00 0.00 0.00 0.00 0.00 0.00 0.00 0.00 0.00 0.00 0.00 0.00 0.01 0.01 0.01 0.00 0.01 0.07 0.11 0.26 0.32 0.35 0.24 0.21 0.16 0.19 0.30 0.34 0.35
0.00 0.00 0.00 0.00 0.00 0.00 0.00 0.00 0.00 0.00 0.00 0.00 0.00 0.00 0.00 0.00 0.00 0.00 0.00 0.00 0.00 0.00 0.00 0.00 0.00 0.00 0.00 0.00 0.00 0.02 0.01 0.01 0.03 0.06 0.13 0.16 0.15 0.10 0.06 0.03 0.06 0.14 0.31 0.37
0.00 0.00 0.00 0.00 0.00 0.00 0.00 0.00 0.00 0.00 0.00 0.00 0.00 0.00 0.00 0.00 0.00 0.00 0.00 0.00 0.00 0.00 0.00 0.00 0.00 0.00 0.00 0.00 0.00 0.01 0.01 0.01 0.01 0.03 0.06 0.13 0.06 0.02 0.04 0.01 0.02 0.07 0.21 0.34
0.00 0.00 0.00 0.00 0.00 0.00 0.00 0.00 0.00 0.00 0.00 0.03 0.00 0.00 0.00 0.00 0.00 0.00 0.00 0.00 0.00 0.00 0.00 0.00 0.00 0.00 0.00 0.00 0.00 0.00 0.01 0.02 0.01 0.02 0.02 0.05 0.07 0.03 0.02 0.01 0.00 0.01 0.09 0.24
0.00 0.00 0.00 0.00 0.00 0.00 0.00 0.00 0.00 0.02 0.00 0.01 0.00 0.01 0.00 0.00 0.00 0.00 0.00 0.00 0.00 0.00 0.00 0.00 0.00 0.00 0.00 0.00 0.00 0.00 0.01 0.02 0.01 0.01 0.01 0.01 0.03 0.06 0.01 0.00 0.00 0.00 0.02 0.10
0.00 0.00 0.00 0.00 0.00 0.00 0.00 0.00 0.00 0.01 0.02 0.04 0.00 0.01 0.00 0.00 0.00 0.00 0.00 0.00 0.00 0.00 0.00 0.00 0.00 0.00 0.00 0.00 0.00 0.00 0.00 0.01 0.01 0.01 0.01 0.01 0.01 0.01 0.01 0.00 0.00 0.00 0.01 0.04
0.00 0.00 0.00 0.00 0.00 0.00 0.00 0.00 0.00 0.00 0.01 0.03 0.01 0.02 0.01 0.00 0.00 0.00 0.00 0.00 0.00 0.00 0.00 0.00 0.00 0.00 0.00 0.00 0.00 0.00 0.00 0.00 0.01 0.00 0.00 0.01 0.01 0.01 0.00 0.00 0.00 0.00 0.00 0.04
0.00 0.00 0.00 0.00 0.00 0.00 0.00 0.00 0.00 0.00 0.01 0.00 0.00 0.01 0.02 0.01 0.02 0.03 0.01 0.00 0.00 0.00 0.00 0.00 0.00 0.00 0.00 0.00 0.00 0.01 0.01 0.00 0.00 0.01 0.00 0.00 0.01 0.01 0.01 0.00 0.00 0.00 0.00 0.02
0.03 0.02 0.00 0.00 0.00 0.00 0.00 0.00 0.00 0.00 0.00 0.00 0.00 0.01 0.02 0.07 0.07 0.12 0.10 0.03 0.00 0.00 0.00 0.00 0.00 0.00 0.00 0.00 0.01 0.03 0.03 0.03 0.07 0.03 0.01 0.01 0.01 0.01 0.01 0.01 0.00 0.00 0.00 0.01
0.04 0.06 0.02 0.00 0.01 0.00 0.00 0.00 0.00 0.00 0.00 0.00 0.00 0.00 0.01 0.04 0.06 0.06 0.14 0.07 0.00 0.00 0.00 0.00 0.00 0.00 0.00 0.00 0.00 0.00 0.04 0.06 0.12 0.18 0.10 0.02 0.02 0.01 0.00 0.00 0.00 0.00 0.00 0.00
0.06 0.07 0.03 0.01 0.03 0.03 0.03 0.00 0.00 0.00 0.00 0.00 0.00 0.01 0.00 0.00 0.01 0.06 0.11 0.14 0.03 0.00 0.00 0.00 0.00 0.00 0.00 0.00 0.00 0.00 0.01 0.08 0.10 0.12 0.21 0.13 0.04 0.01 0.00 0.00 0.00 0.01 0.00 0.02
0.09 0.06 0.05 0.04 0.08 0.03 0.04 0.02 0.00 0.01 0.01 0.00 0.00 0.00 0.00 0.00 0.01 0.04 0.10 0.14 0.08 0.00 0.00 0.00 0.00 0.00 0.00 0.00 0.00 0.00 0.00 0.00 0.02 0.02 0.06 0.14 0.13 0.05 0.04 0.01 0.01 0.02 0.06 0.06
0.17 0.10 0.02 0.01 0.00 0.00 0.01 0.02 0.01 0.02 0.02 0.02 0.00 0.00 0.03 0.02 0.01 0.01 0.01 0.03 0.06 0.01 0.00 0.00 0.01 0.00 0.00 0.01 0.02 0.02 0.03 0.07 0.08 0.02 0.00 0.03 0.07 0.07 0.08 0.07 0.06 0.07 0.06 0.09
0.24 0.25 0.06 0.01 0.00 0.00 0.00 0.00 0.00 0.00 0.00 0.00 0.00 0.01 0.02 0.03 0.01 0.02 0.02 0.02 0.03 0.09 0.01 0.00 0.03 0.07 0.08 0.10 0.12 0.15 0.19 0.24 0.12 0.08 0.05 0.01 0.02 0.04 0.06 0.05 0.05 0.05 0.07 0.07
0.22 0.38 0.33 0.16 0.07 0.03 0.01 0.00 0.00 0.00 0.00 0.01 0.01 0.01 0.00 0.01 0.02 0.03 0.03 0.01 0.01 0.03 0.04 0.01 0.03 0.06 0.12 0.24 0.27 0.21 0.31 0.33 0.22 0.14 0.11 0.06 0.04 0.02 0.02 0.01 0.01 0.03 0.06 0.09
0.13 0.29 0.35 0.21 0.20 0.21 0.04 0.03 0.03 0.02 0.02 0.01 0.00 0.00 0.00 0.00 0.02 0.04 0.03 0.03 0.02 0.02 0.02 0.01 0.01 0.03 0.04 0.06 0.11 0.12 0.09 0.14 0.18 0.10 0.12 0.16 0.12 0.09 0.05 0.02 0.01 0.02 0.02 0.04
0.01 0.11 0.39 0.37 0.34 0.19 0.13 0.13 0.10 0.10 0.09 0.03 0.02 0.01 0.01 0.00 0.01 0.00 0.02 0.04 0.02 0.02 0.02 0.01 0.00 0.00 0.00 0.00 0.00 0.02 0.05 0.10 0.14 0.12 0.14 0.17 0.17 0.14 0.12 0.10 0.10 0.06 0.05 0.06
0.00 0.03 0.14 0.18 0.18 0.07 0.15 0.07 0.06 0.03 0.17 0.07 0.05 0.04 0.03 0.01 0.02 0.06 0.05 0.08 0.03 0.03 0.03 0.01 0.00 0.00 0.00 0.00 0.00 0.00 0.01 0.06 0.06 0.05 0.11 0.22 0.16 0.13 0.12 0.16 0.11 0.12 0.10 0.08
0.04 0.06 0.09 0.06 0.14 0.05 0.06 0.11 0.13 0.39 0.42 0.21 0.09 0.20 0.29 0.30 0.16 0.23 0.23 0.12 0.11 0.04 0.01 0.00 0.00 0.00 0.00 0.00 0.00 0.00 0.00 0.02 0.06 0.03 0.12 0.19 0.19 0.15 0.12 0.16 0.13 0.13 0.13 0.15
0.25 0.16 0.12 0.11 0.16 0.08 0.04 0.16 0.43 0.67 0.38 0.48 0.48 0.31 0.28 0.42 0.53 0.39 0.36 0.25 0.17 0.13 0.05 0.01 0.00 0.00 0.00 0.00 0.00 0.00 0.00 0.03 0.08 0.09 0.10 0.12 0.20 0.22 0.24 0.19 0.16 0.15 0.17 0.20
0.27 0.14 0.23 0.13 0.12 0.16 0.16 0.17 0.07 0.03 0.03 0.04 0.08 0.16 0.25 0.25 0.48 0.67 0.89 0.50 0.18 0.11 0.07 0.00 0.00 0.00 0.00 0.00 0.00 0.00 0.00 0.01 0.05 0.10 0.13 0.16 0.17 0.23 0.30 0.35 0.33 0.31 0.29 0.28
0.46 0.15 0.19 0.13 0.20 0.16 0.16 0.19 0.04 0.02 0.01 0.01 0.02 0.02 0.04 0.09 0.06 0.12 0.21 0.16 0.18 0.13 0.05 0.00 0.00 0.00 0.01 0.00 0.00 0.01 0.01 0.01 0.02 0.04 0.07 0.10 0.15 0.23 0.26 0.31 0.36 0.45 0.53 0.63
0.24 0.30 0.35 0.37 0.40 0.16 0.10 0.05 0.00 0.00 0.00 0.00 0.00 0.00 0.00 0.01 0.03 0.03 0.02 0.03 0.10 0.13 0.07 0.05 0.05 0.06 0.05 0.06 0.05 0.06 0.07 0.07 0.06 0.05 0.05 0.09 0.14 0.17 0.18 0.27 0.41 0.47 0.63 0.78
0.16 0.37 0.59 0.93 0.52 0.31 0.16 0.00 0.00 0.00 0.00 0.00 0.00 0.00 0.00 0.00 0.00 0.01 0.01 0.01 0.01 0.04 0.09 0.16 0.20 0.22 0.24 0.21 0.17 0.15 0.15 0.16 0.19 0.18 0.16 0.17 0.13 0.18 0.28 0.34 0.52 0.78 0.90 0.93

GFSCGP_prec_precacc24_102.txt.gz
Total_Precipitation_Accumulation
0.00 0.00 0.00 0.00 0.00 0.00 0.00 0.00 0.00 0.00 0.00 0.00 0.00 0.00 0.00 0.00 0.00 0.00 0.00 0.00 0.00 0.00 0.00 0.00 0.00 0.00 0.00 0.01 0.02 0.01 0.08 0.09 0.05 0.10 0.16 0.27 0.33 0.22 0.22 0.30 0.29 0.30 0.38 0.28
0.00 0.00 0.00 0.00 0.00 0.00 0.00 0.00 0.00 0.00 0.00 0.00 0.00 0.00 0.00 0.00 0.00 0.00 0.00 0.00 0.00 0.00 0.00 0.00 0.00 0.00 0.00 0.01 0.02 0.02 0.03 0.05 0.08 0.08 0.14 0.17 0.25 0.20 0.17 0.21 0.35 0.33 0.47 0.42
0.00 0.00 0.00 0.00 0.00 0.00 0.00 0.00 0.00 0.00 0.00 0.00 0.00 0.00 0.00 0.00 0.00 0.00 0.00 0.00 0.00 0.00 0.00 0.00 0.00 0.00 0.00 0.01 0.01 0.01 0.00 0.01 0.07 0.11 0.23 0.30 0.33 0.22 0.20 0.15 0.20 0.35 0.43 0.49
0.00 0.00 0.00 0.00 0.00 0.00 0.00 0.00 0.00 0.00 0.00 0.00 0.00 0.00 0.00 0.00 0.00 0.00 0.00 0.00 0.00 0.00 0.00 0.00 0.00 0.00 0.00 0.00 0.00 0.02 0.01 0.01 0.03 0.06 0.13 0.16 0.15 0.09 0.05 0.03 0.06 0.16 0.41 0.58
0.00 0.00 0.00 0.00 0.00 0.00 0.00 0.00 0.00 0.00 0.00 0.00 0.00 0.00 0.00 0.00 0.00 0.00 0.00 0.00 0.00 0.00 0.00 0.00 0.00 0.00 0.00 0.00 0.00 0.01 0.01 0.01 0.01 0.03 0.06 0.13 0.06 0.02 0.04 0.01 0.02 0.08 0.23 0.50
0.00 0.00 0.00 0.00 0.00 0.00 0.00 0.00 0.00 0.00 0.00 0.03 0.00 0.00 0.00 0.00 0.00 0.00 0.00 0.00 0.00 0.00 0.00 0.00 0.00 0.00 0.00 0.00 0.00 0.00 0.01 0.02 0.01 0.02 0.02 0.05 0.07 0.03 0.02 0.01 0.00 0.01 0.09 0.25
0.00 0.00 0.00 0.00 0.00 0.00 0.00 0.00 0.00 0.02 0.00 0.01 0.00 0.01 0.00 0.00 0.00 0.00 0.00 0.00 0.00 0.00 0.00 0.00 0.00 0.00 0.00 0.00 0.00 0.00 0.01 0.02 0.02 0.02 0.01 0.01 0.03 0.06 0.01 0.00 0.00 0.00 0.02 0.10
0.00 0.00 0.00 0.00 0.00 0.00 0.00 0.00 0.00 0.01 0.02 0.04 0.00 0.01 0.00 0.00 0.00 0.00 0.00 0.00 0.00 0.00 0.00 0.00 0.00 0.00 0.00 0.00 0.00 0.00 0.00 0.01 0.01 0.01 0.01 0.01 0.01 0.01 0.01 0.00 0.00 0.00 0.01 0.04
0.00 0.00 0.00 0.00 0.00 0.00 0.00 0.00 0.00 0.00 0.01 0.03 0.01 0.02 0.01 0.00 0.00 0.00 0.00 0.00 0.00 0.00 0.00 0.00 0.00 0.00 0.00 0.00 0.00 0.00 0.00 0.00 0.01 0.01 0.01 0.01 0.01 0.01 0.00 0.00 0.00 0.00 0.00 0.04
0.00 0.00 0.00 0.00 0.00 0.00 0.00 0.00 0.00 0.00 0.01 0.00 0.00 0.01 0.02 0.01 0.02 0.03 0.01 0.00 0.00 0.00 0.00 0.00 0.00 0.00 0.00 0.00 0.00 0.00 0.00 0.00 0.00 0.01 0.01 0.00 0.01 0.01 0.01 0.00 0.00 0.00 0.00 0.02
0.03 0.02 0.00 0.00 0.00 0.00 0.00 0.00 0.00 0.00 0.00 0.00 0.00 0.01 0.02 0.07 0.07 0.12 0.10 0.06 0.02 0.00 0.00 0.00 0.00 0.00 0.00 0.00 0.00 0.01 0.01 0.00 0.01 0.01 0.01 0.01 0.01 0.01 0.01 0.01 0.00 0.00 0.00 0.00
0.04 0.06 0.02 0.00 0.01 0.00 0.00 0.00 0.00 0.00 0.00 0.00 0.00 0.00 0.01 0.04 0.06 0.06 0.14 0.17 0.12 0.05 0.01 0.00 0.00 0.00 0.00 0.00 0.00 0.00 0.01 0.02 0.02 0.03 0.03 0.01 0.00 0.00 0.00 0.00 0.00 0.00 0.00 0.00
0.06 0.07 0.03 0.01 0.03 0.03 0.03 0.00 0.00 0.00 0.00 0.00 0.01 0.01 0.00 0.00 0.01 0.06 0.12 0.22 0.11 0.07 0.02 0.00 0.00 0.00 0.00 0.00 0.00 0.00 0.00 0.06 0.08 0.03 0.10 0.05 0.01 0.00 0.00 0.00 0.00 0.00 0.00 0.00
0.07 0.05 0.06 0.05 0.08 0.03 0.04 0.02 0.00 0.01 0.01 0.00 0.00 0.00 0.00 0.00 0.02 0.05 0.11 0.15 0.16 0.13 0.04 0.01 0.02 0.00 0.00 0.00 0.00 0.01 0.04 0.08 0.08 0.02 0.02 0.03 0.02 0.02 0.00 0.00 0.01 0.01 0.00 0.01
0.12 0.09 0.04 0.02 0.01 0.00 0.01 0.04 0.01 0.02 0.02 0.02 0.00 0.00 0.04 0.03 0.01 0.03 0.05 0.06 0.18 0.14 0.04 0.01 0.04 0.04 0.03 0.03 0.07 0.10 0.13 0.18 0.15 0.05 0.01 0.01 0.01 0.01 0.01 0.02 0.03 0.03 0.02 0.01
0.15 0.16 0.10 0.04 0.01 0.00 0.00 0.00 0.01 0.00 0.00 0.00 0.00 0.01 0.03 0.03 0.03 0.06 0.06 0.09 0.15 0.25 0.06 0.01 0.06 0.15 0.17 0.20 0.17 0.20 0.29 0.42 0.25 0.15 0.11 0.03 0.00 0.01 0.02 0.02 0.04 0.04 0.03 0.02
0.10 0.21 0.31 0.16 0.07 0.03 0.01 0.00 0.00 0.00 0.00 0.01 0.01 0.01 0.00 0.01 0.04 0.05 0.05 0.05 0.10 0.13 0.14 0.03 0.04 0.12 0.19 0.35 0.37 0.30 0.44 0.52 0.40 0.29 0.21 0.12 0.06 0.02 0.02 0.01 0.01 0.02 0.05 0.05
0.01 0.05 0.17 0.19 0.20 0.21 0.05 0.04 0.03 0.02 0.02 0.01 0.00 0.00 0.00 0.00 0.10 0.07 0.04 0.05 0.05 0.05 0.08 0.07 0.03 0.04 0.06 0.09 0.14 0.18 0.21 0.28 0.24 0.16 0.17 0.21 0.13 0.08 0.05 0.02 0.02 0.02 0.02 0.02
0.00 0.02 0.16 0.24 0.33 0.19 0.16 0.14 0.11 0.11 0.12 0.05 0.04 0.02 0.01 0.01 0.03 0.01 0.02 0.04 0.03 0.03 0.03 0.02 0.03 0.02 0.01 0.01 0.01 0.02 0.08 0.16 0.20 0.15 0.20 0.21 0.18 0.14 0.12 0.10 0.10 0.06 0.03 0.03
0.00 0.01 0.09 0.12 0.12 0.06 0.17 0.10 0.06 0.04 0.18 0.08 0.05 0.05 0.03 0.01 0.03 0.06 0.05 0.08 0.04 0.03 0.03 0.02 0.00 0.00 0.00 0.00 0.00 0.00 0.01 0.07 0.10 0.09 0.16 0.24 0.17 0.13 0.12 0.15 0.11 0.11 0.07 0.06
0.02 0.05 0.08 0.05 0.11 0.04 0.07 0.11 0.13 0.40 0.42 0.21 0.09 0.20 0.30 0.30 0.16 0.23 0.24 0.12 0.13 0.06 0.01 0.01 0.00 0.00 0.00 0.00 0.00 0.00 0.00 0.02 0.06 0.03 0.12 0.19 0.19 0.16 0.14 0.17 0.14 0.12 0.12 0.14
0.22 0.13 0.10 0.09 0.15 0.07 0.03 0.15 0.41 0.66 0.38 0.48 0.48 0.31 0.28 0.42 0.53 0.39 0.36 0.26 0.23 0.22 0.13 0.03 0.00 0.00 0.00 0.00 0.00 0.00 0.00 0.03 0.08 0.09 0.10 0.12 0.19 0.22 0.23 0.19 0.18 0.17 0.20 0.22
0.38 0.23 0.27 0.11 0.11 0.16 0.16 0.17 0.05 0.01 0.03 0.03 0.08 0.16 0.25 0.25 0.48 0.67 0.89 0.51 0.26 0.29 0.23 0.11 0.02 0.00 0.00 0.00 0.00 0.00 0.00 0.01 0.05 0.09 0.13 0.15 0.17 0.23 0.29 0.34 0.34 0.34 0.34 0.34
0.55 0.40 0.44 0.16 0.25 0.15 0.15 0.19 0.04 0.01 0.00 0.01 0.02 0.01 0.04 0.09 0.06 0.12 0.22 0.16 0.22 0.28 0.17 0.04 0.01 0.00 0.01 0.00 0.00 0.01 0.01 0.01 0.02 0.04 0.07 0.10 0.14 0.23 0.26 0.31 0.36 0.46 0.57 0.70
0.29 0.55 0.72 0.51 0.48 0.22 0.11 0.05 0.02 0.00 0.00 0.00 0.00 0.00 0.00 0.00 0.03 0.02 0.02 0.04 0.11 0.18 0.09 0.08 0.06 0.07 0.05 0.06 0.05 0.06 0.07 0.07 0.06 0.05 0.05 0.09 0.14 0.17 0.18 0.27 0.42 0.47 0.66 0.83
0.22 0.53 0.69 1.08 0.65 0.40 0.24 0.07 0.01 0.00 0.00 0.00 0.00 0.00 0.00 0.00 0.00 0.01 0.01 0.01 0.02 0.05 0.09 0.15 0.19 0.22 0.24 0.21 0.17 0.15 0.15 0.16 0.19 0.18 0.16 0.17 0.13 0.19 0.28 0.34 0.53 0.79 0.90 0.93

GFSCGP_prec_precacc24_105.txt.gz
Total_Precipitation_Accumulation
0.00 0.00 0.00 0.00 0.00 0.00 0.00 0.00 0.00 0.00 0.00 0.00 0.00 0.00 0.00 0.00 0.00 0.00 0.00 0.00 0.00 0.00 0.00 0.00 0.00 0.00 0.00 0.00 0.01 0.01 0.04 0.04 0.03 0.06 0.10 0.15 0.18 0.12 0.16 0.29 0.29 0.31 0.39 0.29
0.01 0.01 0.00 0.00 0.00 0.00 0.00 0.00 0.00 0.00 0.00 0.00 0.00 0.00 0.00 0.00 0.00 0.00 0.00 0.00 0.00 0.00 0.00 0.00 0.00 0.00 0.00 0.00 0.01 0.01 0.02 0.04 0.04 0.04 0.08 0.13 0.14 0.09 0.12 0.19 0.35 0.34 0.47 0.44
0.02 0.00 0.00 0.00 0.00 0.00 0.00 0.00 0.00 0.00 0.00 0.00 0.00 0.00 0.00 0.00 0.00 0.00 0.00 0.00 0.00 0.00 0.00 0.00 0.00 0.00 0.00 0.00 0.01 0.01 0.00 0.01 0.05 0.04 0.14 0.21 0.21 0.14 0.15 0.11 0.20 0.36 0.44 0.52
0.00 0.00 0.00 0.00 0.00 0.00 0.00 0.00 0.00 0.00 0.00 0.00 0.00 0.00 0.00 0.00 0.00 0.00 0.00 0.00 0.00 0.00 0.00 0.00 0.00 0.00 0.00 0.00 0.00 0.02 0.01 0.01 0.03 0.04 0.09 0.12 0.13 0.07 0.04 0.03 0.06 0.16 0.43 0.62
0.00 0.00 0.00 0.00 0.00 0.00 0.00 0.00 0.00 0.00 0.00 0.00 0.00 0.00 0.00 0.00 0.00 0.00 0.00 0.00 0.00 0.00 0.00 0.00 0.00 0.00 0.00 0.00 0.00 0.01 0.01 0.01 0.01 0.03 0.06 0.12 0.06 0.02 0.04 0.01 0.02 0.08 0.25 0.52
0.00 0.00 0.00 0.00 0.00 0.00 0.00 0.00 0.00 0.00 0.00 0.03 0.00 0.00 0.00 0.00 0.00 0.00 0.00 0.00 0.00 0.00 0.00 0.00 0.00 0.00 0.00 0.00 0.00 0.00 0.01 0.02 0.01 0.02 0.02 0.05 0.07 0.03 0.02 0.01 0.00 0.01 0.09 0.28
0.00 0.00 0.00 0.00 0.00 0.00 0.00 0.00 0.00 0.02 0.00 0.01 0.00 0.01 0.00 0.00 0.00 0.00 0.00 0.00 0.00 0.00 0.00 0.00 0.00 0.00 0.00 0.00 0.00 0.00 0.01 0.02 0.02 0.02 0.01 0.01 0.03 0.06 0.01 0.00 0.00 0.00 0.02 0.11
0.00 0.00 0.00 0.00 0.00 0.00 0.00 0.00 0.00 0.01 0.02 0.04 0.00 0.01 0.00 0.00 0.00 0.00 0.00 0.00 0.00 0.00 0.00 0.00 0.00 0.00 0.00 0.00 0.00 0.00 0.00 0.01 0.02 0.01 0.01 0.01 0.01 0.01 0.01 0.00 0.00 0.00 0.01 0.04
0.00 0.00 0.00 0.00 0.00 0.00 0.00 0.00 0.00 0.00 0.01 0.03 0.01 0.02 0.01 0.00 0.00 0.00 0.00 0.00 0.00 0.00 0.00 0.00 0.00 0.00 0.00 0.00 0.00 0.00 0.00 0.01 0.01 0.01 0.01 0.01 0.01 0.01 0.00 0.00 0.00 0.00 0.00 0.04
0.00 0.00 0.00 0.00 0.00 0.00 0.00 0.00 0.00 0.00 0.01 0.00 0.00 0.01 0.02 0.01 0.02 0.03 0.01 0.00 0.00 0.00 0.00 0.00 0.00 0.00 0.00 0.00 0.00 0.00 0.00 0.00 0.00 0.01 0.01 0.00 0.01 0.01 0.01 0.00 0.00 0.00 0.00 0.02
0.03 0.02 0.00 0.00 0.00 0.00 0.00 0.00 0.00 0.00 0.00 0.00 0.00 0.01 0.02 0.07 0.07 0.12 0.10 0.06 0.02 0.00 0.00 0.00 0.00 0.00 0.00 0.00 0.00 0.00 0.00 0.00 0.00 0.00 0.01 0.01 0.01 0.01 0.01 0.01 0.00 0.00 0.00 0.00
0.05 0.06 0.02 0.00 0.01 0.00 0.00 0.00 0.00 0.00 0.00 0.00 0.00 0.00 0.01 0.04 0.06 0.06 0.14 0.17 0.12 0.05 0.02 0.00 0.00 0.00 0.00 0.00 0.00 0.00 0.00 0.01 0.01 0.02 0.01 0.01 0.00 0.00 0.00 0.00 0.00 0.00 0.00 0.00
0.06 0.07 0.04 0.01 0.03 0.03 0.03 0.00 0.00 0.00 0.00 0.00 0.01 0.01 0.00 0.00 0.01 0.06 0.12 0.22 0.11 0.09 0.09 0.03 0.03 0.02 0.03 0.02 0.00 0.00 0.01 0.05 0.06 0.02 0.02 0.01 0.00 0.00 0.00 0.00 0.00 0.00 0.00 0.00
0.06 0.04 0.04 0.04 0.08 0.03 0.04 0.02 0.00 0.01 0.01 0.00 0.00 0.00 0.00 0.00 0.02 0.05 0.11 0.15 0.16 0.17 0.22 0.20 0.22 0.12 0.12 0.09 0.02 0.02 0.05 0.09 0.09 0.03 0.01 0.02 0.01 0.00 0.00 0.00 0.00 0.01 0.00 0.00
0.12 0.09 0.04 0.01 0.01 0.00 0.01 0.04 0.01 0.02 0.02 0.02 0.00 0.00 0.04 0.03 0.01 0.03 0.05 0.06 0.19 0.23 0.24 0.21 0.60 0.40 0.15 0.12 0.13 0.13 0.14 0.23 0.22 0.10 0.03 0.01 0.01 0.00 0.00 0.00 0.00 0.00 0.01 0.00
0.16 0.14 0.08 0.03 0.01 0.00 0.00 0.00 0.01 0.00 0.00 0.00 0.00 0.01 0.03 0.03 0.04 0.06 0.06 0.09 0.16 0.30 0.25 0.20 0.30 0.46 0.28 0.27 0.25 0.32 0.38 0.52 0.36 0.23 0.19 0.06 0.01 0.00 0.00 0.00 0.00 0.01 0.02 0.01
0.05 0.05 0.05 0.01 0.01 0.02 0.01 0.00 0.00 0.00 0.00 0.01 0.01 0.01 0.00 0.01 0.04 0.05 0.05 0.05 0.10 0.15 0.27 0.22 0.22 0.40 0.29 0.41 0.46 0.41 0.59 0.66 0.51 0.38 0.29 0.15 0.08 0.02 0.01 0.00 0.00 0.01 0.03 0.03
0.01 0.01 0.05 0.03 0.02 0.12 0.06 0.05 0.03 0.02 0.02 0.01 0.00 0.00 0.00 0.00 0.10 0.08 0.05 0.05 0.06 0.07 0.17 0.25 0.20 0.27 0.26 0.13 0.17 0.23 0.32 0.44 0.35 0.24 0.24 0.23 0.14 0.09 0.05 0.02 0.02 0.01 0.01 0.01
0.00 0.01 0.06 0.05 0.05 0.07 0.16 0.17 0.12 0.12 0.12 0.06 0.08 0.07 0.02 0.01 0.03 0.02 0.02 0.04 0.03 0.05 0.08 0.11 0.17 0.17 0.30 0.15 0.11 0.12 0.14 0.26 0.36 0.28 0.37 0.34 0.24 0.16 0.12 0.10 0.09 0.05 0.02 0.02
0.00 0.01 0.05 0.07 0.07 0.02 0.17 0.12 0.06 0.06 0.18 0.08 0.05 0.05 0.03 0.01 0.04 0.07 0.05 0.08 0.04 0.05 0.07 0.05 0.07 0.08 0.14 0.24 0.12 0.09 0.05 0.12 0.17 0.15 0.17 0.26 0.20 0.16 0.12 0.15 0.13 0.12 0.08 0.06
0.01 0.07 0.08 0.04 0.08 0.03 0.07 0.11 0.13 0.41 0.41 0.20 0.09 0.20 0.30 0.30 0.17 0.23 0.24 0.13 0.14 0.07 0.05 0.03 0.02 0.03 0.02 0.05 0.03 0.02 0.01 0.03 0.07 0.04 0.12 0.19 0.19 0.16 0.14 0.18 0.15 0.14 0.14 0.16
0.20 0.09 0.07 0.06 0.12 0.06 0.01 0.11 0.36 0.64 0.37 0.47 0.48 0.31 0.28 0.42 0.53 0.39 0.36 0.26 0.25 0.25 0.18 0.08 0.01 0.01 0.00 0.00 0.00 0.00 0.00 0.03 0.08 0.09 0.10 0.11 0.19 0.21 0.22 0.19 0.18 0.17 0.22 0.25
0.40 0.26 0.32 0.09 0.10 0.15 0.15 0.16 0.03 0.01 0.01 0.02 0.06 0.15 0.24 0.24 0.48 0.66 0.89 0.51 0.30 0.39 0.39 0.24 0.08 0.02 0.01 0.00 0.00 0.00 0.00 0.01 0.05 0.09 0.12 0.15 0.17 0.22 0.28 0.33 0.33 0.33 0.35 0.37
0.55 0.41 0.55 0.26 0.26 0.16 0.16 0.19 0.03 0.00 0.00 0.00 0.00 0.01 0.03 0.08 0.06 0.12 0.21 0.15 0.24 0.44 0.29 0.10 0.05 0.05 0.03 0.00 0.00 0.01 0.01 0.01 0.02 0.04 0.07 0.10 0.14 0.22 0.25 0.31 0.36 0.46 0.57 0.71
0.29 0.60 0.89 0.69 0.56 0.28 0.15 0.08 0.09 0.03 0.00 0.00 0.00 0.00 0.00 0.00 0.03 0.02 0.02 0.03 0.10 0.26 0.18 0.13 0.07 0.07 0.06 0.05 0.04 0.06 0.07 0.07 0.06 0.05 0.05 0.09 0.14 0.16 0.18 0.27 0.42 0.48 0.67 0.84
0.25 0.64 0.80 1.27 0.84 0.57 0.38 0.19 0.12 0.07 0.00 0.00 0.00 0.00 0.00 0.00 0.00 0.01 0.02 0.01 0.02 0.06 0.10 0.16 0.18 0.21 0.24 0.21 0.17 0.15 0.15 0.16 0.19 0.18 0.16 0.17 0.13 0.19 0.28 0.34 0.52 0.76 0.85 0.87

GFSCGP_prec_precacc24_108.txt.gz
Total_Precipitation_Accumulation
0.00 0.00 0.00 0.00 0.00 0.00 0.00 0.00 0.00 0.00 0.00 0.00 0.00 0.00 0.00 0.00 0.00 0.00 0.00 0.00 0.00 0.00 0.00 0.00 0.00 0.00 0.00 0.00 0.00 0.00 0.00 0.01 0.02 0.04 0.06 0.05 0.04 0.04 0.11 0.28 0.29 0.31 0.39 0.30
0.01 0.02 0.00 0.00 0.00 0.00 0.02 0.02 0.00 0.00 0.00 0.00 0.00 0.00 0.00 0.00 0.00 0.00 0.00 0.00 0.00 0.00 0.00 0.00 0.00 0.00 0.00 0.00 0.00 0.01 0.00 0.01 0.02 0.03 0.05 0.04 0.03 0.02 0.06 0.17 0.35 0.34 0.48 0.44
0.02 0.00 0.00 0.00 0.00 0.00 0.00 0.01 0.00 0.00 0.00 0.00 0.00 0.00 0.00 0.00 0.00 0.00 0.00 0.00 0.00 0.00 0.00 0.00 0.00 0.00 0.00 0.00 0.00 0.00 0.00 0.01 0.04 0.03 0.09 0.11 0.08 0.04 0.06 0.09 0.20 0.37 0.45 0.53
0.00 0.00 0.00 0.00 0.00 0.00 0.00 0.00 0.00 0.00 0.01 0.00 0.00 0.00 0.00 0.00 0.00 0.00 0.00 0.00 0.00 0.00 0.00 0.00 0.00 0.00 0.00 0.00 0.00 0.00 0.01 0.01 0.03 0.02 0.03 0.06 0.04 0.01 0.02 0.02 0.06 0.17 0.44 0.63
0.00 0.00 0.00 0.00 0.00 0.00 0.01 0.00 0.00 0.00 0.00 0.00 0.00 0.00 0.00 0.00 0.00 0.00 0.00 0.00 0.00 0.00 0.00 0.00 0.00 0.00 0.00 0.00 0.00 0.00 0.01 0.01 0.01 0.02 0.02 0.05 0.02 0.01 0.02 0.01 0.02 0.09 0.26 0.53
0.00 0.00 0.00 0.00 0.00 0.00 0.00 0.00 0.00 0.00 0.00 0.03 0.00 0.00 0.00 0.00 0.00 0.00 0.00 0.00 0.00 0.00 0.00 0.00 0.00 0.00 0.00 0.00 0.00 0.00 0.01 0.02 0.02 0.02 0.01 0.03 0.07 0.02 0.01 0.01 0.00 0.02 0.10 0.29
0.00 0.00 0.00 0.00 0.00 0.00 0.00 0.00 0.00 0.02 0.00 0.01 0.00 0.01 0.00 0.00 0.00 0.00 0.00 0.00 0.00 0.00 0.00 0.00 0.00 0.00 0.00 0.00 0.00 0.00 0.01 0.02 0.02 0.02 0.01 0.01 0.03 0.05 0.01 0.00 0.00 0.00 0.02 0.11
0.00 0.00 0.00 0.00 0.00 0.00 0.00 0.00 0.00 0.01 0.02 0.04 0.00 0.01 0.00 0.00 0.00 0.00 0.00 0.00 0.00 0.00 0.00 0.00 0.00 0.00 0.00 0.00 0.00 0.00 0.00 0.01 0.02 0.02 0.01 0.01 0.01 0.01 0.00 0.00 0.00 0.00 0.01 0.04
0.00 0.00 0.00 0.00 0.00 0.00 0.00 0.00 0.00 0.00 0.01 0.03 0.01 0.02 0.01 0.00 0.00 0.00 0.00 0.00 0.00 0.00 0.00 0.00 0.00 0.00 0.00 0.00 0.00 0.00 0.00 0.01 0.01 0.01 0.01 0.01 0.01 0.01 0.00 0.00 0.00 0.00 0.00 0.05
0.00 0.00 0.00 0.00 0.00 0.00 0.00 0.00 0.00 0.00 0.01 0.00 0.00 0.01 0.02 0.01 0.02 0.03 0.01 0.00 0.00 0.00 0.00 0.00 0.00 0.00 0.00 0.00 0.00 0.00 0.00 0.00 0.01 0.01 0.01 0.00 0.01 0.01 0.01 0.00 0.00 0.00 0.00 0.02
0.03 0.02 0.00 0.00 0.00 0.00 0.00 0.00 0.00 0.00 0.00 0.00 0.00 0.01 0.02 0.07 0.07 0.12 0.10 0.06 0.02 0.00 0.00 0.00 0.00 0.00 0.00 0.00 0.00 0.00 0.00 0.00 0.00 0.01 0.01 0.01 0.01 0.01 0.01 0.01 0.00 0.00 0.00 0.01
0.05 0.06 0.03 0.00 0.01 0.00 0.00 0.00 0.00 0.00 0.00 0.00 0.00 0.00 0.01 0.04 0.06 0.06 0.14 0.17 0.12 0.05 0.02 0.00 0.00 0.00 0.00 0.00 0.00 0.00 0.01 0.01 0.01 0.02 0.02 0.01 0.00 0.00 0.00 0.00 0.00 0.00 0.00 0.00
0.08 0.09 0.07 0.04 0.06 0.05 0.03 0.00 0.00 0.00 0.00 0.00 0.01 0.01 0.00 0.00 0.01 0.06 0.12 0.22 0.11 0.09 0.09 0.03 0.03 0.02 0.04 0.04 0.02 0.02 0.02 0.03 0.04 0.01 0.01 0.01 0.01 0.00 0.00 0.00 0.00 0.00 0.00 0.00
0.07 0.04 0.04 0.05 0.09 0.04 0.05 0.02 0.00 0.01 0.01 0.00 0.00 0.00 0.00 0.00 0.02 0.05 0.11 0.16 0.16 0.17 0.22 0.20 0.23 0.13 0.15 0.15 0.12 0.07 0.06 0.10 0.09 0.04 0.04 0.04 0.04 0.01 0.00 0.00 0.00 0.01 0.00 0.00
0.13 0.10 0.04 0.01 0.00 0.00 0.02 0.04 0.01 0.02 0.02 0.02 0.00 0.00 0.04 0.03 0.01 0.03 0.05 0.06 0.19 0.23 0.24 0.22 0.68 0.48 0.22 0.19 0.21 0.21 0.17 0.24 0.27 0.18 0.11 0.07 0.02 0.00 0.00 0.00 0.00 0.00 0.01 0.00
0.18 0.15 0.08 0.03 0.01 0.00 0.00 0.00 0.01 0.00 0.00 0.00 0.00 0.01 0.03 0.04 0.04 0.06 0.06 0.09 0.16 0.30 0.25 0.22 0.52 1.05 0.58 0.36 0.33 0.40 0.47 0.57 0.43 0.32 0.27 0.12 0.01 0.00 0.00 0.00 0.00 0.00 0.01 0.00
0.06 0.07 0.05 0.02 0.01 0.01 0.00 0.00 0.00 0.00 0.00 0.01 0.01 0.01 0.00 0.02 0.04 0.05 0.05 0.05 0.10 0.15 0.28 0.26 0.34 0.92 0.88 0.62 0.56 0.47 0.67 0.73 0.60 0.48 0.36 0.19 0.08 0.03 0.01 0.00 0.00 0.00 0.00 0.00
0.02 0.02 0.05 0.03 0.00 0.00 0.03 0.04 0.03 0.02 0.02 0.01 0.00 0.01 0.00 0.01 0.11 0.08 0.05 0.05 0.06 0.07 0.17 0.29 0.29 0.52 0.78 0.51 0.36 0.36 0.44 0.60 0.47 0.33 0.29 0.26 0.14 0.09 0.05 0.02 0.01 0.01 0.01 0.00
0.00 0.02 0.07 0.03 0.01 0.00 0.07 0.12 0.11 0.12 0.12 0.07 0.09 0.09 0.03 0.01 0.03 0.02 0.02 0.04 0.03 0.05 0.09 0.14 0.25 0.35 0.75 0.66 0.47 0.32 0.20 0.36 0.48 0.36 0.40 0.38 0.27 0.16 0.12 0.10 0.09 0.05 0.02 0.02
0.01 0.02 0.05 0.04 0.05 0.01 0.16 0.20 0.02 0.09 0.13 0.08 0.06 0.06 0.03 0.02 0.07 0.07 0.06 0.08 0.04 0.06 0.10 0.13 0.13 0.23 0.51 0.75 0.54 0.48 0.28 0.32 0.34 0.35 0.35 0.35 0.28 0.20 0.14 0.16 0.13 0.11 0.07 0.05
0.03 0.10 0.10 0.04 0.06 0.02 0.06 0.16 0.13 0.37 0.32 0.19 0.08 0.20 0.30 0.30 0.17 0.23 0.24 0.13 0.14 0.09 0.09 0.07 0.08 0.15 0.16 0.45 0.52 0.40 0.52 0.42 0.29 0.18 0.21 0.25 0.21 0.20 0.15 0.19 0.16 0.15 0.16 0.16
0.15 0.10 0.09 0.07 0.09 0.04 0.01 0.11 0.34 0.54 0.31 0.44 0.45 0.31 0.28 0.42 0.53 0.39 0.36 0.26 0.27 0.28 0.25 0.14 0.04 0.06 0.10 0.07 0.15 0.13 0.19 0.27 0.27 0.17 0.10 0.11 0.19 0.21 0.22 0.19 0.18 0.18 0.24 0.28
0.42 0.24 0.29 0.08 0.09 0.14 0.14 0.15 0.02 0.00 0.00 0.01 0.05 0.15 0.24 0.24 0.48 0.66 0.89 0.51 0.33 0.45 0.46 0.31 0.16 0.07 0.04 0.04 0.04 0.01 0.02 0.03 0.05 0.09 0.12 0.15 0.17 0.22 0.28 0.33 0.33 0.33 0.35 0.39
0.57 0.41 0.57 0.32 0.32 0.17 0.16 0.20 0.04 0.00 0.00 0.00 0.00 0.01 0.03 0.08 0.06 0.12 0.21 0.15 0.26 0.51 0.41 0.25 0.16 0.13 0.08 0.03 0.00 0.02 0.01 0.01 0.01 0.04 0.07 0.10 0.14 0.22 0.25 0.31 0.36 0.46 0.57 0.71
0.30 0.60 0.92 0.74 0.65 0.35 0.18 0.11 0.12 0.03 0.00 0.00 0.00 0.00 0.00 0.00 0.03 0.02 0.02 0.03 0.08 0.23 0.24 0.26 0.18 0.15 0.12 0.10 0.05 0.04 0.05 0.05 0.05 0.05 0.05 0.09 0.14 0.17 0.18 0.27 0.42 0.48 0.67 0.83
0.26 0.70 0.88 1.36 0.93 0.64 0.43 0.23 0.15 0.13 0.02 0.00 0.00 0.00 0.00 0.00 0.00 0.01 0.02 0.01 0.02 0.04 0.05 0.09 0.14 0.17 0.24 0.21 0.17 0.14 0.14 0.15 0.19 0.18 0.16 0.17 0.13 0.19 0.28 0.34 0.52 0.74 0.81 0.83

GFSCGP_prec_precacc24_111.txt.gz
Total_Precipitation_Accumulation
0.00 0.00 0.00 0.00 0.00 0.00 0.00 0.00 0.00 0.00 0.00 0.00 0.00 0.00 0.00 0.00 0.00 0.00 0.00 0.00 0.00 0.00 0.00 0.00 0.00 0.00 0.00 0.00 0.00 0.00 0.00 0.00 0.00 0.01 0.01 0.01 0.01 0.03 0.10 0.26 0.26 0.28 0.39 0.30
0.01 0.02 0.00 0.00 0.00 0.00 0.02 0.02 0.00 0.00 0.00 0.00 0.00 0.00 0.00 0.00 0.00 0.00 0.00 0.00 0.00 0.00 0.00 0.00 0.00 0.00 0.00 0.00 0.00 0.00 0.00 0.00 0.01 0.01 0.01 0.00 0.01 0.01 0.05 0.16 0.35 0.34 0.48 0.45
0.02 0.00 0.00 0.00 0.00 0.00 0.00 0.01 0.00 0.00 0.00 0.00 0.00 0.00 0.00 0.00 0.00 0.00 0.00 0.00 0.00 0.00 0.00 0.00 0.00 0.00 0.00 0.00 0.00 0.00 0.00 0.00 0.02 0.01 0.01 0.02 0.02 0.02 0.04 0.09 0.20 0.37 0.46 0.53
0.00 0.00 0.00 0.00 0.00 0.00 0.00 0.00 0.00 0.01 0.02 0.01 0.00 0.00 0.00 0.00 0.00 0.00 0.00 0.00 0.00 0.00 0.00 0.00 0.00 0.00 0.00 0.00 0.00 0.00 0.00 0.01 0.02 0.01 0.00 0.01 0.00 0.01 0.02 0.02 0.06 0.17 0.44 0.63
0.00 0.00 0.00 0.00 0.00 0.00 0.01 0.00 0.01 0.00 0.00 0.00 0.00 0.01 0.00 0.00 0.00 0.00 0.00 0.00 0.00 0.00 0.00 0.00 0.00 0.00 0.00 0.00 0.00 0.00 0.00 0.01 0.01 0.01 0.00 0.00 0.00 0.00 0.01 0.00 0.02 0.09 0.25 0.53
0.00 0.00 0.00 0.00 0.00 0.00 0.00 0.00 0.00 0.00 0.00 0.03 0.00 0.00 0.00 0.00 0.00 0.00 0.00 0.00 0.00 0.00 0.00 0.00 0.00 0.00 0.00 0.00 0.00 0.00 0.01 0.01 0.01 0.02 0.01 0.00 0.01 0.01 0.00 0.00 0.00 0.02 0.10 0.29
0.01 0.01 0.00 0.00 0.00 0.00 0.00 0.00 0.01 0.03 0.01 0.01 0.00 0.01 0.00 0.00 0.00 0.00 0.00 0.00 0.00 0.00 0.00 0.00 0.00 0.00 0.00 0.00 0.00 0.00 0.01 0.02 0.02 0.02 0.01 0.00 0.02 0.04 0.01 0.00 0.00 0.00 0.03 0.11
0.00 0.00 0.00 0.00 0.00 0.00 0.00 0.00 0.01 0.02 0.03 0.04 0.00 0.01 0.00 0.00 0.00 0.00 0.00 0.00 0.00 0.00 0.00 0.00 0.00 0.00 0.00 0.00 0.00 0.00 0.00 0.01 0.02 0.02 0.01 0.01 0.00 0.01 0.00 0.00 0.00 0.00 0.01 0.05
0.00 0.00 0.00 0.00 0.00 0.00 0.00 0.00 0.00 0.00 0.01 0.04 0.01 0.02 0.01 0.00 0.00 0.00 0.00 0.00 0.00 0.00 0.00 0.00 0.00 0.00 0.00 0.00 0.00 0.00 0.00 0.01 0.01 0.01 0.01 0.01 0.01 0.00 0.00 0.00 0.00 0.00 0.00 0.05
0.03 0.00 0.00 0.00 0.00 0.00 0.00 0.00 0.00 0.00 0.01 0.00 0.00 0.01 0.02 0.01 0.02 0.03 0.01 0.00 0.00 0.00 0.00 0.00 0.00 0.00 0.00 0.00 0.00 0.00 0.00 0.00 0.01 0.01 0.01 0.00 0.00 0.00 0.00 0.00 0.00 0.00 0.00 0.03
0.07 0.04 0.00 0.00 0.00 0.00 0.00 0.00 0.00 0.00 0.00 0.00 0.00 0.01 0.02 0.07 0.07 0.12 0.10 0.06 0.02 0.00 0.00 0.00 0.00 0.00 0.00 0.00 0.00 0.00 0.00 0.00 0.00 0.01 0.01 0.01 0.01 0.00 0.00 0.00 0.00 0.00 0.00 0.00
0.06 0.12 0.06 0.01 0.01 0.00 0.00 0.00 0.00 0.00 0.00 0.00 0.00 0.01 0.01 0.04 0.06 0.06 0.14 0.17 0.12 0.05 0.02 0.00 0.00 0.00 0.00 0.00 0.00 0.00 0.01 0.01 0.02 0.02 0.02 0.01 0.01 0.01 0.00 0.00 0.00 0.00 0.00 0.00
0.12 0.15 0.13 0.09 0.09 0.06 0.04 0.00 0.00 0.00 0.00 0.00 0.01 0.02 0.01 0.00 0.01 0.06 0.13 0.23 0.12 0.09 0.09 0.03 0.03 0.02 0.04 0.04 0.02 0.02 0.03 0.04 0.05 0.02 0.01 0.01 0.01 0.01 0.01 0.00 0.00 0.00 0.00 0.00
0.10 0.09 0.09 0.12 0.13 0.06 0.08 0.03 0.00 0.01 0.01 0.00 0.00 0.02 0.01 0.01 0.02 0.07 0.12 0.16 0.16 0.17 0.22 0.20 0.23 0.13 0.15 0.15 0.13 0.08 0.09 0.13 0.11 0.05 0.05 0.06 0.08 0.05 0.02 0.00 0.00 0.01 0.00 0.00
0.14 0.13 0.05 0.03 0.02 0.03 0.03 0.04 0.01 0.02 0.02 0.02 0.00 0.00 0.04 0.05 0.02 0.03 0.05 0.06 0.19 0.23 0.24 0.22 0.68 0.48 0.22 0.19 0.22 0.23 0.21 0.29 0.29 0.20 0.14 0.12 0.09 0.05 0.02 0.01 0.00 0.00 0.01 0.00
0.18 0.16 0.07 0.03 0.01 0.00 0.00 0.00 0.01 0.00 0.00 0.00 0.00 0.02 0.04 0.04 0.04 0.06 0.06 0.09 0.16 0.30 0.25 0.22 0.52 1.05 0.58 0.39 0.37 0.43 0.52 0.63 0.49 0.38 0.34 0.21 0.13 0.07 0.02 0.00 0.00 0.00 0.01 0.00
0.07 0.09 0.05 0.03 0.00 0.00 0.00 0.00 0.00 0.00 0.00 0.01 0.03 0.06 0.02 0.02 0.04 0.05 0.05 0.05 0.10 0.15 0.28 0.26 0.34 0.93 0.91 0.67 0.63 0.53 0.71 0.80 0.67 0.58 0.50 0.34 0.21 0.08 0.02 0.00 0.00 0.00 0.00 0.00
0.05 0.03 0.05 0.04 0.01 0.00 0.04 0.04 0.02 0.02 0.05 0.02 0.01 0.01 0.00 0.01 0.11 0.08 0.05 0.05 0.06 0.07 0.17 0.29 0.29 0.55 0.87 0.62 0.52 0.51 0.56 0.73 0.62 0.50 0.47 0.39 0.21 0.10 0.05 0.02 0.02 0.01 0.01 0.00
0.01 0.04 0.09 0.04 0.03 0.02 0.08 0.13 0.10 0.13 0.14 0.07 0.09 0.10 0.03 0.01 0.04 0.02 0.02 0.04 0.03 0.05 0.09 0.14 0.26 0.40 0.96 0.90 0.71 0.64 0.46 0.50 0.60 0.45 0.47 0.43 0.31 0.17 0.12 0.10 0.09 0.05 0.02 0.02
0.03 0.02 0.07 0.06 0.05 0.05 0.23 0.25 0.03 0.14 0.15 0.04 0.05 0.06 0.03 0.02 0.08 0.07 0.06 0.08 0.04 0.06 0.10 0.13 0.14 0.29 0.70 1.15 1.02 1.12 0.72 0.59 0.56 0.48 0.47 0.46 0.36 0.25 0.15 0.16 0.13 0.11 0.08 0.05
0.08 0.13 0.12 0.08 0.06 0.03 0.06 0.16 0.15 0.33 0.27 0.03 0.07 0.19 0.29 0.30 0.16 0.22 0.24 0.13 0.14 0.09 0.09 0.07 0.09 0.19 0.31 0.79 1.07 1.10 1.20 0.82 0.59 0.51 0.43 0.56 0.42 0.31 0.20 0.21 0.19 0.17 0.16 0.17
0.17 0.16 0.17 0.14 0.11 0.05 0.01 0.09 0.35 0.56 0.14 0.07 0.20 0.14 0.17 0.34 0.53 0.39 0.36 0.26 0.27 0.29 0.26 0.14 0.06 0.11 0.23 0.26 0.62 0.73 0.81 0.76 0.68 0.69 0.56 0.37 0.52 0.44 0.35 0.25 0.22 0.19 0.25 0.31
0.46 0.24 0.26 0.10 0.14 0.10 0.14 0.14 0.02 0.00 0.00 0.00 0.03 0.10 0.19 0.18 0.48 0.66 0.89 0.51 0.33 0.47 0.48 0.33 0.18 0.11 0.10 0.14 0.20 0.30 0.33 0.28 0.36 0.43 0.45 0.42 0.37 0.34 0.36 0.39 0.36 0.33 0.35 0.40
0.62 0.40 0.49 0.28 0.28 0.15 0.17 0.21 0.04 0.00 0.00 0.00 0.00 0.01 0.03 0.08 0.06 0.12 0.21 0.15 0.26 0.53 0.45 0.31 0.20 0.19 0.13 0.08 0.05 0.06 0.03 0.03 0.04 0.08 0.12 0.13 0.18 0.23 0.24 0.30 0.36 0.45 0.57 0.72
0.31 0.61 0.93 0.76 0.65 0.37 0.19 0.13 0.14 0.04 0.00 0.00 0.00 0.00 0.00 0.00 0.03 0.02 0.02 0.03 0.08 0.23 0.26 0.32 0.26 0.23 0.19 0.13 0.06 0.03 0.03 0.03 0.03 0.02 0.02 0.05 0.10 0.14 0.17 0.27 0.40 0.46 0.66 0.82
0.26 0.72 0.91 1.41 0.95 0.68 0.47 0.26 0.17 0.13 0.03 0.00 0.00 0.00 0.00 0.00 0.00 0.01 0.02 0.01 0.02 0.04 0.04 0.07 0.10 0.11 0.13 0.14 0.12 0.11 0.10 0.11 0.15 0.14 0.12 0.14 0.11 0.18 0.28 0.34 0.50 0.69 0.76 0.76

GFSCGP_prec_precacc24_114.txt.gz
Total_Precipitation_Accumulation
0.00 0.00 0.00 0.00 0.00 0.00 0.00 0.00 0.00 0.00 0.00 0.00 0.00 0.00 0.00 0.00 0.00 0.00 0.00 0.00 0.00 0.00 0.00 0.00 0.00 0.00 0.00 0.00 0.00 0.00 0.00 0.00 0.00 0.00 0.01 0.00 0.01 0.02 0.05 0.14 0.16 0.22 0.31 0.28
0.02 0.02 0.00 0.00 0.00 0.00 0.02 0.02 0.00 0.00 0.00 0.00 0.00 0.00 0.00 0.00 0.00 0.00 0.00 0.00 0.00 0.00 0.00 0.00 0.00 0.00 0.00 0.00 0.00 0.00 0.00 0.00 0.00 0.00 0.00 0.00 0.00 0.01 0.04 0.11 0.25 0.25 0.44 0.42
0.05 0.01 0.00 0.00 0.00 0.00 0.00 0.01 0.00 0.00 0.00 0.01 0.00 0.00 0.00 0.00 0.00 0.00 0.00 0.00 0.00 0.00 0.00 0.00 0.00 0.00 0.00 0.00 0.00 0.00 0.00 0.00 0.00 0.00 0.00 0.01 0.01 0.02 0.04 0.08 0.19 0.33 0.43 0.51
0.07 0.01 0.00 0.00 0.00 0.00 0.00 0.00 0.00 0.01 0.04 0.04 0.00 0.00 0.00 0.00 0.00 0.00 0.00 0.00 0.00 0.00 0.00 0.00 0.00 0.00 0.00 0.00 0.00 0.00 0.00 0.00 0.01 0.00 0.00 0.00 0.00 0.00 0.01 0.01 0.06 0.17 0.44 0.63
0.16 0.02 0.00 0.00 0.00 0.00 0.01 0.00 0.00 0.00 0.00 0.00 0.00 0.01 0.00 0.00 0.00 0.00 0.00 0.00 0.00 0.00 0.00 0.00 0.00 0.00 0.00 0.00 0.00 0.00 0.00 0.00 0.00 0.00 0.00 0.00 0.00 0.00 0.01 0.01 0.03 0.09 0.25 0.53
0.04 0.01 0.00 0.00 0.00 0.00 0.00 0.00 0.00 0.00 0.00 0.03 0.00 0.00 0.00 0.00 0.00 0.00 0.00 0.00 0.00 0.00 0.00 0.00 0.00 0.00 0.00 0.00 0.00 0.00 0.00 0.01 0.01 0.01 0.00 0.00 0.00 0.00 0.00 0.00 0.00 0.02 0.11 0.29
0.03 0.03 0.00 0.00 0.00 0.00 0.00 0.00 0.01 0.02 0.01 0.01 0.00 0.01 0.00 0.00 0.00 0.00 0.00 0.00 0.00 0.00 0.00 0.00 0.00 0.00 0.00 0.00 0.00 0.00 0.00 0.01 0.02 0.01 0.00 0.00 0.00 0.00 0.00 0.00 0.00 0.01 0.03 0.11
0.04 0.10 0.03 0.00 0.00 0.00 0.00 0.00 0.01 0.02 0.01 0.02 0.00 0.01 0.00 0.00 0.00 0.00 0.00 0.00 0.00 0.00 0.00 0.00 0.00 0.00 0.00 0.00 0.00 0.00 0.00 0.01 0.01 0.01 0.00 0.00 0.00 0.00 0.00 0.01 0.00 0.00 0.01 0.05
0.04 0.03 0.02 0.00 0.00 0.00 0.00 0.00 0.00 0.00 0.01 0.04 0.02 0.01 0.01 0.00 0.00 0.00 0.00 0.00 0.00 0.00 0.00 0.00 0.00 0.00 0.00 0.00 0.00 0.00 0.00 0.01 0.01 0.01 0.01 0.00 0.00 0.00 0.00 0.00 0.00 0.00 0.00 0.05
0.09 0.08 0.01 0.01 0.00 0.00 0.00 0.00 0.00 0.00 0.01 0.01 0.01 0.01 0.03 0.01 0.02 0.03 0.01 0.00 0.00 0.00 0.00 0.00 0.00 0.00 0.00 0.00 0.00 0.00 0.00 0.00 0.00 0.01 0.01 0.00 0.00 0.00 0.00 0.00 0.00 0.00 0.00 0.03
0.10 0.13 0.04 0.00 0.00 0.00 0.00 0.00 0.00 0.00 0.00 0.00 0.01 0.02 0.02 0.07 0.07 0.14 0.10 0.06 0.02 0.01 0.00 0.00 0.00 0.00 0.00 0.00 0.00 0.00 0.00 0.00 0.00 0.01 0.01 0.01 0.01 0.00 0.00 0.01 0.00 0.00 0.00 0.00
0.08 0.13 0.09 0.01 0.01 0.00 0.00 0.00 0.00 0.00 0.00 0.00 0.00 0.02 0.02 0.04 0.06 0.06 0.14 0.18 0.13 0.06 0.02 0.00 0.00 0.00 0.00 0.00 0.00 0.00 0.01 0.01 0.02 0.02 0.02 0.01 0.01 0.01 0.01 0.01 0.00 0.00 0.00 0.00
0.13 0.24 0.40 0.22 0.13 0.06 0.04 0.00 0.00 0.00 0.00 0.01 0.01 0.02 0.01 0.01 0.03 0.07 0.13 0.24 0.12 0.10 0.09 0.03 0.03 0.02 0.04 0.04 0.02 0.02 0.03 0.04 0.05 0.03 0.02 0.02 0.02 0.02 0.02 0.02 0.00 0.00 0.00 0.00
0.12 0.13 0.26 0.46 0.25 0.07 0.09 0.03 0.00 0.01 0.01 0.00 0.01 0.03 0.02 0.04 0.11 0.07 0.12 0.16 0.16 0.17 0.22 0.20 0.23 0.13 0.15 0.15 0.13 0.08 0.09 0.13 0.12 0.07 0.07 0.08 0.09 0.07 0.05 0.02 0.00 0.00 0.00 0.00
0.15 0.16 0.14 0.11 0.04 0.15 0.09 0.07 0.02 0.02 0.02 0.02 0.02 0.02 0.10 0.23 0.31 0.06 0.06 0.06 0.19 0.23 0.24 0.22 0.68 0.48 0.22 0.19 0.22 0.23 0.21 0.31 0.32 0.24 0.18 0.14 0.11 0.07 0.06 0.04 0.01 0.00 0.00 0.00
0.18 0.16 0.09 0.03 0.01 0.02 0.03 0.02 0.05 0.02 0.01 0.01 0.01 0.05 0.27 0.21 0.07 0.07 0.06 0.09 0.16 0.30 0.25 0.22 0.52 1.05 0.58 0.39 0.37 0.43 0.52 0.65 0.52 0.43 0.38 0.23 0.16 0.16 0.11 0.06 0.03 0.01 0.01 0.01
0.07 0.09 0.05 0.04 0.01 0.00 0.00 0.00 0.00 0.00 0.00 0.01 0.07 0.15 0.09 0.03 0.04 0.05 0.05 0.05 0.10 0.15 0.28 0.26 0.34 0.93 0.91 0.67 0.63 0.53 0.73 0.85 0.72 0.64 0.55 0.37 0.27 0.23 0.16 0.10 0.05 0.02 0.01 0.01
0.05 0.04 0.04 0.04 0.00 0.01 0.07 0.04 0.02 0.02 0.08 0.03 0.02 0.02 0.00 0.01 0.11 0.08 0.05 0.05 0.06 0.07 0.17 0.29 0.29 0.55 0.87 0.62 0.53 0.52 0.61 0.82 0.76 0.63 0.59 0.49 0.32 0.26 0.20 0.12 0.08 0.03 0.01 0.01
0.01 0.05 0.08 0.04 0.03 0.03 0.12 0.13 0.11 0.16 0.18 0.06 0.08 0.08 0.02 0.01 0.04 0.03 0.02 0.04 0.03 0.05 0.09 0.14 0.26 0.41 0.96 0.90 0.73 0.71 0.57 0.65 0.75 0.60 0.58 0.54 0.45 0.29 0.21 0.15 0.12 0.06 0.03 0.02
0.04 0.03 0.06 0.05 0.07 0.10 0.26 0.23 0.03 0.16 0.32 0.14 0.02 0.03 0.03 0.02 0.08 0.06 0.05 0.08 0.04 0.06 0.10 0.13 0.14 0.29 0.71 1.17 1.05 1.29 0.97 0.86 0.82 0.67 0.62 0.60 0.45 0.33 0.21 0.18 0.14 0.12 0.09 0.06
0.12 0.15 0.11 0.08 0.08 0.11 0.04 0.07 0.12 0.35 0.38 0.18 0.05 0.03 0.20 0.20 0.11 0.05 0.14 0.12 0.14 0.09 0.09 0.08 0.10 0.20 0.33 0.85 1.13 1.25 1.52 1.24 1.00 0.85 0.63 0.78 0.60 0.39 0.27 0.25 0.20 0.18 0.17 0.16
0.29 0.23 0.29 0.25 0.21 0.16 0.02 0.03 0.32 0.66 0.23 0.11 0.05 0.00 0.09 0.28 0.46 0.34 0.26 0.23 0.27 0.29 0.26 0.15 0.07 0.12 0.26 0.33 0.76 0.97 1.14 1.24 1.22 1.20 1.00 0.78 1.01 0.78 0.52 0.41 0.30 0.21 0.23 0.27
0.47 0.25 0.26 0.16 0.25 0.09 0.02 0.08 0.02 0.02 0.02 0.01 0.00 0.00 0.03 0.05 0.25 0.47 0.47 0.36 0.33 0.47 0.49 0.35 0.22 0.16 0.15 0.21 0.34 0.55 0.75 0.79 0.93 0.87 0.97 1.03 0.88 0.98 0.92 0.72 0.66 0.46 0.38 0.39
0.67 0.40 0.47 0.28 0.27 0.11 0.09 0.18 0.05 0.01 0.00 0.00 0.00 0.00 0.00 0.01 0.01 0.06 0.16 0.14 0.26 0.53 0.46 0.34 0.26 0.27 0.24 0.19 0.17 0.18 0.17 0.24 0.34 0.42 0.48 0.55 0.68 0.67 0.74 0.74 0.75 0.71 0.66 0.71
0.28 0.56 0.90 0.75 0.63 0.35 0.14 0.13 0.16 0.06 0.01 0.00 0.00 0.00 0.00 0.00 0.01 0.01 0.02 0.03 0.08 0.23 0.26 0.32 0.30 0.30 0.28 0.24 0.16 0.11 0.08 0.06 0.09 0.07 0.05 0.09 0.20 0.27 0.32 0.45 0.57 0.59 0.70 0.81
0.23 0.69 0.89 1.35 0.95 0.67 0.39 0.30 0.21 0.16 0.04 0.00 0.00 0.00 0.00 0.00 0.00 0.00 0.01 0.01 0.02 0.04 0.04 0.08 0.10 0.10 0.09 0.07 0.07 0.05 0.04 0.05 0.07 0.08 0.07 0.08 0.06 0.13 0.21 0.28 0.43 0.60 0.67 0.69

GFSCGP_prec_precacc24_117.txt.gz
Total_Precipitation_Accumulation
0.00 0.00 0.00 0.00 0.00 0.00 0.00 0.00 0.00 0.00 0.00 0.00 0.00 0.00 0.00 0.00 0.00 0.00 0.00 0.00 0.00 0.00 0.00 0.00 0.00 0.00 0.00 0.00 0.00 0.00 0.00 0.00 0.00 0.00 0.00 0.00 0.00 0.01 0.05 0.10 0.12 0.15 0.19 0.22
0.03 0.03 0.00 0.00 0.00 0.00 0.02 0.02 0.00 0.00 0.00 0.00 0.00 0.00 0.00 0.00 0.00 0.00 0.00 0.00 0.00 0.00 0.00 0.00 0.00 0.00 0.00 0.00 0.00 0.00 0.00 0.00 0.00 0.00 0.00 0.00 0.00 0.01 0.02 0.06 0.14 0.15 0.31 0.36
0.06 0.02 0.00 0.00 0.00 0.01 0.00 0.01 0.00 0.00 0.00 0.01 0.00 0.00 0.00 0.00 0.00 0.00 0.00 0.00 0.00 0.00 0.00 0.00 0.00 0.00 0.00 0.00 0.00 0.00 0.00 0.00 0.00 0.00 0.00 0.00 0.01 0.01 0.02 0.03 0.07 0.17 0.29 0.42
0.19 0.04 0.02 0.01 0.01 0.00 0.00 0.00 0.00 0.01 0.04 0.05 0.00 0.00 0.00 0.00 0.00 0.00 0.00 0.00 0.00 0.00 0.00 0.00 0.00 0.00 0.00 0.00 0.00 0.00 0.00 0.00 0.00 0.00 0.00 0.00 0.00 0.00 0.01 0.01 0.02 0.07 0.30 0.52
0.30 0.21 0.22 0.09 0.00 0.00 0.01 0.00 0.00 0.00 0.01 0.01 0.00 0.00 0.00 0.00 0.00 0.00 0.00 0.00 0.00 0.00 0.00 0.00 0.00 0.00 0.00 0.00 0.00 0.00 0.00 0.00 0.00 0.00 0.00 0.00 0.00 0.00 0.01 0.01 0.02 0.08 0.21 0.49
0.09 0.02 0.05 0.04 0.00 0.00 0.00 0.00 0.02 0.02 0.01 0.03 0.00 0.00 0.00 0.00 0.00 0.00 0.00 0.00 0.00 0.00 0.00 0.00 0.00 0.00 0.00 0.00 0.00 0.00 0.00 0.00 0.01 0.01 0.00 0.00 0.00 0.00 0.00 0.00 0.00 0.02 0.11 0.29
0.06 0.05 0.03 0.02 0.01 0.00 0.00 0.01 0.07 0.06 0.02 0.01 0.00 0.00 0.00 0.00 0.00 0.00 0.00 0.00 0.00 0.00 0.00 0.00 0.00 0.00 0.00 0.00 0.00 0.00 0.00 0.00 0.01 0.01 0.00 0.00 0.00 0.00 0.00 0.00 0.00 0.01 0.03 0.12
0.05 0.17 0.05 0.01 0.03 0.00 0.00 0.01 0.03 0.04 0.00 0.00 0.00 0.00 0.00 0.00 0.00 0.00 0.00 0.00 0.00 0.00 0.00 0.00 0.00 0.00 0.00 0.00 0.00 0.00 0.00 0.00 0.01 0.01 0.00 0.00 0.01 0.01 0.00 0.01 0.01 0.00 0.01 0.05
0.10 0.14 0.05 0.01 0.02 0.01 0.00 0.00 0.01 0.01 0.01 0.03 0.01 0.00 0.00 0.00 0.01 0.00 0.00 0.00 0.00 0.00 0.00 0.00 0.00 0.00 0.00 0.00 0.00 0.00 0.00 0.00 0.01 0.01 0.01 0.00 0.00 0.00 0.01 0.01 0.01 0.01 0.01 0.05
0.14 0.14 0.06 0.08 0.04 0.00 0.00 0.00 0.03 0.02 0.03 0.06 0.04 0.01 0.00 0.01 0.02 0.05 0.02 0.03 0.03 0.00 0.00 0.00 0.00 0.00 0.00 0.00 0.00 0.00 0.00 0.00 0.00 0.01 0.01 0.00 0.00 0.00 0.00 0.01 0.01 0.01 0.01 0.03
0.09 0.18 0.10 0.09 0.04 0.02 0.00 0.00 0.00 0.01 0.00 0.01 0.10 0.11 0.02 0.07 0.07 0.15 0.13 0.14 0.09 0.02 0.01 0.00 0.00 0.00 0.00 0.00 0.00 0.00 0.00 0.00 0.00 0.01 0.01 0.01 0.00 0.00 0.00 0.01 0.01 0.01 0.01 0.01
0.07 0.12 0.11 0.02 0.03 0.01 0.01 0.01 0.00 0.01 0.00 0.00 0.02 0.08 0.02 0.05 0.10 0.08 0.19 0.21 0.16 0.06 0.02 0.00 0.00 0.00 0.00 0.00 0.00 0.00 0.01 0.01 0.02 0.02 0.02 0.01 0.00 0.01 0.02 0.01 0.01 0.02 0.01 0.01
0.13 0.26 0.47 0.32 0.14 0.05 0.04 0.00 0.00 0.00 0.00 0.01 0.01 0.03 0.02 0.02 0.12 0.23 0.14 0.23 0.13 0.11 0.10 0.03 0.03 0.02 0.04 0.04 0.02 0.02 0.03 0.04 0.05 0.03 0.02 0.03 0.04 0.04 0.03 0.03 0.02 0.02 0.01 0.01
0.13 0.17 0.40 0.71 0.52 0.24 0.11 0.03 0.00 0.00 0.00 0.00 0.02 0.07 0.06 0.28 0.20 0.19 0.13 0.16 0.16 0.17 0.22 0.20 0.23 0.13 0.15 0.15 0.13 0.08 0.09 0.13 0.12 0.07 0.08 0.09 0.11 0.09 0.07 0.05 0.04 0.03 0.02 0.01
0.16 0.16 0.15 0.11 0.12 0.31 0.12 0.08 0.02 0.01 0.00 0.01 0.03 0.05 0.14 0.45 0.55 0.21 0.09 0.06 0.19 0.23 0.24 0.22 0.68 0.48 0.22 0.19 0.22 0.23 0.21 0.31 0.32 0.24 0.19 0.16 0.12 0.09 0.07 0.06 0.06 0.05 0.02 0.01
0.18 0.16 0.09 0.04 0.02 0.05 0.04 0.04 0.05 0.02 0.02 0.01 0.02 0.12 0.30 0.33 0.21 0.18 0.08 0.09 0.16 0.30 0.25 0.22 0.52 1.04 0.57 0.39 0.37 0.43 0.52 0.65 0.52 0.43 0.38 0.24 0.18 0.17 0.13 0.09 0.08 0.07 0.04 0.01
0.08 0.10 0.05 0.05 0.01 0.00 0.13 0.14 0.11 0.12 0.18 0.05 0.12 0.22 0.19 0.15 0.07 0.06 0.05 0.05 0.10 0.15 0.28 0.26 0.34 0.93 0.89 0.62 0.59 0.53 0.73 0.85 0.71 0.65 0.57 0.40 0.30 0.25 0.21 0.13 0.10 0.10 0.06 0.02
0.06 0.04 0.03 0.04 0.01 0.04 0.19 0.07 0.07 0.16 0.18 0.09 0.08 0.09 0.04 0.04 0.11 0.08 0.05 0.05 0.06 0.07 0.17 0.29 0.29 0.55 0.87 0.61 0.48 0.48 0.60 0.82 0.76 0.65 0.63 0.57 0.39 0.31 0.30 0.20 0.15 0.12 0.08 0.05
0.02 0.06 0.09 0.04 0.04 0.06 0.14 0.13 0.11 0.17 0.19 0.08 0.13 0.12 0.02 0.01 0.04 0.03 0.01 0.02 0.03 0.05 0.09 0.14 0.26 0.41 0.96 0.90 0.73 0.70 0.54 0.62 0.75 0.62 0.62 0.56 0.47 0.33 0.34 0.31 0.27 0.17 0.10 0.07
0.07 0.06 0.08 0.05 0.07 0.13 0.26 0.22 0.02 0.16 0.36 0.24 0.12 0.07 0.01 0.01 0.07 0.03 0.02 0.03 0.03 0.06 0.10 0.13 0.14 0.30 0.71 1.17 1.05 1.29 0.96 0.82 0.83 0.76 0.70 0.60 0.49 0.37 0.33 0.28 0.28 0.29 0.17 0.11
0.13 0.16 0.12 0.09 0.10 0.16 0.04 0.06 0.06 0.26 0.42 0.22 0.13 0.09 0.01 0.02 0.05 0.03 0.09 0.07 0.07 0.07 0.09 0.08 0.10 0.20 0.33 0.85 1.14 1.25 1.53 1.25 1.09 1.06 0.84 0.90 0.73 0.49 0.39 0.34 0.28 0.23 0.20 0.19
0.33 0.23 0.29 0.27 0.24 0.23 0.04 0.01 0.13 0.49 0.25 0.12 0.11 0.06 0.01 0.02 0.18 0.28 0.20 0.16 0.22 0.23 0.25 0.16 0.08 0.13 0.27 0.34 0.77 0.99 1.19 1.31 1.30 1.41 1.30 1.01 1.19 0.98 0.70 0.55 0.41 0.27 0.26 0.30
0.57 0.26 0.28 0.19 0.28 0.11 0.02 0.04 0.04 0.03 0.02 0.01 0.01 0.00 0.00 0.00 0.04 0.26 0.31 0.19 0.29 0.47 0.49 0.36 0.23 0.17 0.16 0.23 0.37 0.57 0.79 0.88 1.06 1.07 1.28 1.29 1.24 1.46 1.27 1.00 0.86 0.58 0.45 0.42
0.69 0.39 0.45 0.29 0.26 0.05 0.05 0.05 0.04 0.01 0.01 0.00 0.00 0.00 0.00 0.00 0.00 0.02 0.08 0.11 0.26 0.53 0.46 0.35 0.27 0.28 0.26 0.21 0.19 0.22 0.23 0.33 0.49 0.62 0.70 0.82 1.08 1.20 1.29 1.34 1.21 1.01 0.84 0.77
0.23 0.41 0.83 0.68 0.58 0.36 0.15 0.13 0.18 0.07 0.02 0.00 0.00 0.00 0.00 0.00 0.00 0.00 0.01 0.03 0.08 0.23 0.26 0.33 0.30 0.31 0.29 0.25 0.17 0.13 0.11 0.12 0.18 0.25 0.25 0.26 0.41 0.61 0.76 0.96 1.09 1.15 1.10 0.99
0.20 0.41 0.64 0.95 0.77 0.64 0.38 0.31 0.23 0.18 0.05 0.00 0.00 0.00 0.00 0.00 0.00 0.00 0.01 0.01 0.02 0.04 0.04 0.08 0.10 0.11 0.10 0.07 0.06 0.05 0.04 0.04 0.06 0.10 0.13 0.16 0.15 0.23 0.35 0.47 0.65 0.81 0.93 0.91

GFSCGP_prec_precacc24_120.txt.gz
Total_Precipitation_Accumulation
0.00 0.00 0.00 0.00 0.00 0.00 0.00 0.00 0.00 0.00 0.00 0.00 0.00 0.00 0.00 0.00 0.00 0.00 0.00 0.00 0.00 0.00 0.00 0.00 0.00 0.00 0.00 0.00 0.00 0.00 0.00 0.00 0.00 0.00 0.00 0.00 0.01 0.01 0.05 0.07 0.08 0.08 0.13 0.07
0.03 0.03 0.00 0.00 0.00 0.00 0.02 0.02 0.00 0.00 0.00 0.00 0.00 0.00 0.00 0.00 0.00 0.00 0.00 0.00 0.00 0.00 0.00 0.00 0.00 0.00 0.00 0.00 0.00 0.00 0.00 0.00 0.00 0.00 0.01 0.04 0.08 0.03 0.02 0.06 0.13 0.13 0.25 0.27
0.06 0.02 0.00 0.00 0.00 0.01 0.01 0.01 0.00 0.00 0.00 0.02 0.02 0.01 0.00 0.00 0.00 0.00 0.00 0.00 0.00 0.00 0.00 0.00 0.00 0.00 0.00 0.00 0.00 0.00 0.00 0.00 0.00 0.01 0.04 0.06 0.08 0.03 0.02 0.04 0.06 0.15 0.25 0.36
0.19 0.04 0.02 0.03 0.02 0.01 0.04 0.00 0.00 0.01 0.04 0.07 0.04 0.02 0.00 0.00 0.00 0.00 0.00 0.00 0.00 0.00 0.00 0.00 0.00 0.00 0.00 0.00 0.00 0.00 0.00 0.01 0.02 0.03 0.03 0.03 0.00 0.01 0.00 0.01 0.02 0.04 0.21 0.41
0.30 0.21 0.24 0.22 0.05 0.02 0.05 0.00 0.00 0.01 0.01 0.03 0.04 0.04 0.00 0.00 0.00 0.00 0.00 0.00 0.00 0.00 0.00 0.00 0.00 0.00 0.00 0.00 0.00 0.00 0.00 0.00 0.00 0.00 0.00 0.00 0.01 0.01 0.00 0.00 0.01 0.03 0.07 0.29
0.09 0.02 0.05 0.05 0.00 0.01 0.01 0.02 0.02 0.03 0.05 0.09 0.01 0.01 0.00 0.00 0.00 0.00 0.00 0.00 0.00 0.00 0.00 0.00 0.00 0.00 0.00 0.00 0.00 0.00 0.00 0.00 0.01 0.00 0.00 0.00 0.00 0.00 0.00 0.00 0.00 0.02 0.05 0.11
0.06 0.06 0.04 0.02 0.06 0.03 0.04 0.03 0.10 0.13 0.11 0.05 0.01 0.02 0.00 0.00 0.00 0.00 0.01 0.00 0.00 0.00 0.00 0.00 0.00 0.00 0.00 0.00 0.00 0.00 0.00 0.00 0.01 0.01 0.00 0.00 0.00 0.00 0.00 0.00 0.01 0.02 0.04 0.07
0.05 0.18 0.06 0.04 0.23 0.09 0.03 0.03 0.05 0.17 0.05 0.01 0.01 0.01 0.00 0.00 0.00 0.00 0.01 0.02 0.00 0.00 0.00 0.00 0.00 0.00 0.00 0.00 0.00 0.00 0.00 0.00 0.01 0.01 0.00 0.00 0.01 0.01 0.01 0.01 0.01 0.01 0.01 0.04
0.12 0.15 0.06 0.03 0.05 0.03 0.01 0.00 0.02 0.08 0.07 0.04 0.01 0.00 0.00 0.00 0.00 0.00 0.00 0.01 0.01 0.00 0.00 0.00 0.00 0.00 0.00 0.00 0.00 0.00 0.00 0.00 0.01 0.01 0.01 0.00 0.00 0.00 0.01 0.01 0.02 0.02 0.01 0.05
0.16 0.15 0.07 0.12 0.07 0.02 0.01 0.00 0.04 0.07 0.07 0.09 0.08 0.02 0.01 0.02 0.01 0.05 0.01 0.03 0.03 0.00 0.00 0.00 0.00 0.00 0.00 0.00 0.00 0.00 0.00 0.00 0.00 0.01 0.01 0.00 0.00 0.00 0.00 0.01 0.01 0.02 0.01 0.03
0.09 0.19 0.10 0.16 0.15 0.05 0.03 0.02 0.01 0.05 0.02 0.07 0.20 0.16 0.02 0.05 0.05 0.16 0.13 0.14 0.11 0.02 0.01 0.00 0.00 0.00 0.00 0.00 0.00 0.00 0.00 0.00 0.00 0.01 0.01 0.01 0.00 0.00 0.00 0.01 0.01 0.02 0.02 0.01
0.05 0.12 0.11 0.03 0.06 0.03 0.04 0.05 0.01 0.05 0.05 0.04 0.06 0.25 0.17 0.10 0.09 0.13 0.26 0.22 0.20 0.08 0.02 0.00 0.00 0.00 0.00 0.00 0.00 0.00 0.01 0.01 0.02 0.02 0.02 0.01 0.00 0.01 0.02 0.02 0.01 0.02 0.03 0.01
0.12 0.27 0.48 0.32 0.13 0.05 0.09 0.02 0.02 0.05 0.05 0.02 0.04 0.40 0.37 0.14 0.18 0.22 0.22 0.25 0.17 0.20 0.13 0.04 0.03 0.02 0.04 0.04 0.02 0.02 0.03 0.04 0.05 0.03 0.02 0.03 0.04 0.04 0.04 0.03 0.03 0.03 0.04 0.02
0.13 0.18 0.43 0.72 0.53 0.24 0.09 0.02 0.01 0.04 0.02 0.00 0.04 0.35 0.18 0.44 0.39 0.39 0.15 0.16 0.21 0.23 0.24 0.20 0.23 0.13 0.15 0.15 0.13 0.08 0.09 0.13 0.12 0.07 0.08 0.09 0.11 0.09 0.09 0.08 0.07 0.06 0.04 0.02
0.16 0.16 0.15 0.11 0.14 0.39 0.19 0.06 0.01 0.00 0.00 0.02 0.07 0.11 0.23 0.60 0.76 0.49 0.50 0.16 0.19 0.24 0.24 0.22 0.68 0.48 0.22 0.19 0.22 0.23 0.21 0.31 0.32 0.24 0.19 0.16 0.12 0.08 0.07 0.07 0.08 0.06 0.04 0.03
0.18 0.16 0.09 0.04 0.03 0.15 0.14 0.05 0.05 0.02 0.02 0.02 0.05 0.19 0.46 0.37 0.28 0.34 0.32 0.19 0.16 0.30 0.25 0.22 0.52 1.02 0.53 0.34 0.35 0.41 0.50 0.62 0.50 0.42 0.38 0.24 0.18 0.17 0.14 0.10 0.09 0.10 0.09 0.07
0.08 0.10 0.05 0.05 0.01 0.04 0.38 0.41 0.14 0.14 0.23 0.07 0.13 0.25 0.31 0.24 0.09 0.07 0.06 0.06 0.10 0.15 0.28 0.26 0.33 0.92 0.85 0.49 0.42 0.45 0.62 0.75 0.65 0.61 0.54 0.38 0.29 0.26 0.22 0.14 0.11 0.12 0.13 0.10
0.06 0.04 0.03 0.04 0.01 0.17 0.50 0.36 0.33 0.55 0.42 0.30 0.25 0.30 0.20 0.15 0.11 0.08 0.05 0.05 0.06 0.06 0.16 0.29 0.29 0.55 0.86 0.59 0.44 0.41 0.56 0.73 0.64 0.60 0.60 0.51 0.35 0.28 0.32 0.22 0.17 0.15 0.16 0.16
0.04 0.06 0.09 0.04 0.04 0.17 0.22 0.13 0.12 0.23 0.25 0.18 0.26 0.26 0.08 0.02 0.04 0.03 0.01 0.02 0.02 0.04 0.08 0.14 0.26 0.41 0.96 0.90 0.73 0.70 0.53 0.59 0.68 0.55 0.57 0.50 0.42 0.34 0.38 0.37 0.32 0.25 0.20 0.24
0.10 0.09 0.08 0.05 0.07 0.15 0.26 0.22 0.02 0.17 0.36 0.25 0.14 0.10 0.06 0.03 0.08 0.03 0.02 0.02 0.02 0.04 0.09 0.13 0.14 0.30 0.71 1.17 1.05 1.30 0.96 0.81 0.80 0.72 0.63 0.50 0.45 0.40 0.39 0.34 0.48 0.51 0.34 0.25
0.14 0.16 0.12 0.09 0.10 0.18 0.04 0.06 0.06 0.24 0.37 0.22 0.14 0.11 0.02 0.01 0.02 0.01 0.04 0.05 0.05 0.06 0.09 0.08 0.10 0.20 0.33 0.86 1.14 1.26 1.53 1.26 1.09 1.06 0.78 0.82 0.66 0.52 0.47 0.45 0.40 0.54 0.47 0.32
0.35 0.22 0.29 0.26 0.23 0.24 0.04 0.01 0.16 0.45 0.18 0.13 0.11 0.06 0.01 0.00 0.00 0.00 0.08 0.12 0.21 0.22 0.24 0.16 0.08 0.13 0.27 0.34 0.77 0.99 1.19 1.31 1.30 1.42 1.30 1.02 1.18 1.00 0.81 0.72 0.63 0.47 0.54 0.63
0.62 0.26 0.28 0.19 0.29 0.12 0.03 0.05 0.08 0.05 0.03 0.01 0.01 0.00 0.00 0.00 0.00 0.00 0.06 0.11 0.27 0.47 0.49 0.36 0.23 0.17 0.16 0.23 0.37 0.57 0.80 0.89 1.06 1.08 1.32 1.36 1.32 1.54 1.34 1.13 0.97 0.79 0.64 0.58
0.64 0.38 0.44 0.27 0.23 0.04 0.03 0.05 0.04 0.02 0.02 0.00 0.00 0.00 0.00 0.00 0.00 0.00 0.01 0.03 0.16 0.52 0.46 0.35 0.27 0.28 0.26 0.21 0.19 0.23 0.24 0.33 0.49 0.63 0.74 0.92 1.19 1.36 1.54 1.57 1.49 1.24 1.03 0.86
0.23 0.38 0.73 0.54 0.45 0.34 0.14 0.13 0.18 0.08 0.02 0.00 0.00 0.00 0.00 0.00 0.00 0.00 0.01 0.01 0.03 0.22 0.26 0.33 0.31 0.31 0.29 0.25 0.17 0.13 0.11 0.12 0.19 0.27 0.30 0.33 0.52 0.77 1.05 1.36 1.57 1.52 1.51 1.32
0.20 0.38 0.33 0.62 0.55 0.50 0.37 0.31 0.23 0.18 0.05 0.00 0.00 0.00 0.00 0.00 0.00 0.00 0.01 0.01 0.02 0.03 0.04 0.08 0.10 0.11 0.10 0.07 0.06 0.05 0.04 0.04 0.06 0.11 0.16 0.21 0.24 0.34 0.46 0.65 0.89 1.12 1.24 1.22

GFSCGP_prec_precacc24_123.txt.gz
Total_Precipitation_Accumulation
0.00 0.00 0.00 0.00 0.00 0.00 0.00 0.00 0.00 0.00 0.00 0.00 0.00 0.00 0.00 0.00 0.00 0.00 0.00 0.00 0.00 0.00 0.00 0.00 0.00 0.00 0.00 0.00 0.00 0.00 0.00 0.00 0.00 0.00 0.00 0.00 0.01 0.01 0.04 0.03 0.03 0.03 0.05 0.06
0.03 0.03 0.00 0.00 0.00 0.00 0.02 0.02 0.00 0.00 0.00 0.00 0.00 0.00 0.00 0.00 0.00 0.00 0.00 0.00 0.00 0.00 0.00 0.00 0.00 0.00 0.00 0.00 0.00 0.00 0.00 0.00 0.00 0.00 0.01 0.04 0.08 0.04 0.02 0.04 0.05 0.05 0.07 0.08
0.06 0.02 0.00 0.00 0.00 0.01 0.01 0.01 0.00 0.00 0.00 0.02 0.02 0.01 0.00 0.00 0.00 0.00 0.00 0.00 0.00 0.00 0.00 0.00 0.00 0.00 0.00 0.00 0.00 0.00 0.00 0.00 0.00 0.01 0.04 0.07 0.25 0.19 0.06 0.05 0.04 0.11 0.15 0.19
0.19 0.04 0.02 0.03 0.02 0.01 0.06 0.00 0.00 0.01 0.04 0.07 0.04 0.03 0.00 0.00 0.00 0.00 0.00 0.00 0.00 0.00 0.00 0.00 0.00 0.00 0.00 0.00 0.00 0.00 0.01 0.03 0.05 0.08 0.10 0.12 0.11 0.05 0.01 0.01 0.03 0.07 0.14 0.26
0.30 0.21 0.24 0.22 0.05 0.02 0.06 0.00 0.01 0.01 0.01 0.04 0.04 0.09 0.01 0.00 0.00 0.00 0.00 0.00 0.00 0.00 0.00 0.00 0.00 0.00 0.00 0.00 0.00 0.00 0.00 0.01 0.03 0.07 0.09 0.13 0.14 0.18 0.08 0.01 0.02 0.03 0.06 0.20
0.09 0.02 0.05 0.05 0.00 0.01 0.02 0.02 0.03 0.05 0.08 0.16 0.03 0.05 0.01 0.00 0.00 0.00 0.00 0.00 0.00 0.00 0.00 0.00 0.00 0.00 0.00 0.00 0.00 0.00 0.00 0.00 0.01 0.02 0.03 0.03 0.04 0.07 0.08 0.05 0.01 0.03 0.05 0.08
0.06 0.06 0.04 0.02 0.12 0.05 0.04 0.03 0.12 0.15 0.14 0.08 0.02 0.02 0.00 0.01 0.01 0.01 0.02 0.01 0.00 0.00 0.00 0.00 0.00 0.00 0.00 0.00 0.00 0.00 0.00 0.01 0.01 0.01 0.01 0.01 0.01 0.01 0.00 0.01 0.02 0.03 0.07 0.07
0.05 0.18 0.06 0.04 0.27 0.11 0.04 0.03 0.05 0.19 0.08 0.05 0.07 0.03 0.01 0.01 0.00 0.01 0.02 0.03 0.01 0.01 0.00 0.00 0.00 0.00 0.00 0.00 0.00 0.00 0.00 0.00 0.01 0.01 0.00 0.00 0.01 0.01 0.01 0.01 0.01 0.01 0.01 0.03
0.14 0.16 0.06 0.03 0.05 0.04 0.02 0.02 0.02 0.13 0.15 0.10 0.04 0.03 0.04 0.02 0.00 0.00 0.01 0.01 0.02 0.00 0.01 0.00 0.00 0.00 0.00 0.00 0.00 0.00 0.00 0.00 0.01 0.01 0.01 0.00 0.00 0.00 0.01 0.01 0.02 0.02 0.01 0.01
0.16 0.16 0.07 0.12 0.08 0.04 0.03 0.01 0.04 0.11 0.25 0.13 0.13 0.05 0.07 0.05 0.01 0.02 0.01 0.03 0.04 0.01 0.01 0.00 0.00 0.00 0.00 0.00 0.00 0.00 0.00 0.00 0.00 0.01 0.01 0.00 0.00 0.00 0.00 0.01 0.01 0.02 0.01 0.02
0.09 0.20 0.10 0.16 0.25 0.05 0.03 0.04 0.05 0.09 0.08 0.13 0.26 0.22 0.15 0.15 0.04 0.06 0.03 0.11 0.11 0.03 0.01 0.00 0.00 0.00 0.00 0.00 0.00 0.00 0.00 0.00 0.00 0.01 0.01 0.01 0.00 0.00 0.00 0.01 0.01 0.02 0.02 0.01
0.05 0.12 0.11 0.02 0.08 0.03 0.05 0.06 0.03 0.07 0.09 0.18 0.20 0.55 0.48 0.21 0.10 0.09 0.14 0.15 0.20 0.08 0.02 0.00 0.00 0.00 0.00 0.00 0.00 0.00 0.01 0.01 0.02 0.02 0.02 0.01 0.00 0.01 0.02 0.02 0.01 0.02 0.03 0.02
0.09 0.24 0.48 0.31 0.12 0.05 0.08 0.05 0.06 0.09 0.09 0.09 0.17 0.95 0.86 0.36 0.27 0.31 0.38 0.21 0.19 0.22 0.14 0.05 0.03 0.02 0.04 0.04 0.02 0.02 0.03 0.04 0.05 0.03 0.02 0.03 0.04 0.04 0.04 0.03 0.03 0.03 0.04 0.03
0.07 0.15 0.42 0.72 0.53 0.31 0.12 0.02 0.02 0.07 0.08 0.01 0.15 1.05 0.77 0.85 0.78 0.62 0.39 0.41 0.29 0.29 0.33 0.26 0.28 0.16 0.15 0.15 0.13 0.08 0.09 0.13 0.10 0.07 0.08 0.09 0.11 0.09 0.09 0.08 0.08 0.07 0.05 0.03
0.09 0.11 0.14 0.11 0.15 0.51 0.30 0.07 0.01 0.01 0.02 0.03 0.16 0.36 0.53 1.13 1.18 0.95 0.77 0.37 0.35 0.34 0.35 0.27 0.69 0.49 0.23 0.19 0.20 0.21 0.18 0.24 0.24 0.22 0.18 0.16 0.12 0.08 0.07 0.07 0.08 0.07 0.06 0.03
0.14 0.12 0.07 0.04 0.04 0.23 0.25 0.08 0.06 0.03 0.04 0.04 0.06 0.27 0.75 0.48 0.31 0.34 0.38 0.46 0.22 0.22 0.25 0.22 0.49 0.98 0.49 0.29 0.26 0.28 0.33 0.41 0.40 0.35 0.33 0.23 0.18 0.17 0.14 0.10 0.09 0.10 0.10 0.07
0.07 0.09 0.05 0.05 0.01 0.10 0.45 0.60 0.32 0.18 0.28 0.13 0.18 0.34 0.58 0.28 0.07 0.04 0.03 0.06 0.12 0.14 0.24 0.25 0.31 0.87 0.79 0.43 0.35 0.32 0.41 0.52 0.49 0.50 0.47 0.34 0.26 0.25 0.21 0.14 0.11 0.13 0.14 0.12
0.06 0.04 0.03 0.04 0.01 0.26 0.66 0.54 0.49 0.65 0.48 0.53 0.44 0.48 0.36 0.17 0.09 0.04 0.02 0.02 0.04 0.05 0.15 0.29 0.28 0.52 0.83 0.56 0.42 0.40 0.52 0.68 0.58 0.55 0.52 0.41 0.29 0.24 0.29 0.21 0.17 0.15 0.17 0.18
0.04 0.06 0.09 0.04 0.06 0.28 0.25 0.12 0.14 0.23 0.22 0.21 0.34 0.34 0.12 0.02 0.03 0.02 0.00 0.00 0.01 0.03 0.07 0.14 0.26 0.41 0.96 0.90 0.72 0.69 0.52 0.54 0.61 0.51 0.49 0.44 0.36 0.27 0.31 0.31 0.27 0.24 0.23 0.26
0.10 0.09 0.08 0.05 0.07 0.15 0.26 0.22 0.02 0.16 0.35 0.25 0.14 0.11 0.06 0.04 0.08 0.03 0.01 0.00 0.01 0.03 0.08 0.12 0.14 0.30 0.71 1.17 1.05 1.30 0.96 0.81 0.79 0.71 0.62 0.49 0.43 0.37 0.35 0.28 0.42 0.46 0.35 0.29
0.14 0.16 0.12 0.09 0.10 0.18 0.04 0.06 0.06 0.24 0.41 0.23 0.14 0.12 0.02 0.01 0.02 0.01 0.01 0.01 0.03 0.05 0.08 0.08 0.10 0.20 0.33 0.86 1.14 1.26 1.53 1.26 1.09 1.06 0.77 0.80 0.65 0.51 0.47 0.44 0.39 0.53 0.52 0.38
0.33 0.22 0.29 0.26 0.23 0.24 0.05 0.02 0.17 0.49 0.20 0.13 0.11 0.06 0.01 0.00 0.00 0.00 0.00 0.01 0.10 0.16 0.21 0.16 0.08 0.13 0.27 0.34 0.77 0.99 1.20 1.31 1.30 1.42 1.30 1.02 1.18 0.97 0.77 0.70 0.63 0.49 0.63 0.86
0.45 0.25 0.28 0.20 0.29 0.13 0.03 0.07 0.11 0.07 0.04 0.02 0.01 0.00 0.00 0.00 0.00 0.00 0.00 0.01 0.16 0.36 0.42 0.36 0.23 0.17 0.16 0.23 0.37 0.58 0.81 0.89 1.06 1.08 1.32 1.36 1.32 1.53 1.32 1.12 0.97 0.86 0.69 0.69
0.28 0.28 0.42 0.26 0.18 0.04 0.04 0.04 0.04 0.03 0.02 0.00 0.01 0.00 0.00 0.00 0.00 0.00 0.00 0.01 0.09 0.41 0.41 0.35 0.27 0.29 0.26 0.21 0.19 0.23 0.24 0.33 0.49 0.63 0.74 0.92 1.20 1.36 1.55 1.60 1.55 1.29 1.13 0.95
0.08 0.32 0.59 0.44 0.29 0.26 0.13 0.12 0.18 0.08 0.03 0.00 0.00 0.00 0.00 0.00 0.00 0.01 0.01 0.01 0.02 0.18 0.26 0.33 0.31 0.31 0.29 0.25 0.17 0.13 0.11 0.12 0.19 0.27 0.30 0.33 0.53 0.80 1.14 1.50 1.78 1.79 1.71 1.43
0.12 0.35 0.33 0.51 0.45 0.42 0.34 0.32 0.23 0.18 0.06 0.00 0.00 0.00 0.00 0.00 0.00 0.00 0.01 0.01 0.01 0.02 0.03 0.08 0.10 0.11 0.10 0.07 0.07 0.05 0.05 0.04 0.06 0.11 0.16 0.22 0.26 0.38 0.55 0.82 1.12 1.44 1.66 1.58

GFSCGP_prec_precacc24_126.txt.gz
Total_Precipitation_Accumulation
0.00 0.00 0.00 0.00 0.00 0.00 0.00 0.00 0.00 0.00 0.00 0.00 0.00 0.00 0.00 0.00 0.00 0.00 0.00 0.00 0.00 0.00 0.00 0.00 0.00 0.00 0.00 0.00 0.00 0.00 0.00 0.00 0.00 0.00 0.00 0.00 0.01 0.01 0.03 0.01 0.01 0.01 0.02 0.02
0.03 0.03 0.00 0.00 0.00 0.00 0.02 0.02 0.00 0.00 0.00 0.00 0.00 0.00 0.00 0.00 0.00 0.00 0.00 0.00 0.00 0.00 0.00 0.00 0.00 0.00 0.00 0.00 0.00 0.00 0.00 0.00 0.00 0.00 0.01 0.04 0.08 0.04 0.02 0.03 0.02 0.02 0.02 0.03
0.05 0.02 0.00 0.00 0.00 0.01 0.01 0.01 0.00 0.00 0.00 0.02 0.02 0.01 0.00 0.00 0.00 0.00 0.00 0.00 0.00 0.00 0.00 0.00 0.00 0.00 0.00 0.00 0.00 0.00 0.00 0.00 0.00 0.01 0.04 0.07 0.26 0.20 0.06 0.05 0.02 0.09 0.08 0.08
0.19 0.04 0.02 0.03 0.02 0.01 0.06 0.00 0.00 0.02 0.08 0.09 0.04 0.04 0.00 0.00 0.00 0.00 0.00 0.00 0.00 0.00 0.00 0.00 0.00 0.00 0.00 0.00 0.00 0.00 0.01 0.03 0.05 0.08 0.10 0.13 0.13 0.07 0.03 0.03 0.08 0.15 0.10 0.11
0.30 0.21 0.24 0.22 0.05 0.02 0.06 0.00 0.01 0.01 0.02 0.04 0.05 0.10 0.01 0.00 0.00 0.00 0.00 0.00 0.00 0.00 0.00 0.00 0.00 0.00 0.00 0.00 0.00 0.00 0.00 0.01 0.03 0.07 0.09 0.19 0.22 0.23 0.19 0.25 0.31 0.31 0.24 0.14
0.09 0.02 0.05 0.05 0.00 0.01 0.02 0.02 0.03 0.05 0.08 0.18 0.03 0.05 0.02 0.00 0.00 0.01 0.05 0.03 0.00 0.00 0.00 0.00 0.00 0.00 0.00 0.00 0.00 0.00 0.00 0.00 0.01 0.04 0.06 0.09 0.10 0.12 0.13 0.19 0.27 0.31 0.27 0.18
0.06 0.06 0.04 0.02 0.12 0.05 0.05 0.03 0.12 0.15 0.15 0.09 0.02 0.03 0.00 0.01 0.03 0.03 0.09 0.10 0.02 0.00 0.00 0.00 0.00 0.00 0.00 0.00 0.00 0.00 0.01 0.01 0.01 0.02 0.03 0.04 0.05 0.05 0.06 0.06 0.07 0.14 0.18 0.14
0.05 0.18 0.06 0.04 0.27 0.11 0.04 0.03 0.06 0.19 0.10 0.09 0.07 0.04 0.06 0.09 0.06 0.09 0.07 0.08 0.04 0.02 0.00 0.00 0.00 0.00 0.00 0.00 0.01 0.01 0.01 0.02 0.02 0.03 0.02 0.01 0.03 0.02 0.02 0.02 0.02 0.02 0.03 0.04
0.14 0.16 0.06 0.03 0.05 0.06 0.03 0.02 0.02 0.13 0.17 0.19 0.05 0.04 0.15 0.09 0.05 0.18 0.07 0.07 0.07 0.05 0.04 0.02 0.02 0.02 0.02 0.01 0.01 0.01 0.00 0.01 0.01 0.01 0.01 0.00 0.00 0.00 0.01 0.01 0.02 0.02 0.01 0.01
0.16 0.17 0.07 0.12 0.08 0.05 0.03 0.02 0.05 0.13 0.36 0.30 0.15 0.09 0.24 0.12 0.02 0.04 0.12 0.11 0.10 0.07 0.07 0.05 0.04 0.03 0.03 0.01 0.01 0.00 0.00 0.00 0.00 0.00 0.00 0.00 0.00 0.00 0.00 0.01 0.01 0.02 0.01 0.01
0.09 0.20 0.10 0.16 0.26 0.06 0.04 0.05 0.07 0.15 0.18 0.23 0.37 0.33 0.56 0.28 0.09 0.07 0.04 0.14 0.13 0.09 0.07 0.06 0.04 0.02 0.02 0.01 0.00 0.00 0.00 0.00 0.00 0.00 0.01 0.01 0.00 0.00 0.00 0.01 0.01 0.02 0.02 0.01
0.05 0.12 0.11 0.02 0.08 0.03 0.05 0.07 0.05 0.16 0.12 0.21 0.30 0.86 0.87 0.43 0.25 0.19 0.18 0.08 0.09 0.05 0.09 0.06 0.05 0.01 0.01 0.01 0.01 0.01 0.01 0.01 0.01 0.02 0.02 0.01 0.00 0.01 0.02 0.02 0.01 0.02 0.03 0.02
0.08 0.24 0.48 0.31 0.12 0.05 0.08 0.05 0.10 0.16 0.12 0.18 0.34 1.24 1.26 0.75 0.52 0.43 0.46 0.22 0.17 0.17 0.14 0.08 0.04 0.02 0.04 0.05 0.03 0.02 0.03 0.02 0.03 0.03 0.02 0.03 0.04 0.04 0.04 0.03 0.03 0.03 0.04 0.03
0.07 0.15 0.42 0.71 0.53 0.40 0.17 0.04 0.04 0.07 0.10 0.07 0.37 1.42 1.27 1.58 1.32 1.02 0.69 0.68 0.38 0.25 0.38 0.32 0.29 0.17 0.15 0.15 0.12 0.07 0.05 0.05 0.04 0.05 0.08 0.09 0.11 0.09 0.09 0.08 0.08 0.07 0.05 0.03
0.05 0.10 0.12 0.10 0.16 0.58 0.36 0.11 0.06 0.03 0.03 0.09 0.38 0.53 0.85 1.52 1.66 1.42 1.31 0.88 0.70 0.62 0.50 0.46 0.89 0.58 0.25 0.19 0.16 0.13 0.09 0.12 0.17 0.19 0.18 0.16 0.12 0.08 0.07 0.07 0.08 0.07 0.06 0.04
0.08 0.06 0.02 0.01 0.03 0.28 0.27 0.09 0.07 0.04 0.07 0.15 0.23 0.34 0.89 0.61 0.36 0.36 0.45 0.64 0.40 0.36 0.41 0.31 0.55 0.95 0.42 0.20 0.20 0.23 0.24 0.24 0.27 0.28 0.27 0.21 0.17 0.17 0.14 0.10 0.09 0.10 0.10 0.07
0.06 0.06 0.03 0.04 0.01 0.17 0.48 0.66 0.42 0.29 0.35 0.19 0.28 0.48 0.70 0.31 0.05 0.02 0.01 0.03 0.08 0.09 0.20 0.26 0.31 0.81 0.72 0.32 0.25 0.23 0.29 0.32 0.32 0.36 0.36 0.28 0.24 0.23 0.21 0.14 0.11 0.13 0.14 0.12
0.06 0.04 0.03 0.04 0.04 0.29 0.69 0.57 0.55 0.77 0.56 0.67 0.60 0.66 0.46 0.20 0.04 0.02 0.01 0.01 0.02 0.04 0.11 0.24 0.27 0.51 0.81 0.53 0.39 0.34 0.40 0.54 0.52 0.50 0.46 0.35 0.26 0.23 0.28 0.20 0.16 0.15 0.17 0.18
0.04 0.06 0.09 0.04 0.07 0.30 0.22 0.11 0.15 0.27 0.22 0.21 0.35 0.38 0.16 0.06 0.03 0.02 0.01 0.00 0.01 0.03 0.07 0.13 0.24 0.40 0.95 0.90 0.72 0.69 0.50 0.49 0.55 0.48 0.43 0.38 0.34 0.26 0.31 0.30 0.26 0.23 0.22 0.26
0.10 0.09 0.09 0.05 0.07 0.15 0.25 0.18 0.03 0.18 0.36 0.26 0.14 0.11 0.07 0.04 0.07 0.04 0.01 0.01 0.01 0.03 0.08 0.12 0.14 0.29 0.71 1.17 1.05 1.30 0.96 0.80 0.76 0.67 0.57 0.46 0.42 0.35 0.34 0.28 0.41 0.44 0.34 0.29
0.14 0.16 0.12 0.09 0.11 0.19 0.04 0.06 0.06 0.25 0.43 0.25 0.15 0.12 0.02 0.01 0.02 0.02 0.01 0.00 0.01 0.03 0.08 0.08 0.10 0.20 0.34 0.86 1.14 1.26 1.53 1.26 1.09 1.06 0.77 0.80 0.63 0.49 0.44 0.41 0.35 0.51 0.51 0.38
0.33 0.22 0.29 0.26 0.22 0.25 0.05 0.01 0.18 0.54 0.22 0.14 0.11 0.06 0.01 0.00 0.00 0.00 0.00 0.00 0.04 0.07 0.14 0.13 0.08 0.13 0.27 0.35 0.78 0.99 1.20 1.32 1.30 1.42 1.30 1.02 1.18 0.97 0.77 0.68 0.59 0.44 0.59 0.84
0.34 0.14 0.22 0.20 0.29 0.13 0.03 0.08 0.12 0.08 0.06 0.03 0.02 0.00 0.00 0.00 0.00 0.00 0.00 0.00 0.07 0.18 0.26 0.25 0.21 0.17 0.16 0.23 0.38 0.58 0.81 0.89 1.06 1.08 1.32 1.36 1.32 1.54 1.31 1.11 0.94 0.82 0.64 0.62
0.20 0.03 0.16 0.23 0.14 0.04 0.04 0.04 0.04 0.03 0.03 0.01 0.02 0.00 0.00 0.00 0.00 0.00 0.00 0.01 0.05 0.26 0.29 0.31 0.26 0.29 0.26 0.21 0.20 0.24 0.24 0.33 0.49 0.63 0.74 0.92 1.20 1.36 1.55 1.60 1.54 1.29 1.13 0.92
0.04 0.06 0.22 0.29 0.21 0.21 0.13 0.11 0.16 0.08 0.03 0.01 0.00 0.00 0.00 0.00 0.01 0.00 0.00 0.01 0.01 0.13 0.24 0.30 0.29 0.31 0.30 0.26 0.17 0.14 0.12 0.12 0.19 0.27 0.30 0.33 0.53 0.80 1.14 1.51 1.81 1.84 1.79 1.54
0.06 0.19 0.23 0.37 0.32 0.33 0.27 0.25 0.23 0.18 0.06 0.01 0.01 0.01 0.00 0.00 0.01 0.01 0.01 0.01 0.01 0.01 0.03 0.07 0.10 0.11 0.10 0.08 0.07 0.06 0.05 0.05 0.06 0.11 0.16 0.22 0.26 0.38 0.55 0.83 1.15 1.51 1.77 1.72

GFSCGP_prec_precacc24_129.txt.gz
Total_Precipitation_Accumulation
0.00 0.00 0.00 0.00 0.00 0.00 0.00 0.00 0.00 0.00 0.00 0.00 0.00 0.00 0.00 0.00 0.00 0.00 0.00 0.00 0.00 0.00 0.00 0.00 0.00 0.00 0.00 0.00 0.00 0.00 0.00 0.00 0.00 0.00 0.01 0.00 0.01 0.00 0.02 0.00 0.00 0.00 0.01 0.01
0.02 0.02 0.00 0.00 0.00 0.00 0.02 0.02 0.00 0.00 0.00 0.00 0.00 0.00 0.00 0.00 0.00 0.00 0.00 0.00 0.00 0.00 0.00 0.00 0.00 0.00 0.00 0.00 0.00 0.00 0.00 0.00 0.00 0.00 0.01 0.05 0.09 0.04 0.02 0.02 0.01 0.00 0.01 0.02
0.04 0.02 0.00 0.00 0.00 0.01 0.01 0.01 0.00 0.00 0.00 0.02 0.02 0.01 0.00 0.00 0.00 0.00 0.00 0.00 0.00 0.00 0.00 0.00 0.00 0.00 0.00 0.00 0.00 0.00 0.00 0.00 0.00 0.01 0.04 0.07 0.27 0.21 0.07 0.04 0.02 0.08 0.06 0.06
0.19 0.04 0.02 0.03 0.02 0.01 0.06 0.00 0.00 0.02 0.08 0.09 0.04 0.05 0.00 0.00 0.00 0.00 0.00 0.00 0.00 0.00 0.00 0.00 0.00 0.00 0.00 0.00 0.00 0.00 0.01 0.03 0.05 0.08 0.10 0.13 0.13 0.07 0.03 0.03 0.09 0.15 0.15 0.17
0.29 0.21 0.24 0.22 0.05 0.02 0.06 0.00 0.01 0.01 0.02 0.05 0.05 0.10 0.01 0.00 0.00 0.00 0.00 0.00 0.00 0.00 0.00 0.00 0.00 0.00 0.00 0.00 0.00 0.00 0.00 0.01 0.03 0.07 0.09 0.19 0.22 0.24 0.20 0.27 0.40 0.43 0.47 0.52
0.09 0.02 0.05 0.05 0.00 0.01 0.02 0.02 0.03 0.05 0.09 0.18 0.03 0.05 0.02 0.01 0.07 0.04 0.07 0.06 0.00 0.00 0.00 0.00 0.00 0.00 0.00 0.00 0.00 0.00 0.00 0.00 0.01 0.04 0.06 0.10 0.12 0.14 0.18 0.24 0.31 0.41 0.48 0.70
0.06 0.06 0.04 0.02 0.12 0.05 0.05 0.04 0.12 0.15 0.15 0.09 0.02 0.03 0.00 0.16 0.18 0.18 0.15 0.20 0.06 0.00 0.00 0.00 0.00 0.00 0.00 0.00 0.00 0.00 0.01 0.01 0.01 0.02 0.04 0.05 0.06 0.08 0.09 0.12 0.11 0.18 0.23 0.17
0.05 0.18 0.06 0.04 0.27 0.11 0.04 0.04 0.06 0.19 0.10 0.09 0.07 0.05 0.10 0.40 0.25 0.50 0.15 0.35 0.15 0.03 0.01 0.00 0.00 0.00 0.01 0.01 0.01 0.01 0.02 0.02 0.02 0.03 0.03 0.03 0.05 0.05 0.05 0.07 0.04 0.04 0.05 0.05
0.14 0.16 0.06 0.03 0.05 0.06 0.05 0.03 0.02 0.14 0.17 0.20 0.07 0.06 0.26 0.27 0.14 0.52 0.20 0.29 0.42 0.08 0.09 0.08 0.07 0.05 0.04 0.02 0.01 0.01 0.01 0.01 0.01 0.01 0.02 0.02 0.02 0.01 0.02 0.03 0.03 0.02 0.02 0.01
0.16 0.17 0.07 0.12 0.08 0.05 0.04 0.03 0.08 0.14 0.37 0.33 0.16 0.16 0.35 0.27 0.15 0.33 0.68 0.29 0.42 0.17 0.13 0.10 0.09 0.08 0.05 0.02 0.02 0.01 0.01 0.01 0.01 0.01 0.01 0.01 0.00 0.00 0.00 0.01 0.01 0.02 0.01 0.01
0.09 0.20 0.10 0.16 0.26 0.06 0.04 0.05 0.09 0.17 0.19 0.30 0.41 0.46 0.74 0.47 0.26 0.24 0.31 0.64 0.31 0.18 0.11 0.11 0.07 0.05 0.03 0.02 0.02 0.01 0.01 0.01 0.00 0.01 0.01 0.01 0.00 0.00 0.00 0.01 0.01 0.02 0.02 0.01
0.04 0.12 0.11 0.02 0.08 0.03 0.05 0.07 0.07 0.22 0.17 0.23 0.41 1.09 1.01 0.59 0.42 0.42 0.37 0.53 0.62 0.36 0.22 0.12 0.10 0.04 0.03 0.03 0.03 0.02 0.01 0.00 0.00 0.01 0.01 0.01 0.00 0.01 0.02 0.02 0.01 0.02 0.03 0.02
0.08 0.24 0.47 0.31 0.12 0.05 0.08 0.06 0.12 0.24 0.16 0.24 0.54 1.37 1.48 0.94 0.70 0.62 0.83 0.52 0.40 0.40 0.35 0.42 0.34 0.24 0.07 0.07 0.08 0.05 0.05 0.04 0.02 0.02 0.02 0.02 0.04 0.04 0.04 0.03 0.03 0.03 0.04 0.03
0.07 0.15 0.42 0.71 0.53 0.45 0.19 0.05 0.04 0.09 0.12 0.19 0.58 1.56 1.41 1.77 1.52 1.21 0.86 0.87 0.64 0.47 0.40 0.36 0.33 0.41 0.29 0.12 0.13 0.10 0.05 0.09 0.08 0.06 0.08 0.09 0.10 0.09 0.09 0.08 0.08 0.07 0.05 0.03
0.04 0.08 0.12 0.10 0.16 0.63 0.44 0.13 0.12 0.11 0.06 0.13 0.53 0.60 0.92 1.62 1.83 1.63 1.55 1.04 0.79 0.64 0.46 0.41 0.51 0.32 0.17 0.14 0.11 0.11 0.08 0.07 0.10 0.15 0.16 0.16 0.12 0.08 0.07 0.07 0.08 0.07 0.06 0.04
0.03 0.05 0.02 0.01 0.04 0.35 0.35 0.12 0.09 0.10 0.10 0.21 0.39 0.40 0.97 0.71 0.47 0.41 0.52 0.77 0.56 0.52 0.42 0.28 0.44 0.75 0.35 0.14 0.13 0.11 0.14 0.13 0.16 0.20 0.19 0.18 0.17 0.17 0.14 0.10 0.09 0.10 0.10 0.07
0.04 0.06 0.02 0.04 0.02 0.23 0.58 0.69 0.48 0.33 0.40 0.25 0.35 0.55 0.74 0.35 0.07 0.03 0.02 0.06 0.15 0.19 0.19 0.16 0.16 0.57 0.65 0.27 0.17 0.12 0.14 0.19 0.21 0.26 0.29 0.25 0.22 0.23 0.21 0.14 0.11 0.13 0.14 0.12
0.06 0.04 0.04 0.04 0.06 0.35 0.73 0.58 0.61 0.84 0.62 0.72 0.67 0.70 0.49 0.24 0.07 0.01 0.01 0.01 0.02 0.02 0.03 0.09 0.13 0.31 0.61 0.49 0.35 0.29 0.29 0.38 0.41 0.42 0.40 0.34 0.26 0.23 0.28 0.20 0.16 0.15 0.17 0.18
0.04 0.06 0.09 0.05 0.08 0.32 0.20 0.06 0.14 0.29 0.24 0.23 0.34 0.34 0.16 0.09 0.04 0.01 0.01 0.01 0.01 0.02 0.03 0.05 0.11 0.25 0.67 0.76 0.62 0.60 0.44 0.39 0.39 0.34 0.26 0.26 0.28 0.23 0.30 0.29 0.25 0.23 0.22 0.26
0.09 0.09 0.08 0.05 0.08 0.16 0.22 0.16 0.03 0.19 0.38 0.27 0.15 0.12 0.07 0.04 0.06 0.04 0.02 0.01 0.00 0.01 0.03 0.08 0.08 0.21 0.58 0.93 0.93 1.21 0.93 0.75 0.69 0.61 0.56 0.45 0.38 0.32 0.32 0.27 0.39 0.43 0.32 0.28
0.14 0.13 0.10 0.09 0.11 0.19 0.04 0.06 0.06 0.26 0.44 0.26 0.16 0.14 0.03 0.02 0.04 0.04 0.01 0.00 0.01 0.02 0.04 0.06 0.08 0.18 0.32 0.81 1.12 1.25 1.52 1.26 1.09 1.05 0.76 0.79 0.63 0.49 0.43 0.39 0.33 0.47 0.47 0.34
0.33 0.21 0.29 0.26 0.22 0.25 0.05 0.01 0.18 0.55 0.25 0.14 0.12 0.08 0.03 0.02 0.02 0.01 0.00 0.00 0.02 0.04 0.08 0.09 0.07 0.12 0.27 0.35 0.78 1.00 1.20 1.32 1.30 1.42 1.30 1.02 1.18 0.97 0.77 0.68 0.58 0.43 0.55 0.79
0.33 0.09 0.15 0.19 0.30 0.14 0.04 0.09 0.14 0.09 0.06 0.04 0.03 0.01 0.01 0.01 0.01 0.00 0.00 0.00 0.04 0.08 0.11 0.13 0.15 0.16 0.16 0.24 0.38 0.59 0.81 0.89 1.06 1.08 1.32 1.36 1.32 1.54 1.31 1.11 0.94 0.81 0.62 0.58
0.19 0.02 0.04 0.13 0.13 0.04 0.03 0.04 0.04 0.04 0.04 0.01 0.02 0.01 0.00 0.01 0.00 0.00 0.00 0.00 0.02 0.10 0.18 0.25 0.22 0.24 0.24 0.21 0.20 0.25 0.24 0.33 0.49 0.63 0.74 0.92 1.20 1.36 1.55 1.60 1.54 1.29 1.12 0.91
0.04 0.02 0.04 0.12 0.13 0.15 0.09 0.08 0.09 0.06 0.03 0.01 0.00 0.00 0.00 0.00 0.01 0.00 0.00 0.00 0.00 0.04 0.14 0.23 0.27 0.27 0.26 0.25 0.18 0.14 0.12 0.12 0.19 0.27 0.30 0.33 0.53 0.80 1.14 1.51 1.82 1.84 1.81 1.55
0.03 0.08 0.12 0.17 0.14 0.16 0.15 0.14 0.12 0.12 0.06 0.01 0.01 0.01 0.00 0.00 0.01 0.01 0.00 0.01 0.01 0.00 0.01 0.05 0.09 0.10 0.10 0.08 0.07 0.06 0.05 0.05 0.06 0.11 0.16 0.22 0.26 0.38 0.55 0.83 1.14 1.50 1.78 1.73

GFSCGP_prec_precacc24_132.txt.gz
Total_Precipitation_Accumulation
0.00 0.00 0.00 0.00 0.00 0.00 0.00 0.00 0.00 0.00 0.00 0.00 0.00 0.00 0.00 0.00 0.00 0.00 0.00 0.00 0.00 0.00 0.00 0.00 0.00 0.00 0.00 0.00 0.00 0.00 0.00 0.00 0.00 0.00 0.01 0.00 0.01 0.00 0.02 0.00 0.00 0.00 0.00 0.00
0.02 0.01 0.00 0.00 0.00 0.00 0.00 0.00 0.00 0.00 0.00 0.00 0.00 0.00 0.00 0.00 0.00 0.00 0.00 0.00 0.00 0.00 0.00 0.00 0.00 0.00 0.00 0.00 0.00 0.00 0.00 0.00 0.00 0.00 0.01 0.05 0.09 0.04 0.02 0.02 0.00 0.00 0.00 0.01
0.03 0.02 0.00 0.00 0.00 0.00 0.00 0.00 0.00 0.00 0.00 0.02 0.02 0.01 0.00 0.00 0.00 0.00 0.00 0.00 0.00 0.00 0.00 0.00 0.00 0.00 0.00 0.00 0.00 0.00 0.00 0.00 0.00 0.01 0.04 0.07 0.27 0.20 0.07 0.04 0.01 0.07 0.05 0.06
0.19 0.04 0.02 0.03 0.02 0.01 0.06 0.00 0.00 0.02 0.07 0.09 0.04 0.05 0.00 0.00 0.00 0.00 0.00 0.00 0.00 0.00 0.00 0.00 0.00 0.00 0.00 0.00 0.00 0.00 0.01 0.03 0.05 0.08 0.10 0.13 0.13 0.07 0.03 0.03 0.09 0.15 0.14 0.17
0.29 0.21 0.24 0.21 0.05 0.02 0.05 0.00 0.01 0.01 0.02 0.06 0.05 0.10 0.01 0.00 0.01 0.00 0.00 0.01 0.00 0.00 0.00 0.00 0.00 0.00 0.00 0.00 0.00 0.00 0.00 0.01 0.03 0.07 0.09 0.19 0.22 0.24 0.20 0.27 0.41 0.44 0.46 0.50
0.09 0.02 0.05 0.05 0.00 0.01 0.02 0.02 0.03 0.05 0.09 0.19 0.03 0.05 0.02 0.01 0.10 0.08 0.12 0.08 0.03 0.03 0.01 0.00 0.00 0.00 0.00 0.00 0.00 0.00 0.00 0.00 0.02 0.09 0.07 0.11 0.13 0.18 0.22 0.26 0.34 0.44 0.52 0.71
0.06 0.06 0.04 0.02 0.12 0.05 0.05 0.04 0.12 0.15 0.15 0.09 0.02 0.03 0.00 0.17 0.24 0.35 0.32 0.29 0.28 0.09 0.04 0.01 0.01 0.01 0.00 0.00 0.01 0.01 0.01 0.01 0.01 0.03 0.05 0.09 0.13 0.23 0.13 0.14 0.21 0.22 0.26 0.19
0.05 0.18 0.06 0.04 0.27 0.11 0.04 0.04 0.07 0.20 0.10 0.09 0.07 0.05 0.10 0.40 0.31 0.65 0.33 0.58 0.42 0.16 0.11 0.05 0.04 0.03 0.03 0.02 0.01 0.01 0.02 0.02 0.02 0.04 0.04 0.06 0.16 0.15 0.08 0.09 0.11 0.10 0.09 0.06
0.14 0.16 0.06 0.03 0.05 0.06 0.07 0.05 0.03 0.16 0.17 0.21 0.07 0.06 0.26 0.27 0.14 0.61 0.40 0.50 0.73 0.23 0.22 0.16 0.13 0.11 0.09 0.08 0.03 0.01 0.01 0.02 0.02 0.03 0.04 0.04 0.06 0.04 0.05 0.05 0.04 0.04 0.02 0.01
0.16 0.17 0.07 0.12 0.08 0.05 0.04 0.03 0.09 0.17 0.39 0.33 0.16 0.17 0.37 0.30 0.17 0.40 0.92 0.60 0.77 0.39 0.28 0.22 0.19 0.16 0.11 0.14 0.08 0.04 0.03 0.02 0.01 0.01 0.02 0.01 0.01 0.01 0.01 0.02 0.02 0.02 0.01 0.01
0.09 0.20 0.10 0.16 0.26 0.06 0.04 0.06 0.09 0.19 0.20 0.33 0.44 0.54 0.81 0.53 0.34 0.34 0.51 1.04 0.58 0.58 0.30 0.31 0.35 0.24 0.10 0.10 0.07 0.03 0.04 0.03 0.01 0.01 0.00 0.00 0.00 0.00 0.00 0.01 0.01 0.02 0.02 0.01
0.04 0.12 0.11 0.02 0.08 0.03 0.05 0.08 0.08 0.26 0.21 0.26 0.50 1.25 1.06 0.68 0.52 0.50 0.53 0.93 0.96 0.64 0.49 0.28 0.19 0.13 0.05 0.05 0.04 0.03 0.02 0.04 0.02 0.00 0.00 0.00 0.00 0.01 0.02 0.02 0.01 0.02 0.03 0.01
0.06 0.21 0.43 0.29 0.09 0.04 0.08 0.06 0.13 0.26 0.20 0.33 0.66 1.41 1.55 1.04 0.78 0.70 0.94 0.71 0.68 0.77 0.77 0.76 0.60 0.39 0.13 0.07 0.06 0.04 0.04 0.05 0.05 0.02 0.02 0.02 0.03 0.04 0.04 0.03 0.03 0.03 0.04 0.02
0.06 0.14 0.40 0.70 0.52 0.45 0.19 0.04 0.04 0.09 0.16 0.30 0.61 1.60 1.44 1.81 1.57 1.27 0.93 0.98 0.82 0.74 0.71 0.78 0.75 0.91 0.76 0.28 0.14 0.16 0.10 0.09 0.10 0.06 0.05 0.06 0.07 0.09 0.09 0.08 0.08 0.07 0.05 0.03
0.03 0.07 0.12 0.10 0.16 0.63 0.47 0.13 0.13 0.16 0.08 0.16 0.56 0.61 0.94 1.66 1.87 1.72 1.66 1.13 0.86 0.72 0.62 0.68 0.69 0.50 0.52 0.56 0.32 0.22 0.29 0.16 0.12 0.11 0.09 0.09 0.10 0.09 0.07 0.07 0.08 0.07 0.06 0.04
0.01 0.03 0.01 0.02 0.05 0.38 0.40 0.14 0.09 0.13 0.14 0.24 0.42 0.41 0.99 0.74 0.49 0.42 0.53 0.79 0.58 0.55 0.46 0.31 0.27 0.21 0.10 0.11 0.13 0.09 0.14 0.14 0.13 0.13 0.13 0.13 0.16 0.17 0.14 0.10 0.09 0.10 0.10 0.07
0.03 0.04 0.02 0.04 0.02 0.32 0.66 0.73 0.49 0.36 0.43 0.29 0.38 0.59 0.77 0.35 0.08 0.03 0.02 0.06 0.15 0.20 0.19 0.14 0.05 0.04 0.06 0.07 0.07 0.06 0.06 0.11 0.12 0.17 0.21 0.21 0.22 0.23 0.21 0.14 0.11 0.13 0.14 0.12
0.04 0.03 0.03 0.04 0.06 0.39 0.78 0.59 0.64 0.87 0.64 0.75 0.70 0.72 0.51 0.25 0.07 0.01 0.01 0.01 0.02 0.02 0.03 0.04 0.05 0.06 0.11 0.12 0.16 0.16 0.17 0.22 0.29 0.32 0.34 0.31 0.25 0.23 0.28 0.20 0.16 0.15 0.17 0.18
0.04 0.06 0.08 0.05 0.08 0.34 0.20 0.03 0.13 0.29 0.25 0.23 0.34 0.33 0.16 0.10 0.04 0.01 0.01 0.01 0.01 0.02 0.02 0.03 0.02 0.07 0.22 0.25 0.25 0.40 0.37 0.29 0.27 0.27 0.23 0.22 0.26 0.22 0.30 0.29 0.25 0.23 0.22 0.26
0.09 0.08 0.07 0.05 0.07 0.16 0.20 0.06 0.03 0.16 0.39 0.27 0.15 0.12 0.07 0.04 0.04 0.04 0.02 0.01 0.00 0.00 0.00 0.01 0.01 0.07 0.20 0.43 0.52 0.82 0.70 0.55 0.52 0.41 0.38 0.36 0.31 0.28 0.30 0.26 0.39 0.43 0.32 0.27
0.12 0.09 0.07 0.07 0.11 0.20 0.04 0.01 0.04 0.23 0.46 0.26 0.16 0.15 0.03 0.02 0.04 0.05 0.02 0.00 0.00 0.00 0.00 0.02 0.02 0.06 0.18 0.41 0.62 0.87 1.02 0.87 0.87 0.92 0.68 0.73 0.61 0.46 0.42 0.38 0.31 0.46 0.46 0.32
0.29 0.18 0.26 0.23 0.22 0.25 0.05 0.01 0.17 0.55 0.26 0.15 0.12 0.09 0.03 0.03 0.03 0.01 0.00 0.00 0.00 0.01 0.01 0.02 0.04 0.07 0.17 0.28 0.63 0.87 1.02 1.08 1.11 1.33 1.30 1.02 1.19 0.98 0.77 0.68 0.58 0.42 0.53 0.75
0.30 0.06 0.10 0.17 0.29 0.14 0.04 0.09 0.14 0.10 0.07 0.04 0.03 0.02 0.02 0.01 0.01 0.00 0.00 0.00 0.00 0.02 0.03 0.06 0.07 0.10 0.13 0.20 0.34 0.58 0.80 0.88 1.06 1.08 1.32 1.36 1.32 1.54 1.32 1.12 0.94 0.81 0.62 0.55
0.18 0.02 0.03 0.07 0.06 0.03 0.03 0.03 0.04 0.04 0.04 0.01 0.02 0.01 0.00 0.01 0.00 0.00 0.00 0.00 0.00 0.02 0.06 0.10 0.12 0.16 0.19 0.19 0.20 0.24 0.24 0.33 0.49 0.64 0.74 0.92 1.20 1.36 1.56 1.60 1.54 1.29 1.12 0.90
0.03 0.01 0.02 0.08 0.05 0.08 0.06 0.06 0.06 0.06 0.03 0.01 0.00 0.00 0.00 0.00 0.01 0.00 0.00 0.00 0.00 0.00 0.03 0.09 0.15 0.19 0.20 0.19 0.15 0.14 0.12 0.12 0.19 0.27 0.30 0.34 0.53 0.80 1.14 1.51 1.82 1.85 1.81 1.56
0.02 0.02 0.04 0.09 0.05 0.09 0.10 0.10 0.09 0.07 0.03 0.01 0.01 0.01 0.01 0.00 0.01 0.01 0.00 0.01 0.01 0.00 0.00 0.02 0.06 0.08 0.08 0.07 0.07 0.06 0.06 0.05 0.06 0.11 0.16 0.22 0.26 0.38 0.55 0.83 1.13 1.48 1.78 1.73

GFSCGP_prec_precacc24_135.txt.gz
Total_Precipitation_Accumulation
0.00 0.00 0.00 0.00 0.00 0.00 0.00 0.00 0.00 0.00 0.00 0.00 0.00 0.00 0.00 0.00 0.00 0.00 0.00 0.00 0.00 0.00 0.00 0.00 0.00 0.00 0.00 0.00 0.00 0.00 0.00 0.00 0.00 0.00 0.01 0.00 0.01 0.00 0.02 0.00 0.00 0.00 0.00 0.00
0.02 0.01 0.00 0.00 0.00 0.00 0.00 0.00 0.00 0.00 0.00 0.00 0.00 0.00 0.00 0.00 0.00 0.00 0.00 0.00 0.00 0.00 0.00 0.00 0.00 0.00 0.00 0.00 0.00 0.00 0.00 0.00 0.00 0.00 0.01 0.06 0.09 0.04 0.02 0.02 0.00 0.00 0.00 0.01
0.03 0.02 0.00 0.00 0.00 0.00 0.00 0.00 0.00 0.00 0.00 0.02 0.02 0.01 0.00 0.00 0.00 0.00 0.00 0.00 0.00 0.00 0.00 0.00 0.00 0.00 0.00 0.00 0.00 0.00 0.00 0.00 0.00 0.01 0.04 0.09 0.27 0.20 0.06 0.04 0.01 0.07 0.05 0.05
0.19 0.04 0.02 0.03 0.02 0.01 0.06 0.00 0.00 0.02 0.06 0.08 0.04 0.05 0.00 0.00 0.00 0.00 0.00 0.00 0.00 0.00 0.00 0.00 0.00 0.00 0.00 0.00 0.00 0.00 0.01 0.03 0.05 0.08 0.10 0.16 0.13 0.07 0.02 0.02 0.09 0.15 0.14 0.16
0.29 0.21 0.24 0.21 0.05 0.02 0.05 0.00 0.00 0.01 0.02 0.06 0.05 0.10 0.01 0.00 0.01 0.00 0.00 0.01 0.00 0.00 0.00 0.00 0.00 0.00 0.00 0.00 0.00 0.00 0.00 0.01 0.03 0.07 0.09 0.24 0.25 0.24 0.20 0.27 0.41 0.44 0.46 0.50
0.09 0.02 0.05 0.05 0.00 0.01 0.02 0.02 0.02 0.05 0.09 0.19 0.03 0.05 0.02 0.01 0.10 0.08 0.12 0.08 0.04 0.03 0.01 0.01 0.00 0.00 0.00 0.01 0.01 0.01 0.00 0.00 0.02 0.12 0.12 0.16 0.17 0.20 0.22 0.26 0.34 0.43 0.52 0.71
0.05 0.05 0.04 0.02 0.12 0.05 0.05 0.04 0.12 0.14 0.14 0.09 0.02 0.03 0.01 0.17 0.24 0.35 0.32 0.30 0.29 0.10 0.08 0.06 0.03 0.02 0.00 0.01 0.04 0.08 0.04 0.01 0.02 0.12 0.26 0.25 0.25 0.29 0.14 0.15 0.22 0.23 0.30 0.20
0.05 0.18 0.06 0.04 0.27 0.11 0.04 0.04 0.06 0.19 0.10 0.09 0.07 0.07 0.12 0.40 0.31 0.65 0.33 0.59 0.42 0.19 0.18 0.12 0.09 0.08 0.08 0.06 0.03 0.03 0.06 0.08 0.07 0.16 0.33 0.36 0.32 0.48 0.28 0.17 0.26 0.17 0.17 0.08
0.14 0.16 0.06 0.03 0.05 0.07 0.07 0.07 0.04 0.16 0.17 0.21 0.08 0.08 0.26 0.27 0.14 0.61 0.41 0.52 0.77 0.28 0.31 0.29 0.24 0.21 0.18 0.17 0.09 0.05 0.05 0.11 0.13 0.17 0.31 0.37 0.43 0.50 0.38 0.29 0.36 0.30 0.18 0.07
0.14 0.16 0.07 0.12 0.08 0.05 0.04 0.03 0.10 0.20 0.42 0.35 0.17 0.19 0.38 0.30 0.17 0.40 0.93 0.64 0.84 0.48 0.39 0.41 0.47 0.41 0.24 0.25 0.16 0.13 0.13 0.13 0.13 0.15 0.21 0.27 0.30 0.37 0.39 0.27 0.19 0.14 0.10 0.07
0.06 0.19 0.10 0.16 0.26 0.06 0.04 0.06 0.10 0.19 0.21 0.36 0.49 0.60 0.84 0.54 0.36 0.36 0.53 1.10 0.70 0.75 0.50 0.58 0.89 0.79 0.43 0.33 0.24 0.15 0.16 0.17 0.11 0.10 0.13 0.21 0.19 0.16 0.16 0.16 0.19 0.14 0.08 0.04
0.03 0.06 0.08 0.02 0.08 0.03 0.05 0.08 0.09 0.28 0.26 0.32 0.57 1.40 1.08 0.69 0.53 0.51 0.54 0.99 1.09 0.83 0.78 0.55 0.46 0.57 0.75 0.48 0.19 0.11 0.08 0.16 0.09 0.06 0.09 0.12 0.16 0.11 0.07 0.05 0.03 0.06 0.06 0.03
0.02 0.14 0.36 0.23 0.06 0.03 0.08 0.06 0.13 0.26 0.21 0.37 0.74 1.47 1.55 1.05 0.79 0.71 0.96 0.73 0.74 0.90 0.94 1.06 0.90 0.63 0.36 0.46 0.27 0.10 0.10 0.25 0.12 0.05 0.09 0.06 0.10 0.08 0.11 0.07 0.04 0.04 0.04 0.03
0.03 0.09 0.35 0.62 0.47 0.44 0.17 0.04 0.05 0.10 0.20 0.42 0.63 1.60 1.43 1.81 1.58 1.26 0.93 1.02 0.87 0.81 0.79 0.91 0.90 1.12 1.01 0.48 0.35 0.31 0.11 0.27 0.21 0.10 0.07 0.09 0.05 0.05 0.08 0.09 0.08 0.07 0.05 0.03
0.01 0.04 0.10 0.09 0.15 0.62 0.46 0.13 0.13 0.17 0.10 0.20 0.59 0.61 0.94 1.64 1.86 1.73 1.68 1.16 0.88 0.73 0.64 0.71 0.74 0.57 0.68 0.78 0.52 0.37 0.36 0.17 0.17 0.15 0.10 0.05 0.04 0.04 0.05 0.07 0.08 0.07 0.06 0.04
0.00 0.02 0.01 0.02 0.07 0.40 0.40 0.14 0.09 0.13 0.15 0.25 0.42 0.41 0.99 0.74 0.49 0.42 0.53 0.79 0.58 0.56 0.48 0.33 0.31 0.24 0.12 0.12 0.19 0.14 0.21 0.21 0.14 0.17 0.10 0.05 0.05 0.10 0.12 0.10 0.09 0.10 0.10 0.07
0.01 0.01 0.01 0.04 0.05 0.36 0.71 0.74 0.50 0.36 0.44 0.30 0.36 0.54 0.76 0.35 0.08 0.03 0.02 0.06 0.15 0.20 0.19 0.14 0.06 0.04 0.04 0.02 0.01 0.01 0.03 0.07 0.06 0.08 0.11 0.07 0.09 0.18 0.20 0.14 0.11 0.13 0.14 0.12
0.01 0.02 0.01 0.02 0.09 0.46 0.79 0.59 0.65 0.87 0.62 0.75 0.71 0.72 0.51 0.25 0.07 0.00 0.01 0.01 0.02 0.02 0.03 0.04 0.05 0.03 0.02 0.01 0.01 0.01 0.05 0.09 0.14 0.16 0.17 0.18 0.18 0.21 0.28 0.20 0.16 0.15 0.17 0.18
0.02 0.03 0.04 0.04 0.08 0.34 0.19 0.01 0.09 0.24 0.23 0.23 0.34 0.32 0.15 0.09 0.05 0.03 0.01 0.01 0.01 0.02 0.02 0.02 0.02 0.01 0.01 0.01 0.02 0.08 0.12 0.15 0.15 0.17 0.15 0.16 0.21 0.21 0.30 0.29 0.25 0.23 0.22 0.26
0.07 0.07 0.05 0.03 0.06 0.15 0.13 0.00 0.02 0.11 0.34 0.26 0.14 0.12 0.07 0.04 0.04 0.04 0.02 0.01 0.00 0.00 0.00 0.01 0.00 0.01 0.01 0.03 0.04 0.18 0.27 0.29 0.31 0.29 0.26 0.24 0.22 0.23 0.29 0.25 0.38 0.43 0.32 0.27
0.06 0.05 0.04 0.03 0.09 0.18 0.03 0.00 0.01 0.16 0.37 0.26 0.16 0.15 0.03 0.02 0.04 0.05 0.02 0.00 0.00 0.00 0.00 0.01 0.01 0.01 0.04 0.08 0.09 0.17 0.34 0.47 0.57 0.59 0.46 0.43 0.40 0.34 0.37 0.35 0.29 0.44 0.44 0.31
0.24 0.12 0.16 0.16 0.17 0.23 0.05 0.01 0.12 0.40 0.23 0.15 0.12 0.09 0.03 0.03 0.03 0.01 0.00 0.00 0.00 0.00 0.01 0.02 0.02 0.02 0.04 0.09 0.17 0.28 0.40 0.60 0.71 0.82 0.84 0.77 0.86 0.76 0.65 0.62 0.55 0.39 0.50 0.72
0.26 0.04 0.05 0.12 0.20 0.13 0.04 0.09 0.14 0.10 0.07 0.04 0.03 0.02 0.02 0.01 0.01 0.00 0.00 0.00 0.00 0.01 0.02 0.04 0.05 0.06 0.07 0.10 0.19 0.30 0.49 0.63 0.74 0.75 0.99 1.09 1.13 1.42 1.23 1.05 0.91 0.81 0.61 0.54
0.13 0.01 0.02 0.05 0.04 0.01 0.01 0.02 0.03 0.04 0.04 0.01 0.02 0.01 0.00 0.01 0.00 0.00 0.00 0.00 0.00 0.01 0.01 0.04 0.07 0.10 0.14 0.15 0.16 0.20 0.23 0.31 0.46 0.60 0.69 0.88 1.13 1.31 1.54 1.60 1.54 1.29 1.13 0.90
0.02 0.00 0.01 0.05 0.03 0.06 0.03 0.03 0.05 0.05 0.03 0.01 0.00 0.00 0.00 0.00 0.01 0.00 0.00 0.00 0.00 0.00 0.00 0.01 0.05 0.08 0.12 0.14 0.13 0.12 0.12 0.12 0.19 0.27 0.30 0.34 0.53 0.80 1.14 1.52 1.83 1.85 1.81 1.56
0.01 0.00 0.01 0.03 0.02 0.06 0.06 0.07 0.07 0.06 0.03 0.01 0.01 0.01 0.01 0.00 0.01 0.01 0.00 0.01 0.01 0.00 0.00 0.00 0.01 0.03 0.04 0.04 0.06 0.06 0.06 0.05 0.06 0.12 0.17 0.22 0.26 0.38 0.55 0.83 1.12 1.46 1.76 1.72

GFSCGP_prec_precacc24_138.txt.gz
Total_Precipitation_Accumulation
0.00 0.00 0.00 0.00 0.00 0.00 0.00 0.00 0.00 0.00 0.00 0.00 0.00 0.00 0.00 0.00 0.00 0.00 0.00 0.00 0.00 0.00 0.00 0.00 0.00 0.00 0.00 0.00 0.00 0.00 0.00 0.00 0.00 0.02 0.09 0.09 0.06 0.07 0.08 0.00 0.00 0.00 0.00 0.00
0.00 0.01 0.00 0.00 0.00 0.00 0.00 0.00 0.00 0.00 0.00 0.00 0.00 0.00 0.00 0.00 0.00 0.00 0.00 0.00 0.00 0.00 0.00 0.00 0.00 0.00 0.00 0.00 0.00 0.00 0.00 0.00 0.00 0.00 0.03 0.12 0.19 0.16 0.08 0.05 0.00 0.00 0.00 0.01
0.01 0.01 0.00 0.00 0.00 0.00 0.00 0.00 0.00 0.00 0.00 0.01 0.02 0.01 0.00 0.00 0.00 0.00 0.00 0.00 0.00 0.00 0.00 0.00 0.00 0.00 0.00 0.00 0.00 0.00 0.00 0.00 0.00 0.01 0.06 0.21 0.48 0.45 0.27 0.14 0.01 0.07 0.05 0.05
0.12 0.03 0.02 0.03 0.02 0.01 0.06 0.00 0.00 0.01 0.04 0.05 0.04 0.05 0.00 0.00 0.00 0.00 0.00 0.00 0.00 0.00 0.00 0.00 0.00 0.00 0.00 0.00 0.00 0.00 0.01 0.03 0.05 0.08 0.11 0.24 0.24 0.16 0.06 0.06 0.11 0.14 0.14 0.16
0.13 0.19 0.24 0.21 0.05 0.02 0.05 0.00 0.00 0.01 0.02 0.06 0.05 0.10 0.01 0.00 0.01 0.00 0.00 0.01 0.00 0.00 0.00 0.00 0.00 0.00 0.00 0.00 0.00 0.00 0.00 0.01 0.03 0.07 0.09 0.28 0.37 0.35 0.31 0.40 0.52 0.45 0.45 0.50
0.05 0.02 0.04 0.05 0.00 0.01 0.02 0.02 0.02 0.05 0.09 0.18 0.03 0.05 0.02 0.01 0.10 0.08 0.12 0.08 0.04 0.03 0.01 0.01 0.00 0.00 0.00 0.01 0.01 0.01 0.00 0.00 0.02 0.12 0.12 0.18 0.25 0.35 0.41 0.41 0.46 0.49 0.52 0.70
0.03 0.03 0.04 0.02 0.12 0.05 0.05 0.04 0.11 0.14 0.14 0.08 0.02 0.03 0.01 0.17 0.24 0.35 0.32 0.30 0.29 0.11 0.08 0.06 0.03 0.02 0.01 0.01 0.04 0.08 0.04 0.01 0.02 0.12 0.26 0.28 0.33 0.44 0.36 0.28 0.29 0.26 0.30 0.20
0.01 0.08 0.03 0.04 0.27 0.11 0.04 0.04 0.06 0.19 0.10 0.09 0.07 0.08 0.12 0.40 0.31 0.65 0.33 0.59 0.42 0.19 0.18 0.12 0.10 0.08 0.09 0.06 0.03 0.03 0.06 0.09 0.08 0.16 0.33 0.46 0.44 0.66 0.49 0.38 0.33 0.19 0.17 0.09
0.10 0.13 0.04 0.03 0.05 0.07 0.07 0.07 0.04 0.16 0.17 0.20 0.07 0.11 0.27 0.27 0.14 0.61 0.41 0.52 0.77 0.28 0.31 0.30 0.25 0.23 0.20 0.19 0.13 0.10 0.11 0.16 0.20 0.22 0.33 0.55 0.73 0.78 0.78 0.68 0.77 0.58 0.36 0.14
0.07 0.09 0.06 0.10 0.07 0.05 0.04 0.03 0.09 0.21 0.42 0.35 0.16 0.21 0.39 0.30 0.17 0.40 0.93 0.64 0.84 0.48 0.39 0.42 0.52 0.49 0.33 0.31 0.23 0.20 0.21 0.22 0.24 0.29 0.26 0.46 0.72 0.79 0.79 0.81 0.62 0.55 0.30 0.22
0.03 0.10 0.07 0.16 0.25 0.06 0.04 0.07 0.10 0.19 0.21 0.37 0.50 0.62 0.84 0.54 0.36 0.34 0.53 1.10 0.71 0.75 0.52 0.61 0.95 0.94 0.65 0.58 0.46 0.37 0.35 0.31 0.20 0.20 0.20 0.33 0.63 0.63 0.77 0.81 0.65 0.63 0.36 0.20
0.00 0.03 0.03 0.02 0.08 0.03 0.05 0.08 0.09 0.28 0.26 0.36 0.68 1.51 1.08 0.68 0.53 0.51 0.54 0.98 1.09 0.84 0.81 0.60 0.56 0.77 1.11 1.04 0.64 0.42 0.31 0.38 0.26 0.17 0.18 0.25 0.38 0.60 0.63 0.62 0.44 0.28 0.36 0.30
0.01 0.04 0.09 0.11 0.03 0.03 0.08 0.06 0.13 0.26 0.22 0.37 0.78 1.51 1.54 1.04 0.77 0.71 0.95 0.73 0.74 0.90 0.95 1.09 0.97 0.76 0.58 0.85 0.92 0.55 0.38 0.48 0.37 0.15 0.19 0.21 0.36 0.62 0.65 0.57 0.47 0.47 0.34 0.13
0.01 0.05 0.17 0.27 0.31 0.41 0.16 0.04 0.05 0.10 0.22 0.48 0.74 1.62 1.43 1.78 1.50 1.25 0.93 1.01 0.88 0.81 0.80 0.92 0.92 1.17 1.12 0.65 0.73 0.69 0.48 0.73 0.61 0.25 0.17 0.20 0.27 0.37 0.47 0.33 0.40 0.54 0.66 0.33
0.00 0.01 0.01 0.01 0.13 0.49 0.41 0.10 0.12 0.17 0.10 0.21 0.61 0.60 0.88 1.46 1.58 1.71 1.67 1.16 0.88 0.73 0.64 0.71 0.75 0.57 0.69 0.81 0.66 0.53 0.54 0.40 0.56 0.37 0.24 0.21 0.16 0.19 0.21 0.19 0.17 0.27 0.26 0.31
0.00 0.00 0.00 0.02 0.07 0.38 0.38 0.12 0.06 0.11 0.14 0.25 0.45 0.40 0.76 0.58 0.46 0.41 0.53 0.79 0.58 0.56 0.48 0.33 0.31 0.24 0.12 0.12 0.20 0.15 0.24 0.24 0.19 0.26 0.18 0.21 0.15 0.07 0.08 0.10 0.13 0.18 0.19 0.13
0.00 0.01 0.01 0.03 0.05 0.36 0.71 0.73 0.49 0.35 0.43 0.29 0.33 0.46 0.69 0.34 0.08 0.03 0.02 0.06 0.15 0.20 0.19 0.14 0.05 0.04 0.04 0.02 0.01 0.01 0.01 0.02 0.02 0.04 0.09 0.07 0.04 0.04 0.06 0.06 0.08 0.14 0.16 0.13
0.00 0.01 0.01 0.02 0.10 0.47 0.77 0.59 0.65 0.86 0.59 0.74 0.69 0.70 0.51 0.25 0.07 0.00 0.01 0.01 0.02 0.02 0.03 0.04 0.05 0.03 0.02 0.01 0.01 0.00 0.00 0.00 0.00 0.02 0.04 0.09 0.09 0.06 0.13 0.11 0.10 0.13 0.16 0.17
0.02 0.02 0.02 0.02 0.08 0.34 0.16 0.01 0.09 0.21 0.20 0.22 0.33 0.33 0.15 0.09 0.06 0.05 0.01 0.01 0.01 0.02 0.02 0.02 0.02 0.01 0.01 0.01 0.01 0.00 0.00 0.00 0.00 0.03 0.05 0.06 0.08 0.10 0.20 0.24 0.23 0.21 0.21 0.25
0.06 0.06 0.03 0.02 0.04 0.13 0.06 0.00 0.01 0.08 0.18 0.14 0.13 0.12 0.07 0.03 0.05 0.06 0.02 0.01 0.00 0.00 0.00 0.00 0.00 0.00 0.01 0.01 0.01 0.01 0.01 0.01 0.05 0.11 0.11 0.10 0.13 0.15 0.24 0.23 0.37 0.42 0.31 0.26
0.03 0.02 0.02 0.02 0.06 0.12 0.02 0.00 0.01 0.11 0.24 0.10 0.12 0.14 0.03 0.03 0.04 0.05 0.02 0.00 0.00 0.00 0.00 0.00 0.00 0.01 0.02 0.02 0.02 0.02 0.02 0.06 0.16 0.26 0.25 0.21 0.22 0.27 0.30 0.32 0.28 0.43 0.43 0.31
0.10 0.02 0.02 0.03 0.05 0.12 0.03 0.01 0.09 0.28 0.13 0.04 0.07 0.09 0.03 0.03 0.03 0.01 0.00 0.00 0.00 0.00 0.01 0.01 0.01 0.02 0.02 0.02 0.03 0.03 0.07 0.11 0.17 0.31 0.40 0.35 0.36 0.41 0.48 0.46 0.46 0.37 0.49 0.71
0.22 0.02 0.04 0.05 0.07 0.08 0.03 0.08 0.13 0.08 0.05 0.03 0.02 0.02 0.02 0.01 0.01 0.00 0.00 0.00 0.00 0.01 0.01 0.01 0.01 0.02 0.02 0.02 0.05 0.05 0.08 0.12 0.17 0.30 0.46 0.47 0.61 0.76 0.66 0.69 0.58 0.63 0.55 0.51
0.06 0.01 0.01 0.04 0.03 0.01 0.01 0.01 0.03 0.03 0.03 0.01 0.02 0.01 0.00 0.01 0.00 0.00 0.00 0.00 0.00 0.00 0.01 0.01 0.01 0.02 0.03 0.03 0.04 0.08 0.09 0.11 0.17 0.25 0.32 0.45 0.61 0.85 1.02 1.12 1.10 0.98 0.97 0.82
0.01 0.00 0.01 0.03 0.03 0.05 0.02 0.01 0.02 0.02 0.02 0.01 0.00 0.00 0.00 0.00 0.01 0.00 0.00 0.00 0.00 0.00 0.00 0.00 0.01 0.02 0.03 0.03 0.03 0.04 0.06 0.08 0.12 0.21 0.26 0.29 0.42 0.65 0.96 1.28 1.60 1.68 1.71 1.49
0.01 0.00 0.00 0.01 0.01 0.04 0.04 0.03 0.02 0.03 0.02 0.01 0.01 0.01 0.01 0.00 0.01 0.01 0.00 0.01 0.01 0.00 0.00 0.00 0.01 0.01 0.02 0.02 0.02 0.02 0.03 0.03 0.05 0.10 0.16 0.21 0.26 0.38 0.54 0.82 1.09 1.42 1.73 1.68

GFSCGP_prec_precacc24_141.txt.gz
Total_Precipitation_Accumulation
0.00 0.00 0.00 0.00 0.00 0.00 0.00 0.00 0.00 0.00 0.00 0.00 0.00 0.00 0.00 0.00 0.00 0.00 0.00 0.00 0.00 0.00 0.00 0.00 0.00 0.00 0.00 0.00 0.00 0.00 0.00 0.00 0.00 0.02 0.09 0.10 0.09 0.12 0.23 0.14 0.15 0.16 0.14 0.02
0.00 0.00 0.00 0.00 0.00 0.00 0.00 0.00 0.00 0.00 0.00 0.00 0.00 0.00 0.00 0.00 0.00 0.00 0.00 0.00 0.00 0.00 0.00 0.00 0.00 0.00 0.00 0.00 0.00 0.00 0.00 0.00 0.00 0.00 0.03 0.12 0.19 0.22 0.23 0.20 0.25 0.19 0.20 0.14
0.00 0.00 0.00 0.00 0.00 0.00 0.00 0.00 0.00 0.00 0.00 0.00 0.02 0.01 0.00 0.00 0.00 0.00 0.00 0.00 0.00 0.00 0.00 0.00 0.00 0.00 0.00 0.00 0.00 0.00 0.00 0.00 0.00 0.01 0.06 0.21 0.48 0.50 0.41 0.29 0.20 0.25 0.34 0.29
0.00 0.00 0.00 0.02 0.01 0.01 0.06 0.00 0.00 0.01 0.04 0.04 0.04 0.05 0.00 0.00 0.00 0.00 0.00 0.00 0.00 0.00 0.00 0.00 0.00 0.00 0.00 0.00 0.00 0.00 0.01 0.03 0.05 0.08 0.11 0.24 0.24 0.17 0.10 0.09 0.14 0.19 0.29 0.39
0.00 0.00 0.02 0.13 0.05 0.02 0.05 0.00 0.00 0.01 0.01 0.04 0.04 0.09 0.01 0.00 0.01 0.00 0.00 0.01 0.00 0.00 0.00 0.00 0.00 0.00 0.00 0.00 0.00 0.00 0.00 0.01 0.03 0.07 0.09 0.28 0.37 0.35 0.34 0.49 0.68 0.76 0.73 0.75
0.00 0.00 0.00 0.01 0.00 0.01 0.02 0.02 0.01 0.03 0.07 0.16 0.03 0.05 0.02 0.01 0.10 0.08 0.12 0.08 0.04 0.03 0.01 0.01 0.00 0.00 0.00 0.01 0.01 0.01 0.00 0.00 0.02 0.12 0.12 0.18 0.25 0.35 0.42 0.46 0.58 0.75 0.90 1.02
0.00 0.00 0.01 0.00 0.11 0.04 0.05 0.03 0.05 0.09 0.12 0.08 0.02 0.03 0.01 0.17 0.24 0.35 0.32 0.30 0.29 0.11 0.08 0.06 0.03 0.02 0.01 0.01 0.04 0.08 0.04 0.01 0.02 0.12 0.26 0.28 0.33 0.44 0.36 0.29 0.37 0.43 0.58 0.45
0.00 0.01 0.01 0.03 0.24 0.11 0.04 0.03 0.04 0.16 0.10 0.09 0.07 0.08 0.12 0.40 0.31 0.65 0.33 0.59 0.42 0.19 0.18 0.12 0.10 0.08 0.09 0.07 0.03 0.04 0.06 0.09 0.08 0.16 0.33 0.46 0.43 0.66 0.49 0.41 0.47 0.32 0.32 0.37
0.03 0.02 0.00 0.02 0.03 0.06 0.07 0.07 0.03 0.15 0.16 0.19 0.07 0.11 0.27 0.27 0.14 0.60 0.40 0.52 0.76 0.28 0.31 0.30 0.25 0.23 0.21 0.21 0.14 0.12 0.11 0.16 0.20 0.22 0.33 0.55 0.73 0.78 0.77 0.69 1.06 1.02 0.63 0.47
0.02 0.03 0.02 0.03 0.04 0.05 0.04 0.03 0.07 0.19 0.40 0.30 0.14 0.21 0.39 0.30 0.17 0.38 0.92 0.61 0.81 0.47 0.39 0.42 0.52 0.50 0.35 0.35 0.26 0.21 0.22 0.23 0.25 0.31 0.39 0.54 0.73 0.80 0.79 0.81 0.80 1.07 1.07 0.78
0.01 0.03 0.01 0.07 0.21 0.04 0.04 0.06 0.10 0.18 0.21 0.36 0.41 0.53 0.85 0.54 0.35 0.33 0.50 1.03 0.64 0.74 0.51 0.61 0.95 0.94 0.66 0.60 0.48 0.39 0.38 0.36 0.26 0.25 0.31 0.49 0.73 0.67 0.78 0.84 0.77 1.05 1.29 1.09
0.00 0.02 0.01 0.00 0.06 0.02 0.04 0.07 0.09 0.28 0.26 0.36 0.68 1.46 1.09 0.67 0.49 0.48 0.48 0.95 1.06 0.83 0.80 0.60 0.56 0.77 1.11 1.05 0.70 0.52 0.42 0.49 0.46 0.40 0.37 0.43 0.56 0.69 0.65 0.64 0.60 0.41 1.26 1.53
0.00 0.02 0.02 0.01 0.01 0.03 0.07 0.06 0.13 0.26 0.21 0.37 0.80 1.52 1.54 1.02 0.68 0.51 0.93 0.72 0.72 0.89 0.94 1.09 0.97 0.76 0.58 0.87 1.00 0.70 0.53 0.69 0.71 0.51 0.48 0.40 0.46 0.67 0.73 0.70 0.68 0.76 0.66 1.15
0.00 0.01 0.04 0.02 0.02 0.23 0.14 0.04 0.05 0.10 0.22 0.48 0.75 1.60 1.40 1.54 1.40 1.12 0.91 1.00 0.87 0.81 0.80 0.92 0.92 1.17 1.12 0.66 0.78 0.80 0.65 1.01 0.92 0.66 0.56 0.50 0.50 0.42 0.56 0.71 0.80 1.01 1.10 1.04
0.00 0.00 0.00 0.00 0.05 0.33 0.38 0.10 0.12 0.17 0.10 0.21 0.61 0.57 0.84 1.25 1.34 1.55 1.64 1.16 0.88 0.73 0.64 0.71 0.75 0.57 0.69 0.81 0.66 0.54 0.60 0.53 0.71 0.69 0.49 0.39 0.43 0.41 0.28 0.30 0.41 0.73 0.75 0.83
0.00 0.00 0.00 0.01 0.06 0.35 0.37 0.11 0.06 0.11 0.14 0.25 0.44 0.33 0.73 0.46 0.32 0.30 0.51 0.79 0.58 0.56 0.48 0.33 0.31 0.24 0.12 0.12 0.20 0.15 0.24 0.26 0.22 0.30 0.23 0.29 0.22 0.18 0.20 0.23 0.22 0.31 0.52 0.60
0.00 0.00 0.01 0.02 0.05 0.36 0.59 0.60 0.39 0.24 0.25 0.25 0.28 0.39 0.59 0.22 0.05 0.02 0.02 0.06 0.15 0.20 0.19 0.14 0.05 0.04 0.04 0.02 0.01 0.01 0.02 0.02 0.02 0.05 0.08 0.06 0.05 0.06 0.05 0.08 0.11 0.15 0.27 0.36
0.00 0.00 0.00 0.03 0.10 0.44 0.64 0.56 0.60 0.72 0.49 0.67 0.63 0.64 0.47 0.22 0.07 0.00 0.01 0.01 0.02 0.02 0.03 0.04 0.05 0.03 0.02 0.01 0.01 0.00 0.00 0.00 0.00 0.00 0.00 0.02 0.02 0.02 0.03 0.03 0.02 0.04 0.10 0.14
0.01 0.01 0.01 0.04 0.09 0.31 0.13 0.01 0.09 0.20 0.18 0.20 0.28 0.29 0.15 0.09 0.06 0.06 0.01 0.01 0.01 0.02 0.02 0.02 0.02 0.01 0.01 0.01 0.01 0.00 0.01 0.01 0.00 0.01 0.01 0.00 0.02 0.04 0.07 0.09 0.08 0.10 0.14 0.20
0.03 0.03 0.02 0.01 0.03 0.10 0.05 0.00 0.01 0.08 0.14 0.04 0.03 0.07 0.06 0.03 0.06 0.08 0.02 0.01 0.00 0.00 0.00 0.00 0.00 0.00 0.01 0.02 0.01 0.01 0.01 0.01 0.02 0.02 0.02 0.01 0.03 0.07 0.10 0.12 0.23 0.25 0.23 0.22
0.02 0.00 0.01 0.01 0.04 0.07 0.01 0.00 0.01 0.09 0.18 0.06 0.03 0.06 0.03 0.03 0.04 0.05 0.02 0.00 0.00 0.00 0.00 0.00 0.00 0.00 0.01 0.02 0.02 0.02 0.02 0.03 0.03 0.02 0.01 0.03 0.04 0.12 0.17 0.21 0.18 0.35 0.38 0.26
0.04 0.01 0.01 0.01 0.01 0.04 0.01 0.00 0.07 0.21 0.10 0.03 0.02 0.03 0.03 0.03 0.03 0.01 0.00 0.00 0.00 0.00 0.00 0.00 0.00 0.01 0.01 0.01 0.02 0.02 0.03 0.02 0.01 0.02 0.02 0.06 0.10 0.16 0.25 0.29 0.33 0.29 0.44 0.66
0.10 0.01 0.01 0.02 0.03 0.03 0.02 0.05 0.09 0.07 0.04 0.03 0.02 0.01 0.02 0.01 0.01 0.00 0.00 0.00 0.00 0.00 0.00 0.00 0.00 0.01 0.01 0.01 0.02 0.03 0.03 0.02 0.00 0.02 0.05 0.10 0.15 0.21 0.24 0.36 0.33 0.48 0.47 0.47
0.02 0.00 0.00 0.02 0.02 0.01 0.01 0.01 0.01 0.03 0.03 0.01 0.02 0.01 0.00 0.01 0.00 0.00 0.00 0.00 0.00 0.00 0.01 0.00 0.01 0.01 0.02 0.01 0.01 0.03 0.02 0.01 0.01 0.02 0.06 0.12 0.17 0.27 0.41 0.45 0.56 0.58 0.67 0.66
0.00 0.00 0.00 0.02 0.02 0.02 0.01 0.01 0.00 0.02 0.01 0.01 0.00 0.00 0.00 0.00 0.01 0.00 0.00 0.00 0.00 0.00 0.00 0.00 0.01 0.01 0.02 0.01 0.01 0.01 0.01 0.01 0.01 0.03 0.05 0.10 0.17 0.28 0.48 0.71 0.97 0.94 1.04 1.01
0.00 0.00 0.00 0.01 0.01 0.02 0.02 0.02 0.01 0.01 0.01 0.01 0.01 0.01 0.01 0.00 0.01 0.01 0.00 0.01 0.01 0.00 0.00 0.00 0.01 0.01 0.02 0.01 0.01 0.01 0.02 0.02 0.01 0.02 0.04 0.08 0.13 0.23 0.36 0.58 0.79 1.07 1.26 1.22

GFSCGP_prec_precacc24_144.txt.gz
Total_Precipitation_Accumulation
0.00 0.00 0.00 0.00 0.00 0.00 0.00 0.00 0.00 0.00 0.00 0.00 0.00 0.00 0.00 0.00 0.00 0.00 0.00 0.00 0.00 0.00 0.00 0.00 0.00 0.00 0.00 0.00 0.00 0.00 0.00 0.00 0.00 0.02 0.09 0.10 0.09 0.12 0.23 0.15 0.20 0.33 0.47 0.54
0.00 0.00 0.00 0.00 0.00 0.00 0.00 0.00 0.00 0.00 0.00 0.00 0.00 0.00 0.00 0.00 0.00 0.00 0.00 0.00 0.00 0.00 0.00 0.00 0.00 0.00 0.00 0.00 0.00 0.00 0.00 0.00 0.00 0.00 0.02 0.08 0.12 0.19 0.23 0.19 0.25 0.23 0.37 0.46
0.00 0.00 0.00 0.00 0.00 0.00 0.00 0.00 0.00 0.00 0.00 0.00 0.00 0.00 0.00 0.00 0.00 0.00 0.00 0.00 0.00 0.00 0.00 0.00 0.00 0.00 0.00 0.00 0.00 0.00 0.00 0.00 0.00 0.00 0.02 0.15 0.41 0.48 0.40 0.27 0.19 0.24 0.38 0.50
0.00 0.00 0.00 0.00 0.00 0.00 0.02 0.00 0.00 0.01 0.04 0.03 0.01 0.03 0.00 0.00 0.00 0.00 0.00 0.00 0.00 0.00 0.00 0.00 0.00 0.00 0.00 0.00 0.00 0.00 0.00 0.02 0.03 0.05 0.07 0.21 0.24 0.17 0.10 0.09 0.13 0.19 0.29 0.47
0.00 0.00 0.00 0.00 0.00 0.00 0.01 0.00 0.00 0.00 0.01 0.03 0.01 0.06 0.01 0.00 0.01 0.00 0.00 0.01 0.00 0.00 0.00 0.00 0.00 0.00 0.00 0.00 0.00 0.00 0.00 0.01 0.03 0.07 0.09 0.28 0.36 0.34 0.34 0.49 0.68 0.76 0.73 0.78
0.00 0.00 0.00 0.00 0.00 0.00 0.00 0.00 0.00 0.01 0.04 0.10 0.02 0.04 0.02 0.01 0.10 0.08 0.12 0.08 0.04 0.03 0.01 0.01 0.00 0.00 0.00 0.01 0.01 0.01 0.00 0.00 0.02 0.12 0.12 0.18 0.26 0.36 0.43 0.47 0.58 0.74 0.89 1.02
0.00 0.00 0.00 0.00 0.06 0.01 0.00 0.01 0.02 0.02 0.04 0.03 0.01 0.02 0.01 0.17 0.24 0.35 0.31 0.30 0.29 0.11 0.08 0.06 0.03 0.02 0.01 0.01 0.04 0.08 0.04 0.01 0.02 0.12 0.26 0.28 0.34 0.45 0.37 0.29 0.36 0.42 0.57 0.44
0.00 0.00 0.00 0.00 0.03 0.03 0.01 0.02 0.02 0.04 0.05 0.08 0.06 0.07 0.12 0.40 0.31 0.65 0.32 0.57 0.42 0.19 0.18 0.12 0.10 0.08 0.09 0.07 0.03 0.04 0.06 0.09 0.08 0.16 0.33 0.46 0.44 0.66 0.49 0.41 0.46 0.32 0.32 0.36
0.01 0.01 0.00 0.00 0.00 0.03 0.06 0.07 0.02 0.08 0.11 0.17 0.07 0.11 0.27 0.27 0.14 0.60 0.40 0.52 0.76 0.28 0.31 0.30 0.25 0.23 0.21 0.21 0.14 0.12 0.12 0.17 0.21 0.22 0.33 0.55 0.73 0.78 0.77 0.68 1.05 1.01 0.63 0.47
0.01 0.02 0.00 0.00 0.01 0.03 0.04 0.03 0.06 0.14 0.36 0.26 0.10 0.20 0.38 0.29 0.17 0.38 0.92 0.61 0.81 0.47 0.39 0.42 0.52 0.50 0.35 0.35 0.26 0.21 0.23 0.24 0.26 0.31 0.39 0.54 0.73 0.80 0.79 0.82 0.79 1.06 1.07 0.78
0.00 0.01 0.00 0.00 0.10 0.01 0.01 0.05 0.09 0.15 0.19 0.30 0.31 0.47 0.82 0.49 0.33 0.29 0.50 1.03 0.62 0.73 0.51 0.61 0.95 0.94 0.66 0.60 0.48 0.40 0.39 0.38 0.28 0.27 0.33 0.50 0.75 0.70 0.82 0.87 0.79 1.05 1.29 1.08
0.00 0.01 0.01 0.00 0.02 0.01 0.01 0.03 0.07 0.24 0.21 0.32 0.64 1.29 0.93 0.59 0.46 0.42 0.41 0.94 1.02 0.81 0.80 0.60 0.56 0.77 1.11 1.05 0.70 0.52 0.43 0.51 0.49 0.45 0.42 0.48 0.67 0.85 0.82 0.79 0.71 0.45 1.27 1.54
0.00 0.01 0.01 0.00 0.01 0.01 0.01 0.04 0.11 0.21 0.17 0.36 0.78 1.16 1.19 0.91 0.62 0.49 0.82 0.68 0.67 0.79 0.91 1.08 0.97 0.76 0.58 0.87 1.00 0.71 0.53 0.70 0.73 0.58 0.57 0.52 0.62 0.84 0.89 0.91 0.87 0.83 0.78 1.21
0.00 0.00 0.01 0.01 0.01 0.22 0.13 0.03 0.04 0.06 0.20 0.48 0.72 1.32 1.28 1.38 1.21 0.91 0.83 0.98 0.82 0.75 0.78 0.92 0.92 1.17 1.12 0.66 0.78 0.80 0.66 1.02 0.94 0.72 0.69 0.70 0.75 0.69 0.76 0.87 1.00 1.14 1.15 1.06
0.00 0.01 0.00 0.00 0.03 0.25 0.31 0.09 0.12 0.17 0.09 0.20 0.57 0.52 0.76 1.10 1.12 1.27 1.22 1.06 0.88 0.72 0.64 0.71 0.75 0.57 0.69 0.81 0.66 0.54 0.61 0.53 0.71 0.71 0.55 0.48 0.57 0.75 0.56 0.48 0.61 0.84 0.78 0.83
0.00 0.00 0.00 0.01 0.05 0.25 0.27 0.10 0.05 0.11 0.14 0.24 0.41 0.26 0.58 0.42 0.25 0.14 0.27 0.69 0.58 0.56 0.48 0.33 0.31 0.24 0.12 0.12 0.20 0.16 0.24 0.26 0.22 0.30 0.24 0.32 0.27 0.32 0.36 0.40 0.33 0.35 0.50 0.59
0.00 0.00 0.01 0.02 0.05 0.32 0.33 0.33 0.36 0.22 0.20 0.24 0.27 0.36 0.47 0.14 0.03 0.02 0.02 0.06 0.15 0.20 0.19 0.14 0.06 0.04 0.05 0.02 0.02 0.01 0.02 0.02 0.02 0.05 0.08 0.06 0.05 0.06 0.05 0.08 0.12 0.15 0.23 0.34
0.00 0.00 0.00 0.03 0.10 0.31 0.33 0.27 0.34 0.33 0.25 0.47 0.47 0.43 0.31 0.11 0.07 0.00 0.01 0.01 0.02 0.02 0.03 0.04 0.05 0.03 0.02 0.01 0.01 0.00 0.01 0.00 0.00 0.00 0.00 0.02 0.02 0.01 0.01 0.01 0.01 0.01 0.02 0.04
0.00 0.00 0.01 0.05 0.10 0.19 0.05 0.01 0.07 0.14 0.12 0.10 0.15 0.16 0.09 0.08 0.06 0.06 0.01 0.01 0.01 0.02 0.02 0.02 0.02 0.01 0.01 0.01 0.01 0.00 0.01 0.01 0.01 0.01 0.01 0.00 0.01 0.00 0.00 0.00 0.01 0.02 0.03 0.02
0.00 0.00 0.01 0.01 0.05 0.09 0.04 0.00 0.01 0.07 0.12 0.03 0.02 0.03 0.02 0.01 0.06 0.08 0.02 0.01 0.00 0.00 0.00 0.00 0.00 0.00 0.01 0.02 0.01 0.01 0.02 0.01 0.03 0.03 0.02 0.01 0.01 0.01 0.00 0.01 0.02 0.02 0.05 0.06
0.01 0.01 0.01 0.01 0.03 0.04 0.01 0.00 0.01 0.07 0.13 0.04 0.03 0.04 0.02 0.02 0.04 0.05 0.02 0.00 0.00 0.00 0.00 0.00 0.00 0.00 0.02 0.02 0.01 0.01 0.02 0.04 0.04 0.02 0.01 0.01 0.00 0.02 0.01 0.02 0.03 0.04 0.09 0.09
0.01 0.01 0.01 0.01 0.01 0.03 0.01 0.00 0.04 0.11 0.07 0.02 0.01 0.03 0.03 0.03 0.03 0.01 0.00 0.00 0.00 0.00 0.00 0.00 0.00 0.01 0.01 0.01 0.01 0.02 0.04 0.03 0.01 0.00 0.00 0.01 0.01 0.02 0.03 0.03 0.06 0.07 0.15 0.31
0.02 0.01 0.01 0.01 0.02 0.02 0.01 0.03 0.05 0.04 0.03 0.03 0.02 0.01 0.02 0.01 0.01 0.00 0.00 0.00 0.00 0.00 0.00 0.00 0.00 0.01 0.01 0.01 0.02 0.03 0.03 0.01 0.00 0.00 0.00 0.01 0.01 0.01 0.03 0.07 0.07 0.15 0.18 0.27
0.00 0.00 0.00 0.01 0.01 0.00 0.00 0.00 0.01 0.02 0.02 0.01 0.02 0.01 0.00 0.01 0.00 0.00 0.00 0.00 0.00 0.00 0.00 0.00 0.00 0.01 0.02 0.01 0.01 0.02 0.01 0.01 0.00 0.01 0.01 0.01 0.01 0.02 0.06 0.12 0.16 0.20 0.31 0.41
0.00 0.00 0.00 0.02 0.02 0.02 0.01 0.00 0.00 0.01 0.01 0.01 0.00 0.00 0.00 0.00 0.01 0.00 0.00 0.00 0.00 0.00 0.00 0.00 0.01 0.01 0.02 0.01 0.01 0.01 0.01 0.01 0.00 0.00 0.01 0.01 0.02 0.04 0.11 0.22 0.41 0.47 0.54 0.55
0.00 0.00 0.00 0.01 0.01 0.01 0.02 0.01 0.01 0.01 0.00 0.01 0.01 0.01 0.01 0.00 0.01 0.01 0.00 0.01 0.01 0.00 0.00 0.00 0.01 0.01 0.02 0.01 0.01 0.01 0.02 0.03 0.01 0.01 0.01 0.01 0.02 0.05 0.10 0.20 0.32 0.52 0.72 0.71

GFSCGP_prec_precacc24_147.txt.gz
Total_Precipitation_Accumulation
0.00 0.00 0.00 0.00 0.00 0.00 0.00 0.00 0.00 0.00 0.00 0.00 0.00 0.00 0.00 0.00 0.00 0.00 0.00 0.00 0.00 0.00 0.00 0.00 0.00 0.00 0.00 0.00 0.00 0.00 0.00 0.00 0.00 0.02 0.09 0.10 0.09 0.12 0.23 0.15 0.20 0.33 0.47 0.61
0.00 0.00 0.00 0.00 0.00 0.00 0.00 0.00 0.00 0.00 0.00 0.00 0.00 0.00 0.00 0.00 0.00 0.00 0.00 0.00 0.00 0.00 0.00 0.00 0.00 0.00 0.00 0.00 0.00 0.00 0.00 0.00 0.00 0.00 0.02 0.08 0.12 0.18 0.22 0.18 0.25 0.23 0.37 0.46
0.00 0.00 0.00 0.00 0.00 0.00 0.00 0.00 0.00 0.00 0.00 0.00 0.00 0.00 0.00 0.00 0.00 0.00 0.00 0.00 0.00 0.00 0.00 0.00 0.00 0.00 0.00 0.00 0.00 0.00 0.00 0.00 0.00 0.00 0.02 0.14 0.24 0.33 0.36 0.26 0.19 0.21 0.35 0.49
0.00 0.00 0.00 0.00 0.00 0.00 0.00 0.00 0.00 0.01 0.04 0.02 0.00 0.02 0.00 0.00 0.00 0.00 0.00 0.00 0.00 0.00 0.00 0.00 0.00 0.00 0.00 0.00 0.00 0.00 0.00 0.00 0.00 0.00 0.01 0.12 0.14 0.13 0.10 0.08 0.11 0.16 0.28 0.47
0.00 0.00 0.00 0.00 0.00 0.00 0.00 0.00 0.00 0.00 0.01 0.02 0.00 0.01 0.00 0.00 0.00 0.00 0.00 0.01 0.00 0.00 0.00 0.00 0.00 0.00 0.00 0.00 0.00 0.00 0.00 0.00 0.00 0.00 0.00 0.16 0.23 0.18 0.27 0.49 0.66 0.75 0.73 0.78
0.00 0.00 0.00 0.00 0.00 0.00 0.00 0.00 0.00 0.00 0.01 0.02 0.00 0.01 0.00 0.01 0.10 0.08 0.12 0.08 0.04 0.03 0.01 0.01 0.00 0.00 0.00 0.01 0.01 0.01 0.00 0.00 0.02 0.10 0.09 0.15 0.22 0.29 0.36 0.42 0.57 0.72 0.88 1.02
0.00 0.00 0.00 0.00 0.00 0.00 0.00 0.00 0.00 0.00 0.01 0.00 0.00 0.01 0.01 0.16 0.23 0.34 0.30 0.28 0.29 0.11 0.08 0.06 0.03 0.02 0.01 0.01 0.04 0.08 0.04 0.01 0.02 0.12 0.26 0.27 0.33 0.44 0.37 0.29 0.36 0.41 0.52 0.41
0.00 0.00 0.00 0.00 0.00 0.00 0.00 0.02 0.02 0.01 0.02 0.03 0.00 0.05 0.10 0.39 0.31 0.64 0.31 0.56 0.41 0.18 0.18 0.12 0.10 0.08 0.09 0.07 0.03 0.04 0.06 0.09 0.08 0.16 0.33 0.46 0.44 0.66 0.49 0.41 0.46 0.34 0.33 0.36
0.00 0.00 0.00 0.00 0.00 0.02 0.05 0.05 0.02 0.04 0.02 0.11 0.04 0.08 0.23 0.25 0.14 0.60 0.39 0.51 0.74 0.28 0.30 0.29 0.25 0.23 0.21 0.21 0.14 0.12 0.12 0.17 0.21 0.22 0.33 0.55 0.73 0.79 0.78 0.69 1.05 1.02 0.64 0.48
0.00 0.00 0.00 0.00 0.00 0.01 0.01 0.02 0.05 0.10 0.17 0.22 0.05 0.17 0.32 0.25 0.17 0.38 0.92 0.61 0.80 0.47 0.39 0.42 0.52 0.50 0.35 0.35 0.26 0.21 0.23 0.24 0.26 0.31 0.39 0.54 0.74 0.81 0.79 0.82 0.79 1.06 1.07 0.79
0.00 0.01 0.00 0.00 0.01 0.00 0.00 0.02 0.05 0.10 0.14 0.24 0.25 0.42 0.70 0.39 0.32 0.29 0.50 1.03 0.62 0.73 0.51 0.61 0.95 0.94 0.66 0.60 0.48 0.40 0.39 0.38 0.28 0.28 0.34 0.51 0.77 0.71 0.82 0.88 0.79 1.06 1.30 1.10
0.00 0.01 0.01 0.00 0.00 0.00 0.00 0.01 0.06 0.21 0.17 0.18 0.50 0.99 0.62 0.47 0.44 0.42 0.41 0.94 1.02 0.81 0.80 0.60 0.56 0.77 1.11 1.05 0.70 0.52 0.43 0.51 0.49 0.45 0.42 0.50 0.68 0.85 0.83 0.80 0.73 0.49 1.30 1.57
0.00 0.02 0.01 0.00 0.01 0.01 0.01 0.01 0.07 0.17 0.13 0.30 0.64 0.60 0.70 0.68 0.52 0.41 0.59 0.61 0.64 0.78 0.90 1.07 0.97 0.76 0.58 0.87 1.00 0.71 0.53 0.70 0.73 0.58 0.57 0.53 0.62 0.85 0.92 0.94 0.97 0.96 0.87 1.39
0.00 0.01 0.01 0.00 0.00 0.16 0.10 0.03 0.03 0.03 0.14 0.47 0.61 0.62 0.69 0.97 0.82 0.66 0.56 0.62 0.67 0.69 0.68 0.86 0.87 1.14 1.11 0.66 0.78 0.80 0.66 1.02 0.94 0.72 0.69 0.70 0.76 0.72 0.83 0.94 1.16 1.40 1.44 1.36
0.00 0.01 0.01 0.00 0.02 0.13 0.19 0.08 0.12 0.16 0.08 0.19 0.48 0.26 0.42 0.54 0.69 0.80 0.95 0.82 0.67 0.61 0.52 0.66 0.73 0.55 0.68 0.81 0.66 0.54 0.61 0.53 0.71 0.71 0.55 0.48 0.58 0.79 0.62 0.57 0.74 1.13 1.08 1.11
0.00 0.00 0.01 0.02 0.04 0.17 0.16 0.07 0.05 0.10 0.12 0.21 0.39 0.17 0.26 0.27 0.21 0.11 0.19 0.41 0.48 0.55 0.47 0.32 0.31 0.24 0.12 0.12 0.20 0.16 0.24 0.26 0.22 0.30 0.24 0.32 0.27 0.33 0.38 0.43 0.41 0.45 0.62 0.75
0.01 0.02 0.05 0.04 0.05 0.26 0.26 0.14 0.18 0.17 0.16 0.17 0.21 0.26 0.20 0.08 0.03 0.01 0.01 0.04 0.11 0.18 0.19 0.14 0.06 0.04 0.05 0.02 0.02 0.01 0.02 0.02 0.02 0.05 0.08 0.06 0.05 0.06 0.05 0.09 0.12 0.15 0.23 0.35
0.03 0.04 0.03 0.05 0.10 0.24 0.17 0.08 0.17 0.22 0.16 0.22 0.28 0.24 0.15 0.08 0.07 0.00 0.01 0.01 0.01 0.02 0.03 0.04 0.05 0.03 0.02 0.01 0.01 0.00 0.01 0.00 0.00 0.00 0.00 0.02 0.02 0.01 0.01 0.01 0.00 0.00 0.01 0.02
0.00 0.01 0.02 0.07 0.10 0.09 0.02 0.00 0.04 0.11 0.09 0.05 0.07 0.07 0.05 0.08 0.06 0.06 0.01 0.01 0.01 0.02 0.02 0.02 0.02 0.01 0.01 0.01 0.01 0.00 0.01 0.01 0.01 0.01 0.01 0.01 0.02 0.00 0.00 0.00 0.00 0.00 0.00 0.00
0.00 0.00 0.01 0.03 0.06 0.09 0.04 0.00 0.01 0.07 0.11 0.02 0.01 0.02 0.01 0.00 0.06 0.08 0.02 0.01 0.00 0.00 0.00 0.00 0.00 0.00 0.01 0.02 0.01 0.01 0.02 0.01 0.03 0.03 0.02 0.01 0.02 0.01 0.00 0.00 0.00 0.00 0.00 0.00
0.01 0.01 0.02 0.01 0.03 0.04 0.00 0.00 0.01 0.06 0.10 0.03 0.02 0.03 0.02 0.02 0.04 0.05 0.02 0.00 0.00 0.00 0.00 0.00 0.00 0.00 0.02 0.02 0.01 0.01 0.02 0.04 0.04 0.02 0.01 0.01 0.00 0.02 0.01 0.00 0.00 0.00 0.00 0.01
0.01 0.01 0.01 0.01 0.01 0.03 0.00 0.00 0.02 0.07 0.06 0.02 0.01 0.03 0.03 0.03 0.03 0.01 0.00 0.00 0.00 0.00 0.00 0.00 0.00 0.01 0.01 0.01 0.01 0.02 0.04 0.03 0.01 0.00 0.00 0.01 0.01 0.02 0.03 0.00 0.00 0.00 0.00 0.02
0.01 0.00 0.01 0.01 0.02 0.02 0.00 0.02 0.03 0.03 0.02 0.02 0.01 0.01 0.02 0.01 0.01 0.00 0.00 0.00 0.00 0.00 0.00 0.00 0.00 0.01 0.01 0.01 0.02 0.03 0.03 0.01 0.00 0.00 0.00 0.01 0.01 0.01 0.03 0.02 0.01 0.01 0.02 0.02
0.00 0.00 0.00 0.00 0.01 0.00 0.00 0.00 0.00 0.01 0.01 0.01 0.01 0.01 0.00 0.01 0.00 0.00 0.00 0.00 0.00 0.00 0.00 0.00 0.00 0.01 0.01 0.01 0.01 0.02 0.01 0.01 0.00 0.01 0.01 0.00 0.01 0.01 0.02 0.05 0.03 0.04 0.07 0.07
0.00 0.00 0.00 0.01 0.02 0.01 0.01 0.00 0.00 0.01 0.01 0.01 0.00 0.00 0.00 0.00 0.00 0.00 0.00 0.00 0.00 0.00 0.00 0.00 0.00 0.01 0.02 0.01 0.01 0.01 0.01 0.01 0.00 0.00 0.01 0.00 0.01 0.01 0.01 0.05 0.16 0.12 0.19 0.23
0.00 0.00 0.00 0.01 0.00 0.01 0.02 0.01 0.01 0.01 0.00 0.01 0.00 0.00 0.00 0.00 0.00 0.00 0.00 0.01 0.01 0.00 0.00 0.00 0.01 0.01 0.01 0.01 0.01 0.01 0.01 0.03 0.01 0.01 0.01 0.01 0.01 0.01 0.01 0.02 0.06 0.14 0.19 0.20